<?xml version="1.0" encoding="UTF-8" standalone="no" ?>
<gpx xmlns="http://www.topografix.com/GPX/1/1" xmlns:xsi="http://www.w3.org/2001/XMLSchema-instance" xsi:schemaLocation="http://www.topografix.com/GPX/1/1 http://www.topografix.com/GPX/1/1/gpx.xsd" version="1.1" creator="VisuGPX - https://www.visugpx.com">
  <metadata>
    <name>20180525-col-des-Lèques-Brandis</name>
    <desc><![CDATA[En partant Denis chute dans le torrent avec son VTT. Un peu plus loin des abeilles agressives attaquent Nicole et Janine ! Le col des Lèques atteint, nous poursuivons sur un sentier vers la forêt de pins à crochets. Arrêt pique-nique avant de repartir vers le site des Siréniens. Retour sur la route par un sentier capricieux, arrêts aux clues. Montée au col de Brandis et retour : 38 km, 1000 m.]]></desc>
  </metadata>
  <trk>
    <name><![CDATA[20180525-095253-180119-x-MNT-F]]></name>
    <trkseg>
      <trkpt lat="43.83769" lon="6.49587">
        <ele>719</ele>
        <time>2018-05-25T07:52:53Z</time>
      </trkpt>
      <trkpt lat="43.83768" lon="6.49589">
        <ele>719</ele>
        <time>2018-05-25T07:52:56Z</time>
      </trkpt>
      <trkpt lat="43.83779" lon="6.49582">
        <ele>719</ele>
        <time>2018-05-25T07:53:04Z</time>
      </trkpt>
      <trkpt lat="43.8378" lon="6.49579">
        <ele>719</ele>
        <time>2018-05-25T07:53:05Z</time>
      </trkpt>
      <trkpt lat="43.83781" lon="6.49575">
        <ele>719</ele>
        <time>2018-05-25T07:53:06Z</time>
      </trkpt>
      <trkpt lat="43.83781" lon="6.49572">
        <ele>718</ele>
        <time>2018-05-25T07:53:07Z</time>
      </trkpt>
      <trkpt lat="43.8378" lon="6.49568">
        <ele>718</ele>
        <time>2018-05-25T07:53:08Z</time>
      </trkpt>
      <trkpt lat="43.8378" lon="6.49564">
        <ele>718</ele>
        <time>2018-05-25T07:53:09Z</time>
      </trkpt>
      <trkpt lat="43.8378" lon="6.4956">
        <ele>718</ele>
        <time>2018-05-25T07:53:10Z</time>
      </trkpt>
      <trkpt lat="43.83771" lon="6.49509">
        <ele>716</ele>
        <time>2018-05-25T07:53:24Z</time>
      </trkpt>
      <trkpt lat="43.83773" lon="6.49502">
        <ele>716</ele>
        <time>2018-05-25T07:53:26Z</time>
      </trkpt>
      <trkpt lat="43.83775" lon="6.49498">
        <ele>716</ele>
        <time>2018-05-25T07:53:28Z</time>
      </trkpt>
      <trkpt lat="43.83783" lon="6.49477">
        <ele>715</ele>
        <time>2018-05-25T07:53:35Z</time>
      </trkpt>
      <trkpt lat="43.83785" lon="6.49477">
        <ele>715</ele>
        <time>2018-05-25T07:53:36Z</time>
      </trkpt>
      <trkpt lat="43.83788" lon="6.49478">
        <ele>715</ele>
        <time>2018-05-25T07:53:37Z</time>
      </trkpt>
      <trkpt lat="43.8379" lon="6.49478">
        <ele>715</ele>
        <time>2018-05-25T07:53:38Z</time>
      </trkpt>
      <trkpt lat="43.83793" lon="6.49478">
        <ele>715</ele>
        <time>2018-05-25T07:53:39Z</time>
      </trkpt>
      <trkpt lat="43.83795" lon="6.49478">
        <ele>715</ele>
        <time>2018-05-25T07:53:40Z</time>
      </trkpt>
      <trkpt lat="43.83823" lon="6.49465">
        <ele>716</ele>
        <time>2018-05-25T07:53:53Z</time>
      </trkpt>
      <trkpt lat="43.83849" lon="6.49457">
        <ele>717</ele>
        <time>2018-05-25T07:54:08Z</time>
      </trkpt>
      <trkpt lat="43.83873" lon="6.49456">
        <ele>717</ele>
        <time>2018-05-25T07:54:21Z</time>
      </trkpt>
      <trkpt lat="43.83902" lon="6.49458">
        <ele>717</ele>
        <time>2018-05-25T07:54:34Z</time>
      </trkpt>
      <trkpt lat="43.83935" lon="6.4946">
        <ele>717</ele>
        <time>2018-05-25T07:54:48Z</time>
      </trkpt>
      <trkpt lat="43.83948" lon="6.49469">
        <ele>717</ele>
        <time>2018-05-25T07:54:58Z</time>
      </trkpt>
      <trkpt lat="43.83948" lon="6.4947">
        <ele>717</ele>
        <time>2018-05-25T07:54:59Z</time>
      </trkpt>
      <trkpt lat="43.83949" lon="6.49472">
        <ele>717</ele>
        <time>2018-05-25T07:55:00Z</time>
      </trkpt>
      <trkpt lat="43.83949" lon="6.49474">
        <ele>717</ele>
        <time>2018-05-25T07:55:01Z</time>
      </trkpt>
      <trkpt lat="43.83949" lon="6.49476">
        <ele>717</ele>
        <time>2018-05-25T07:55:02Z</time>
      </trkpt>
      <trkpt lat="43.8395" lon="6.49478">
        <ele>717</ele>
        <time>2018-05-25T07:55:03Z</time>
      </trkpt>
      <trkpt lat="43.8395" lon="6.49482">
        <ele>717</ele>
        <time>2018-05-25T07:55:04Z</time>
      </trkpt>
      <trkpt lat="43.8395" lon="6.49486">
        <ele>717</ele>
        <time>2018-05-25T07:55:05Z</time>
      </trkpt>
      <trkpt lat="43.83955" lon="6.49517">
        <ele>718</ele>
        <time>2018-05-25T07:55:16Z</time>
      </trkpt>
      <trkpt lat="43.83956" lon="6.49528">
        <ele>718</ele>
        <time>2018-05-25T07:55:29Z</time>
      </trkpt>
      <trkpt lat="43.83958" lon="6.49535">
        <ele>718</ele>
        <time>2018-05-25T07:55:39Z</time>
      </trkpt>
      <trkpt lat="43.83958" lon="6.49537">
        <ele>718</ele>
        <time>2018-05-25T07:55:40Z</time>
      </trkpt>
      <trkpt lat="43.83959" lon="6.49539">
        <ele>718</ele>
        <time>2018-05-25T07:55:41Z</time>
      </trkpt>
      <trkpt lat="43.83959" lon="6.49541">
        <ele>718</ele>
        <time>2018-05-25T07:55:42Z</time>
      </trkpt>
      <trkpt lat="43.8396" lon="6.49543">
        <ele>718</ele>
        <time>2018-05-25T07:55:43Z</time>
      </trkpt>
      <trkpt lat="43.83978" lon="6.49564">
        <ele>718</ele>
        <time>2018-05-25T07:55:54Z</time>
      </trkpt>
      <trkpt lat="43.8398" lon="6.4957">
        <ele>718</ele>
        <time>2018-05-25T07:55:56Z</time>
      </trkpt>
      <trkpt lat="43.83981" lon="6.49569">
        <ele>718</ele>
        <time>2018-05-25T07:56:05Z</time>
      </trkpt>
      <trkpt lat="43.83977" lon="6.49559">
        <ele>718</ele>
        <time>2018-05-25T07:56:09Z</time>
      </trkpt>
      <trkpt lat="43.83975" lon="6.49558">
        <ele>718</ele>
        <time>2018-05-25T07:56:10Z</time>
      </trkpt>
      <trkpt lat="43.83973" lon="6.49558">
        <ele>718</ele>
        <time>2018-05-25T07:56:11Z</time>
      </trkpt>
      <trkpt lat="43.8397" lon="6.49562">
        <ele>718</ele>
        <time>2018-05-25T07:56:14Z</time>
      </trkpt>
      <trkpt lat="43.83966" lon="6.49564">
        <ele>718</ele>
        <time>2018-05-25T07:56:16Z</time>
      </trkpt>
      <trkpt lat="43.83967" lon="6.49572">
        <ele>719</ele>
        <time>2018-05-25T07:56:20Z</time>
      </trkpt>
      <trkpt lat="43.83984" lon="6.49614">
        <ele>719</ele>
        <time>2018-05-25T07:56:37Z</time>
      </trkpt>
      <trkpt lat="43.83997" lon="6.49645">
        <ele>719</ele>
        <time>2018-05-25T07:56:49Z</time>
      </trkpt>
      <trkpt lat="43.84014" lon="6.49683">
        <ele>719</ele>
        <time>2018-05-25T07:57:03Z</time>
      </trkpt>
      <trkpt lat="43.8403" lon="6.49721">
        <ele>719</ele>
        <time>2018-05-25T07:57:17Z</time>
      </trkpt>
      <trkpt lat="43.8405" lon="6.49767">
        <ele>719</ele>
        <time>2018-05-25T07:57:35Z</time>
      </trkpt>
      <trkpt lat="43.8407" lon="6.49814">
        <ele>719</ele>
        <time>2018-05-25T07:57:50Z</time>
      </trkpt>
      <trkpt lat="43.84086" lon="6.49853">
        <ele>720</ele>
        <time>2018-05-25T07:58:02Z</time>
      </trkpt>
      <trkpt lat="43.841" lon="6.49885">
        <ele>720</ele>
        <time>2018-05-25T07:58:13Z</time>
      </trkpt>
      <trkpt lat="43.84117" lon="6.49925">
        <ele>719</ele>
        <time>2018-05-25T07:58:25Z</time>
      </trkpt>
      <trkpt lat="43.84139" lon="6.49975">
        <ele>719</ele>
        <time>2018-05-25T07:58:39Z</time>
      </trkpt>
      <trkpt lat="43.84159" lon="6.50024">
        <ele>719</ele>
        <time>2018-05-25T07:58:53Z</time>
      </trkpt>
      <trkpt lat="43.8418" lon="6.50067">
        <ele>719</ele>
        <time>2018-05-25T07:59:07Z</time>
      </trkpt>
      <trkpt lat="43.84198" lon="6.50111">
        <ele>719</ele>
        <time>2018-05-25T07:59:20Z</time>
      </trkpt>
      <trkpt lat="43.84221" lon="6.50162">
        <ele>719</ele>
        <time>2018-05-25T07:59:37Z</time>
      </trkpt>
      <trkpt lat="43.84235" lon="6.50194">
        <ele>719</ele>
        <time>2018-05-25T07:59:49Z</time>
      </trkpt>
      <trkpt lat="43.84253" lon="6.50236">
        <ele>719</ele>
        <time>2018-05-25T08:00:04Z</time>
      </trkpt>
      <trkpt lat="43.84271" lon="6.50276">
        <ele>719</ele>
        <time>2018-05-25T08:00:17Z</time>
      </trkpt>
      <trkpt lat="43.84289" lon="6.50319">
        <ele>719</ele>
        <time>2018-05-25T08:00:31Z</time>
      </trkpt>
      <trkpt lat="43.84306" lon="6.50365">
        <ele>719</ele>
        <time>2018-05-25T08:00:45Z</time>
      </trkpt>
      <trkpt lat="43.84318" lon="6.50392">
        <ele>719</ele>
        <time>2018-05-25T08:00:57Z</time>
      </trkpt>
      <trkpt lat="43.84319" lon="6.50393">
        <ele>719</ele>
        <time>2018-05-25T08:00:58Z</time>
      </trkpt>
      <trkpt lat="43.8432" lon="6.50395">
        <ele>719</ele>
        <time>2018-05-25T08:00:59Z</time>
      </trkpt>
      <trkpt lat="43.8432" lon="6.50397">
        <ele>719</ele>
        <time>2018-05-25T08:01:00Z</time>
      </trkpt>
      <trkpt lat="43.84321" lon="6.504">
        <ele>719</ele>
        <time>2018-05-25T08:01:01Z</time>
      </trkpt>
      <trkpt lat="43.84322" lon="6.50402">
        <ele>719</ele>
        <time>2018-05-25T08:01:02Z</time>
      </trkpt>
      <trkpt lat="43.84325" lon="6.50403">
        <ele>719</ele>
        <time>2018-05-25T08:01:04Z</time>
      </trkpt>
      <trkpt lat="43.84329" lon="6.50402">
        <ele>719</ele>
        <time>2018-05-25T08:01:05Z</time>
      </trkpt>
      <trkpt lat="43.84354" lon="6.50399">
        <ele>719</ele>
        <time>2018-05-25T08:01:18Z</time>
      </trkpt>
      <trkpt lat="43.8439" lon="6.50394">
        <ele>719</ele>
        <time>2018-05-25T08:01:31Z</time>
      </trkpt>
      <trkpt lat="43.84433" lon="6.50389">
        <ele>719</ele>
        <time>2018-05-25T08:01:46Z</time>
      </trkpt>
      <trkpt lat="43.84469" lon="6.50384">
        <ele>718</ele>
        <time>2018-05-25T08:02:00Z</time>
      </trkpt>
      <trkpt lat="43.84479" lon="6.50383">
        <ele>718</ele>
        <time>2018-05-25T08:02:06Z</time>
      </trkpt>
      <trkpt lat="43.84507" lon="6.50376">
        <ele>718</ele>
        <time>2018-05-25T08:02:18Z</time>
      </trkpt>
      <trkpt lat="43.84522" lon="6.5037">
        <ele>718</ele>
        <time>2018-05-25T08:02:28Z</time>
      </trkpt>
      <trkpt lat="43.84546" lon="6.50362">
        <ele>719</ele>
        <time>2018-05-25T08:02:41Z</time>
      </trkpt>
      <trkpt lat="43.84567" lon="6.50357">
        <ele>720</ele>
        <time>2018-05-25T08:02:54Z</time>
      </trkpt>
      <trkpt lat="43.84592" lon="6.50349">
        <ele>722</ele>
        <time>2018-05-25T08:03:06Z</time>
      </trkpt>
      <trkpt lat="43.84611" lon="6.50346">
        <ele>724</ele>
        <time>2018-05-25T08:03:16Z</time>
      </trkpt>
      <trkpt lat="43.84619" lon="6.50344">
        <ele>724</ele>
        <time>2018-05-25T08:03:20Z</time>
      </trkpt>
      <trkpt lat="43.84621" lon="6.50343">
        <ele>724</ele>
        <time>2018-05-25T08:03:21Z</time>
      </trkpt>
      <trkpt lat="43.84622" lon="6.50342">
        <ele>724</ele>
        <time>2018-05-25T08:03:22Z</time>
      </trkpt>
      <trkpt lat="43.84624" lon="6.50342">
        <ele>725</ele>
        <time>2018-05-25T08:03:23Z</time>
      </trkpt>
      <trkpt lat="43.84626" lon="6.50342">
        <ele>725</ele>
        <time>2018-05-25T08:03:24Z</time>
      </trkpt>
      <trkpt lat="43.84628" lon="6.50342">
        <ele>725</ele>
        <time>2018-05-25T08:03:25Z</time>
      </trkpt>
      <trkpt lat="43.84635" lon="6.50339">
        <ele>725</ele>
        <time>2018-05-25T08:03:32Z</time>
      </trkpt>
      <trkpt lat="43.84639" lon="6.50339">
        <ele>726</ele>
        <time>2018-05-25T08:03:34Z</time>
      </trkpt>
      <trkpt lat="43.84652" lon="6.50336">
        <ele>727</ele>
        <time>2018-05-25T08:03:48Z</time>
      </trkpt>
      <trkpt lat="43.84667" lon="6.5033">
        <ele>728</ele>
        <time>2018-05-25T08:04:01Z</time>
      </trkpt>
      <trkpt lat="43.84677" lon="6.50328">
        <ele>728</ele>
        <time>2018-05-25T08:04:15Z</time>
      </trkpt>
      <trkpt lat="43.8468" lon="6.50326">
        <ele>729</ele>
        <time>2018-05-25T08:04:31Z</time>
      </trkpt>
      <trkpt lat="43.84683" lon="6.50325">
        <ele>729</ele>
        <time>2018-05-25T08:05:01Z</time>
      </trkpt>
      <trkpt lat="43.84688" lon="6.50324">
        <ele>729</ele>
        <time>2018-05-25T08:05:14Z</time>
      </trkpt>
      <trkpt lat="43.8469" lon="6.50324">
        <ele>729</ele>
        <time>2018-05-25T08:05:15Z</time>
      </trkpt>
      <trkpt lat="43.84698" lon="6.50323">
        <ele>729</ele>
        <time>2018-05-25T08:05:27Z</time>
      </trkpt>
      <trkpt lat="43.84702" lon="6.50319">
        <ele>730</ele>
        <time>2018-05-25T08:05:38Z</time>
      </trkpt>
      <trkpt lat="43.84705" lon="6.50318">
        <ele>730</ele>
        <time>2018-05-25T08:05:41Z</time>
      </trkpt>
      <trkpt lat="43.84706" lon="6.50317">
        <ele>730</ele>
        <time>2018-05-25T08:05:42Z</time>
      </trkpt>
      <trkpt lat="43.84707" lon="6.50317">
        <ele>730</ele>
        <time>2018-05-25T08:05:43Z</time>
      </trkpt>
      <trkpt lat="43.84722" lon="6.50313">
        <ele>730</ele>
        <time>2018-05-25T08:05:58Z</time>
      </trkpt>
      <trkpt lat="43.84741" lon="6.50308">
        <ele>731</ele>
        <time>2018-05-25T08:06:08Z</time>
      </trkpt>
      <trkpt lat="43.84742" lon="6.50307">
        <ele>731</ele>
        <time>2018-05-25T08:06:09Z</time>
      </trkpt>
      <trkpt lat="43.84748" lon="6.50305">
        <ele>731</ele>
        <time>2018-05-25T08:06:15Z</time>
      </trkpt>
      <trkpt lat="43.84762" lon="6.503">
        <ele>731</ele>
        <time>2018-05-25T08:06:25Z</time>
      </trkpt>
      <trkpt lat="43.84763" lon="6.50299">
        <ele>731</ele>
        <time>2018-05-25T08:06:26Z</time>
      </trkpt>
      <trkpt lat="43.84762" lon="6.50296">
        <ele>731</ele>
        <time>2018-05-25T08:06:28Z</time>
      </trkpt>
      <trkpt lat="43.84762" lon="6.50294">
        <ele>731</ele>
        <time>2018-05-25T08:06:29Z</time>
      </trkpt>
      <trkpt lat="43.84762" lon="6.50292">
        <ele>731</ele>
        <time>2018-05-25T08:06:40Z</time>
      </trkpt>
      <trkpt lat="43.84757" lon="6.50289">
        <ele>731</ele>
        <time>2018-05-25T08:07:09Z</time>
      </trkpt>
      <trkpt lat="43.84754" lon="6.50285">
        <ele>731</ele>
        <time>2018-05-25T08:07:40Z</time>
      </trkpt>
      <trkpt lat="43.84756" lon="6.50287">
        <ele>731</ele>
        <time>2018-05-25T08:08:17Z</time>
      </trkpt>
      <trkpt lat="43.84756" lon="6.50287">
        <ele>731</ele>
        <time>2018-05-25T08:08:51Z</time>
      </trkpt>
      <trkpt lat="43.84756" lon="6.5029">
        <ele>731</ele>
        <time>2018-05-25T08:09:15Z</time>
      </trkpt>
      <trkpt lat="43.8476" lon="6.50291">
        <ele>731</ele>
        <time>2018-05-25T08:09:56Z</time>
      </trkpt>
      <trkpt lat="43.84756" lon="6.50293">
        <ele>731</ele>
        <time>2018-05-25T08:10:34Z</time>
      </trkpt>
      <trkpt lat="43.84755" lon="6.50292">
        <ele>731</ele>
        <time>2018-05-25T08:11:06Z</time>
      </trkpt>
      <trkpt lat="43.84756" lon="6.50293">
        <ele>731</ele>
        <time>2018-05-25T08:11:34Z</time>
      </trkpt>
      <trkpt lat="43.84757" lon="6.50291">
        <ele>731</ele>
        <time>2018-05-25T08:12:02Z</time>
      </trkpt>
      <trkpt lat="43.84758" lon="6.5029">
        <ele>731</ele>
        <time>2018-05-25T08:12:37Z</time>
      </trkpt>
      <trkpt lat="43.84758" lon="6.50291">
        <ele>731</ele>
        <time>2018-05-25T08:13:12Z</time>
      </trkpt>
      <trkpt lat="43.84758" lon="6.50292">
        <ele>731</ele>
        <time>2018-05-25T08:13:44Z</time>
      </trkpt>
      <trkpt lat="43.8476" lon="6.50292">
        <ele>731</ele>
        <time>2018-05-25T08:14:10Z</time>
      </trkpt>
      <trkpt lat="43.84763" lon="6.50293">
        <ele>731</ele>
        <time>2018-05-25T08:14:35Z</time>
      </trkpt>
      <trkpt lat="43.84763" lon="6.50296">
        <ele>731</ele>
        <time>2018-05-25T08:14:52Z</time>
      </trkpt>
      <trkpt lat="43.84763" lon="6.50296">
        <ele>731</ele>
        <time>2018-05-25T08:15:11Z</time>
      </trkpt>
      <trkpt lat="43.84764" lon="6.50299">
        <ele>731</ele>
        <time>2018-05-25T08:15:33Z</time>
      </trkpt>
      <trkpt lat="43.84764" lon="6.50302">
        <ele>731</ele>
        <time>2018-05-25T08:15:34Z</time>
      </trkpt>
      <trkpt lat="43.84765" lon="6.50307">
        <ele>732</ele>
        <time>2018-05-25T08:15:35Z</time>
      </trkpt>
      <trkpt lat="43.84766" lon="6.50318">
        <ele>732</ele>
        <time>2018-05-25T08:15:37Z</time>
      </trkpt>
      <trkpt lat="43.84768" lon="6.50337">
        <ele>732</ele>
        <time>2018-05-25T08:15:40Z</time>
      </trkpt>
      <trkpt lat="43.8477" lon="6.50344">
        <ele>732</ele>
        <time>2018-05-25T08:15:41Z</time>
      </trkpt>
      <trkpt lat="43.84773" lon="6.5035">
        <ele>732</ele>
        <time>2018-05-25T08:15:42Z</time>
      </trkpt>
      <trkpt lat="43.84778" lon="6.50361">
        <ele>732</ele>
        <time>2018-05-25T08:15:44Z</time>
      </trkpt>
      <trkpt lat="43.8478" lon="6.50366">
        <ele>732</ele>
        <time>2018-05-25T08:15:45Z</time>
      </trkpt>
      <trkpt lat="43.84781" lon="6.50371">
        <ele>732</ele>
        <time>2018-05-25T08:15:46Z</time>
      </trkpt>
      <trkpt lat="43.84777" lon="6.50377">
        <ele>732</ele>
        <time>2018-05-25T08:15:48Z</time>
      </trkpt>
      <trkpt lat="43.84772" lon="6.50379">
        <ele>732</ele>
        <time>2018-05-25T08:15:49Z</time>
      </trkpt>
      <trkpt lat="43.84767" lon="6.50381">
        <ele>732</ele>
        <time>2018-05-25T08:15:50Z</time>
      </trkpt>
      <trkpt lat="43.84763" lon="6.50382">
        <ele>731</ele>
        <time>2018-05-25T08:15:51Z</time>
      </trkpt>
      <trkpt lat="43.84758" lon="6.50383">
        <ele>731</ele>
        <time>2018-05-25T08:15:52Z</time>
      </trkpt>
      <trkpt lat="43.84753" lon="6.50383">
        <ele>731</ele>
        <time>2018-05-25T08:15:53Z</time>
      </trkpt>
      <trkpt lat="43.84749" lon="6.50384">
        <ele>730</ele>
        <time>2018-05-25T08:15:54Z</time>
      </trkpt>
      <trkpt lat="43.84744" lon="6.50385">
        <ele>730</ele>
        <time>2018-05-25T08:15:55Z</time>
      </trkpt>
      <trkpt lat="43.84734" lon="6.50387">
        <ele>730</ele>
        <time>2018-05-25T08:15:57Z</time>
      </trkpt>
      <trkpt lat="43.84684" lon="6.504">
        <ele>727</ele>
        <time>2018-05-25T08:16:07Z</time>
      </trkpt>
      <trkpt lat="43.84679" lon="6.504">
        <ele>727</ele>
        <time>2018-05-25T08:16:08Z</time>
      </trkpt>
      <trkpt lat="43.84674" lon="6.50399">
        <ele>726</ele>
        <time>2018-05-25T08:16:09Z</time>
      </trkpt>
      <trkpt lat="43.8467" lon="6.50396">
        <ele>726</ele>
        <time>2018-05-25T08:16:10Z</time>
      </trkpt>
      <trkpt lat="43.84666" lon="6.50393">
        <ele>726</ele>
        <time>2018-05-25T08:16:11Z</time>
      </trkpt>
      <trkpt lat="43.84662" lon="6.5039">
        <ele>726</ele>
        <time>2018-05-25T08:16:12Z</time>
      </trkpt>
      <trkpt lat="43.84657" lon="6.50387">
        <ele>725</ele>
        <time>2018-05-25T08:16:13Z</time>
      </trkpt>
      <trkpt lat="43.84653" lon="6.50385">
        <ele>725</ele>
        <time>2018-05-25T08:16:14Z</time>
      </trkpt>
      <trkpt lat="43.84648" lon="6.50385">
        <ele>725</ele>
        <time>2018-05-25T08:16:15Z</time>
      </trkpt>
      <trkpt lat="43.84643" lon="6.50385">
        <ele>725</ele>
        <time>2018-05-25T08:16:16Z</time>
      </trkpt>
      <trkpt lat="43.84639" lon="6.50387">
        <ele>724</ele>
        <time>2018-05-25T08:16:17Z</time>
      </trkpt>
      <trkpt lat="43.84634" lon="6.5039">
        <ele>724</ele>
        <time>2018-05-25T08:16:18Z</time>
      </trkpt>
      <trkpt lat="43.8463" lon="6.50393">
        <ele>724</ele>
        <time>2018-05-25T08:16:19Z</time>
      </trkpt>
      <trkpt lat="43.84625" lon="6.50397">
        <ele>724</ele>
        <time>2018-05-25T08:16:20Z</time>
      </trkpt>
      <trkpt lat="43.84558" lon="6.50473">
        <ele>720</ele>
        <time>2018-05-25T08:16:35Z</time>
      </trkpt>
      <trkpt lat="43.84538" lon="6.5049">
        <ele>719</ele>
        <time>2018-05-25T08:16:39Z</time>
      </trkpt>
      <trkpt lat="43.84534" lon="6.50492">
        <ele>719</ele>
        <time>2018-05-25T08:16:40Z</time>
      </trkpt>
      <trkpt lat="43.8453" lon="6.50493">
        <ele>719</ele>
        <time>2018-05-25T08:16:41Z</time>
      </trkpt>
      <trkpt lat="43.84526" lon="6.5049">
        <ele>719</ele>
        <time>2018-05-25T08:16:42Z</time>
      </trkpt>
      <trkpt lat="43.84524" lon="6.50488">
        <ele>719</ele>
        <time>2018-05-25T08:16:43Z</time>
      </trkpt>
      <trkpt lat="43.84522" lon="6.50484">
        <ele>719</ele>
        <time>2018-05-25T08:16:44Z</time>
      </trkpt>
      <trkpt lat="43.8452" lon="6.50479">
        <ele>719</ele>
        <time>2018-05-25T08:16:45Z</time>
      </trkpt>
      <trkpt lat="43.84488" lon="6.50398">
        <ele>718</ele>
        <time>2018-05-25T08:17:00Z</time>
      </trkpt>
      <trkpt lat="43.84486" lon="6.50392">
        <ele>718</ele>
        <time>2018-05-25T08:17:01Z</time>
      </trkpt>
      <trkpt lat="43.84483" lon="6.50388">
        <ele>718</ele>
        <time>2018-05-25T08:17:02Z</time>
      </trkpt>
      <trkpt lat="43.84479" lon="6.50386">
        <ele>718</ele>
        <time>2018-05-25T08:17:03Z</time>
      </trkpt>
      <trkpt lat="43.84467" lon="6.50385">
        <ele>718</ele>
        <time>2018-05-25T08:17:05Z</time>
      </trkpt>
      <trkpt lat="43.84462" lon="6.50386">
        <ele>718</ele>
        <time>2018-05-25T08:17:06Z</time>
      </trkpt>
      <trkpt lat="43.84367" lon="6.50398">
        <ele>719</ele>
        <time>2018-05-25T08:17:21Z</time>
      </trkpt>
      <trkpt lat="43.8432" lon="6.50402">
        <ele>719</ele>
        <time>2018-05-25T08:17:30Z</time>
      </trkpt>
      <trkpt lat="43.84317" lon="6.50396">
        <ele>719</ele>
        <time>2018-05-25T08:17:31Z</time>
      </trkpt>
      <trkpt lat="43.84316" lon="6.5039">
        <ele>719</ele>
        <time>2018-05-25T08:17:32Z</time>
      </trkpt>
      <trkpt lat="43.84314" lon="6.50385">
        <ele>719</ele>
        <time>2018-05-25T08:17:33Z</time>
      </trkpt>
      <trkpt lat="43.84311" lon="6.50378">
        <ele>719</ele>
        <time>2018-05-25T08:17:34Z</time>
      </trkpt>
      <trkpt lat="43.84272" lon="6.5029">
        <ele>719</ele>
        <time>2018-05-25T08:17:46Z</time>
      </trkpt>
      <trkpt lat="43.84224" lon="6.50179">
        <ele>719</ele>
        <time>2018-05-25T08:18:00Z</time>
      </trkpt>
      <trkpt lat="43.84173" lon="6.50058">
        <ele>719</ele>
        <time>2018-05-25T08:18:15Z</time>
      </trkpt>
      <trkpt lat="43.84149" lon="6.50003">
        <ele>719</ele>
        <time>2018-05-25T08:18:22Z</time>
      </trkpt>
      <trkpt lat="43.84101" lon="6.49891">
        <ele>720</ele>
        <time>2018-05-25T08:18:36Z</time>
      </trkpt>
      <trkpt lat="43.84046" lon="6.49764">
        <ele>719</ele>
        <time>2018-05-25T08:18:52Z</time>
      </trkpt>
      <trkpt lat="43.84" lon="6.49657">
        <ele>719</ele>
        <time>2018-05-25T08:19:07Z</time>
      </trkpt>
      <trkpt lat="43.83971" lon="6.49583">
        <ele>719</ele>
        <time>2018-05-25T08:19:18Z</time>
      </trkpt>
      <trkpt lat="43.83965" lon="6.49567">
        <ele>719</ele>
        <time>2018-05-25T08:19:21Z</time>
      </trkpt>
      <trkpt lat="43.83972" lon="6.49562">
        <ele>718</ele>
        <time>2018-05-25T08:19:25Z</time>
      </trkpt>
      <trkpt lat="43.83973" lon="6.49554">
        <ele>718</ele>
        <time>2018-05-25T08:19:28Z</time>
      </trkpt>
      <trkpt lat="43.83969" lon="6.49551">
        <ele>718</ele>
        <time>2018-05-25T08:19:29Z</time>
      </trkpt>
      <trkpt lat="43.83966" lon="6.49549">
        <ele>718</ele>
        <time>2018-05-25T08:19:30Z</time>
      </trkpt>
      <trkpt lat="43.83963" lon="6.49546">
        <ele>718</ele>
        <time>2018-05-25T08:19:31Z</time>
      </trkpt>
      <trkpt lat="43.8396" lon="6.49541">
        <ele>718</ele>
        <time>2018-05-25T08:19:32Z</time>
      </trkpt>
      <trkpt lat="43.83958" lon="6.49537">
        <ele>718</ele>
        <time>2018-05-25T08:19:33Z</time>
      </trkpt>
      <trkpt lat="43.83958" lon="6.49531">
        <ele>718</ele>
        <time>2018-05-25T08:19:34Z</time>
      </trkpt>
      <trkpt lat="43.83957" lon="6.49525">
        <ele>718</ele>
        <time>2018-05-25T08:19:35Z</time>
      </trkpt>
      <trkpt lat="43.83956" lon="6.49519">
        <ele>718</ele>
        <time>2018-05-25T08:19:36Z</time>
      </trkpt>
      <trkpt lat="43.83955" lon="6.49514">
        <ele>718</ele>
        <time>2018-05-25T08:19:37Z</time>
      </trkpt>
      <trkpt lat="43.83948" lon="6.49471">
        <ele>717</ele>
        <time>2018-05-25T08:19:46Z</time>
      </trkpt>
      <trkpt lat="43.83938" lon="6.49464">
        <ele>717</ele>
        <time>2018-05-25T08:19:49Z</time>
      </trkpt>
      <trkpt lat="43.83933" lon="6.49463">
        <ele>717</ele>
        <time>2018-05-25T08:19:50Z</time>
      </trkpt>
      <trkpt lat="43.83884" lon="6.49459">
        <ele>717</ele>
        <time>2018-05-25T08:20:00Z</time>
      </trkpt>
      <trkpt lat="43.83879" lon="6.49459">
        <ele>717</ele>
        <time>2018-05-25T08:20:01Z</time>
      </trkpt>
      <trkpt lat="43.83875" lon="6.49459">
        <ele>717</ele>
        <time>2018-05-25T08:20:02Z</time>
      </trkpt>
      <trkpt lat="43.8387" lon="6.49457">
        <ele>717</ele>
        <time>2018-05-25T08:20:03Z</time>
      </trkpt>
      <trkpt lat="43.83865" lon="6.49456">
        <ele>717</ele>
        <time>2018-05-25T08:20:04Z</time>
      </trkpt>
      <trkpt lat="43.83861" lon="6.49455">
        <ele>717</ele>
        <time>2018-05-25T08:20:05Z</time>
      </trkpt>
      <trkpt lat="43.83856" lon="6.49456">
        <ele>717</ele>
        <time>2018-05-25T08:20:06Z</time>
      </trkpt>
      <trkpt lat="43.83851" lon="6.49456">
        <ele>717</ele>
        <time>2018-05-25T08:20:07Z</time>
      </trkpt>
      <trkpt lat="43.83841" lon="6.49457">
        <ele>716</ele>
        <time>2018-05-25T08:20:09Z</time>
      </trkpt>
      <trkpt lat="43.83813" lon="6.4946">
        <ele>716</ele>
        <time>2018-05-25T08:20:14Z</time>
      </trkpt>
      <trkpt lat="43.83808" lon="6.49462">
        <ele>715</ele>
        <time>2018-05-25T08:20:15Z</time>
      </trkpt>
      <trkpt lat="43.83782" lon="6.49473">
        <ele>715</ele>
        <time>2018-05-25T08:20:20Z</time>
      </trkpt>
      <trkpt lat="43.83778" lon="6.49477">
        <ele>715</ele>
        <time>2018-05-25T08:20:21Z</time>
      </trkpt>
      <trkpt lat="43.83775" lon="6.49482">
        <ele>715</ele>
        <time>2018-05-25T08:20:22Z</time>
      </trkpt>
      <trkpt lat="43.83773" lon="6.49489">
        <ele>716</ele>
        <time>2018-05-25T08:20:23Z</time>
      </trkpt>
      <trkpt lat="43.8377" lon="6.49501">
        <ele>716</ele>
        <time>2018-05-25T08:20:25Z</time>
      </trkpt>
      <trkpt lat="43.83776" lon="6.49539">
        <ele>717</ele>
        <time>2018-05-25T08:20:32Z</time>
      </trkpt>
      <trkpt lat="43.8378" lon="6.49558">
        <ele>718</ele>
        <time>2018-05-25T08:20:35Z</time>
      </trkpt>
      <trkpt lat="43.8378" lon="6.49564">
        <ele>718</ele>
        <time>2018-05-25T08:20:36Z</time>
      </trkpt>
      <trkpt lat="43.83781" lon="6.49569">
        <ele>718</ele>
        <time>2018-05-25T08:20:37Z</time>
      </trkpt>
      <trkpt lat="43.83781" lon="6.49574">
        <ele>719</ele>
        <time>2018-05-25T08:20:38Z</time>
      </trkpt>
      <trkpt lat="43.8378" lon="6.49579">
        <ele>719</ele>
        <time>2018-05-25T08:20:39Z</time>
      </trkpt>
      <trkpt lat="43.83778" lon="6.49583">
        <ele>719</ele>
        <time>2018-05-25T08:20:40Z</time>
      </trkpt>
      <trkpt lat="43.83775" lon="6.49586">
        <ele>719</ele>
        <time>2018-05-25T08:20:41Z</time>
      </trkpt>
      <trkpt lat="43.83772" lon="6.49588">
        <ele>719</ele>
        <time>2018-05-25T08:20:42Z</time>
      </trkpt>
      <trkpt lat="43.8377" lon="6.49587">
        <ele>719</ele>
        <time>2018-05-25T08:20:43Z</time>
      </trkpt>
      <trkpt lat="43.83768" lon="6.49586">
        <ele>719</ele>
        <time>2018-05-25T08:20:44Z</time>
      </trkpt>
      <trkpt lat="43.83768" lon="6.49584">
        <ele>719</ele>
        <time>2018-05-25T08:20:45Z</time>
      </trkpt>
      <trkpt lat="43.83765" lon="6.49578">
        <ele>719</ele>
        <time>2018-05-25T08:20:58Z</time>
      </trkpt>
      <trkpt lat="43.83766" lon="6.49576">
        <ele>719</ele>
        <time>2018-05-25T08:21:43Z</time>
      </trkpt>
      <trkpt lat="43.83767" lon="6.49577">
        <ele>719</ele>
        <time>2018-05-25T08:22:11Z</time>
      </trkpt>
      <trkpt lat="43.83764" lon="6.49576">
        <ele>719</ele>
        <time>2018-05-25T08:22:39Z</time>
      </trkpt>
      <trkpt lat="43.83765" lon="6.4958">
        <ele>719</ele>
        <time>2018-05-25T08:22:52Z</time>
      </trkpt>
      <trkpt lat="43.83766" lon="6.49586">
        <ele>719</ele>
        <time>2018-05-25T08:22:56Z</time>
      </trkpt>
      <trkpt lat="43.83779" lon="6.4958">
        <ele>719</ele>
        <time>2018-05-25T08:23:05Z</time>
      </trkpt>
      <trkpt lat="43.83779" lon="6.49577">
        <ele>719</ele>
        <time>2018-05-25T08:23:06Z</time>
      </trkpt>
      <trkpt lat="43.83779" lon="6.49573">
        <ele>718</ele>
        <time>2018-05-25T08:23:07Z</time>
      </trkpt>
      <trkpt lat="43.83779" lon="6.49569">
        <ele>718</ele>
        <time>2018-05-25T08:23:08Z</time>
      </trkpt>
      <trkpt lat="43.83779" lon="6.49566">
        <ele>718</ele>
        <time>2018-05-25T08:23:09Z</time>
      </trkpt>
      <trkpt lat="43.83779" lon="6.49562">
        <ele>718</ele>
        <time>2018-05-25T08:23:10Z</time>
      </trkpt>
      <trkpt lat="43.83778" lon="6.49558">
        <ele>718</ele>
        <time>2018-05-25T08:23:11Z</time>
      </trkpt>
      <trkpt lat="43.83778" lon="6.49553">
        <ele>718</ele>
        <time>2018-05-25T08:23:12Z</time>
      </trkpt>
      <trkpt lat="43.83777" lon="6.49548">
        <ele>717</ele>
        <time>2018-05-25T08:23:13Z</time>
      </trkpt>
      <trkpt lat="43.83777" lon="6.49544">
        <ele>717</ele>
        <time>2018-05-25T08:23:14Z</time>
      </trkpt>
      <trkpt lat="43.83775" lon="6.4949">
        <ele>716</ele>
        <time>2018-05-25T08:23:26Z</time>
      </trkpt>
      <trkpt lat="43.838" lon="6.4947">
        <ele>715</ele>
        <time>2018-05-25T08:23:34Z</time>
      </trkpt>
      <trkpt lat="43.83832" lon="6.4946">
        <ele>716</ele>
        <time>2018-05-25T08:23:42Z</time>
      </trkpt>
      <trkpt lat="43.83881" lon="6.49458">
        <ele>717</ele>
        <time>2018-05-25T08:23:55Z</time>
      </trkpt>
      <trkpt lat="43.83885" lon="6.49458">
        <ele>717</ele>
        <time>2018-05-25T08:23:56Z</time>
      </trkpt>
      <trkpt lat="43.83939" lon="6.49461">
        <ele>717</ele>
        <time>2018-05-25T08:24:10Z</time>
      </trkpt>
      <trkpt lat="43.8395" lon="6.49473">
        <ele>717</ele>
        <time>2018-05-25T08:24:15Z</time>
      </trkpt>
      <trkpt lat="43.83951" lon="6.49477">
        <ele>717</ele>
        <time>2018-05-25T08:24:16Z</time>
      </trkpt>
      <trkpt lat="43.83951" lon="6.49482">
        <ele>717</ele>
        <time>2018-05-25T08:24:17Z</time>
      </trkpt>
      <trkpt lat="43.83951" lon="6.49487">
        <ele>717</ele>
        <time>2018-05-25T08:24:18Z</time>
      </trkpt>
      <trkpt lat="43.83952" lon="6.49494">
        <ele>717</ele>
        <time>2018-05-25T08:24:19Z</time>
      </trkpt>
      <trkpt lat="43.83953" lon="6.495">
        <ele>717</ele>
        <time>2018-05-25T08:24:20Z</time>
      </trkpt>
      <trkpt lat="43.83959" lon="6.49537">
        <ele>718</ele>
        <time>2018-05-25T08:24:26Z</time>
      </trkpt>
      <trkpt lat="43.83961" lon="6.49542">
        <ele>718</ele>
        <time>2018-05-25T08:24:27Z</time>
      </trkpt>
      <trkpt lat="43.83964" lon="6.49547">
        <ele>718</ele>
        <time>2018-05-25T08:24:28Z</time>
      </trkpt>
      <trkpt lat="43.83968" lon="6.4955">
        <ele>718</ele>
        <time>2018-05-25T08:24:29Z</time>
      </trkpt>
      <trkpt lat="43.83972" lon="6.49553">
        <ele>718</ele>
        <time>2018-05-25T08:24:30Z</time>
      </trkpt>
      <trkpt lat="43.83974" lon="6.49556">
        <ele>718</ele>
        <time>2018-05-25T08:24:31Z</time>
      </trkpt>
      <trkpt lat="43.83968" lon="6.49564">
        <ele>718</ele>
        <time>2018-05-25T08:24:36Z</time>
      </trkpt>
      <trkpt lat="43.8397" lon="6.49577">
        <ele>719</ele>
        <time>2018-05-25T08:24:40Z</time>
      </trkpt>
      <trkpt lat="43.84" lon="6.49648">
        <ele>719</ele>
        <time>2018-05-25T08:24:57Z</time>
      </trkpt>
      <trkpt lat="43.84025" lon="6.49706">
        <ele>719</ele>
        <time>2018-05-25T08:25:11Z</time>
      </trkpt>
      <trkpt lat="43.84052" lon="6.49771">
        <ele>719</ele>
        <time>2018-05-25T08:25:25Z</time>
      </trkpt>
      <trkpt lat="43.84094" lon="6.49871">
        <ele>720</ele>
        <time>2018-05-25T08:25:44Z</time>
      </trkpt>
      <trkpt lat="43.84129" lon="6.49952">
        <ele>720</ele>
        <time>2018-05-25T08:25:59Z</time>
      </trkpt>
      <trkpt lat="43.84167" lon="6.50039">
        <ele>719</ele>
        <time>2018-05-25T08:26:15Z</time>
      </trkpt>
      <trkpt lat="43.84174" lon="6.50055">
        <ele>719</ele>
        <time>2018-05-25T08:26:18Z</time>
      </trkpt>
      <trkpt lat="43.84176" lon="6.5006">
        <ele>719</ele>
        <time>2018-05-25T08:26:19Z</time>
      </trkpt>
      <trkpt lat="43.84178" lon="6.50065">
        <ele>719</ele>
        <time>2018-05-25T08:26:20Z</time>
      </trkpt>
      <trkpt lat="43.84182" lon="6.50072">
        <ele>719</ele>
        <time>2018-05-25T08:26:21Z</time>
      </trkpt>
      <trkpt lat="43.84183" lon="6.50075">
        <ele>719</ele>
        <time>2018-05-25T08:26:22Z</time>
      </trkpt>
      <trkpt lat="43.842" lon="6.50114">
        <ele>719</ele>
        <time>2018-05-25T08:26:29Z</time>
      </trkpt>
      <trkpt lat="43.84202" lon="6.5012">
        <ele>719</ele>
        <time>2018-05-25T08:26:30Z</time>
      </trkpt>
      <trkpt lat="43.84246" lon="6.50224">
        <ele>719</ele>
        <time>2018-05-25T08:26:48Z</time>
      </trkpt>
      <trkpt lat="43.84253" lon="6.50241">
        <ele>719</ele>
        <time>2018-05-25T08:26:51Z</time>
      </trkpt>
      <trkpt lat="43.84255" lon="6.50247">
        <ele>719</ele>
        <time>2018-05-25T08:26:52Z</time>
      </trkpt>
      <trkpt lat="43.84258" lon="6.50253">
        <ele>719</ele>
        <time>2018-05-25T08:26:53Z</time>
      </trkpt>
      <trkpt lat="43.84293" lon="6.50335">
        <ele>719</ele>
        <time>2018-05-25T08:27:09Z</time>
      </trkpt>
      <trkpt lat="43.84321" lon="6.50401">
        <ele>719</ele>
        <time>2018-05-25T08:27:24Z</time>
      </trkpt>
      <trkpt lat="43.84323" lon="6.50405">
        <ele>719</ele>
        <time>2018-05-25T08:27:25Z</time>
      </trkpt>
      <trkpt lat="43.84329" lon="6.50406">
        <ele>719</ele>
        <time>2018-05-25T08:27:27Z</time>
      </trkpt>
      <trkpt lat="43.84335" lon="6.50404">
        <ele>719</ele>
        <time>2018-05-25T08:27:28Z</time>
      </trkpt>
      <trkpt lat="43.84339" lon="6.50403">
        <ele>719</ele>
        <time>2018-05-25T08:27:29Z</time>
      </trkpt>
      <trkpt lat="43.84399" lon="6.50395">
        <ele>719</ele>
        <time>2018-05-25T08:27:45Z</time>
      </trkpt>
      <trkpt lat="43.8446" lon="6.50388">
        <ele>718</ele>
        <time>2018-05-25T08:28:02Z</time>
      </trkpt>
      <trkpt lat="43.84479" lon="6.50387">
        <ele>718</ele>
        <time>2018-05-25T08:28:08Z</time>
      </trkpt>
      <trkpt lat="43.84481" lon="6.50391">
        <ele>718</ele>
        <time>2018-05-25T08:28:10Z</time>
      </trkpt>
      <trkpt lat="43.84489" lon="6.50412">
        <ele>718</ele>
        <time>2018-05-25T08:28:14Z</time>
      </trkpt>
      <trkpt lat="43.84513" lon="6.50474">
        <ele>718</ele>
        <time>2018-05-25T08:28:26Z</time>
      </trkpt>
      <trkpt lat="43.84528" lon="6.50514">
        <ele>718</ele>
        <time>2018-05-25T08:28:37Z</time>
      </trkpt>
      <trkpt lat="43.84531" lon="6.50511">
        <ele>718</ele>
        <time>2018-05-25T08:28:38Z</time>
      </trkpt>
      <trkpt lat="43.84531" lon="6.50507">
        <ele>718</ele>
        <time>2018-05-25T08:28:39Z</time>
      </trkpt>
      <trkpt lat="43.84532" lon="6.50502">
        <ele>719</ele>
        <time>2018-05-25T08:28:40Z</time>
      </trkpt>
      <trkpt lat="43.84535" lon="6.50495">
        <ele>719</ele>
        <time>2018-05-25T08:28:42Z</time>
      </trkpt>
      <trkpt lat="43.84539" lon="6.5049">
        <ele>719</ele>
        <time>2018-05-25T08:28:43Z</time>
      </trkpt>
      <trkpt lat="43.84544" lon="6.50486">
        <ele>719</ele>
        <time>2018-05-25T08:28:44Z</time>
      </trkpt>
      <trkpt lat="43.84565" lon="6.50463">
        <ele>721</ele>
        <time>2018-05-25T08:28:49Z</time>
      </trkpt>
      <trkpt lat="43.84592" lon="6.50434">
        <ele>722</ele>
        <time>2018-05-25T08:28:56Z</time>
      </trkpt>
      <trkpt lat="43.84641" lon="6.50389">
        <ele>724</ele>
        <time>2018-05-25T08:29:10Z</time>
      </trkpt>
      <trkpt lat="43.84645" lon="6.50387">
        <ele>725</ele>
        <time>2018-05-25T08:29:11Z</time>
      </trkpt>
      <trkpt lat="43.8465" lon="6.50387">
        <ele>725</ele>
        <time>2018-05-25T08:29:12Z</time>
      </trkpt>
      <trkpt lat="43.84654" lon="6.50389">
        <ele>725</ele>
        <time>2018-05-25T08:29:13Z</time>
      </trkpt>
      <trkpt lat="43.84658" lon="6.50391">
        <ele>725</ele>
        <time>2018-05-25T08:29:14Z</time>
      </trkpt>
      <trkpt lat="43.84662" lon="6.50394">
        <ele>725</ele>
        <time>2018-05-25T08:29:15Z</time>
      </trkpt>
      <trkpt lat="43.84685" lon="6.50403">
        <ele>727</ele>
        <time>2018-05-25T08:29:21Z</time>
      </trkpt>
      <trkpt lat="43.84707" lon="6.50397">
        <ele>728</ele>
        <time>2018-05-25T08:29:26Z</time>
      </trkpt>
      <trkpt lat="43.84711" lon="6.50396">
        <ele>729</ele>
        <time>2018-05-25T08:29:27Z</time>
      </trkpt>
      <trkpt lat="43.84741" lon="6.50389">
        <ele>730</ele>
        <time>2018-05-25T08:29:34Z</time>
      </trkpt>
      <trkpt lat="43.84779" lon="6.50377">
        <ele>732</ele>
        <time>2018-05-25T08:29:45Z</time>
      </trkpt>
      <trkpt lat="43.84781" lon="6.50374">
        <ele>732</ele>
        <time>2018-05-25T08:29:46Z</time>
      </trkpt>
      <trkpt lat="43.8478" lon="6.50369">
        <ele>732</ele>
        <time>2018-05-25T08:29:47Z</time>
      </trkpt>
      <trkpt lat="43.84779" lon="6.50367">
        <ele>732</ele>
        <time>2018-05-25T08:29:48Z</time>
      </trkpt>
      <trkpt lat="43.84777" lon="6.50363">
        <ele>732</ele>
        <time>2018-05-25T08:29:49Z</time>
      </trkpt>
      <trkpt lat="43.84764" lon="6.50309">
        <ele>732</ele>
        <time>2018-05-25T08:30:04Z</time>
      </trkpt>
      <trkpt lat="43.84763" lon="6.50292">
        <ele>731</ele>
        <time>2018-05-25T08:30:14Z</time>
      </trkpt>
      <trkpt lat="43.84761" lon="6.50292">
        <ele>731</ele>
        <time>2018-05-25T08:30:23Z</time>
      </trkpt>
      <trkpt lat="43.84761" lon="6.50294">
        <ele>731</ele>
        <time>2018-05-25T08:30:24Z</time>
      </trkpt>
      <trkpt lat="43.84766" lon="6.50331">
        <ele>732</ele>
        <time>2018-05-25T08:30:31Z</time>
      </trkpt>
      <trkpt lat="43.84768" lon="6.50339">
        <ele>732</ele>
        <time>2018-05-25T08:30:32Z</time>
      </trkpt>
      <trkpt lat="43.8477" lon="6.50345">
        <ele>732</ele>
        <time>2018-05-25T08:30:33Z</time>
      </trkpt>
      <trkpt lat="43.84786" lon="6.50377">
        <ele>733</ele>
        <time>2018-05-25T08:30:38Z</time>
      </trkpt>
      <trkpt lat="43.8479" lon="6.5038">
        <ele>733</ele>
        <time>2018-05-25T08:30:39Z</time>
      </trkpt>
      <trkpt lat="43.84794" lon="6.50383">
        <ele>733</ele>
        <time>2018-05-25T08:30:40Z</time>
      </trkpt>
      <trkpt lat="43.848" lon="6.50396">
        <ele>735</ele>
        <time>2018-05-25T08:30:44Z</time>
      </trkpt>
      <trkpt lat="43.848" lon="6.50402">
        <ele>735</ele>
        <time>2018-05-25T08:30:45Z</time>
      </trkpt>
      <trkpt lat="43.848" lon="6.50405">
        <ele>735</ele>
        <time>2018-05-25T08:30:46Z</time>
      </trkpt>
      <trkpt lat="43.848" lon="6.50411">
        <ele>736</ele>
        <time>2018-05-25T08:30:47Z</time>
      </trkpt>
      <trkpt lat="43.848" lon="6.50416">
        <ele>736</ele>
        <time>2018-05-25T08:30:48Z</time>
      </trkpt>
      <trkpt lat="43.84799" lon="6.50517">
        <ele>738</ele>
        <time>2018-05-25T08:31:02Z</time>
      </trkpt>
      <trkpt lat="43.84814" lon="6.50635">
        <ele>737</ele>
        <time>2018-05-25T08:31:16Z</time>
      </trkpt>
      <trkpt lat="43.84814" lon="6.50643">
        <ele>737</ele>
        <time>2018-05-25T08:31:17Z</time>
      </trkpt>
      <trkpt lat="43.84825" lon="6.50765">
        <ele>736</ele>
        <time>2018-05-25T08:31:33Z</time>
      </trkpt>
      <trkpt lat="43.84825" lon="6.50841">
        <ele>736</ele>
        <time>2018-05-25T08:31:48Z</time>
      </trkpt>
      <trkpt lat="43.84817" lon="6.50933">
        <ele>735</ele>
        <time>2018-05-25T08:32:04Z</time>
      </trkpt>
      <trkpt lat="43.84811" lon="6.51019">
        <ele>733</ele>
        <time>2018-05-25T08:32:20Z</time>
      </trkpt>
      <trkpt lat="43.84813" lon="6.51057">
        <ele>734</ele>
        <time>2018-05-25T08:32:27Z</time>
      </trkpt>
      <trkpt lat="43.84816" lon="6.51059">
        <ele>734</ele>
        <time>2018-05-25T08:32:28Z</time>
      </trkpt>
      <trkpt lat="43.8482" lon="6.5106">
        <ele>735</ele>
        <time>2018-05-25T08:32:29Z</time>
      </trkpt>
      <trkpt lat="43.84824" lon="6.51057">
        <ele>735</ele>
        <time>2018-05-25T08:32:31Z</time>
      </trkpt>
      <trkpt lat="43.84826" lon="6.51053">
        <ele>736</ele>
        <time>2018-05-25T08:32:32Z</time>
      </trkpt>
      <trkpt lat="43.84828" lon="6.51049">
        <ele>736</ele>
        <time>2018-05-25T08:32:33Z</time>
      </trkpt>
      <trkpt lat="43.8483" lon="6.51046">
        <ele>736</ele>
        <time>2018-05-25T08:32:34Z</time>
      </trkpt>
      <trkpt lat="43.84832" lon="6.51043">
        <ele>736</ele>
        <time>2018-05-25T08:32:35Z</time>
      </trkpt>
      <trkpt lat="43.84856" lon="6.50994">
        <ele>737</ele>
        <time>2018-05-25T08:32:49Z</time>
      </trkpt>
      <trkpt lat="43.84888" lon="6.50935">
        <ele>740</ele>
        <time>2018-05-25T08:33:06Z</time>
      </trkpt>
      <trkpt lat="43.84935" lon="6.50902">
        <ele>741</ele>
        <time>2018-05-25T08:33:24Z</time>
      </trkpt>
      <trkpt lat="43.84973" lon="6.50882">
        <ele>742</ele>
        <time>2018-05-25T08:33:38Z</time>
      </trkpt>
      <trkpt lat="43.85016" lon="6.50861">
        <ele>743</ele>
        <time>2018-05-25T08:33:53Z</time>
      </trkpt>
      <trkpt lat="43.85066" lon="6.50834">
        <ele>746</ele>
        <time>2018-05-25T08:34:11Z</time>
      </trkpt>
      <trkpt lat="43.85125" lon="6.50808">
        <ele>745</ele>
        <time>2018-05-25T08:34:30Z</time>
      </trkpt>
      <trkpt lat="43.85141" lon="6.5081">
        <ele>746</ele>
        <time>2018-05-25T08:34:34Z</time>
      </trkpt>
      <trkpt lat="43.85156" lon="6.5081">
        <ele>747</ele>
        <time>2018-05-25T08:34:37Z</time>
      </trkpt>
      <trkpt lat="43.85159" lon="6.50809">
        <ele>747</ele>
        <time>2018-05-25T08:34:38Z</time>
      </trkpt>
      <trkpt lat="43.85163" lon="6.50807">
        <ele>746</ele>
        <time>2018-05-25T08:34:39Z</time>
      </trkpt>
      <trkpt lat="43.85167" lon="6.50802">
        <ele>746</ele>
        <time>2018-05-25T08:34:40Z</time>
      </trkpt>
      <trkpt lat="43.85169" lon="6.50796">
        <ele>746</ele>
        <time>2018-05-25T08:34:41Z</time>
      </trkpt>
      <trkpt lat="43.85171" lon="6.5079">
        <ele>747</ele>
        <time>2018-05-25T08:34:42Z</time>
      </trkpt>
      <trkpt lat="43.85175" lon="6.50778">
        <ele>747</ele>
        <time>2018-05-25T08:34:44Z</time>
      </trkpt>
      <trkpt lat="43.85178" lon="6.50772">
        <ele>747</ele>
        <time>2018-05-25T08:34:45Z</time>
      </trkpt>
      <trkpt lat="43.85181" lon="6.50767">
        <ele>747</ele>
        <time>2018-05-25T08:34:46Z</time>
      </trkpt>
      <trkpt lat="43.85212" lon="6.50716">
        <ele>749</ele>
        <time>2018-05-25T08:34:55Z</time>
      </trkpt>
      <trkpt lat="43.85263" lon="6.50603">
        <ele>748</ele>
        <time>2018-05-25T08:35:13Z</time>
      </trkpt>
      <trkpt lat="43.85311" lon="6.50494">
        <ele>746</ele>
        <time>2018-05-25T08:35:29Z</time>
      </trkpt>
      <trkpt lat="43.85314" lon="6.50488">
        <ele>746</ele>
        <time>2018-05-25T08:35:30Z</time>
      </trkpt>
      <trkpt lat="43.85362" lon="6.50382">
        <ele>744</ele>
        <time>2018-05-25T08:35:45Z</time>
      </trkpt>
      <trkpt lat="43.85406" lon="6.5028">
        <ele>744</ele>
        <time>2018-05-25T08:35:59Z</time>
      </trkpt>
      <trkpt lat="43.85432" lon="6.50225">
        <ele>744</ele>
        <time>2018-05-25T08:36:11Z</time>
      </trkpt>
      <trkpt lat="43.85432" lon="6.50221">
        <ele>744</ele>
        <time>2018-05-25T08:36:12Z</time>
      </trkpt>
      <trkpt lat="43.85434" lon="6.50218">
        <ele>744</ele>
        <time>2018-05-25T08:36:13Z</time>
      </trkpt>
      <trkpt lat="43.85437" lon="6.50216">
        <ele>744</ele>
        <time>2018-05-25T08:36:14Z</time>
      </trkpt>
      <trkpt lat="43.85439" lon="6.50214">
        <ele>744</ele>
        <time>2018-05-25T08:36:15Z</time>
      </trkpt>
      <trkpt lat="43.85438" lon="6.50212">
        <ele>744</ele>
        <time>2018-05-25T08:36:16Z</time>
      </trkpt>
      <trkpt lat="43.85436" lon="6.50213">
        <ele>744</ele>
        <time>2018-05-25T08:36:17Z</time>
      </trkpt>
      <trkpt lat="43.85435" lon="6.50215">
        <ele>744</ele>
        <time>2018-05-25T08:36:18Z</time>
      </trkpt>
      <trkpt lat="43.85431" lon="6.50221">
        <ele>744</ele>
        <time>2018-05-25T08:36:20Z</time>
      </trkpt>
      <trkpt lat="43.85427" lon="6.50228">
        <ele>744</ele>
        <time>2018-05-25T08:36:22Z</time>
      </trkpt>
      <trkpt lat="43.85424" lon="6.50235">
        <ele>744</ele>
        <time>2018-05-25T08:36:23Z</time>
      </trkpt>
      <trkpt lat="43.85415" lon="6.50248">
        <ele>744</ele>
        <time>2018-05-25T08:36:26Z</time>
      </trkpt>
      <trkpt lat="43.85412" lon="6.50251">
        <ele>744</ele>
        <time>2018-05-25T08:36:27Z</time>
      </trkpt>
      <trkpt lat="43.85406" lon="6.50254">
        <ele>744</ele>
        <time>2018-05-25T08:36:28Z</time>
      </trkpt>
      <trkpt lat="43.85404" lon="6.50255">
        <ele>744</ele>
        <time>2018-05-25T08:36:29Z</time>
      </trkpt>
      <trkpt lat="43.854" lon="6.50257">
        <ele>743</ele>
        <time>2018-05-25T08:36:30Z</time>
      </trkpt>
      <trkpt lat="43.85397" lon="6.50259">
        <ele>743</ele>
        <time>2018-05-25T08:36:31Z</time>
      </trkpt>
      <trkpt lat="43.85362" lon="6.50273">
        <ele>743</ele>
        <time>2018-05-25T08:36:43Z</time>
      </trkpt>
      <trkpt lat="43.85315" lon="6.5027">
        <ele>744</ele>
        <time>2018-05-25T08:36:57Z</time>
      </trkpt>
      <trkpt lat="43.85304" lon="6.50281">
        <ele>746</ele>
        <time>2018-05-25T08:37:03Z</time>
      </trkpt>
      <trkpt lat="43.85303" lon="6.50281">
        <ele>746</ele>
        <time>2018-05-25T08:37:04Z</time>
      </trkpt>
      <trkpt lat="43.85301" lon="6.50279">
        <ele>746</ele>
        <time>2018-05-25T08:37:05Z</time>
      </trkpt>
      <trkpt lat="43.85299" lon="6.50278">
        <ele>746</ele>
        <time>2018-05-25T08:37:06Z</time>
      </trkpt>
      <trkpt lat="43.85298" lon="6.50276">
        <ele>746</ele>
        <time>2018-05-25T08:37:07Z</time>
      </trkpt>
      <trkpt lat="43.85296" lon="6.50274">
        <ele>746</ele>
        <time>2018-05-25T08:37:08Z</time>
      </trkpt>
      <trkpt lat="43.85295" lon="6.50272">
        <ele>746</ele>
        <time>2018-05-25T08:37:09Z</time>
      </trkpt>
      <trkpt lat="43.85285" lon="6.50262">
        <ele>746</ele>
        <time>2018-05-25T08:37:20Z</time>
      </trkpt>
      <trkpt lat="43.85287" lon="6.50258">
        <ele>745</ele>
        <time>2018-05-25T08:37:58Z</time>
      </trkpt>
      <trkpt lat="43.85288" lon="6.50259">
        <ele>745</ele>
        <time>2018-05-25T08:38:23Z</time>
      </trkpt>
      <trkpt lat="43.85288" lon="6.50263">
        <ele>745</ele>
        <time>2018-05-25T08:38:54Z</time>
      </trkpt>
      <trkpt lat="43.8529" lon="6.50266">
        <ele>745</ele>
        <time>2018-05-25T08:38:58Z</time>
      </trkpt>
      <trkpt lat="43.85292" lon="6.50268">
        <ele>745</ele>
        <time>2018-05-25T08:38:59Z</time>
      </trkpt>
      <trkpt lat="43.85294" lon="6.5027">
        <ele>745</ele>
        <time>2018-05-25T08:39:00Z</time>
      </trkpt>
      <trkpt lat="43.85295" lon="6.50272">
        <ele>746</ele>
        <time>2018-05-25T08:39:01Z</time>
      </trkpt>
      <trkpt lat="43.85297" lon="6.50274">
        <ele>746</ele>
        <time>2018-05-25T08:39:02Z</time>
      </trkpt>
      <trkpt lat="43.85298" lon="6.50276">
        <ele>746</ele>
        <time>2018-05-25T08:39:03Z</time>
      </trkpt>
      <trkpt lat="43.853" lon="6.50278">
        <ele>746</ele>
        <time>2018-05-25T08:39:04Z</time>
      </trkpt>
      <trkpt lat="43.85302" lon="6.50279">
        <ele>746</ele>
        <time>2018-05-25T08:39:05Z</time>
      </trkpt>
      <trkpt lat="43.85304" lon="6.50279">
        <ele>745</ele>
        <time>2018-05-25T08:39:06Z</time>
      </trkpt>
      <trkpt lat="43.85306" lon="6.50278">
        <ele>745</ele>
        <time>2018-05-25T08:39:08Z</time>
      </trkpt>
      <trkpt lat="43.85307" lon="6.50277">
        <ele>745</ele>
        <time>2018-05-25T08:39:09Z</time>
      </trkpt>
      <trkpt lat="43.85309" lon="6.50275">
        <ele>745</ele>
        <time>2018-05-25T08:39:10Z</time>
      </trkpt>
      <trkpt lat="43.85311" lon="6.50273">
        <ele>744</ele>
        <time>2018-05-25T08:39:11Z</time>
      </trkpt>
      <trkpt lat="43.85314" lon="6.50272">
        <ele>744</ele>
        <time>2018-05-25T08:39:12Z</time>
      </trkpt>
      <trkpt lat="43.85347" lon="6.50272">
        <ele>743</ele>
        <time>2018-05-25T08:39:25Z</time>
      </trkpt>
      <trkpt lat="43.85375" lon="6.50271">
        <ele>743</ele>
        <time>2018-05-25T08:39:38Z</time>
      </trkpt>
      <trkpt lat="43.85404" lon="6.50257">
        <ele>744</ele>
        <time>2018-05-25T08:39:51Z</time>
      </trkpt>
      <trkpt lat="43.85407" lon="6.50258">
        <ele>744</ele>
        <time>2018-05-25T08:39:52Z</time>
      </trkpt>
      <trkpt lat="43.85409" lon="6.50259">
        <ele>744</ele>
        <time>2018-05-25T08:39:53Z</time>
      </trkpt>
      <trkpt lat="43.85412" lon="6.50258">
        <ele>744</ele>
        <time>2018-05-25T08:39:54Z</time>
      </trkpt>
      <trkpt lat="43.85414" lon="6.50256">
        <ele>744</ele>
        <time>2018-05-25T08:39:55Z</time>
      </trkpt>
      <trkpt lat="43.85417" lon="6.50253">
        <ele>744</ele>
        <time>2018-05-25T08:39:56Z</time>
      </trkpt>
      <trkpt lat="43.85419" lon="6.5025">
        <ele>744</ele>
        <time>2018-05-25T08:39:57Z</time>
      </trkpt>
      <trkpt lat="43.85421" lon="6.50247">
        <ele>744</ele>
        <time>2018-05-25T08:39:58Z</time>
      </trkpt>
      <trkpt lat="43.85423" lon="6.50243">
        <ele>744</ele>
        <time>2018-05-25T08:39:59Z</time>
      </trkpt>
      <trkpt lat="43.8546" lon="6.50186">
        <ele>745</ele>
        <time>2018-05-25T08:40:16Z</time>
      </trkpt>
      <trkpt lat="43.85496" lon="6.50143">
        <ele>745</ele>
        <time>2018-05-25T08:40:32Z</time>
      </trkpt>
      <trkpt lat="43.85525" lon="6.50102">
        <ele>745</ele>
        <time>2018-05-25T08:40:48Z</time>
      </trkpt>
      <trkpt lat="43.85558" lon="6.50055">
        <ele>746</ele>
        <time>2018-05-25T08:41:06Z</time>
      </trkpt>
      <trkpt lat="43.85576" lon="6.50002">
        <ele>748</ele>
        <time>2018-05-25T08:41:23Z</time>
      </trkpt>
      <trkpt lat="43.85579" lon="6.49928">
        <ele>751</ele>
        <time>2018-05-25T08:41:41Z</time>
      </trkpt>
      <trkpt lat="43.85582" lon="6.49843">
        <ele>754</ele>
        <time>2018-05-25T08:42:00Z</time>
      </trkpt>
      <trkpt lat="43.85585" lon="6.4975">
        <ele>757</ele>
        <time>2018-05-25T08:42:21Z</time>
      </trkpt>
      <trkpt lat="43.85589" lon="6.49672">
        <ele>761</ele>
        <time>2018-05-25T08:42:39Z</time>
      </trkpt>
      <trkpt lat="43.85594" lon="6.49598">
        <ele>763</ele>
        <time>2018-05-25T08:42:56Z</time>
      </trkpt>
      <trkpt lat="43.85625" lon="6.49563">
        <ele>767</ele>
        <time>2018-05-25T08:43:10Z</time>
      </trkpt>
      <trkpt lat="43.85674" lon="6.49566">
        <ele>771</ele>
        <time>2018-05-25T08:43:25Z</time>
      </trkpt>
      <trkpt lat="43.85718" lon="6.49558">
        <ele>770</ele>
        <time>2018-05-25T08:43:40Z</time>
      </trkpt>
      <trkpt lat="43.85751" lon="6.49522">
        <ele>776</ele>
        <time>2018-05-25T08:43:55Z</time>
      </trkpt>
      <trkpt lat="43.85786" lon="6.49517">
        <ele>775</ele>
        <time>2018-05-25T08:44:09Z</time>
      </trkpt>
      <trkpt lat="43.85824" lon="6.49512">
        <ele>777</ele>
        <time>2018-05-25T08:44:22Z</time>
      </trkpt>
      <trkpt lat="43.85865" lon="6.49501">
        <ele>783</ele>
        <time>2018-05-25T08:44:39Z</time>
      </trkpt>
      <trkpt lat="43.859" lon="6.495">
        <ele>785</ele>
        <time>2018-05-25T08:44:54Z</time>
      </trkpt>
      <trkpt lat="43.8593" lon="6.49501">
        <ele>787</ele>
        <time>2018-05-25T08:45:07Z</time>
      </trkpt>
      <trkpt lat="43.8597" lon="6.49504">
        <ele>791</ele>
        <time>2018-05-25T08:45:24Z</time>
      </trkpt>
      <trkpt lat="43.85994" lon="6.49506">
        <ele>794</ele>
        <time>2018-05-25T08:45:36Z</time>
      </trkpt>
      <trkpt lat="43.86027" lon="6.49519">
        <ele>795</ele>
        <time>2018-05-25T08:45:52Z</time>
      </trkpt>
      <trkpt lat="43.86057" lon="6.49546">
        <ele>789</ele>
        <time>2018-05-25T08:46:09Z</time>
      </trkpt>
      <trkpt lat="43.8607" lon="6.49544">
        <ele>790</ele>
        <time>2018-05-25T08:46:15Z</time>
      </trkpt>
      <trkpt lat="43.86071" lon="6.49542">
        <ele>791</ele>
        <time>2018-05-25T08:46:16Z</time>
      </trkpt>
      <trkpt lat="43.86069" lon="6.49534">
        <ele>793</ele>
        <time>2018-05-25T08:46:20Z</time>
      </trkpt>
      <trkpt lat="43.86067" lon="6.49535">
        <ele>793</ele>
        <time>2018-05-25T08:46:32Z</time>
      </trkpt>
      <trkpt lat="43.86067" lon="6.49535">
        <ele>793</ele>
        <time>2018-05-25T08:47:03Z</time>
      </trkpt>
      <trkpt lat="43.86067" lon="6.49538">
        <ele>792</ele>
        <time>2018-05-25T08:47:32Z</time>
      </trkpt>
      <trkpt lat="43.86066" lon="6.49537">
        <ele>792</ele>
        <time>2018-05-25T08:47:59Z</time>
      </trkpt>
      <trkpt lat="43.86067" lon="6.49539">
        <ele>792</ele>
        <time>2018-05-25T08:48:30Z</time>
      </trkpt>
      <trkpt lat="43.86066" lon="6.49538">
        <ele>792</ele>
        <time>2018-05-25T08:48:58Z</time>
      </trkpt>
      <trkpt lat="43.86067" lon="6.49537">
        <ele>792</ele>
        <time>2018-05-25T08:49:31Z</time>
      </trkpt>
      <trkpt lat="43.86065" lon="6.49537">
        <ele>792</ele>
        <time>2018-05-25T08:49:58Z</time>
      </trkpt>
      <trkpt lat="43.86066" lon="6.49537">
        <ele>792</ele>
        <time>2018-05-25T08:50:26Z</time>
      </trkpt>
      <trkpt lat="43.86066" lon="6.49538">
        <ele>792</ele>
        <time>2018-05-25T08:50:55Z</time>
      </trkpt>
      <trkpt lat="43.86066" lon="6.49539">
        <ele>792</ele>
        <time>2018-05-25T08:51:33Z</time>
      </trkpt>
      <trkpt lat="43.86066" lon="6.49537">
        <ele>792</ele>
        <time>2018-05-25T08:52:09Z</time>
      </trkpt>
      <trkpt lat="43.86066" lon="6.49535">
        <ele>793</ele>
        <time>2018-05-25T08:52:35Z</time>
      </trkpt>
      <trkpt lat="43.86066" lon="6.49536">
        <ele>792</ele>
        <time>2018-05-25T08:53:09Z</time>
      </trkpt>
      <trkpt lat="43.86066" lon="6.49534">
        <ele>793</ele>
        <time>2018-05-25T08:53:43Z</time>
      </trkpt>
      <trkpt lat="43.86067" lon="6.49533">
        <ele>793</ele>
        <time>2018-05-25T08:54:11Z</time>
      </trkpt>
      <trkpt lat="43.86067" lon="6.49532">
        <ele>794</ele>
        <time>2018-05-25T08:54:32Z</time>
      </trkpt>
      <trkpt lat="43.86067" lon="6.49533">
        <ele>793</ele>
        <time>2018-05-25T08:55:17Z</time>
      </trkpt>
      <trkpt lat="43.86068" lon="6.49532">
        <ele>793</ele>
        <time>2018-05-25T08:55:53Z</time>
      </trkpt>
      <trkpt lat="43.86068" lon="6.49531">
        <ele>794</ele>
        <time>2018-05-25T08:56:35Z</time>
      </trkpt>
      <trkpt lat="43.86067" lon="6.4953">
        <ele>794</ele>
        <time>2018-05-25T08:57:07Z</time>
      </trkpt>
      <trkpt lat="43.86066" lon="6.49531">
        <ele>794</ele>
        <time>2018-05-25T08:57:45Z</time>
      </trkpt>
      <trkpt lat="43.86066" lon="6.49531">
        <ele>794</ele>
        <time>2018-05-25T08:58:19Z</time>
      </trkpt>
      <trkpt lat="43.86067" lon="6.49534">
        <ele>793</ele>
        <time>2018-05-25T08:58:52Z</time>
      </trkpt>
      <trkpt lat="43.86067" lon="6.49535">
        <ele>793</ele>
        <time>2018-05-25T08:59:12Z</time>
      </trkpt>
      <trkpt lat="43.86067" lon="6.49537">
        <ele>792</ele>
        <time>2018-05-25T08:59:45Z</time>
      </trkpt>
      <trkpt lat="43.86068" lon="6.49534">
        <ele>793</ele>
        <time>2018-05-25T09:00:16Z</time>
      </trkpt>
      <trkpt lat="43.86066" lon="6.49537">
        <ele>792</ele>
        <time>2018-05-25T09:00:54Z</time>
      </trkpt>
      <trkpt lat="43.86067" lon="6.49536">
        <ele>792</ele>
        <time>2018-05-25T09:01:32Z</time>
      </trkpt>
      <trkpt lat="43.86067" lon="6.49534">
        <ele>793</ele>
        <time>2018-05-25T09:02:09Z</time>
      </trkpt>
      <trkpt lat="43.86067" lon="6.49536">
        <ele>792</ele>
        <time>2018-05-25T09:02:52Z</time>
      </trkpt>
      <trkpt lat="43.86066" lon="6.49536">
        <ele>792</ele>
        <time>2018-05-25T09:03:34Z</time>
      </trkpt>
      <trkpt lat="43.86068" lon="6.49534">
        <ele>793</ele>
        <time>2018-05-25T09:04:12Z</time>
      </trkpt>
      <trkpt lat="43.86067" lon="6.49532">
        <ele>794</ele>
        <time>2018-05-25T09:04:54Z</time>
      </trkpt>
      <trkpt lat="43.8607" lon="6.49535">
        <ele>793</ele>
        <time>2018-05-25T09:05:28Z</time>
      </trkpt>
      <trkpt lat="43.86066" lon="6.49534">
        <ele>793</ele>
        <time>2018-05-25T09:06:00Z</time>
      </trkpt>
      <trkpt lat="43.86068" lon="6.49535">
        <ele>793</ele>
        <time>2018-05-25T09:06:31Z</time>
      </trkpt>
      <trkpt lat="43.86068" lon="6.49534">
        <ele>793</ele>
        <time>2018-05-25T09:06:32Z</time>
      </trkpt>
      <trkpt lat="43.8607" lon="6.49536">
        <ele>793</ele>
        <time>2018-05-25T09:06:45Z</time>
      </trkpt>
      <trkpt lat="43.86072" lon="6.49538">
        <ele>792</ele>
        <time>2018-05-25T09:07:04Z</time>
      </trkpt>
      <trkpt lat="43.86073" lon="6.49538">
        <ele>792</ele>
        <time>2018-05-25T09:07:11Z</time>
      </trkpt>
      <trkpt lat="43.86074" lon="6.49543">
        <ele>791</ele>
        <time>2018-05-25T09:07:14Z</time>
      </trkpt>
      <trkpt lat="43.86075" lon="6.49545">
        <ele>790</ele>
        <time>2018-05-25T09:07:15Z</time>
      </trkpt>
      <trkpt lat="43.86076" lon="6.49547">
        <ele>790</ele>
        <time>2018-05-25T09:07:16Z</time>
      </trkpt>
      <trkpt lat="43.86076" lon="6.49549">
        <ele>789</ele>
        <time>2018-05-25T09:07:17Z</time>
      </trkpt>
      <trkpt lat="43.86078" lon="6.4955">
        <ele>789</ele>
        <time>2018-05-25T09:07:18Z</time>
      </trkpt>
      <trkpt lat="43.86079" lon="6.4955">
        <ele>788</ele>
        <time>2018-05-25T09:07:19Z</time>
      </trkpt>
      <trkpt lat="43.86081" lon="6.49551">
        <ele>788</ele>
        <time>2018-05-25T09:07:20Z</time>
      </trkpt>
      <trkpt lat="43.86082" lon="6.49551">
        <ele>788</ele>
        <time>2018-05-25T09:07:21Z</time>
      </trkpt>
      <trkpt lat="43.86084" lon="6.49551">
        <ele>788</ele>
        <time>2018-05-25T09:07:22Z</time>
      </trkpt>
      <trkpt lat="43.86086" lon="6.4955">
        <ele>788</ele>
        <time>2018-05-25T09:07:23Z</time>
      </trkpt>
      <trkpt lat="43.86087" lon="6.4955">
        <ele>788</ele>
        <time>2018-05-25T09:07:24Z</time>
      </trkpt>
      <trkpt lat="43.86102" lon="6.4952">
        <ele>795</ele>
        <time>2018-05-25T09:07:38Z</time>
      </trkpt>
      <trkpt lat="43.86094" lon="6.49477">
        <ele>807</ele>
        <time>2018-05-25T09:07:55Z</time>
      </trkpt>
      <trkpt lat="43.8609" lon="6.49472">
        <ele>809</ele>
        <time>2018-05-25T09:07:58Z</time>
      </trkpt>
      <trkpt lat="43.86089" lon="6.49471">
        <ele>809</ele>
        <time>2018-05-25T09:07:59Z</time>
      </trkpt>
      <trkpt lat="43.86065" lon="6.49463">
        <ele>811</ele>
        <time>2018-05-25T09:08:13Z</time>
      </trkpt>
      <trkpt lat="43.86042" lon="6.49454">
        <ele>813</ele>
        <time>2018-05-25T09:08:27Z</time>
      </trkpt>
      <trkpt lat="43.86011" lon="6.49452">
        <ele>814</ele>
        <time>2018-05-25T09:08:45Z</time>
      </trkpt>
      <trkpt lat="43.85985" lon="6.4945">
        <ele>814</ele>
        <time>2018-05-25T09:09:00Z</time>
      </trkpt>
      <trkpt lat="43.85961" lon="6.49439">
        <ele>818</ele>
        <time>2018-05-25T09:09:16Z</time>
      </trkpt>
      <trkpt lat="43.85941" lon="6.4943">
        <ele>822</ele>
        <time>2018-05-25T09:09:30Z</time>
      </trkpt>
      <trkpt lat="43.85917" lon="6.49422">
        <ele>823</ele>
        <time>2018-05-25T09:09:46Z</time>
      </trkpt>
      <trkpt lat="43.85894" lon="6.49417">
        <ele>822</ele>
        <time>2018-05-25T09:10:01Z</time>
      </trkpt>
      <trkpt lat="43.85867" lon="6.49406">
        <ele>823</ele>
        <time>2018-05-25T09:10:18Z</time>
      </trkpt>
      <trkpt lat="43.85851" lon="6.49386">
        <ele>823</ele>
        <time>2018-05-25T09:10:33Z</time>
      </trkpt>
      <trkpt lat="43.85855" lon="6.49353">
        <ele>829</ele>
        <time>2018-05-25T09:10:49Z</time>
      </trkpt>
      <trkpt lat="43.8587" lon="6.49327">
        <ele>833</ele>
        <time>2018-05-25T09:11:05Z</time>
      </trkpt>
      <trkpt lat="43.85888" lon="6.49299">
        <ele>839</ele>
        <time>2018-05-25T09:11:22Z</time>
      </trkpt>
      <trkpt lat="43.85903" lon="6.49272">
        <ele>841</ele>
        <time>2018-05-25T09:11:38Z</time>
      </trkpt>
      <trkpt lat="43.85915" lon="6.49235">
        <ele>841</ele>
        <time>2018-05-25T09:11:57Z</time>
      </trkpt>
      <trkpt lat="43.85933" lon="6.49201">
        <ele>841</ele>
        <time>2018-05-25T09:12:17Z</time>
      </trkpt>
      <trkpt lat="43.85961" lon="6.49171">
        <ele>846</ele>
        <time>2018-05-25T09:12:36Z</time>
      </trkpt>
      <trkpt lat="43.85983" lon="6.49154">
        <ele>851</ele>
        <time>2018-05-25T09:12:54Z</time>
      </trkpt>
      <trkpt lat="43.85997" lon="6.49135">
        <ele>852</ele>
        <time>2018-05-25T09:13:08Z</time>
      </trkpt>
      <trkpt lat="43.8601" lon="6.49108">
        <ele>857</ele>
        <time>2018-05-25T09:13:26Z</time>
      </trkpt>
      <trkpt lat="43.86009" lon="6.4909">
        <ele>857</ele>
        <time>2018-05-25T09:13:34Z</time>
      </trkpt>
      <trkpt lat="43.86007" lon="6.4908">
        <ele>856</ele>
        <time>2018-05-25T09:13:40Z</time>
      </trkpt>
      <trkpt lat="43.86005" lon="6.49069">
        <ele>856</ele>
        <time>2018-05-25T09:13:47Z</time>
      </trkpt>
      <trkpt lat="43.86001" lon="6.49033">
        <ele>856</ele>
        <time>2018-05-25T09:14:03Z</time>
      </trkpt>
      <trkpt lat="43.86003" lon="6.49002">
        <ele>858</ele>
        <time>2018-05-25T09:14:19Z</time>
      </trkpt>
      <trkpt lat="43.85993" lon="6.4897">
        <ele>854</ele>
        <time>2018-05-25T09:14:36Z</time>
      </trkpt>
      <trkpt lat="43.85986" lon="6.48944">
        <ele>852</ele>
        <time>2018-05-25T09:14:51Z</time>
      </trkpt>
      <trkpt lat="43.85987" lon="6.48941">
        <ele>853</ele>
        <time>2018-05-25T09:14:53Z</time>
      </trkpt>
      <trkpt lat="43.85993" lon="6.48937">
        <ele>855</ele>
        <time>2018-05-25T09:14:58Z</time>
      </trkpt>
      <trkpt lat="43.86002" lon="6.48938">
        <ele>860</ele>
        <time>2018-05-25T09:15:05Z</time>
      </trkpt>
      <trkpt lat="43.86012" lon="6.48966">
        <ele>864</ele>
        <time>2018-05-25T09:15:18Z</time>
      </trkpt>
      <trkpt lat="43.86016" lon="6.48999">
        <ele>867</ele>
        <time>2018-05-25T09:15:33Z</time>
      </trkpt>
      <trkpt lat="43.86016" lon="6.49032">
        <ele>865</ele>
        <time>2018-05-25T09:15:46Z</time>
      </trkpt>
      <trkpt lat="43.86023" lon="6.4907">
        <ele>867</ele>
        <time>2018-05-25T09:15:59Z</time>
      </trkpt>
      <trkpt lat="43.86038" lon="6.49113">
        <ele>875</ele>
        <time>2018-05-25T09:16:17Z</time>
      </trkpt>
      <trkpt lat="43.86027" lon="6.49148">
        <ele>873</ele>
        <time>2018-05-25T09:16:32Z</time>
      </trkpt>
      <trkpt lat="43.86003" lon="6.49169">
        <ele>868</ele>
        <time>2018-05-25T09:16:48Z</time>
      </trkpt>
      <trkpt lat="43.8599" lon="6.49202">
        <ele>870</ele>
        <time>2018-05-25T09:17:03Z</time>
      </trkpt>
      <trkpt lat="43.85971" lon="6.49242">
        <ele>870</ele>
        <time>2018-05-25T09:17:24Z</time>
      </trkpt>
      <trkpt lat="43.85969" lon="6.49271">
        <ele>867</ele>
        <time>2018-05-25T09:17:39Z</time>
      </trkpt>
      <trkpt lat="43.85973" lon="6.49285">
        <ele>866</ele>
        <time>2018-05-25T09:17:47Z</time>
      </trkpt>
      <trkpt lat="43.85979" lon="6.49288">
        <ele>867</ele>
        <time>2018-05-25T09:17:51Z</time>
      </trkpt>
      <trkpt lat="43.8598" lon="6.49288">
        <ele>867</ele>
        <time>2018-05-25T09:17:52Z</time>
      </trkpt>
      <trkpt lat="43.85982" lon="6.49288">
        <ele>867</ele>
        <time>2018-05-25T09:17:53Z</time>
      </trkpt>
      <trkpt lat="43.86008" lon="6.49278">
        <ele>874</ele>
        <time>2018-05-25T09:18:08Z</time>
      </trkpt>
      <trkpt lat="43.86038" lon="6.49267">
        <ele>878</ele>
        <time>2018-05-25T09:18:25Z</time>
      </trkpt>
      <trkpt lat="43.86061" lon="6.49268">
        <ele>880</ele>
        <time>2018-05-25T09:18:37Z</time>
      </trkpt>
      <trkpt lat="43.86095" lon="6.49275">
        <ele>882</ele>
        <time>2018-05-25T09:18:54Z</time>
      </trkpt>
      <trkpt lat="43.86136" lon="6.49278">
        <ele>886</ele>
        <time>2018-05-25T09:19:14Z</time>
      </trkpt>
      <trkpt lat="43.8617" lon="6.49286">
        <ele>884</ele>
        <time>2018-05-25T09:19:30Z</time>
      </trkpt>
      <trkpt lat="43.8621" lon="6.4927">
        <ele>888</ele>
        <time>2018-05-25T09:19:48Z</time>
      </trkpt>
      <trkpt lat="43.86242" lon="6.49254">
        <ele>891</ele>
        <time>2018-05-25T09:20:04Z</time>
      </trkpt>
      <trkpt lat="43.86272" lon="6.49237">
        <ele>895</ele>
        <time>2018-05-25T09:20:20Z</time>
      </trkpt>
      <trkpt lat="43.86301" lon="6.4923">
        <ele>893</ele>
        <time>2018-05-25T09:20:35Z</time>
      </trkpt>
      <trkpt lat="43.86333" lon="6.4921">
        <ele>895</ele>
        <time>2018-05-25T09:20:51Z</time>
      </trkpt>
      <trkpt lat="43.86364" lon="6.49181">
        <ele>898</ele>
        <time>2018-05-25T09:21:09Z</time>
      </trkpt>
      <trkpt lat="43.86392" lon="6.49155">
        <ele>902</ele>
        <time>2018-05-25T09:21:25Z</time>
      </trkpt>
      <trkpt lat="43.86406" lon="6.49143">
        <ele>904</ele>
        <time>2018-05-25T09:21:33Z</time>
      </trkpt>
      <trkpt lat="43.86408" lon="6.49143">
        <ele>904</ele>
        <time>2018-05-25T09:21:34Z</time>
      </trkpt>
      <trkpt lat="43.8641" lon="6.49142">
        <ele>903</ele>
        <time>2018-05-25T09:21:35Z</time>
      </trkpt>
      <trkpt lat="43.86413" lon="6.49142">
        <ele>903</ele>
        <time>2018-05-25T09:21:36Z</time>
      </trkpt>
      <trkpt lat="43.86414" lon="6.49142">
        <ele>903</ele>
        <time>2018-05-25T09:21:37Z</time>
      </trkpt>
      <trkpt lat="43.86416" lon="6.49141">
        <ele>903</ele>
        <time>2018-05-25T09:21:38Z</time>
      </trkpt>
      <trkpt lat="43.8645" lon="6.49128">
        <ele>906</ele>
        <time>2018-05-25T09:21:55Z</time>
      </trkpt>
      <trkpt lat="43.8648" lon="6.4912">
        <ele>909</ele>
        <time>2018-05-25T09:22:10Z</time>
      </trkpt>
      <trkpt lat="43.86514" lon="6.49117">
        <ele>911</ele>
        <time>2018-05-25T09:22:27Z</time>
      </trkpt>
      <trkpt lat="43.86542" lon="6.49122">
        <ele>913</ele>
        <time>2018-05-25T09:22:43Z</time>
      </trkpt>
      <trkpt lat="43.86569" lon="6.4913">
        <ele>914</ele>
        <time>2018-05-25T09:23:00Z</time>
      </trkpt>
      <trkpt lat="43.86571" lon="6.49131">
        <ele>914</ele>
        <time>2018-05-25T09:23:01Z</time>
      </trkpt>
      <trkpt lat="43.86575" lon="6.49131">
        <ele>915</ele>
        <time>2018-05-25T09:23:03Z</time>
      </trkpt>
      <trkpt lat="43.86594" lon="6.49139">
        <ele>916</ele>
        <time>2018-05-25T09:23:13Z</time>
      </trkpt>
      <trkpt lat="43.86595" lon="6.4914">
        <ele>915</ele>
        <time>2018-05-25T09:23:14Z</time>
      </trkpt>
      <trkpt lat="43.86597" lon="6.49141">
        <ele>915</ele>
        <time>2018-05-25T09:23:15Z</time>
      </trkpt>
      <trkpt lat="43.86598" lon="6.49142">
        <ele>915</ele>
        <time>2018-05-25T09:23:16Z</time>
      </trkpt>
      <trkpt lat="43.866" lon="6.49143">
        <ele>915</ele>
        <time>2018-05-25T09:23:17Z</time>
      </trkpt>
      <trkpt lat="43.86602" lon="6.49144">
        <ele>915</ele>
        <time>2018-05-25T09:23:18Z</time>
      </trkpt>
      <trkpt lat="43.86631" lon="6.49155">
        <ele>916</ele>
        <time>2018-05-25T09:23:35Z</time>
      </trkpt>
      <trkpt lat="43.86656" lon="6.49157">
        <ele>908</ele>
        <time>2018-05-25T09:23:50Z</time>
      </trkpt>
      <trkpt lat="43.8666" lon="6.49126">
        <ele>916</ele>
        <time>2018-05-25T09:24:03Z</time>
      </trkpt>
      <trkpt lat="43.86634" lon="6.49113">
        <ele>929</ele>
        <time>2018-05-25T09:24:18Z</time>
      </trkpt>
      <trkpt lat="43.86603" lon="6.49101">
        <ele>931</ele>
        <time>2018-05-25T09:24:35Z</time>
      </trkpt>
      <trkpt lat="43.8657" lon="6.4908">
        <ele>934</ele>
        <time>2018-05-25T09:24:55Z</time>
      </trkpt>
      <trkpt lat="43.86542" lon="6.49066">
        <ele>937</ele>
        <time>2018-05-25T09:25:10Z</time>
      </trkpt>
      <trkpt lat="43.8651" lon="6.49057">
        <ele>938</ele>
        <time>2018-05-25T09:25:27Z</time>
      </trkpt>
      <trkpt lat="43.86474" lon="6.49053">
        <ele>939</ele>
        <time>2018-05-25T09:25:47Z</time>
      </trkpt>
      <trkpt lat="43.86444" lon="6.49054">
        <ele>941</ele>
        <time>2018-05-25T09:26:03Z</time>
      </trkpt>
      <trkpt lat="43.86418" lon="6.49053">
        <ele>944</ele>
        <time>2018-05-25T09:26:17Z</time>
      </trkpt>
      <trkpt lat="43.86379" lon="6.49059">
        <ele>947</ele>
        <time>2018-05-25T09:26:38Z</time>
      </trkpt>
      <trkpt lat="43.86348" lon="6.49073">
        <ele>946</ele>
        <time>2018-05-25T09:26:56Z</time>
      </trkpt>
      <trkpt lat="43.86319" lon="6.49088">
        <ele>945</ele>
        <time>2018-05-25T09:27:13Z</time>
      </trkpt>
      <trkpt lat="43.86288" lon="6.49089">
        <ele>947</ele>
        <time>2018-05-25T09:27:29Z</time>
      </trkpt>
      <trkpt lat="43.86263" lon="6.49079">
        <ele>951</ele>
        <time>2018-05-25T09:27:43Z</time>
      </trkpt>
      <trkpt lat="43.86231" lon="6.49061">
        <ele>955</ele>
        <time>2018-05-25T09:27:59Z</time>
      </trkpt>
      <trkpt lat="43.86202" lon="6.49026">
        <ele>959</ele>
        <time>2018-05-25T09:28:18Z</time>
      </trkpt>
      <trkpt lat="43.8618" lon="6.48998">
        <ele>960</ele>
        <time>2018-05-25T09:28:33Z</time>
      </trkpt>
      <trkpt lat="43.86162" lon="6.48962">
        <ele>963</ele>
        <time>2018-05-25T09:28:50Z</time>
      </trkpt>
      <trkpt lat="43.86163" lon="6.48947">
        <ele>966</ele>
        <time>2018-05-25T09:28:56Z</time>
      </trkpt>
      <trkpt lat="43.86165" lon="6.48946">
        <ele>966</ele>
        <time>2018-05-25T09:28:57Z</time>
      </trkpt>
      <trkpt lat="43.86167" lon="6.48946">
        <ele>967</ele>
        <time>2018-05-25T09:28:58Z</time>
      </trkpt>
      <trkpt lat="43.86169" lon="6.48947">
        <ele>967</ele>
        <time>2018-05-25T09:28:59Z</time>
      </trkpt>
      <trkpt lat="43.8617" lon="6.48948">
        <ele>967</ele>
        <time>2018-05-25T09:29:00Z</time>
      </trkpt>
      <trkpt lat="43.86172" lon="6.4895">
        <ele>967</ele>
        <time>2018-05-25T09:29:01Z</time>
      </trkpt>
      <trkpt lat="43.86173" lon="6.48952">
        <ele>967</ele>
        <time>2018-05-25T09:29:02Z</time>
      </trkpt>
      <trkpt lat="43.86175" lon="6.48954">
        <ele>967</ele>
        <time>2018-05-25T09:29:03Z</time>
      </trkpt>
      <trkpt lat="43.86176" lon="6.48956">
        <ele>967</ele>
        <time>2018-05-25T09:29:04Z</time>
      </trkpt>
      <trkpt lat="43.86177" lon="6.48959">
        <ele>967</ele>
        <time>2018-05-25T09:29:05Z</time>
      </trkpt>
      <trkpt lat="43.86178" lon="6.48961">
        <ele>967</ele>
        <time>2018-05-25T09:29:06Z</time>
      </trkpt>
      <trkpt lat="43.86178" lon="6.48963">
        <ele>966</ele>
        <time>2018-05-25T09:29:07Z</time>
      </trkpt>
      <trkpt lat="43.86179" lon="6.48966">
        <ele>966</ele>
        <time>2018-05-25T09:29:08Z</time>
      </trkpt>
      <trkpt lat="43.86204" lon="6.48985">
        <ele>966</ele>
        <time>2018-05-25T09:29:23Z</time>
      </trkpt>
      <trkpt lat="43.86231" lon="6.48985">
        <ele>968</ele>
        <time>2018-05-25T09:29:38Z</time>
      </trkpt>
      <trkpt lat="43.86262" lon="6.4899">
        <ele>969</ele>
        <time>2018-05-25T09:29:55Z</time>
      </trkpt>
      <trkpt lat="43.8629" lon="6.48998">
        <ele>969</ele>
        <time>2018-05-25T09:30:10Z</time>
      </trkpt>
      <trkpt lat="43.86318" lon="6.4901">
        <ele>968</ele>
        <time>2018-05-25T09:30:26Z</time>
      </trkpt>
      <trkpt lat="43.8635" lon="6.49004">
        <ele>968</ele>
        <time>2018-05-25T09:30:44Z</time>
      </trkpt>
      <trkpt lat="43.86384" lon="6.48991">
        <ele>971</ele>
        <time>2018-05-25T09:31:03Z</time>
      </trkpt>
      <trkpt lat="43.86419" lon="6.48981">
        <ele>973</ele>
        <time>2018-05-25T09:31:23Z</time>
      </trkpt>
      <trkpt lat="43.86451" lon="6.48972">
        <ele>976</ele>
        <time>2018-05-25T09:31:41Z</time>
      </trkpt>
      <trkpt lat="43.8648" lon="6.48947">
        <ele>981</ele>
        <time>2018-05-25T09:32:00Z</time>
      </trkpt>
      <trkpt lat="43.86509" lon="6.48931">
        <ele>984</ele>
        <time>2018-05-25T09:32:18Z</time>
      </trkpt>
      <trkpt lat="43.86539" lon="6.48921">
        <ele>985</ele>
        <time>2018-05-25T09:32:35Z</time>
      </trkpt>
      <trkpt lat="43.86565" lon="6.48898">
        <ele>988</ele>
        <time>2018-05-25T09:32:53Z</time>
      </trkpt>
      <trkpt lat="43.86583" lon="6.4887">
        <ele>990</ele>
        <time>2018-05-25T09:33:07Z</time>
      </trkpt>
      <trkpt lat="43.86598" lon="6.48838">
        <ele>992</ele>
        <time>2018-05-25T09:33:21Z</time>
      </trkpt>
      <trkpt lat="43.86614" lon="6.48791">
        <ele>995</ele>
        <time>2018-05-25T09:33:40Z</time>
      </trkpt>
      <trkpt lat="43.86627" lon="6.48753">
        <ele>1001</ele>
        <time>2018-05-25T09:33:57Z</time>
      </trkpt>
      <trkpt lat="43.86659" lon="6.48744">
        <ele>1000</ele>
        <time>2018-05-25T09:34:15Z</time>
      </trkpt>
      <trkpt lat="43.86692" lon="6.48728">
        <ele>1001</ele>
        <time>2018-05-25T09:34:33Z</time>
      </trkpt>
      <trkpt lat="43.86721" lon="6.487">
        <ele>1002</ele>
        <time>2018-05-25T09:34:53Z</time>
      </trkpt>
      <trkpt lat="43.86744" lon="6.4867">
        <ele>1003</ele>
        <time>2018-05-25T09:35:11Z</time>
      </trkpt>
      <trkpt lat="43.86753" lon="6.4863">
        <ele>1003</ele>
        <time>2018-05-25T09:35:28Z</time>
      </trkpt>
      <trkpt lat="43.86731" lon="6.48607">
        <ele>1011</ele>
        <time>2018-05-25T09:35:45Z</time>
      </trkpt>
      <trkpt lat="43.86705" lon="6.4862">
        <ele>1016</ele>
        <time>2018-05-25T09:36:00Z</time>
      </trkpt>
      <trkpt lat="43.86676" lon="6.4864">
        <ele>1019</ele>
        <time>2018-05-25T09:36:17Z</time>
      </trkpt>
      <trkpt lat="43.86642" lon="6.48656">
        <ele>1021</ele>
        <time>2018-05-25T09:36:36Z</time>
      </trkpt>
      <trkpt lat="43.86641" lon="6.48655">
        <ele>1021</ele>
        <time>2018-05-25T09:36:37Z</time>
      </trkpt>
      <trkpt lat="43.8664" lon="6.48655">
        <ele>1022</ele>
        <time>2018-05-25T09:36:38Z</time>
      </trkpt>
      <trkpt lat="43.86638" lon="6.48656">
        <ele>1022</ele>
        <time>2018-05-25T09:36:39Z</time>
      </trkpt>
      <trkpt lat="43.86608" lon="6.48648">
        <ele>1025</ele>
        <time>2018-05-25T09:36:56Z</time>
      </trkpt>
      <trkpt lat="43.86574" lon="6.48636">
        <ele>1027</ele>
        <time>2018-05-25T09:37:16Z</time>
      </trkpt>
      <trkpt lat="43.86548" lon="6.48637">
        <ele>1029</ele>
        <time>2018-05-25T09:37:31Z</time>
      </trkpt>
      <trkpt lat="43.86532" lon="6.48668">
        <ele>1027</ele>
        <time>2018-05-25T09:37:45Z</time>
      </trkpt>
      <trkpt lat="43.8651" lon="6.48696">
        <ele>1028</ele>
        <time>2018-05-25T09:38:01Z</time>
      </trkpt>
      <trkpt lat="43.86472" lon="6.487">
        <ele>1031</ele>
        <time>2018-05-25T09:38:22Z</time>
      </trkpt>
      <trkpt lat="43.86444" lon="6.48684">
        <ele>1035</ele>
        <time>2018-05-25T09:38:39Z</time>
      </trkpt>
      <trkpt lat="43.8642" lon="6.48653">
        <ele>1040</ele>
        <time>2018-05-25T09:38:57Z</time>
      </trkpt>
      <trkpt lat="43.86399" lon="6.48622">
        <ele>1043</ele>
        <time>2018-05-25T09:39:15Z</time>
      </trkpt>
      <trkpt lat="43.86379" lon="6.48592">
        <ele>1045</ele>
        <time>2018-05-25T09:39:31Z</time>
      </trkpt>
      <trkpt lat="43.86355" lon="6.48575">
        <ele>1044</ele>
        <time>2018-05-25T09:39:44Z</time>
      </trkpt>
      <trkpt lat="43.86347" lon="6.48549">
        <ele>1044</ele>
        <time>2018-05-25T09:39:54Z</time>
      </trkpt>
      <trkpt lat="43.86369" lon="6.48548">
        <ele>1048</ele>
        <time>2018-05-25T09:40:06Z</time>
      </trkpt>
      <trkpt lat="43.86409" lon="6.48565">
        <ele>1050</ele>
        <time>2018-05-25T09:40:26Z</time>
      </trkpt>
      <trkpt lat="43.86439" lon="6.48557">
        <ele>1052</ele>
        <time>2018-05-25T09:40:42Z</time>
      </trkpt>
      <trkpt lat="43.86477" lon="6.48541">
        <ele>1052</ele>
        <time>2018-05-25T09:41:02Z</time>
      </trkpt>
      <trkpt lat="43.86501" lon="6.48524">
        <ele>1054</ele>
        <time>2018-05-25T09:41:16Z</time>
      </trkpt>
      <trkpt lat="43.86494" lon="6.48497">
        <ele>1060</ele>
        <time>2018-05-25T09:41:28Z</time>
      </trkpt>
      <trkpt lat="43.86466" lon="6.48507">
        <ele>1059</ele>
        <time>2018-05-25T09:41:41Z</time>
      </trkpt>
      <trkpt lat="43.8644" lon="6.48513">
        <ele>1059</ele>
        <time>2018-05-25T09:41:54Z</time>
      </trkpt>
      <trkpt lat="43.86417" lon="6.4849">
        <ele>1060</ele>
        <time>2018-05-25T09:42:09Z</time>
      </trkpt>
      <trkpt lat="43.86416" lon="6.48444">
        <ele>1066</ele>
        <time>2018-05-25T09:42:25Z</time>
      </trkpt>
      <trkpt lat="43.86405" lon="6.48409">
        <ele>1068</ele>
        <time>2018-05-25T09:42:39Z</time>
      </trkpt>
      <trkpt lat="43.86394" lon="6.48361">
        <ele>1069</ele>
        <time>2018-05-25T09:42:56Z</time>
      </trkpt>
      <trkpt lat="43.864" lon="6.48295">
        <ele>1074</ele>
        <time>2018-05-25T09:43:20Z</time>
      </trkpt>
      <trkpt lat="43.86409" lon="6.4824">
        <ele>1076</ele>
        <time>2018-05-25T09:43:40Z</time>
      </trkpt>
      <trkpt lat="43.86426" lon="6.48195">
        <ele>1076</ele>
        <time>2018-05-25T09:43:58Z</time>
      </trkpt>
      <trkpt lat="43.86454" lon="6.48163">
        <ele>1081</ele>
        <time>2018-05-25T09:44:15Z</time>
      </trkpt>
      <trkpt lat="43.8648" lon="6.48132">
        <ele>1087</ele>
        <time>2018-05-25T09:44:31Z</time>
      </trkpt>
      <trkpt lat="43.86499" lon="6.48078">
        <ele>1090</ele>
        <time>2018-05-25T09:44:49Z</time>
      </trkpt>
      <trkpt lat="43.86515" lon="6.48016">
        <ele>1091</ele>
        <time>2018-05-25T09:45:06Z</time>
      </trkpt>
      <trkpt lat="43.86524" lon="6.47958">
        <ele>1091</ele>
        <time>2018-05-25T09:45:23Z</time>
      </trkpt>
      <trkpt lat="43.86533" lon="6.47893">
        <ele>1093</ele>
        <time>2018-05-25T09:45:42Z</time>
      </trkpt>
      <trkpt lat="43.86535" lon="6.47837">
        <ele>1090</ele>
        <time>2018-05-25T09:45:59Z</time>
      </trkpt>
      <trkpt lat="43.86561" lon="6.47796">
        <ele>1095</ele>
        <time>2018-05-25T09:46:16Z</time>
      </trkpt>
      <trkpt lat="43.86601" lon="6.47752">
        <ele>1098</ele>
        <time>2018-05-25T09:46:37Z</time>
      </trkpt>
      <trkpt lat="43.86624" lon="6.4772">
        <ele>1098</ele>
        <time>2018-05-25T09:46:50Z</time>
      </trkpt>
      <trkpt lat="43.86653" lon="6.47675">
        <ele>1102</ele>
        <time>2018-05-25T09:47:06Z</time>
      </trkpt>
      <trkpt lat="43.86664" lon="6.47609">
        <ele>1103</ele>
        <time>2018-05-25T09:47:22Z</time>
      </trkpt>
      <trkpt lat="43.86674" lon="6.47524">
        <ele>1102</ele>
        <time>2018-05-25T09:47:43Z</time>
      </trkpt>
      <trkpt lat="43.86702" lon="6.47472">
        <ele>1106</ele>
        <time>2018-05-25T09:48:01Z</time>
      </trkpt>
      <trkpt lat="43.86728" lon="6.47425">
        <ele>1107</ele>
        <time>2018-05-25T09:48:18Z</time>
      </trkpt>
      <trkpt lat="43.86732" lon="6.47378">
        <ele>1106</ele>
        <time>2018-05-25T09:48:31Z</time>
      </trkpt>
      <trkpt lat="43.86741" lon="6.47334">
        <ele>1110</ele>
        <time>2018-05-25T09:48:45Z</time>
      </trkpt>
      <trkpt lat="43.86767" lon="6.4729">
        <ele>1117</ele>
        <time>2018-05-25T09:49:02Z</time>
      </trkpt>
      <trkpt lat="43.86796" lon="6.47236">
        <ele>1121</ele>
        <time>2018-05-25T09:49:21Z</time>
      </trkpt>
      <trkpt lat="43.86819" lon="6.47185">
        <ele>1118</ele>
        <time>2018-05-25T09:49:37Z</time>
      </trkpt>
      <trkpt lat="43.86845" lon="6.47154">
        <ele>1120</ele>
        <time>2018-05-25T09:49:50Z</time>
      </trkpt>
      <trkpt lat="43.86868" lon="6.47134">
        <ele>1124</ele>
        <time>2018-05-25T09:50:04Z</time>
      </trkpt>
      <trkpt lat="43.86867" lon="6.47132">
        <ele>1124</ele>
        <time>2018-05-25T09:50:18Z</time>
      </trkpt>
      <trkpt lat="43.86868" lon="6.47134">
        <ele>1124</ele>
        <time>2018-05-25T09:51:00Z</time>
      </trkpt>
      <trkpt lat="43.86868" lon="6.47133">
        <ele>1124</ele>
        <time>2018-05-25T09:51:06Z</time>
      </trkpt>
      <trkpt lat="43.86868" lon="6.4713">
        <ele>1124</ele>
        <time>2018-05-25T09:51:07Z</time>
      </trkpt>
      <trkpt lat="43.86869" lon="6.47128">
        <ele>1124</ele>
        <time>2018-05-25T09:51:08Z</time>
      </trkpt>
      <trkpt lat="43.86869" lon="6.47126">
        <ele>1124</ele>
        <time>2018-05-25T09:51:09Z</time>
      </trkpt>
      <trkpt lat="43.86869" lon="6.47123">
        <ele>1124</ele>
        <time>2018-05-25T09:51:10Z</time>
      </trkpt>
      <trkpt lat="43.8687" lon="6.47059">
        <ele>1121</ele>
        <time>2018-05-25T09:51:27Z</time>
      </trkpt>
      <trkpt lat="43.86886" lon="6.46993">
        <ele>1123</ele>
        <time>2018-05-25T09:51:45Z</time>
      </trkpt>
      <trkpt lat="43.86905" lon="6.46942">
        <ele>1127</ele>
        <time>2018-05-25T09:52:01Z</time>
      </trkpt>
      <trkpt lat="43.86895" lon="6.46885">
        <ele>1126</ele>
        <time>2018-05-25T09:52:16Z</time>
      </trkpt>
      <trkpt lat="43.86907" lon="6.46831">
        <ele>1127</ele>
        <time>2018-05-25T09:52:32Z</time>
      </trkpt>
      <trkpt lat="43.86891" lon="6.46783">
        <ele>1128</ele>
        <time>2018-05-25T09:52:47Z</time>
      </trkpt>
      <trkpt lat="43.86863" lon="6.46742">
        <ele>1130</ele>
        <time>2018-05-25T09:53:04Z</time>
      </trkpt>
      <trkpt lat="43.86825" lon="6.46735">
        <ele>1131</ele>
        <time>2018-05-25T09:53:21Z</time>
      </trkpt>
      <trkpt lat="43.86788" lon="6.4676">
        <ele>1128</ele>
        <time>2018-05-25T09:53:37Z</time>
      </trkpt>
      <trkpt lat="43.86751" lon="6.46761">
        <ele>1130</ele>
        <time>2018-05-25T09:53:53Z</time>
      </trkpt>
      <trkpt lat="43.86706" lon="6.46757">
        <ele>1133</ele>
        <time>2018-05-25T09:54:12Z</time>
      </trkpt>
      <trkpt lat="43.86698" lon="6.46759">
        <ele>1133</ele>
        <time>2018-05-25T09:54:15Z</time>
      </trkpt>
      <trkpt lat="43.86696" lon="6.46761">
        <ele>1133</ele>
        <time>2018-05-25T09:54:16Z</time>
      </trkpt>
      <trkpt lat="43.86656" lon="6.46785">
        <ele>1133</ele>
        <time>2018-05-25T09:54:33Z</time>
      </trkpt>
      <trkpt lat="43.86619" lon="6.46791">
        <ele>1133</ele>
        <time>2018-05-25T09:54:48Z</time>
      </trkpt>
      <trkpt lat="43.86597" lon="6.46756">
        <ele>1136</ele>
        <time>2018-05-25T09:55:02Z</time>
      </trkpt>
      <trkpt lat="43.86578" lon="6.46706">
        <ele>1139</ele>
        <time>2018-05-25T09:55:19Z</time>
      </trkpt>
      <trkpt lat="43.86552" lon="6.46675">
        <ele>1140</ele>
        <time>2018-05-25T09:55:33Z</time>
      </trkpt>
      <trkpt lat="43.86527" lon="6.4666">
        <ele>1140</ele>
        <time>2018-05-25T09:55:45Z</time>
      </trkpt>
      <trkpt lat="43.86525" lon="6.4666">
        <ele>1139</ele>
        <time>2018-05-25T09:55:46Z</time>
      </trkpt>
      <trkpt lat="43.86523" lon="6.4666">
        <ele>1139</ele>
        <time>2018-05-25T09:55:47Z</time>
      </trkpt>
      <trkpt lat="43.86522" lon="6.46658">
        <ele>1139</ele>
        <time>2018-05-25T09:55:48Z</time>
      </trkpt>
      <trkpt lat="43.8652" lon="6.46657">
        <ele>1139</ele>
        <time>2018-05-25T09:55:49Z</time>
      </trkpt>
      <trkpt lat="43.86518" lon="6.46655">
        <ele>1139</ele>
        <time>2018-05-25T09:55:50Z</time>
      </trkpt>
      <trkpt lat="43.86516" lon="6.46654">
        <ele>1139</ele>
        <time>2018-05-25T09:55:51Z</time>
      </trkpt>
      <trkpt lat="43.86515" lon="6.46653">
        <ele>1139</ele>
        <time>2018-05-25T09:55:52Z</time>
      </trkpt>
      <trkpt lat="43.86513" lon="6.46652">
        <ele>1139</ele>
        <time>2018-05-25T09:55:53Z</time>
      </trkpt>
      <trkpt lat="43.86498" lon="6.46618">
        <ele>1140</ele>
        <time>2018-05-25T09:56:06Z</time>
      </trkpt>
      <trkpt lat="43.86505" lon="6.46572">
        <ele>1142</ele>
        <time>2018-05-25T09:56:20Z</time>
      </trkpt>
      <trkpt lat="43.86523" lon="6.465">
        <ele>1144</ele>
        <time>2018-05-25T09:56:43Z</time>
      </trkpt>
      <trkpt lat="43.86546" lon="6.46448">
        <ele>1147</ele>
        <time>2018-05-25T09:57:02Z</time>
      </trkpt>
      <trkpt lat="43.86554" lon="6.46409">
        <ele>1148</ele>
        <time>2018-05-25T09:57:15Z</time>
      </trkpt>
      <trkpt lat="43.86556" lon="6.46408">
        <ele>1148</ele>
        <time>2018-05-25T09:57:16Z</time>
      </trkpt>
      <trkpt lat="43.86558" lon="6.46408">
        <ele>1148</ele>
        <time>2018-05-25T09:57:17Z</time>
      </trkpt>
      <trkpt lat="43.8656" lon="6.46409">
        <ele>1148</ele>
        <time>2018-05-25T09:57:18Z</time>
      </trkpt>
      <trkpt lat="43.86561" lon="6.4641">
        <ele>1149</ele>
        <time>2018-05-25T09:57:19Z</time>
      </trkpt>
      <trkpt lat="43.86583" lon="6.46437">
        <ele>1150</ele>
        <time>2018-05-25T09:57:34Z</time>
      </trkpt>
      <trkpt lat="43.86587" lon="6.46439">
        <ele>1151</ele>
        <time>2018-05-25T09:57:36Z</time>
      </trkpt>
      <trkpt lat="43.86592" lon="6.46437">
        <ele>1151</ele>
        <time>2018-05-25T09:57:45Z</time>
      </trkpt>
      <trkpt lat="43.86591" lon="6.46437">
        <ele>1151</ele>
        <time>2018-05-25T09:58:33Z</time>
      </trkpt>
      <trkpt lat="43.86591" lon="6.46437">
        <ele>1151</ele>
        <time>2018-05-25T09:59:05Z</time>
      </trkpt>
      <trkpt lat="43.86591" lon="6.46436">
        <ele>1151</ele>
        <time>2018-05-25T09:59:35Z</time>
      </trkpt>
      <trkpt lat="43.86591" lon="6.46438">
        <ele>1151</ele>
        <time>2018-05-25T10:00:12Z</time>
      </trkpt>
      <trkpt lat="43.8659" lon="6.46439">
        <ele>1151</ele>
        <time>2018-05-25T10:01:03Z</time>
      </trkpt>
      <trkpt lat="43.86592" lon="6.4644">
        <ele>1151</ele>
        <time>2018-05-25T10:01:53Z</time>
      </trkpt>
      <trkpt lat="43.86593" lon="6.4644">
        <ele>1151</ele>
        <time>2018-05-25T10:02:37Z</time>
      </trkpt>
      <trkpt lat="43.86592" lon="6.4644">
        <ele>1151</ele>
        <time>2018-05-25T10:03:19Z</time>
      </trkpt>
      <trkpt lat="43.86594" lon="6.46438">
        <ele>1151</ele>
        <time>2018-05-25T10:04:04Z</time>
      </trkpt>
      <trkpt lat="43.8659" lon="6.46441">
        <ele>1151</ele>
        <time>2018-05-25T10:04:52Z</time>
      </trkpt>
      <trkpt lat="43.86592" lon="6.46439">
        <ele>1151</ele>
        <time>2018-05-25T10:05:50Z</time>
      </trkpt>
      <trkpt lat="43.86591" lon="6.4644">
        <ele>1151</ele>
        <time>2018-05-25T10:06:51Z</time>
      </trkpt>
      <trkpt lat="43.86591" lon="6.46439">
        <ele>1151</ele>
        <time>2018-05-25T10:07:35Z</time>
      </trkpt>
      <trkpt lat="43.8659" lon="6.46438">
        <ele>1151</ele>
        <time>2018-05-25T10:08:16Z</time>
      </trkpt>
      <trkpt lat="43.8659" lon="6.46438">
        <ele>1151</ele>
        <time>2018-05-25T10:08:57Z</time>
      </trkpt>
      <trkpt lat="43.86589" lon="6.46439">
        <ele>1151</ele>
        <time>2018-05-25T10:09:39Z</time>
      </trkpt>
      <trkpt lat="43.8659" lon="6.46438">
        <ele>1151</ele>
        <time>2018-05-25T10:10:30Z</time>
      </trkpt>
      <trkpt lat="43.86592" lon="6.46438">
        <ele>1151</ele>
        <time>2018-05-25T10:11:25Z</time>
      </trkpt>
      <trkpt lat="43.8659" lon="6.4644">
        <ele>1151</ele>
        <time>2018-05-25T10:12:23Z</time>
      </trkpt>
      <trkpt lat="43.8659" lon="6.46438">
        <ele>1151</ele>
        <time>2018-05-25T10:13:05Z</time>
      </trkpt>
      <trkpt lat="43.8659" lon="6.46439">
        <ele>1151</ele>
        <time>2018-05-25T10:13:45Z</time>
      </trkpt>
      <trkpt lat="43.8659" lon="6.4644">
        <ele>1151</ele>
        <time>2018-05-25T10:14:32Z</time>
      </trkpt>
      <trkpt lat="43.8659" lon="6.46438">
        <ele>1151</ele>
        <time>2018-05-25T10:15:14Z</time>
      </trkpt>
      <trkpt lat="43.8659" lon="6.46438">
        <ele>1151</ele>
        <time>2018-05-25T10:16:02Z</time>
      </trkpt>
      <trkpt lat="43.86591" lon="6.46438">
        <ele>1151</ele>
        <time>2018-05-25T10:16:46Z</time>
      </trkpt>
      <trkpt lat="43.8659" lon="6.46438">
        <ele>1151</ele>
        <time>2018-05-25T10:17:29Z</time>
      </trkpt>
      <trkpt lat="43.86591" lon="6.46438">
        <ele>1151</ele>
        <time>2018-05-25T10:18:07Z</time>
      </trkpt>
      <trkpt lat="43.86592" lon="6.46436">
        <ele>1151</ele>
        <time>2018-05-25T10:18:42Z</time>
      </trkpt>
      <trkpt lat="43.86591" lon="6.46436">
        <ele>1151</ele>
        <time>2018-05-25T10:18:46Z</time>
      </trkpt>
      <trkpt lat="43.86588" lon="6.46434">
        <ele>1151</ele>
        <time>2018-05-25T10:18:48Z</time>
      </trkpt>
      <trkpt lat="43.86559" lon="6.46408">
        <ele>1148</ele>
        <time>2018-05-25T10:18:58Z</time>
      </trkpt>
      <trkpt lat="43.86552" lon="6.46406">
        <ele>1148</ele>
        <time>2018-05-25T10:19:01Z</time>
      </trkpt>
      <trkpt lat="43.86549" lon="6.46408">
        <ele>1148</ele>
        <time>2018-05-25T10:19:02Z</time>
      </trkpt>
      <trkpt lat="43.86547" lon="6.46411">
        <ele>1148</ele>
        <time>2018-05-25T10:19:03Z</time>
      </trkpt>
      <trkpt lat="43.86546" lon="6.46414">
        <ele>1147</ele>
        <time>2018-05-25T10:19:04Z</time>
      </trkpt>
      <trkpt lat="43.86544" lon="6.46418">
        <ele>1147</ele>
        <time>2018-05-25T10:19:05Z</time>
      </trkpt>
      <trkpt lat="43.86538" lon="6.46446">
        <ele>1146</ele>
        <time>2018-05-25T10:19:11Z</time>
      </trkpt>
      <trkpt lat="43.86537" lon="6.46451">
        <ele>1146</ele>
        <time>2018-05-25T10:19:12Z</time>
      </trkpt>
      <trkpt lat="43.86518" lon="6.46498">
        <ele>1144</ele>
        <time>2018-05-25T10:19:20Z</time>
      </trkpt>
      <trkpt lat="43.86496" lon="6.46599">
        <ele>1140</ele>
        <time>2018-05-25T10:19:34Z</time>
      </trkpt>
      <trkpt lat="43.86494" lon="6.46614">
        <ele>1140</ele>
        <time>2018-05-25T10:19:36Z</time>
      </trkpt>
      <trkpt lat="43.86494" lon="6.46622">
        <ele>1139</ele>
        <time>2018-05-25T10:19:37Z</time>
      </trkpt>
      <trkpt lat="43.86496" lon="6.4663">
        <ele>1139</ele>
        <time>2018-05-25T10:19:38Z</time>
      </trkpt>
      <trkpt lat="43.86498" lon="6.46637">
        <ele>1138</ele>
        <time>2018-05-25T10:19:39Z</time>
      </trkpt>
      <trkpt lat="43.86502" lon="6.46644">
        <ele>1139</ele>
        <time>2018-05-25T10:19:40Z</time>
      </trkpt>
      <trkpt lat="43.86506" lon="6.4665">
        <ele>1139</ele>
        <time>2018-05-25T10:19:41Z</time>
      </trkpt>
      <trkpt lat="43.86511" lon="6.46654">
        <ele>1139</ele>
        <time>2018-05-25T10:19:42Z</time>
      </trkpt>
      <trkpt lat="43.86517" lon="6.46658">
        <ele>1139</ele>
        <time>2018-05-25T10:19:43Z</time>
      </trkpt>
      <trkpt lat="43.86523" lon="6.46661">
        <ele>1139</ele>
        <time>2018-05-25T10:19:44Z</time>
      </trkpt>
      <trkpt lat="43.86563" lon="6.46691">
        <ele>1139</ele>
        <time>2018-05-25T10:19:50Z</time>
      </trkpt>
      <trkpt lat="43.86568" lon="6.46697">
        <ele>1139</ele>
        <time>2018-05-25T10:19:51Z</time>
      </trkpt>
      <trkpt lat="43.86573" lon="6.46706">
        <ele>1138</ele>
        <time>2018-05-25T10:19:52Z</time>
      </trkpt>
      <trkpt lat="43.86607" lon="6.46787">
        <ele>1133</ele>
        <time>2018-05-25T10:20:01Z</time>
      </trkpt>
      <trkpt lat="43.86611" lon="6.46792">
        <ele>1133</ele>
        <time>2018-05-25T10:20:02Z</time>
      </trkpt>
      <trkpt lat="43.86615" lon="6.46795">
        <ele>1133</ele>
        <time>2018-05-25T10:20:03Z</time>
      </trkpt>
      <trkpt lat="43.86619" lon="6.46797">
        <ele>1132</ele>
        <time>2018-05-25T10:20:04Z</time>
      </trkpt>
      <trkpt lat="43.86622" lon="6.46799">
        <ele>1132</ele>
        <time>2018-05-25T10:20:05Z</time>
      </trkpt>
      <trkpt lat="43.86625" lon="6.468">
        <ele>1132</ele>
        <time>2018-05-25T10:20:06Z</time>
      </trkpt>
      <trkpt lat="43.86628" lon="6.468">
        <ele>1132</ele>
        <time>2018-05-25T10:20:07Z</time>
      </trkpt>
      <trkpt lat="43.8663" lon="6.468">
        <ele>1133</ele>
        <time>2018-05-25T10:20:08Z</time>
      </trkpt>
      <trkpt lat="43.86632" lon="6.468">
        <ele>1133</ele>
        <time>2018-05-25T10:20:09Z</time>
      </trkpt>
      <trkpt lat="43.86634" lon="6.46799">
        <ele>1133</ele>
        <time>2018-05-25T10:20:10Z</time>
      </trkpt>
      <trkpt lat="43.86636" lon="6.46799">
        <ele>1133</ele>
        <time>2018-05-25T10:20:11Z</time>
      </trkpt>
      <trkpt lat="43.86638" lon="6.46798">
        <ele>1133</ele>
        <time>2018-05-25T10:20:12Z</time>
      </trkpt>
      <trkpt lat="43.86648" lon="6.46795">
        <ele>1133</ele>
        <time>2018-05-25T10:20:25Z</time>
      </trkpt>
      <trkpt lat="43.86654" lon="6.46787">
        <ele>1133</ele>
        <time>2018-05-25T10:20:48Z</time>
      </trkpt>
      <trkpt lat="43.86656" lon="6.46786">
        <ele>1133</ele>
        <time>2018-05-25T10:20:49Z</time>
      </trkpt>
      <trkpt lat="43.86658" lon="6.46785">
        <ele>1133</ele>
        <time>2018-05-25T10:20:50Z</time>
      </trkpt>
      <trkpt lat="43.86674" lon="6.46775">
        <ele>1133</ele>
        <time>2018-05-25T10:20:55Z</time>
      </trkpt>
      <trkpt lat="43.86682" lon="6.4677">
        <ele>1133</ele>
        <time>2018-05-25T10:20:57Z</time>
      </trkpt>
      <trkpt lat="43.86691" lon="6.46765">
        <ele>1133</ele>
        <time>2018-05-25T10:20:59Z</time>
      </trkpt>
      <trkpt lat="43.86701" lon="6.46761">
        <ele>1133</ele>
        <time>2018-05-25T10:21:01Z</time>
      </trkpt>
      <trkpt lat="43.86706" lon="6.4676">
        <ele>1133</ele>
        <time>2018-05-25T10:21:02Z</time>
      </trkpt>
      <trkpt lat="43.86717" lon="6.46759">
        <ele>1132</ele>
        <time>2018-05-25T10:21:04Z</time>
      </trkpt>
      <trkpt lat="43.8674" lon="6.46759">
        <ele>1131</ele>
        <time>2018-05-25T10:21:08Z</time>
      </trkpt>
      <trkpt lat="43.86745" lon="6.4676">
        <ele>1130</ele>
        <time>2018-05-25T10:21:09Z</time>
      </trkpt>
      <trkpt lat="43.86749" lon="6.46761">
        <ele>1130</ele>
        <time>2018-05-25T10:21:10Z</time>
      </trkpt>
      <trkpt lat="43.86753" lon="6.4676">
        <ele>1130</ele>
        <time>2018-05-25T10:21:11Z</time>
      </trkpt>
      <trkpt lat="43.86755" lon="6.46756">
        <ele>1130</ele>
        <time>2018-05-25T10:21:12Z</time>
      </trkpt>
      <trkpt lat="43.86756" lon="6.46753">
        <ele>1130</ele>
        <time>2018-05-25T10:21:13Z</time>
      </trkpt>
      <trkpt lat="43.86754" lon="6.46748">
        <ele>1131</ele>
        <time>2018-05-25T10:21:22Z</time>
      </trkpt>
      <trkpt lat="43.86754" lon="6.46742">
        <ele>1132</ele>
        <time>2018-05-25T10:21:36Z</time>
      </trkpt>
      <trkpt lat="43.86754" lon="6.46735">
        <ele>1133</ele>
        <time>2018-05-25T10:21:48Z</time>
      </trkpt>
      <trkpt lat="43.86754" lon="6.4673">
        <ele>1133</ele>
        <time>2018-05-25T10:22:10Z</time>
      </trkpt>
      <trkpt lat="43.86752" lon="6.46714">
        <ele>1135</ele>
        <time>2018-05-25T10:22:25Z</time>
      </trkpt>
      <trkpt lat="43.86747" lon="6.46697">
        <ele>1137</ele>
        <time>2018-05-25T10:22:42Z</time>
      </trkpt>
      <trkpt lat="43.86741" lon="6.46683">
        <ele>1139</ele>
        <time>2018-05-25T10:22:57Z</time>
      </trkpt>
      <trkpt lat="43.86743" lon="6.46677">
        <ele>1140</ele>
        <time>2018-05-25T10:23:13Z</time>
      </trkpt>
      <trkpt lat="43.86743" lon="6.46678">
        <ele>1139</ele>
        <time>2018-05-25T10:23:41Z</time>
      </trkpt>
      <trkpt lat="43.86742" lon="6.46678">
        <ele>1139</ele>
        <time>2018-05-25T10:24:08Z</time>
      </trkpt>
      <trkpt lat="43.86744" lon="6.46678">
        <ele>1140</ele>
        <time>2018-05-25T10:24:31Z</time>
      </trkpt>
      <trkpt lat="43.86745" lon="6.46679">
        <ele>1139</ele>
        <time>2018-05-25T10:25:01Z</time>
      </trkpt>
      <trkpt lat="43.86748" lon="6.46683">
        <ele>1139</ele>
        <time>2018-05-25T10:25:24Z</time>
      </trkpt>
      <trkpt lat="43.86749" lon="6.46683">
        <ele>1139</ele>
        <time>2018-05-25T10:25:53Z</time>
      </trkpt>
      <trkpt lat="43.86748" lon="6.46682">
        <ele>1139</ele>
        <time>2018-05-25T10:26:29Z</time>
      </trkpt>
      <trkpt lat="43.86748" lon="6.46683">
        <ele>1139</ele>
        <time>2018-05-25T10:26:58Z</time>
      </trkpt>
      <trkpt lat="43.86748" lon="6.46679">
        <ele>1139</ele>
        <time>2018-05-25T10:27:31Z</time>
      </trkpt>
      <trkpt lat="43.86748" lon="6.46681">
        <ele>1139</ele>
        <time>2018-05-25T10:28:13Z</time>
      </trkpt>
      <trkpt lat="43.86749" lon="6.46678">
        <ele>1140</ele>
        <time>2018-05-25T10:28:55Z</time>
      </trkpt>
      <trkpt lat="43.8675" lon="6.4668">
        <ele>1139</ele>
        <time>2018-05-25T10:29:08Z</time>
      </trkpt>
      <trkpt lat="43.8675" lon="6.4668">
        <ele>1140</ele>
        <time>2018-05-25T10:29:17Z</time>
      </trkpt>
      <trkpt lat="43.86746" lon="6.46679">
        <ele>1139</ele>
        <time>2018-05-25T10:29:32Z</time>
      </trkpt>
      <trkpt lat="43.86747" lon="6.4668">
        <ele>1139</ele>
        <time>2018-05-25T10:29:54Z</time>
      </trkpt>
      <trkpt lat="43.86747" lon="6.46679">
        <ele>1140</ele>
        <time>2018-05-25T10:30:15Z</time>
      </trkpt>
      <trkpt lat="43.86748" lon="6.4668">
        <ele>1139</ele>
        <time>2018-05-25T10:30:17Z</time>
      </trkpt>
      <trkpt lat="43.8675" lon="6.4668">
        <ele>1139</ele>
        <time>2018-05-25T10:30:18Z</time>
      </trkpt>
      <trkpt lat="43.86752" lon="6.46681">
        <ele>1139</ele>
        <time>2018-05-25T10:30:20Z</time>
      </trkpt>
      <trkpt lat="43.86774" lon="6.46685">
        <ele>1139</ele>
        <time>2018-05-25T10:30:33Z</time>
      </trkpt>
      <trkpt lat="43.86786" lon="6.46682">
        <ele>1141</ele>
        <time>2018-05-25T10:30:44Z</time>
      </trkpt>
      <trkpt lat="43.86803" lon="6.46677">
        <ele>1143</ele>
        <time>2018-05-25T10:31:01Z</time>
      </trkpt>
      <trkpt lat="43.86812" lon="6.46673">
        <ele>1144</ele>
        <time>2018-05-25T10:31:10Z</time>
      </trkpt>
      <trkpt lat="43.86827" lon="6.4667">
        <ele>1145</ele>
        <time>2018-05-25T10:31:25Z</time>
      </trkpt>
      <trkpt lat="43.86834" lon="6.46669">
        <ele>1145</ele>
        <time>2018-05-25T10:31:31Z</time>
      </trkpt>
      <trkpt lat="43.86835" lon="6.46669">
        <ele>1145</ele>
        <time>2018-05-25T10:31:32Z</time>
      </trkpt>
      <trkpt lat="43.86836" lon="6.46669">
        <ele>1145</ele>
        <time>2018-05-25T10:31:33Z</time>
      </trkpt>
      <trkpt lat="43.86837" lon="6.46669">
        <ele>1145</ele>
        <time>2018-05-25T10:31:34Z</time>
      </trkpt>
      <trkpt lat="43.86855" lon="6.46666">
        <ele>1145</ele>
        <time>2018-05-25T10:31:50Z</time>
      </trkpt>
      <trkpt lat="43.86878" lon="6.46646">
        <ele>1149</ele>
        <time>2018-05-25T10:32:05Z</time>
      </trkpt>
      <trkpt lat="43.86897" lon="6.46624">
        <ele>1151</ele>
        <time>2018-05-25T10:32:21Z</time>
      </trkpt>
      <trkpt lat="43.86898" lon="6.46615">
        <ele>1152</ele>
        <time>2018-05-25T10:32:27Z</time>
      </trkpt>
      <trkpt lat="43.86895" lon="6.46613">
        <ele>1153</ele>
        <time>2018-05-25T10:32:30Z</time>
      </trkpt>
      <trkpt lat="43.86895" lon="6.46612">
        <ele>1153</ele>
        <time>2018-05-25T10:32:31Z</time>
      </trkpt>
      <trkpt lat="43.86895" lon="6.4661">
        <ele>1153</ele>
        <time>2018-05-25T10:32:32Z</time>
      </trkpt>
      <trkpt lat="43.86897" lon="6.46608">
        <ele>1153</ele>
        <time>2018-05-25T10:32:34Z</time>
      </trkpt>
      <trkpt lat="43.86898" lon="6.46607">
        <ele>1153</ele>
        <time>2018-05-25T10:32:35Z</time>
      </trkpt>
      <trkpt lat="43.86899" lon="6.46607">
        <ele>1153</ele>
        <time>2018-05-25T10:32:36Z</time>
      </trkpt>
      <trkpt lat="43.869" lon="6.46606">
        <ele>1153</ele>
        <time>2018-05-25T10:32:37Z</time>
      </trkpt>
      <trkpt lat="43.86901" lon="6.46606">
        <ele>1153</ele>
        <time>2018-05-25T10:32:38Z</time>
      </trkpt>
      <trkpt lat="43.86902" lon="6.46606">
        <ele>1153</ele>
        <time>2018-05-25T10:32:39Z</time>
      </trkpt>
      <trkpt lat="43.86904" lon="6.46606">
        <ele>1153</ele>
        <time>2018-05-25T10:32:40Z</time>
      </trkpt>
      <trkpt lat="43.86905" lon="6.46606">
        <ele>1153</ele>
        <time>2018-05-25T10:32:41Z</time>
      </trkpt>
      <trkpt lat="43.86906" lon="6.46606">
        <ele>1153</ele>
        <time>2018-05-25T10:32:42Z</time>
      </trkpt>
      <trkpt lat="43.86908" lon="6.46607">
        <ele>1153</ele>
        <time>2018-05-25T10:32:44Z</time>
      </trkpt>
      <trkpt lat="43.86923" lon="6.46588">
        <ele>1154</ele>
        <time>2018-05-25T10:32:57Z</time>
      </trkpt>
      <trkpt lat="43.86937" lon="6.46562">
        <ele>1157</ele>
        <time>2018-05-25T10:33:14Z</time>
      </trkpt>
      <trkpt lat="43.86941" lon="6.4655">
        <ele>1158</ele>
        <time>2018-05-25T10:33:21Z</time>
      </trkpt>
      <trkpt lat="43.86948" lon="6.46533">
        <ele>1159</ele>
        <time>2018-05-25T10:33:33Z</time>
      </trkpt>
      <trkpt lat="43.8696" lon="6.46506">
        <ele>1162</ele>
        <time>2018-05-25T10:33:52Z</time>
      </trkpt>
      <trkpt lat="43.86964" lon="6.46497">
        <ele>1163</ele>
        <time>2018-05-25T10:34:01Z</time>
      </trkpt>
      <trkpt lat="43.86958" lon="6.46491">
        <ele>1163</ele>
        <time>2018-05-25T10:34:06Z</time>
      </trkpt>
      <trkpt lat="43.86952" lon="6.46489">
        <ele>1162</ele>
        <time>2018-05-25T10:34:11Z</time>
      </trkpt>
      <trkpt lat="43.86949" lon="6.46479">
        <ele>1163</ele>
        <time>2018-05-25T10:34:18Z</time>
      </trkpt>
      <trkpt lat="43.86954" lon="6.46467">
        <ele>1164</ele>
        <time>2018-05-25T10:34:27Z</time>
      </trkpt>
      <trkpt lat="43.86955" lon="6.46457">
        <ele>1165</ele>
        <time>2018-05-25T10:34:33Z</time>
      </trkpt>
      <trkpt lat="43.86943" lon="6.46441">
        <ele>1165</ele>
        <time>2018-05-25T10:34:50Z</time>
      </trkpt>
      <trkpt lat="43.86938" lon="6.46445">
        <ele>1164</ele>
        <time>2018-05-25T10:35:03Z</time>
      </trkpt>
      <trkpt lat="43.86932" lon="6.46441">
        <ele>1164</ele>
        <time>2018-05-25T10:35:15Z</time>
      </trkpt>
      <trkpt lat="43.86931" lon="6.46437">
        <ele>1164</ele>
        <time>2018-05-25T10:35:53Z</time>
      </trkpt>
      <trkpt lat="43.86934" lon="6.46442">
        <ele>1164</ele>
        <time>2018-05-25T11:32:12Z</time>
      </trkpt>
      <trkpt lat="43.86936" lon="6.46444">
        <ele>1164</ele>
        <time>2018-05-25T11:32:23Z</time>
      </trkpt>
      <trkpt lat="43.86937" lon="6.46444">
        <ele>1164</ele>
        <time>2018-05-25T11:32:31Z</time>
      </trkpt>
      <trkpt lat="43.8696" lon="6.46444">
        <ele>1166</ele>
        <time>2018-05-25T11:32:45Z</time>
      </trkpt>
      <trkpt lat="43.86978" lon="6.46445">
        <ele>1168</ele>
        <time>2018-05-25T11:33:00Z</time>
      </trkpt>
      <trkpt lat="43.86985" lon="6.46445">
        <ele>1169</ele>
        <time>2018-05-25T11:33:06Z</time>
      </trkpt>
      <trkpt lat="43.86986" lon="6.46445">
        <ele>1169</ele>
        <time>2018-05-25T11:33:07Z</time>
      </trkpt>
      <trkpt lat="43.86987" lon="6.46445">
        <ele>1169</ele>
        <time>2018-05-25T11:33:08Z</time>
      </trkpt>
      <trkpt lat="43.86998" lon="6.46437">
        <ele>1171</ele>
        <time>2018-05-25T11:33:20Z</time>
      </trkpt>
      <trkpt lat="43.86998" lon="6.46433">
        <ele>1171</ele>
        <time>2018-05-25T11:33:22Z</time>
      </trkpt>
      <trkpt lat="43.86998" lon="6.46431">
        <ele>1171</ele>
        <time>2018-05-25T11:33:23Z</time>
      </trkpt>
      <trkpt lat="43.87" lon="6.46404">
        <ele>1171</ele>
        <time>2018-05-25T11:33:39Z</time>
      </trkpt>
      <trkpt lat="43.87014" lon="6.46388">
        <ele>1172</ele>
        <time>2018-05-25T11:33:55Z</time>
      </trkpt>
      <trkpt lat="43.87015" lon="6.46387">
        <ele>1172</ele>
        <time>2018-05-25T11:33:56Z</time>
      </trkpt>
      <trkpt lat="43.87016" lon="6.46387">
        <ele>1172</ele>
        <time>2018-05-25T11:33:57Z</time>
      </trkpt>
      <trkpt lat="43.87018" lon="6.46386">
        <ele>1173</ele>
        <time>2018-05-25T11:33:59Z</time>
      </trkpt>
      <trkpt lat="43.87019" lon="6.46386">
        <ele>1173</ele>
        <time>2018-05-25T11:34:00Z</time>
      </trkpt>
      <trkpt lat="43.87024" lon="6.46384">
        <ele>1173</ele>
        <time>2018-05-25T11:34:05Z</time>
      </trkpt>
      <trkpt lat="43.87025" lon="6.46384">
        <ele>1173</ele>
        <time>2018-05-25T11:34:06Z</time>
      </trkpt>
      <trkpt lat="43.87026" lon="6.46383">
        <ele>1173</ele>
        <time>2018-05-25T11:34:07Z</time>
      </trkpt>
      <trkpt lat="43.87027" lon="6.46382">
        <ele>1174</ele>
        <time>2018-05-25T11:34:08Z</time>
      </trkpt>
      <trkpt lat="43.87028" lon="6.46382">
        <ele>1174</ele>
        <time>2018-05-25T11:34:09Z</time>
      </trkpt>
      <trkpt lat="43.87029" lon="6.46382">
        <ele>1174</ele>
        <time>2018-05-25T11:34:10Z</time>
      </trkpt>
      <trkpt lat="43.87033" lon="6.46381">
        <ele>1174</ele>
        <time>2018-05-25T11:34:14Z</time>
      </trkpt>
      <trkpt lat="43.87049" lon="6.46371">
        <ele>1175</ele>
        <time>2018-05-25T11:34:30Z</time>
      </trkpt>
      <trkpt lat="43.87057" lon="6.4637">
        <ele>1176</ele>
        <time>2018-05-25T11:34:36Z</time>
      </trkpt>
      <trkpt lat="43.87085" lon="6.46363">
        <ele>1177</ele>
        <time>2018-05-25T11:34:49Z</time>
      </trkpt>
      <trkpt lat="43.8711" lon="6.46366">
        <ele>1178</ele>
        <time>2018-05-25T11:35:00Z</time>
      </trkpt>
      <trkpt lat="43.87141" lon="6.4636">
        <ele>1178</ele>
        <time>2018-05-25T11:35:15Z</time>
      </trkpt>
      <trkpt lat="43.87161" lon="6.46361">
        <ele>1180</ele>
        <time>2018-05-25T11:35:22Z</time>
      </trkpt>
      <trkpt lat="43.87163" lon="6.46359">
        <ele>1180</ele>
        <time>2018-05-25T11:35:23Z</time>
      </trkpt>
      <trkpt lat="43.87165" lon="6.46357">
        <ele>1180</ele>
        <time>2018-05-25T11:35:24Z</time>
      </trkpt>
      <trkpt lat="43.87166" lon="6.46355">
        <ele>1180</ele>
        <time>2018-05-25T11:35:25Z</time>
      </trkpt>
      <trkpt lat="43.87168" lon="6.46354">
        <ele>1180</ele>
        <time>2018-05-25T11:35:26Z</time>
      </trkpt>
      <trkpt lat="43.87176" lon="6.46349">
        <ele>1179</ele>
        <time>2018-05-25T11:35:34Z</time>
      </trkpt>
      <trkpt lat="43.87177" lon="6.46348">
        <ele>1179</ele>
        <time>2018-05-25T11:35:35Z</time>
      </trkpt>
      <trkpt lat="43.87178" lon="6.46347">
        <ele>1179</ele>
        <time>2018-05-25T11:35:36Z</time>
      </trkpt>
      <trkpt lat="43.87197" lon="6.46332">
        <ele>1181</ele>
        <time>2018-05-25T11:35:52Z</time>
      </trkpt>
      <trkpt lat="43.87206" lon="6.46327">
        <ele>1182</ele>
        <time>2018-05-25T11:36:00Z</time>
      </trkpt>
      <trkpt lat="43.87207" lon="6.46325">
        <ele>1182</ele>
        <time>2018-05-25T11:36:01Z</time>
      </trkpt>
      <trkpt lat="43.87208" lon="6.46324">
        <ele>1182</ele>
        <time>2018-05-25T11:36:02Z</time>
      </trkpt>
      <trkpt lat="43.87214" lon="6.46309">
        <ele>1181</ele>
        <time>2018-05-25T11:36:12Z</time>
      </trkpt>
      <trkpt lat="43.87216" lon="6.46305">
        <ele>1181</ele>
        <time>2018-05-25T11:36:15Z</time>
      </trkpt>
      <trkpt lat="43.87216" lon="6.46304">
        <ele>1181</ele>
        <time>2018-05-25T11:36:16Z</time>
      </trkpt>
      <trkpt lat="43.87217" lon="6.46301">
        <ele>1181</ele>
        <time>2018-05-25T11:36:17Z</time>
      </trkpt>
      <trkpt lat="43.87217" lon="6.46299">
        <ele>1181</ele>
        <time>2018-05-25T11:36:18Z</time>
      </trkpt>
      <trkpt lat="43.87218" lon="6.46298">
        <ele>1181</ele>
        <time>2018-05-25T11:36:19Z</time>
      </trkpt>
      <trkpt lat="43.87219" lon="6.46296">
        <ele>1181</ele>
        <time>2018-05-25T11:36:20Z</time>
      </trkpt>
      <trkpt lat="43.8722" lon="6.46295">
        <ele>1181</ele>
        <time>2018-05-25T11:36:21Z</time>
      </trkpt>
      <trkpt lat="43.87241" lon="6.46288">
        <ele>1181</ele>
        <time>2018-05-25T11:36:31Z</time>
      </trkpt>
      <trkpt lat="43.87243" lon="6.46288">
        <ele>1181</ele>
        <time>2018-05-25T11:36:32Z</time>
      </trkpt>
      <trkpt lat="43.87246" lon="6.46289">
        <ele>1181</ele>
        <time>2018-05-25T11:36:33Z</time>
      </trkpt>
      <trkpt lat="43.87248" lon="6.46289">
        <ele>1181</ele>
        <time>2018-05-25T11:36:34Z</time>
      </trkpt>
      <trkpt lat="43.8725" lon="6.4629">
        <ele>1181</ele>
        <time>2018-05-25T11:36:35Z</time>
      </trkpt>
      <trkpt lat="43.87252" lon="6.4629">
        <ele>1181</ele>
        <time>2018-05-25T11:36:36Z</time>
      </trkpt>
      <trkpt lat="43.87285" lon="6.46295">
        <ele>1179</ele>
        <time>2018-05-25T11:36:49Z</time>
      </trkpt>
      <trkpt lat="43.87309" lon="6.46309">
        <ele>1181</ele>
        <time>2018-05-25T11:37:00Z</time>
      </trkpt>
      <trkpt lat="43.87311" lon="6.46309">
        <ele>1181</ele>
        <time>2018-05-25T11:37:01Z</time>
      </trkpt>
      <trkpt lat="43.87318" lon="6.46307">
        <ele>1181</ele>
        <time>2018-05-25T11:37:05Z</time>
      </trkpt>
      <trkpt lat="43.87353" lon="6.46295">
        <ele>1174</ele>
        <time>2018-05-25T11:37:21Z</time>
      </trkpt>
      <trkpt lat="43.87359" lon="6.46297">
        <ele>1174</ele>
        <time>2018-05-25T11:37:24Z</time>
      </trkpt>
      <trkpt lat="43.8737" lon="6.46308">
        <ele>1175</ele>
        <time>2018-05-25T11:37:33Z</time>
      </trkpt>
      <trkpt lat="43.87395" lon="6.46318">
        <ele>1177</ele>
        <time>2018-05-25T11:37:43Z</time>
      </trkpt>
      <trkpt lat="43.87397" lon="6.4632">
        <ele>1178</ele>
        <time>2018-05-25T11:37:45Z</time>
      </trkpt>
      <trkpt lat="43.87405" lon="6.46322">
        <ele>1179</ele>
        <time>2018-05-25T11:37:51Z</time>
      </trkpt>
      <trkpt lat="43.87425" lon="6.46326">
        <ele>1180</ele>
        <time>2018-05-25T11:38:07Z</time>
      </trkpt>
      <trkpt lat="43.87431" lon="6.46327">
        <ele>1181</ele>
        <time>2018-05-25T11:38:12Z</time>
      </trkpt>
      <trkpt lat="43.87451" lon="6.46327">
        <ele>1184</ele>
        <time>2018-05-25T11:38:28Z</time>
      </trkpt>
      <trkpt lat="43.87463" lon="6.4632">
        <ele>1186</ele>
        <time>2018-05-25T11:38:41Z</time>
      </trkpt>
      <trkpt lat="43.87474" lon="6.46311">
        <ele>1188</ele>
        <time>2018-05-25T11:38:54Z</time>
      </trkpt>
      <trkpt lat="43.87475" lon="6.46313">
        <ele>1189</ele>
        <time>2018-05-25T11:39:12Z</time>
      </trkpt>
      <trkpt lat="43.87485" lon="6.46308">
        <ele>1192</ele>
        <time>2018-05-25T11:39:26Z</time>
      </trkpt>
      <trkpt lat="43.87494" lon="6.46296">
        <ele>1194</ele>
        <time>2018-05-25T11:39:42Z</time>
      </trkpt>
      <trkpt lat="43.87502" lon="6.46288">
        <ele>1196</ele>
        <time>2018-05-25T11:39:56Z</time>
      </trkpt>
      <trkpt lat="43.87515" lon="6.46281">
        <ele>1199</ele>
        <time>2018-05-25T11:40:12Z</time>
      </trkpt>
      <trkpt lat="43.87525" lon="6.4628">
        <ele>1202</ele>
        <time>2018-05-25T11:40:25Z</time>
      </trkpt>
      <trkpt lat="43.87539" lon="6.46278">
        <ele>1205</ele>
        <time>2018-05-25T11:40:41Z</time>
      </trkpt>
      <trkpt lat="43.87551" lon="6.46274">
        <ele>1207</ele>
        <time>2018-05-25T11:40:58Z</time>
      </trkpt>
      <trkpt lat="43.8756" lon="6.46272">
        <ele>1209</ele>
        <time>2018-05-25T11:41:13Z</time>
      </trkpt>
      <trkpt lat="43.87574" lon="6.46261">
        <ele>1211</ele>
        <time>2018-05-25T11:41:31Z</time>
      </trkpt>
      <trkpt lat="43.87584" lon="6.46242">
        <ele>1214</ele>
        <time>2018-05-25T11:41:50Z</time>
      </trkpt>
      <trkpt lat="43.87586" lon="6.46232">
        <ele>1215</ele>
        <time>2018-05-25T11:42:04Z</time>
      </trkpt>
      <trkpt lat="43.87576" lon="6.46226">
        <ele>1213</ele>
        <time>2018-05-25T11:42:18Z</time>
      </trkpt>
      <trkpt lat="43.87561" lon="6.46215">
        <ele>1209</ele>
        <time>2018-05-25T11:42:34Z</time>
      </trkpt>
      <trkpt lat="43.87558" lon="6.46205">
        <ele>1210</ele>
        <time>2018-05-25T11:42:45Z</time>
      </trkpt>
      <trkpt lat="43.87557" lon="6.46195">
        <ele>1211</ele>
        <time>2018-05-25T11:42:56Z</time>
      </trkpt>
      <trkpt lat="43.87554" lon="6.4619">
        <ele>1211</ele>
        <time>2018-05-25T11:43:00Z</time>
      </trkpt>
      <trkpt lat="43.87551" lon="6.46172">
        <ele>1212</ele>
        <time>2018-05-25T11:43:12Z</time>
      </trkpt>
      <trkpt lat="43.87544" lon="6.46147">
        <ele>1212</ele>
        <time>2018-05-25T11:43:21Z</time>
      </trkpt>
      <trkpt lat="43.87545" lon="6.46135">
        <ele>1213</ele>
        <time>2018-05-25T11:43:32Z</time>
      </trkpt>
      <trkpt lat="43.87546" lon="6.46134">
        <ele>1213</ele>
        <time>2018-05-25T11:43:33Z</time>
      </trkpt>
      <trkpt lat="43.87548" lon="6.46112">
        <ele>1215</ele>
        <time>2018-05-25T11:43:49Z</time>
      </trkpt>
      <trkpt lat="43.87548" lon="6.461">
        <ele>1215</ele>
        <time>2018-05-25T11:43:58Z</time>
      </trkpt>
      <trkpt lat="43.87541" lon="6.46074">
        <ele>1213</ele>
        <time>2018-05-25T11:44:08Z</time>
      </trkpt>
      <trkpt lat="43.8754" lon="6.46053">
        <ele>1212</ele>
        <time>2018-05-25T11:44:15Z</time>
      </trkpt>
      <trkpt lat="43.87539" lon="6.46035">
        <ele>1210</ele>
        <time>2018-05-25T11:44:23Z</time>
      </trkpt>
      <trkpt lat="43.87536" lon="6.46034">
        <ele>1209</ele>
        <time>2018-05-25T11:44:35Z</time>
      </trkpt>
      <trkpt lat="43.87541" lon="6.46033">
        <ele>1210</ele>
        <time>2018-05-25T11:44:52Z</time>
      </trkpt>
      <trkpt lat="43.8754" lon="6.46034">
        <ele>1210</ele>
        <time>2018-05-25T11:45:15Z</time>
      </trkpt>
      <trkpt lat="43.87541" lon="6.46038">
        <ele>1211</ele>
        <time>2018-05-25T11:45:46Z</time>
      </trkpt>
      <trkpt lat="43.87545" lon="6.46038">
        <ele>1211</ele>
        <time>2018-05-25T11:46:28Z</time>
      </trkpt>
      <trkpt lat="43.87542" lon="6.46037">
        <ele>1211</ele>
        <time>2018-05-25T11:47:08Z</time>
      </trkpt>
      <trkpt lat="43.87541" lon="6.46037">
        <ele>1211</ele>
        <time>2018-05-25T11:47:46Z</time>
      </trkpt>
      <trkpt lat="43.87545" lon="6.46035">
        <ele>1211</ele>
        <time>2018-05-25T11:48:22Z</time>
      </trkpt>
      <trkpt lat="43.87543" lon="6.4604">
        <ele>1211</ele>
        <time>2018-05-25T11:49:03Z</time>
      </trkpt>
      <trkpt lat="43.87543" lon="6.46036">
        <ele>1211</ele>
        <time>2018-05-25T11:49:37Z</time>
      </trkpt>
      <trkpt lat="43.87541" lon="6.46038">
        <ele>1211</ele>
        <time>2018-05-25T11:50:14Z</time>
      </trkpt>
      <trkpt lat="43.8754" lon="6.46037">
        <ele>1211</ele>
        <time>2018-05-25T11:50:52Z</time>
      </trkpt>
      <trkpt lat="43.87543" lon="6.46038">
        <ele>1211</ele>
        <time>2018-05-25T11:51:24Z</time>
      </trkpt>
      <trkpt lat="43.87542" lon="6.46037">
        <ele>1211</ele>
        <time>2018-05-25T11:51:56Z</time>
      </trkpt>
      <trkpt lat="43.8754" lon="6.46036">
        <ele>1210</ele>
        <time>2018-05-25T11:52:29Z</time>
      </trkpt>
      <trkpt lat="43.87545" lon="6.46036">
        <ele>1211</ele>
        <time>2018-05-25T11:53:03Z</time>
      </trkpt>
      <trkpt lat="43.87543" lon="6.46036">
        <ele>1211</ele>
        <time>2018-05-25T11:53:43Z</time>
      </trkpt>
      <trkpt lat="43.87544" lon="6.46037">
        <ele>1211</ele>
        <time>2018-05-25T11:54:13Z</time>
      </trkpt>
      <trkpt lat="43.87542" lon="6.46038">
        <ele>1211</ele>
        <time>2018-05-25T11:54:52Z</time>
      </trkpt>
      <trkpt lat="43.87541" lon="6.46035">
        <ele>1211</ele>
        <time>2018-05-25T11:55:39Z</time>
      </trkpt>
      <trkpt lat="43.87543" lon="6.46036">
        <ele>1211</ele>
        <time>2018-05-25T11:56:19Z</time>
      </trkpt>
      <trkpt lat="43.87542" lon="6.46035">
        <ele>1211</ele>
        <time>2018-05-25T11:56:53Z</time>
      </trkpt>
      <trkpt lat="43.8754" lon="6.46035">
        <ele>1210</ele>
        <time>2018-05-25T11:56:55Z</time>
      </trkpt>
      <trkpt lat="43.87537" lon="6.46033">
        <ele>1210</ele>
        <time>2018-05-25T11:56:56Z</time>
      </trkpt>
      <trkpt lat="43.87535" lon="6.46031">
        <ele>1209</ele>
        <time>2018-05-25T11:56:57Z</time>
      </trkpt>
      <trkpt lat="43.87531" lon="6.46026">
        <ele>1208</ele>
        <time>2018-05-25T11:56:58Z</time>
      </trkpt>
      <trkpt lat="43.87508" lon="6.46001">
        <ele>1204</ele>
        <time>2018-05-25T11:57:06Z</time>
      </trkpt>
      <trkpt lat="43.87476" lon="6.4597">
        <ele>1198</ele>
        <time>2018-05-25T11:57:16Z</time>
      </trkpt>
      <trkpt lat="43.87476" lon="6.45967">
        <ele>1197</ele>
        <time>2018-05-25T11:57:17Z</time>
      </trkpt>
      <trkpt lat="43.87479" lon="6.45962">
        <ele>1197</ele>
        <time>2018-05-25T11:57:22Z</time>
      </trkpt>
      <trkpt lat="43.8748" lon="6.45962">
        <ele>1198</ele>
        <time>2018-05-25T11:57:23Z</time>
      </trkpt>
      <trkpt lat="43.87505" lon="6.45969">
        <ele>1199</ele>
        <time>2018-05-25T11:57:35Z</time>
      </trkpt>
      <trkpt lat="43.87531" lon="6.45981">
        <ele>1202</ele>
        <time>2018-05-25T11:57:48Z</time>
      </trkpt>
      <trkpt lat="43.87557" lon="6.45989">
        <ele>1205</ele>
        <time>2018-05-25T11:57:58Z</time>
      </trkpt>
      <trkpt lat="43.87575" lon="6.45992">
        <ele>1206</ele>
        <time>2018-05-25T11:58:10Z</time>
      </trkpt>
      <trkpt lat="43.87591" lon="6.45993">
        <ele>1206</ele>
        <time>2018-05-25T11:58:19Z</time>
      </trkpt>
      <trkpt lat="43.87592" lon="6.45993">
        <ele>1206</ele>
        <time>2018-05-25T11:58:20Z</time>
      </trkpt>
      <trkpt lat="43.87594" lon="6.45993">
        <ele>1206</ele>
        <time>2018-05-25T11:58:21Z</time>
      </trkpt>
      <trkpt lat="43.87612" lon="6.45989">
        <ele>1205</ele>
        <time>2018-05-25T11:58:34Z</time>
      </trkpt>
      <trkpt lat="43.87624" lon="6.45988">
        <ele>1205</ele>
        <time>2018-05-25T11:58:43Z</time>
      </trkpt>
      <trkpt lat="43.87625" lon="6.45988">
        <ele>1205</ele>
        <time>2018-05-25T11:58:44Z</time>
      </trkpt>
      <trkpt lat="43.87627" lon="6.45988">
        <ele>1205</ele>
        <time>2018-05-25T11:58:45Z</time>
      </trkpt>
      <trkpt lat="43.87628" lon="6.45989">
        <ele>1205</ele>
        <time>2018-05-25T11:58:46Z</time>
      </trkpt>
      <trkpt lat="43.8763" lon="6.45989">
        <ele>1205</ele>
        <time>2018-05-25T11:58:47Z</time>
      </trkpt>
      <trkpt lat="43.87631" lon="6.45989">
        <ele>1205</ele>
        <time>2018-05-25T11:58:48Z</time>
      </trkpt>
      <trkpt lat="43.87633" lon="6.45989">
        <ele>1205</ele>
        <time>2018-05-25T11:58:49Z</time>
      </trkpt>
      <trkpt lat="43.87639" lon="6.45991">
        <ele>1205</ele>
        <time>2018-05-25T11:59:02Z</time>
      </trkpt>
      <trkpt lat="43.87642" lon="6.45991">
        <ele>1205</ele>
        <time>2018-05-25T11:59:20Z</time>
      </trkpt>
      <trkpt lat="43.87643" lon="6.45991">
        <ele>1205</ele>
        <time>2018-05-25T11:59:49Z</time>
      </trkpt>
      <trkpt lat="43.87644" lon="6.45991">
        <ele>1205</ele>
        <time>2018-05-25T12:00:29Z</time>
      </trkpt>
      <trkpt lat="43.87677" lon="6.46">
        <ele>1211</ele>
        <time>2018-05-25T12:00:40Z</time>
      </trkpt>
      <trkpt lat="43.877" lon="6.46007">
        <ele>1217</ele>
        <time>2018-05-25T12:00:48Z</time>
      </trkpt>
      <trkpt lat="43.87701" lon="6.46004">
        <ele>1217</ele>
        <time>2018-05-25T12:00:51Z</time>
      </trkpt>
      <trkpt lat="43.87693" lon="6.45996">
        <ele>1215</ele>
        <time>2018-05-25T12:01:01Z</time>
      </trkpt>
      <trkpt lat="43.87692" lon="6.4599">
        <ele>1215</ele>
        <time>2018-05-25T12:01:20Z</time>
      </trkpt>
      <trkpt lat="43.8769" lon="6.45983">
        <ele>1215</ele>
        <time>2018-05-25T12:01:37Z</time>
      </trkpt>
      <trkpt lat="43.87689" lon="6.45984">
        <ele>1215</ele>
        <time>2018-05-25T12:02:02Z</time>
      </trkpt>
      <trkpt lat="43.87691" lon="6.45982">
        <ele>1215</ele>
        <time>2018-05-25T12:02:16Z</time>
      </trkpt>
      <trkpt lat="43.87689" lon="6.45981">
        <ele>1215</ele>
        <time>2018-05-25T12:02:36Z</time>
      </trkpt>
      <trkpt lat="43.8769" lon="6.45984">
        <ele>1215</ele>
        <time>2018-05-25T12:02:45Z</time>
      </trkpt>
      <trkpt lat="43.87689" lon="6.4598">
        <ele>1215</ele>
        <time>2018-05-25T12:02:58Z</time>
      </trkpt>
      <trkpt lat="43.87692" lon="6.45992">
        <ele>1215</ele>
        <time>2018-05-25T12:03:11Z</time>
      </trkpt>
      <trkpt lat="43.87694" lon="6.45992">
        <ele>1216</ele>
        <time>2018-05-25T12:03:26Z</time>
      </trkpt>
      <trkpt lat="43.87693" lon="6.45991">
        <ele>1216</ele>
        <time>2018-05-25T12:03:40Z</time>
      </trkpt>
      <trkpt lat="43.87691" lon="6.4599">
        <ele>1215</ele>
        <time>2018-05-25T12:03:54Z</time>
      </trkpt>
      <trkpt lat="43.8769" lon="6.45992">
        <ele>1215</ele>
        <time>2018-05-25T12:04:10Z</time>
      </trkpt>
      <trkpt lat="43.87691" lon="6.45991">
        <ele>1215</ele>
        <time>2018-05-25T12:04:25Z</time>
      </trkpt>
      <trkpt lat="43.87693" lon="6.45989">
        <ele>1216</ele>
        <time>2018-05-25T12:04:45Z</time>
      </trkpt>
      <trkpt lat="43.87691" lon="6.4599">
        <ele>1215</ele>
        <time>2018-05-25T12:04:58Z</time>
      </trkpt>
      <trkpt lat="43.87686" lon="6.45993">
        <ele>1213</ele>
        <time>2018-05-25T12:05:21Z</time>
      </trkpt>
      <trkpt lat="43.87686" lon="6.45998">
        <ele>1213</ele>
        <time>2018-05-25T12:05:40Z</time>
      </trkpt>
      <trkpt lat="43.87687" lon="6.45999">
        <ele>1214</ele>
        <time>2018-05-25T12:05:55Z</time>
      </trkpt>
      <trkpt lat="43.87686" lon="6.45998">
        <ele>1213</ele>
        <time>2018-05-25T12:06:09Z</time>
      </trkpt>
      <trkpt lat="43.8769" lon="6.45993">
        <ele>1215</ele>
        <time>2018-05-25T12:06:23Z</time>
      </trkpt>
      <trkpt lat="43.8769" lon="6.45994">
        <ele>1215</ele>
        <time>2018-05-25T12:06:38Z</time>
      </trkpt>
      <trkpt lat="43.87688" lon="6.45987">
        <ele>1214</ele>
        <time>2018-05-25T12:06:52Z</time>
      </trkpt>
      <trkpt lat="43.87685" lon="6.45984">
        <ele>1213</ele>
        <time>2018-05-25T12:07:04Z</time>
      </trkpt>
      <trkpt lat="43.87682" lon="6.45982">
        <ele>1212</ele>
        <time>2018-05-25T12:07:16Z</time>
      </trkpt>
      <trkpt lat="43.87678" lon="6.45979">
        <ele>1211</ele>
        <time>2018-05-25T12:07:29Z</time>
      </trkpt>
      <trkpt lat="43.87669" lon="6.45974">
        <ele>1208</ele>
        <time>2018-05-25T12:07:42Z</time>
      </trkpt>
      <trkpt lat="43.87662" lon="6.45965">
        <ele>1204</ele>
        <time>2018-05-25T12:07:57Z</time>
      </trkpt>
      <trkpt lat="43.87659" lon="6.45961">
        <ele>1203</ele>
        <time>2018-05-25T12:08:09Z</time>
      </trkpt>
      <trkpt lat="43.87655" lon="6.45961">
        <ele>1203</ele>
        <time>2018-05-25T12:08:25Z</time>
      </trkpt>
      <trkpt lat="43.87652" lon="6.45957">
        <ele>1202</ele>
        <time>2018-05-25T12:08:41Z</time>
      </trkpt>
      <trkpt lat="43.87654" lon="6.45957">
        <ele>1202</ele>
        <time>2018-05-25T12:08:55Z</time>
      </trkpt>
      <trkpt lat="43.87652" lon="6.45956">
        <ele>1202</ele>
        <time>2018-05-25T12:09:13Z</time>
      </trkpt>
      <trkpt lat="43.87651" lon="6.45954">
        <ele>1202</ele>
        <time>2018-05-25T12:09:27Z</time>
      </trkpt>
      <trkpt lat="43.87651" lon="6.45952">
        <ele>1202</ele>
        <time>2018-05-25T12:09:40Z</time>
      </trkpt>
      <trkpt lat="43.87649" lon="6.45952">
        <ele>1201</ele>
        <time>2018-05-25T12:10:02Z</time>
      </trkpt>
      <trkpt lat="43.87648" lon="6.45953">
        <ele>1201</ele>
        <time>2018-05-25T12:10:16Z</time>
      </trkpt>
      <trkpt lat="43.87646" lon="6.4595">
        <ele>1201</ele>
        <time>2018-05-25T12:10:28Z</time>
      </trkpt>
      <trkpt lat="43.87644" lon="6.45951">
        <ele>1201</ele>
        <time>2018-05-25T12:10:45Z</time>
      </trkpt>
      <trkpt lat="43.87644" lon="6.4595">
        <ele>1200</ele>
        <time>2018-05-25T12:11:03Z</time>
      </trkpt>
      <trkpt lat="43.87642" lon="6.45948">
        <ele>1200</ele>
        <time>2018-05-25T12:11:18Z</time>
      </trkpt>
      <trkpt lat="43.87642" lon="6.45949">
        <ele>1200</ele>
        <time>2018-05-25T12:11:36Z</time>
      </trkpt>
      <trkpt lat="43.87642" lon="6.45947">
        <ele>1200</ele>
        <time>2018-05-25T12:11:53Z</time>
      </trkpt>
      <trkpt lat="43.87642" lon="6.45947">
        <ele>1200</ele>
        <time>2018-05-25T12:12:14Z</time>
      </trkpt>
      <trkpt lat="43.87641" lon="6.45949">
        <ele>1200</ele>
        <time>2018-05-25T12:12:34Z</time>
      </trkpt>
      <trkpt lat="43.87641" lon="6.45948">
        <ele>1200</ele>
        <time>2018-05-25T12:12:49Z</time>
      </trkpt>
      <trkpt lat="43.87644" lon="6.45944">
        <ele>1201</ele>
        <time>2018-05-25T12:13:07Z</time>
      </trkpt>
      <trkpt lat="43.87644" lon="6.45947">
        <ele>1200</ele>
        <time>2018-05-25T12:13:22Z</time>
      </trkpt>
      <trkpt lat="43.87644" lon="6.45951">
        <ele>1200</ele>
        <time>2018-05-25T12:13:46Z</time>
      </trkpt>
      <trkpt lat="43.87645" lon="6.45952">
        <ele>1201</ele>
        <time>2018-05-25T12:14:04Z</time>
      </trkpt>
      <trkpt lat="43.87646" lon="6.45952">
        <ele>1201</ele>
        <time>2018-05-25T12:14:07Z</time>
      </trkpt>
      <trkpt lat="43.87646" lon="6.45952">
        <ele>1201</ele>
        <time>2018-05-25T12:14:19Z</time>
      </trkpt>
      <trkpt lat="43.87648" lon="6.45954">
        <ele>1201</ele>
        <time>2018-05-25T12:14:34Z</time>
      </trkpt>
      <trkpt lat="43.87655" lon="6.45959">
        <ele>1203</ele>
        <time>2018-05-25T12:14:49Z</time>
      </trkpt>
      <trkpt lat="43.87658" lon="6.45964">
        <ele>1204</ele>
        <time>2018-05-25T12:15:05Z</time>
      </trkpt>
      <trkpt lat="43.87664" lon="6.4597">
        <ele>1206</ele>
        <time>2018-05-25T12:15:18Z</time>
      </trkpt>
      <trkpt lat="43.8767" lon="6.45973">
        <ele>1208</ele>
        <time>2018-05-25T12:15:32Z</time>
      </trkpt>
      <trkpt lat="43.87678" lon="6.45978">
        <ele>1211</ele>
        <time>2018-05-25T12:15:48Z</time>
      </trkpt>
      <trkpt lat="43.87682" lon="6.45976">
        <ele>1212</ele>
        <time>2018-05-25T12:16:02Z</time>
      </trkpt>
      <trkpt lat="43.87685" lon="6.45981">
        <ele>1214</ele>
        <time>2018-05-25T12:16:15Z</time>
      </trkpt>
      <trkpt lat="43.87686" lon="6.45985">
        <ele>1214</ele>
        <time>2018-05-25T12:16:32Z</time>
      </trkpt>
      <trkpt lat="43.87691" lon="6.45989">
        <ele>1215</ele>
        <time>2018-05-25T12:16:43Z</time>
      </trkpt>
      <trkpt lat="43.87692" lon="6.45991">
        <ele>1216</ele>
        <time>2018-05-25T12:16:58Z</time>
      </trkpt>
      <trkpt lat="43.87696" lon="6.45991">
        <ele>1217</ele>
        <time>2018-05-25T12:17:19Z</time>
      </trkpt>
      <trkpt lat="43.87698" lon="6.45991">
        <ele>1217</ele>
        <time>2018-05-25T12:17:39Z</time>
      </trkpt>
      <trkpt lat="43.87698" lon="6.45993">
        <ele>1217</ele>
        <time>2018-05-25T12:17:55Z</time>
      </trkpt>
      <trkpt lat="43.87695" lon="6.45994">
        <ele>1216</ele>
        <time>2018-05-25T12:18:07Z</time>
      </trkpt>
      <trkpt lat="43.87693" lon="6.45997">
        <ele>1215</ele>
        <time>2018-05-25T12:18:25Z</time>
      </trkpt>
      <trkpt lat="43.87692" lon="6.45999">
        <ele>1215</ele>
        <time>2018-05-25T12:18:37Z</time>
      </trkpt>
      <trkpt lat="43.87694" lon="6.46005">
        <ele>1215</ele>
        <time>2018-05-25T12:18:52Z</time>
      </trkpt>
      <trkpt lat="43.87695" lon="6.4601">
        <ele>1215</ele>
        <time>2018-05-25T12:19:03Z</time>
      </trkpt>
      <trkpt lat="43.87693" lon="6.46009">
        <ele>1215</ele>
        <time>2018-05-25T12:19:11Z</time>
      </trkpt>
      <trkpt lat="43.87683" lon="6.46008">
        <ele>1212</ele>
        <time>2018-05-25T12:19:20Z</time>
      </trkpt>
      <trkpt lat="43.87671" lon="6.46007">
        <ele>1209</ele>
        <time>2018-05-25T12:19:29Z</time>
      </trkpt>
      <trkpt lat="43.87654" lon="6.46002">
        <ele>1206</ele>
        <time>2018-05-25T12:19:40Z</time>
      </trkpt>
      <trkpt lat="43.87649" lon="6.45999">
        <ele>1206</ele>
        <time>2018-05-25T12:19:44Z</time>
      </trkpt>
      <trkpt lat="43.87643" lon="6.45995">
        <ele>1206</ele>
        <time>2018-05-25T12:19:50Z</time>
      </trkpt>
      <trkpt lat="43.87639" lon="6.45993">
        <ele>1205</ele>
        <time>2018-05-25T12:19:55Z</time>
      </trkpt>
      <trkpt lat="43.87633" lon="6.45993">
        <ele>1205</ele>
        <time>2018-05-25T12:19:59Z</time>
      </trkpt>
      <trkpt lat="43.8763" lon="6.45993">
        <ele>1205</ele>
        <time>2018-05-25T12:20:00Z</time>
      </trkpt>
      <trkpt lat="43.87628" lon="6.45992">
        <ele>1205</ele>
        <time>2018-05-25T12:20:01Z</time>
      </trkpt>
      <trkpt lat="43.87625" lon="6.45992">
        <ele>1205</ele>
        <time>2018-05-25T12:20:02Z</time>
      </trkpt>
      <trkpt lat="43.87622" lon="6.45992">
        <ele>1205</ele>
        <time>2018-05-25T12:20:03Z</time>
      </trkpt>
      <trkpt lat="43.87591" lon="6.45994">
        <ele>1207</ele>
        <time>2018-05-25T12:20:13Z</time>
      </trkpt>
      <trkpt lat="43.87558" lon="6.45988">
        <ele>1205</ele>
        <time>2018-05-25T12:20:23Z</time>
      </trkpt>
      <trkpt lat="43.87529" lon="6.4598">
        <ele>1201</ele>
        <time>2018-05-25T12:20:33Z</time>
      </trkpt>
      <trkpt lat="43.87504" lon="6.45973">
        <ele>1199</ele>
        <time>2018-05-25T12:20:41Z</time>
      </trkpt>
      <trkpt lat="43.87503" lon="6.45973">
        <ele>1199</ele>
        <time>2018-05-25T12:20:42Z</time>
      </trkpt>
      <trkpt lat="43.87501" lon="6.45972">
        <ele>1199</ele>
        <time>2018-05-25T12:20:43Z</time>
      </trkpt>
      <trkpt lat="43.87486" lon="6.45967">
        <ele>1198</ele>
        <time>2018-05-25T12:20:50Z</time>
      </trkpt>
      <trkpt lat="43.87484" lon="6.45969">
        <ele>1198</ele>
        <time>2018-05-25T12:20:51Z</time>
      </trkpt>
      <trkpt lat="43.8748" lon="6.45971">
        <ele>1198</ele>
        <time>2018-05-25T12:21:03Z</time>
      </trkpt>
      <trkpt lat="43.87477" lon="6.45968">
        <ele>1198</ele>
        <time>2018-05-25T12:21:26Z</time>
      </trkpt>
      <trkpt lat="43.87476" lon="6.45969">
        <ele>1197</ele>
        <time>2018-05-25T12:21:30Z</time>
      </trkpt>
      <trkpt lat="43.87475" lon="6.4597">
        <ele>1197</ele>
        <time>2018-05-25T12:21:31Z</time>
      </trkpt>
      <trkpt lat="43.87473" lon="6.45971">
        <ele>1197</ele>
        <time>2018-05-25T12:21:32Z</time>
      </trkpt>
      <trkpt lat="43.87471" lon="6.45971">
        <ele>1196</ele>
        <time>2018-05-25T12:21:34Z</time>
      </trkpt>
      <trkpt lat="43.87452" lon="6.45957">
        <ele>1192</ele>
        <time>2018-05-25T12:21:44Z</time>
      </trkpt>
      <trkpt lat="43.87446" lon="6.45956">
        <ele>1191</ele>
        <time>2018-05-25T12:21:53Z</time>
      </trkpt>
      <trkpt lat="43.87443" lon="6.45954">
        <ele>1191</ele>
        <time>2018-05-25T12:21:54Z</time>
      </trkpt>
      <trkpt lat="43.87441" lon="6.45953">
        <ele>1191</ele>
        <time>2018-05-25T12:21:55Z</time>
      </trkpt>
      <trkpt lat="43.8744" lon="6.45952">
        <ele>1190</ele>
        <time>2018-05-25T12:21:56Z</time>
      </trkpt>
      <trkpt lat="43.87437" lon="6.45951">
        <ele>1190</ele>
        <time>2018-05-25T12:21:57Z</time>
      </trkpt>
      <trkpt lat="43.87435" lon="6.45949">
        <ele>1190</ele>
        <time>2018-05-25T12:21:58Z</time>
      </trkpt>
      <trkpt lat="43.87418" lon="6.45935">
        <ele>1189</ele>
        <time>2018-05-25T12:22:07Z</time>
      </trkpt>
      <trkpt lat="43.87413" lon="6.45931">
        <ele>1188</ele>
        <time>2018-05-25T12:22:11Z</time>
      </trkpt>
      <trkpt lat="43.87412" lon="6.4593">
        <ele>1188</ele>
        <time>2018-05-25T12:22:12Z</time>
      </trkpt>
      <trkpt lat="43.8741" lon="6.45929">
        <ele>1188</ele>
        <time>2018-05-25T12:22:23Z</time>
      </trkpt>
      <trkpt lat="43.87409" lon="6.45926">
        <ele>1187</ele>
        <time>2018-05-25T12:22:38Z</time>
      </trkpt>
      <trkpt lat="43.87403" lon="6.45921">
        <ele>1186</ele>
        <time>2018-05-25T12:23:14Z</time>
      </trkpt>
      <trkpt lat="43.87403" lon="6.45927">
        <ele>1187</ele>
        <time>2018-05-25T12:23:53Z</time>
      </trkpt>
      <trkpt lat="43.87405" lon="6.45927">
        <ele>1187</ele>
        <time>2018-05-25T12:24:37Z</time>
      </trkpt>
      <trkpt lat="43.87406" lon="6.45926">
        <ele>1187</ele>
        <time>2018-05-25T12:24:56Z</time>
      </trkpt>
      <trkpt lat="43.87406" lon="6.45926">
        <ele>1187</ele>
        <time>2018-05-25T12:25:16Z</time>
      </trkpt>
      <trkpt lat="43.87404" lon="6.45924">
        <ele>1186</ele>
        <time>2018-05-25T12:25:33Z</time>
      </trkpt>
      <trkpt lat="43.87401" lon="6.45928">
        <ele>1187</ele>
        <time>2018-05-25T12:25:54Z</time>
      </trkpt>
      <trkpt lat="43.87396" lon="6.45928">
        <ele>1186</ele>
        <time>2018-05-25T12:26:07Z</time>
      </trkpt>
      <trkpt lat="43.87396" lon="6.4592">
        <ele>1185</ele>
        <time>2018-05-25T12:26:23Z</time>
      </trkpt>
      <trkpt lat="43.87396" lon="6.4592">
        <ele>1185</ele>
        <time>2018-05-25T12:26:25Z</time>
      </trkpt>
      <trkpt lat="43.87394" lon="6.45919">
        <ele>1184</ele>
        <time>2018-05-25T12:26:26Z</time>
      </trkpt>
      <trkpt lat="43.87392" lon="6.45919">
        <ele>1184</ele>
        <time>2018-05-25T12:26:27Z</time>
      </trkpt>
      <trkpt lat="43.8739" lon="6.45919">
        <ele>1184</ele>
        <time>2018-05-25T12:26:28Z</time>
      </trkpt>
      <trkpt lat="43.87388" lon="6.45919">
        <ele>1184</ele>
        <time>2018-05-25T12:26:29Z</time>
      </trkpt>
      <trkpt lat="43.87385" lon="6.45919">
        <ele>1184</ele>
        <time>2018-05-25T12:26:30Z</time>
      </trkpt>
      <trkpt lat="43.87383" lon="6.45919">
        <ele>1184</ele>
        <time>2018-05-25T12:26:31Z</time>
      </trkpt>
      <trkpt lat="43.87381" lon="6.45919">
        <ele>1184</ele>
        <time>2018-05-25T12:26:32Z</time>
      </trkpt>
      <trkpt lat="43.87365" lon="6.45911">
        <ele>1183</ele>
        <time>2018-05-25T12:26:46Z</time>
      </trkpt>
      <trkpt lat="43.87363" lon="6.45909">
        <ele>1182</ele>
        <time>2018-05-25T12:26:48Z</time>
      </trkpt>
      <trkpt lat="43.87362" lon="6.45908">
        <ele>1182</ele>
        <time>2018-05-25T12:26:49Z</time>
      </trkpt>
      <trkpt lat="43.87361" lon="6.45907">
        <ele>1182</ele>
        <time>2018-05-25T12:26:50Z</time>
      </trkpt>
      <trkpt lat="43.8736" lon="6.45906">
        <ele>1182</ele>
        <time>2018-05-25T12:26:51Z</time>
      </trkpt>
      <trkpt lat="43.87359" lon="6.45904">
        <ele>1182</ele>
        <time>2018-05-25T12:26:52Z</time>
      </trkpt>
      <trkpt lat="43.87359" lon="6.45902">
        <ele>1182</ele>
        <time>2018-05-25T12:26:53Z</time>
      </trkpt>
      <trkpt lat="43.87358" lon="6.45901">
        <ele>1182</ele>
        <time>2018-05-25T12:26:54Z</time>
      </trkpt>
      <trkpt lat="43.87357" lon="6.459">
        <ele>1182</ele>
        <time>2018-05-25T12:26:55Z</time>
      </trkpt>
      <trkpt lat="43.87356" lon="6.45898">
        <ele>1182</ele>
        <time>2018-05-25T12:26:56Z</time>
      </trkpt>
      <trkpt lat="43.87355" lon="6.45897">
        <ele>1181</ele>
        <time>2018-05-25T12:26:57Z</time>
      </trkpt>
      <trkpt lat="43.87347" lon="6.45884">
        <ele>1181</ele>
        <time>2018-05-25T12:27:10Z</time>
      </trkpt>
      <trkpt lat="43.87346" lon="6.45883">
        <ele>1181</ele>
        <time>2018-05-25T12:27:12Z</time>
      </trkpt>
      <trkpt lat="43.87342" lon="6.45881">
        <ele>1180</ele>
        <time>2018-05-25T12:27:15Z</time>
      </trkpt>
      <trkpt lat="43.87341" lon="6.45879">
        <ele>1180</ele>
        <time>2018-05-25T12:27:16Z</time>
      </trkpt>
      <trkpt lat="43.87341" lon="6.45876">
        <ele>1180</ele>
        <time>2018-05-25T12:27:17Z</time>
      </trkpt>
      <trkpt lat="43.87342" lon="6.45872">
        <ele>1180</ele>
        <time>2018-05-25T12:27:18Z</time>
      </trkpt>
      <trkpt lat="43.87341" lon="6.4587">
        <ele>1180</ele>
        <time>2018-05-25T12:27:19Z</time>
      </trkpt>
      <trkpt lat="43.8734" lon="6.45868">
        <ele>1179</ele>
        <time>2018-05-25T12:27:20Z</time>
      </trkpt>
      <trkpt lat="43.87339" lon="6.45867">
        <ele>1179</ele>
        <time>2018-05-25T12:27:21Z</time>
      </trkpt>
      <trkpt lat="43.87338" lon="6.45866">
        <ele>1179</ele>
        <time>2018-05-25T12:27:22Z</time>
      </trkpt>
      <trkpt lat="43.87337" lon="6.45863">
        <ele>1179</ele>
        <time>2018-05-25T12:27:23Z</time>
      </trkpt>
      <trkpt lat="43.87337" lon="6.45861">
        <ele>1179</ele>
        <time>2018-05-25T12:27:24Z</time>
      </trkpt>
      <trkpt lat="43.87336" lon="6.45859">
        <ele>1178</ele>
        <time>2018-05-25T12:27:25Z</time>
      </trkpt>
      <trkpt lat="43.87335" lon="6.45856">
        <ele>1177</ele>
        <time>2018-05-25T12:27:26Z</time>
      </trkpt>
      <trkpt lat="43.87333" lon="6.45853">
        <ele>1176</ele>
        <time>2018-05-25T12:27:27Z</time>
      </trkpt>
      <trkpt lat="43.87332" lon="6.4585">
        <ele>1175</ele>
        <time>2018-05-25T12:27:28Z</time>
      </trkpt>
      <trkpt lat="43.87331" lon="6.45848">
        <ele>1175</ele>
        <time>2018-05-25T12:27:29Z</time>
      </trkpt>
      <trkpt lat="43.87322" lon="6.4583">
        <ele>1171</ele>
        <time>2018-05-25T12:27:36Z</time>
      </trkpt>
      <trkpt lat="43.87321" lon="6.45828">
        <ele>1171</ele>
        <time>2018-05-25T12:27:37Z</time>
      </trkpt>
      <trkpt lat="43.8732" lon="6.45825">
        <ele>1170</ele>
        <time>2018-05-25T12:27:38Z</time>
      </trkpt>
      <trkpt lat="43.87319" lon="6.45823">
        <ele>1170</ele>
        <time>2018-05-25T12:27:39Z</time>
      </trkpt>
      <trkpt lat="43.87318" lon="6.45821">
        <ele>1170</ele>
        <time>2018-05-25T12:27:40Z</time>
      </trkpt>
      <trkpt lat="43.87316" lon="6.45819">
        <ele>1170</ele>
        <time>2018-05-25T12:27:41Z</time>
      </trkpt>
      <trkpt lat="43.87315" lon="6.45818">
        <ele>1169</ele>
        <time>2018-05-25T12:27:42Z</time>
      </trkpt>
      <trkpt lat="43.8731" lon="6.45809">
        <ele>1169</ele>
        <time>2018-05-25T12:27:53Z</time>
      </trkpt>
      <trkpt lat="43.87308" lon="6.45806">
        <ele>1169</ele>
        <time>2018-05-25T12:28:21Z</time>
      </trkpt>
      <trkpt lat="43.87305" lon="6.45802">
        <ele>1168</ele>
        <time>2018-05-25T12:28:40Z</time>
      </trkpt>
      <trkpt lat="43.87306" lon="6.45802">
        <ele>1168</ele>
        <time>2018-05-25T12:29:06Z</time>
      </trkpt>
      <trkpt lat="43.87305" lon="6.45801">
        <ele>1168</ele>
        <time>2018-05-25T12:29:32Z</time>
      </trkpt>
      <trkpt lat="43.87304" lon="6.45801">
        <ele>1168</ele>
        <time>2018-05-25T12:29:58Z</time>
      </trkpt>
      <trkpt lat="43.87302" lon="6.45801">
        <ele>1167</ele>
        <time>2018-05-25T12:30:24Z</time>
      </trkpt>
      <trkpt lat="43.87301" lon="6.45798">
        <ele>1166</ele>
        <time>2018-05-25T12:30:37Z</time>
      </trkpt>
      <trkpt lat="43.87296" lon="6.45789">
        <ele>1163</ele>
        <time>2018-05-25T12:30:50Z</time>
      </trkpt>
      <trkpt lat="43.87294" lon="6.45788">
        <ele>1163</ele>
        <time>2018-05-25T12:30:57Z</time>
      </trkpt>
      <trkpt lat="43.87293" lon="6.45787">
        <ele>1162</ele>
        <time>2018-05-25T12:30:58Z</time>
      </trkpt>
      <trkpt lat="43.87291" lon="6.45774">
        <ele>1159</ele>
        <time>2018-05-25T12:31:03Z</time>
      </trkpt>
      <trkpt lat="43.8729" lon="6.45773">
        <ele>1159</ele>
        <time>2018-05-25T12:31:04Z</time>
      </trkpt>
      <trkpt lat="43.87289" lon="6.45771">
        <ele>1158</ele>
        <time>2018-05-25T12:31:05Z</time>
      </trkpt>
      <trkpt lat="43.87288" lon="6.45761">
        <ele>1156</ele>
        <time>2018-05-25T12:31:18Z</time>
      </trkpt>
      <trkpt lat="43.87283" lon="6.45754">
        <ele>1155</ele>
        <time>2018-05-25T12:31:32Z</time>
      </trkpt>
      <trkpt lat="43.87279" lon="6.45743">
        <ele>1153</ele>
        <time>2018-05-25T12:31:46Z</time>
      </trkpt>
      <trkpt lat="43.87277" lon="6.45734">
        <ele>1152</ele>
        <time>2018-05-25T12:32:00Z</time>
      </trkpt>
      <trkpt lat="43.87276" lon="6.45733">
        <ele>1151</ele>
        <time>2018-05-25T12:32:01Z</time>
      </trkpt>
      <trkpt lat="43.87275" lon="6.45731">
        <ele>1151</ele>
        <time>2018-05-25T12:32:02Z</time>
      </trkpt>
      <trkpt lat="43.87274" lon="6.4573">
        <ele>1151</ele>
        <time>2018-05-25T12:32:03Z</time>
      </trkpt>
      <trkpt lat="43.87273" lon="6.45728">
        <ele>1150</ele>
        <time>2018-05-25T12:32:04Z</time>
      </trkpt>
      <trkpt lat="43.87273" lon="6.45726">
        <ele>1150</ele>
        <time>2018-05-25T12:32:05Z</time>
      </trkpt>
      <trkpt lat="43.87273" lon="6.45723">
        <ele>1149</ele>
        <time>2018-05-25T12:32:07Z</time>
      </trkpt>
      <trkpt lat="43.87273" lon="6.45718">
        <ele>1148</ele>
        <time>2018-05-25T12:32:10Z</time>
      </trkpt>
      <trkpt lat="43.87272" lon="6.45716">
        <ele>1148</ele>
        <time>2018-05-25T12:32:11Z</time>
      </trkpt>
      <trkpt lat="43.87271" lon="6.45715">
        <ele>1147</ele>
        <time>2018-05-25T12:32:12Z</time>
      </trkpt>
      <trkpt lat="43.87263" lon="6.45701">
        <ele>1144</ele>
        <time>2018-05-25T12:32:22Z</time>
      </trkpt>
      <trkpt lat="43.87261" lon="6.4569">
        <ele>1141</ele>
        <time>2018-05-25T12:32:37Z</time>
      </trkpt>
      <trkpt lat="43.87255" lon="6.4568">
        <ele>1138</ele>
        <time>2018-05-25T12:32:48Z</time>
      </trkpt>
      <trkpt lat="43.8725" lon="6.45671">
        <ele>1136</ele>
        <time>2018-05-25T12:33:03Z</time>
      </trkpt>
      <trkpt lat="43.87246" lon="6.4566">
        <ele>1132</ele>
        <time>2018-05-25T12:33:17Z</time>
      </trkpt>
      <trkpt lat="43.87244" lon="6.45659">
        <ele>1131</ele>
        <time>2018-05-25T12:33:32Z</time>
      </trkpt>
      <trkpt lat="43.87243" lon="6.45657">
        <ele>1131</ele>
        <time>2018-05-25T12:34:05Z</time>
      </trkpt>
      <trkpt lat="43.8724" lon="6.45656">
        <ele>1130</ele>
        <time>2018-05-25T12:34:29Z</time>
      </trkpt>
      <trkpt lat="43.87236" lon="6.45656">
        <ele>1130</ele>
        <time>2018-05-25T12:34:41Z</time>
      </trkpt>
      <trkpt lat="43.87231" lon="6.45659">
        <ele>1130</ele>
        <time>2018-05-25T12:34:53Z</time>
      </trkpt>
      <trkpt lat="43.87231" lon="6.45657">
        <ele>1130</ele>
        <time>2018-05-25T12:35:24Z</time>
      </trkpt>
      <trkpt lat="43.87231" lon="6.45657">
        <ele>1130</ele>
        <time>2018-05-25T12:35:52Z</time>
      </trkpt>
      <trkpt lat="43.87227" lon="6.4565">
        <ele>1128</ele>
        <time>2018-05-25T12:36:06Z</time>
      </trkpt>
      <trkpt lat="43.87221" lon="6.45642">
        <ele>1125</ele>
        <time>2018-05-25T12:36:21Z</time>
      </trkpt>
      <trkpt lat="43.87219" lon="6.45633">
        <ele>1123</ele>
        <time>2018-05-25T12:36:37Z</time>
      </trkpt>
      <trkpt lat="43.87219" lon="6.45623">
        <ele>1121</ele>
        <time>2018-05-25T12:36:51Z</time>
      </trkpt>
      <trkpt lat="43.87217" lon="6.45616">
        <ele>1118</ele>
        <time>2018-05-25T12:37:04Z</time>
      </trkpt>
      <trkpt lat="43.87217" lon="6.45605">
        <ele>1116</ele>
        <time>2018-05-25T12:37:16Z</time>
      </trkpt>
      <trkpt lat="43.87215" lon="6.45595">
        <ele>1113</ele>
        <time>2018-05-25T12:37:29Z</time>
      </trkpt>
      <trkpt lat="43.87213" lon="6.45585">
        <ele>1110</ele>
        <time>2018-05-25T12:37:42Z</time>
      </trkpt>
      <trkpt lat="43.87212" lon="6.45577">
        <ele>1107</ele>
        <time>2018-05-25T12:37:52Z</time>
      </trkpt>
      <trkpt lat="43.87211" lon="6.45572">
        <ele>1106</ele>
        <time>2018-05-25T12:37:57Z</time>
      </trkpt>
      <trkpt lat="43.87211" lon="6.4557">
        <ele>1105</ele>
        <time>2018-05-25T12:37:58Z</time>
      </trkpt>
      <trkpt lat="43.87211" lon="6.45568">
        <ele>1104</ele>
        <time>2018-05-25T12:37:59Z</time>
      </trkpt>
      <trkpt lat="43.87212" lon="6.45565">
        <ele>1104</ele>
        <time>2018-05-25T12:38:00Z</time>
      </trkpt>
      <trkpt lat="43.87213" lon="6.45563">
        <ele>1103</ele>
        <time>2018-05-25T12:38:01Z</time>
      </trkpt>
      <trkpt lat="43.87214" lon="6.4556">
        <ele>1103</ele>
        <time>2018-05-25T12:38:02Z</time>
      </trkpt>
      <trkpt lat="43.87214" lon="6.45558">
        <ele>1102</ele>
        <time>2018-05-25T12:38:03Z</time>
      </trkpt>
      <trkpt lat="43.87214" lon="6.45556">
        <ele>1101</ele>
        <time>2018-05-25T12:38:04Z</time>
      </trkpt>
      <trkpt lat="43.87214" lon="6.45553">
        <ele>1101</ele>
        <time>2018-05-25T12:38:05Z</time>
      </trkpt>
      <trkpt lat="43.87214" lon="6.45551">
        <ele>1100</ele>
        <time>2018-05-25T12:38:06Z</time>
      </trkpt>
      <trkpt lat="43.87215" lon="6.45549">
        <ele>1100</ele>
        <time>2018-05-25T12:38:07Z</time>
      </trkpt>
      <trkpt lat="43.87215" lon="6.45547">
        <ele>1099</ele>
        <time>2018-05-25T12:38:08Z</time>
      </trkpt>
      <trkpt lat="43.87216" lon="6.45544">
        <ele>1098</ele>
        <time>2018-05-25T12:38:09Z</time>
      </trkpt>
      <trkpt lat="43.87216" lon="6.45542">
        <ele>1097</ele>
        <time>2018-05-25T12:38:10Z</time>
      </trkpt>
      <trkpt lat="43.87216" lon="6.45539">
        <ele>1097</ele>
        <time>2018-05-25T12:38:11Z</time>
      </trkpt>
      <trkpt lat="43.87218" lon="6.45533">
        <ele>1095</ele>
        <time>2018-05-25T12:38:22Z</time>
      </trkpt>
      <trkpt lat="43.87216" lon="6.45519">
        <ele>1091</ele>
        <time>2018-05-25T12:38:36Z</time>
      </trkpt>
      <trkpt lat="43.87217" lon="6.4552">
        <ele>1091</ele>
        <time>2018-05-25T12:38:46Z</time>
      </trkpt>
      <trkpt lat="43.87216" lon="6.45518">
        <ele>1091</ele>
        <time>2018-05-25T12:38:47Z</time>
      </trkpt>
      <trkpt lat="43.87216" lon="6.45515">
        <ele>1090</ele>
        <time>2018-05-25T12:38:48Z</time>
      </trkpt>
      <trkpt lat="43.87216" lon="6.45513">
        <ele>1090</ele>
        <time>2018-05-25T12:38:49Z</time>
      </trkpt>
      <trkpt lat="43.87215" lon="6.45509">
        <ele>1088</ele>
        <time>2018-05-25T12:38:52Z</time>
      </trkpt>
      <trkpt lat="43.87214" lon="6.45499">
        <ele>1085</ele>
        <time>2018-05-25T12:38:56Z</time>
      </trkpt>
      <trkpt lat="43.87214" lon="6.45497">
        <ele>1085</ele>
        <time>2018-05-25T12:38:57Z</time>
      </trkpt>
      <trkpt lat="43.87212" lon="6.45492">
        <ele>1084</ele>
        <time>2018-05-25T12:39:00Z</time>
      </trkpt>
      <trkpt lat="43.87211" lon="6.4549">
        <ele>1083</ele>
        <time>2018-05-25T12:39:01Z</time>
      </trkpt>
      <trkpt lat="43.87209" lon="6.45486">
        <ele>1082</ele>
        <time>2018-05-25T12:39:03Z</time>
      </trkpt>
      <trkpt lat="43.87202" lon="6.45482">
        <ele>1081</ele>
        <time>2018-05-25T12:39:07Z</time>
      </trkpt>
      <trkpt lat="43.87202" lon="6.45464">
        <ele>1080</ele>
        <time>2018-05-25T12:39:15Z</time>
      </trkpt>
      <trkpt lat="43.87202" lon="6.45459">
        <ele>1080</ele>
        <time>2018-05-25T12:39:17Z</time>
      </trkpt>
      <trkpt lat="43.87206" lon="6.45443">
        <ele>1080</ele>
        <time>2018-05-25T12:39:25Z</time>
      </trkpt>
      <trkpt lat="43.87204" lon="6.45434">
        <ele>1080</ele>
        <time>2018-05-25T12:39:36Z</time>
      </trkpt>
      <trkpt lat="43.87206" lon="6.45432">
        <ele>1080</ele>
        <time>2018-05-25T12:39:52Z</time>
      </trkpt>
      <trkpt lat="43.87206" lon="6.4543">
        <ele>1080</ele>
        <time>2018-05-25T12:40:05Z</time>
      </trkpt>
      <trkpt lat="43.87203" lon="6.45419">
        <ele>1080</ele>
        <time>2018-05-25T12:40:18Z</time>
      </trkpt>
      <trkpt lat="43.87202" lon="6.45414">
        <ele>1080</ele>
        <time>2018-05-25T12:40:30Z</time>
      </trkpt>
      <trkpt lat="43.8721" lon="6.45425">
        <ele>1081</ele>
        <time>2018-05-25T12:41:06Z</time>
      </trkpt>
      <trkpt lat="43.8721" lon="6.45422">
        <ele>1081</ele>
        <time>2018-05-25T12:41:35Z</time>
      </trkpt>
      <trkpt lat="43.87213" lon="6.45424">
        <ele>1081</ele>
        <time>2018-05-25T12:42:15Z</time>
      </trkpt>
      <trkpt lat="43.87215" lon="6.45422">
        <ele>1081</ele>
        <time>2018-05-25T12:42:44Z</time>
      </trkpt>
      <trkpt lat="43.87208" lon="6.45417">
        <ele>1080</ele>
        <time>2018-05-25T12:43:24Z</time>
      </trkpt>
      <trkpt lat="43.87205" lon="6.45418">
        <ele>1080</ele>
        <time>2018-05-25T12:43:55Z</time>
      </trkpt>
      <trkpt lat="43.87197" lon="6.45416">
        <ele>1079</ele>
        <time>2018-05-25T12:44:27Z</time>
      </trkpt>
      <trkpt lat="43.87193" lon="6.45414">
        <ele>1079</ele>
        <time>2018-05-25T12:44:58Z</time>
      </trkpt>
      <trkpt lat="43.87187" lon="6.45408">
        <ele>1078</ele>
        <time>2018-05-25T12:45:38Z</time>
      </trkpt>
      <trkpt lat="43.87188" lon="6.45417">
        <ele>1078</ele>
        <time>2018-05-25T12:46:12Z</time>
      </trkpt>
      <trkpt lat="43.87193" lon="6.45422">
        <ele>1079</ele>
        <time>2018-05-25T12:46:40Z</time>
      </trkpt>
      <trkpt lat="43.87191" lon="6.45419">
        <ele>1079</ele>
        <time>2018-05-25T12:47:04Z</time>
      </trkpt>
      <trkpt lat="43.8719" lon="6.4542">
        <ele>1079</ele>
        <time>2018-05-25T12:47:34Z</time>
      </trkpt>
      <trkpt lat="43.87196" lon="6.45422">
        <ele>1079</ele>
        <time>2018-05-25T12:48:09Z</time>
      </trkpt>
      <trkpt lat="43.87197" lon="6.45419">
        <ele>1079</ele>
        <time>2018-05-25T12:48:39Z</time>
      </trkpt>
      <trkpt lat="43.87196" lon="6.45403">
        <ele>1078</ele>
        <time>2018-05-25T12:48:59Z</time>
      </trkpt>
      <trkpt lat="43.87196" lon="6.45401">
        <ele>1078</ele>
        <time>2018-05-25T12:49:00Z</time>
      </trkpt>
      <trkpt lat="43.87191" lon="6.4539">
        <ele>1077</ele>
        <time>2018-05-25T12:49:07Z</time>
      </trkpt>
      <trkpt lat="43.87186" lon="6.45374">
        <ele>1076</ele>
        <time>2018-05-25T12:49:19Z</time>
      </trkpt>
      <trkpt lat="43.87186" lon="6.45369">
        <ele>1076</ele>
        <time>2018-05-25T12:49:31Z</time>
      </trkpt>
      <trkpt lat="43.87189" lon="6.45363">
        <ele>1076</ele>
        <time>2018-05-25T12:49:42Z</time>
      </trkpt>
      <trkpt lat="43.87191" lon="6.45358">
        <ele>1076</ele>
        <time>2018-05-25T12:50:19Z</time>
      </trkpt>
      <trkpt lat="43.87188" lon="6.45357">
        <ele>1075</ele>
        <time>2018-05-25T12:50:50Z</time>
      </trkpt>
      <trkpt lat="43.87191" lon="6.45357">
        <ele>1076</ele>
        <time>2018-05-25T12:51:17Z</time>
      </trkpt>
      <trkpt lat="43.87186" lon="6.45358">
        <ele>1075</ele>
        <time>2018-05-25T12:51:43Z</time>
      </trkpt>
      <trkpt lat="43.87185" lon="6.45352">
        <ele>1075</ele>
        <time>2018-05-25T12:51:59Z</time>
      </trkpt>
      <trkpt lat="43.87184" lon="6.45317">
        <ele>1074</ele>
        <time>2018-05-25T12:52:14Z</time>
      </trkpt>
      <trkpt lat="43.8718" lon="6.4527">
        <ele>1073</ele>
        <time>2018-05-25T12:52:27Z</time>
      </trkpt>
      <trkpt lat="43.87175" lon="6.4525">
        <ele>1073</ele>
        <time>2018-05-25T12:52:30Z</time>
      </trkpt>
      <trkpt lat="43.87174" lon="6.45242">
        <ele>1073</ele>
        <time>2018-05-25T12:52:31Z</time>
      </trkpt>
      <trkpt lat="43.87174" lon="6.45235">
        <ele>1073</ele>
        <time>2018-05-25T12:52:32Z</time>
      </trkpt>
      <trkpt lat="43.87174" lon="6.45228">
        <ele>1073</ele>
        <time>2018-05-25T12:52:33Z</time>
      </trkpt>
      <trkpt lat="43.87175" lon="6.45221">
        <ele>1073</ele>
        <time>2018-05-25T12:52:34Z</time>
      </trkpt>
      <trkpt lat="43.87174" lon="6.45172">
        <ele>1075</ele>
        <time>2018-05-25T12:52:44Z</time>
      </trkpt>
      <trkpt lat="43.8717" lon="6.4513">
        <ele>1074</ele>
        <time>2018-05-25T12:52:59Z</time>
      </trkpt>
      <trkpt lat="43.87169" lon="6.4513">
        <ele>1074</ele>
        <time>2018-05-25T12:53:25Z</time>
      </trkpt>
      <trkpt lat="43.87168" lon="6.45128">
        <ele>1073</ele>
        <time>2018-05-25T12:53:54Z</time>
      </trkpt>
      <trkpt lat="43.87168" lon="6.45129">
        <ele>1073</ele>
        <time>2018-05-25T12:54:19Z</time>
      </trkpt>
      <trkpt lat="43.87169" lon="6.45129">
        <ele>1074</ele>
        <time>2018-05-25T12:54:42Z</time>
      </trkpt>
      <trkpt lat="43.8717" lon="6.4513">
        <ele>1074</ele>
        <time>2018-05-25T12:55:08Z</time>
      </trkpt>
      <trkpt lat="43.8717" lon="6.4513">
        <ele>1074</ele>
        <time>2018-05-25T12:55:29Z</time>
      </trkpt>
      <trkpt lat="43.87169" lon="6.45128">
        <ele>1074</ele>
        <time>2018-05-25T12:55:30Z</time>
      </trkpt>
      <trkpt lat="43.87167" lon="6.45127">
        <ele>1073</ele>
        <time>2018-05-25T12:55:31Z</time>
      </trkpt>
      <trkpt lat="43.87163" lon="6.45126">
        <ele>1072</ele>
        <time>2018-05-25T12:55:32Z</time>
      </trkpt>
      <trkpt lat="43.87156" lon="6.45125">
        <ele>1070</ele>
        <time>2018-05-25T12:55:34Z</time>
      </trkpt>
      <trkpt lat="43.87153" lon="6.4512">
        <ele>1068</ele>
        <time>2018-05-25T12:55:35Z</time>
      </trkpt>
      <trkpt lat="43.8715" lon="6.45115">
        <ele>1067</ele>
        <time>2018-05-25T12:55:36Z</time>
      </trkpt>
      <trkpt lat="43.87144" lon="6.45095">
        <ele>1064</ele>
        <time>2018-05-25T12:55:39Z</time>
      </trkpt>
      <trkpt lat="43.87142" lon="6.45087">
        <ele>1064</ele>
        <time>2018-05-25T12:55:40Z</time>
      </trkpt>
      <trkpt lat="43.87139" lon="6.45079">
        <ele>1063</ele>
        <time>2018-05-25T12:55:41Z</time>
      </trkpt>
      <trkpt lat="43.87136" lon="6.45072">
        <ele>1063</ele>
        <time>2018-05-25T12:55:42Z</time>
      </trkpt>
      <trkpt lat="43.87131" lon="6.45066">
        <ele>1062</ele>
        <time>2018-05-25T12:55:43Z</time>
      </trkpt>
      <trkpt lat="43.87125" lon="6.45061">
        <ele>1061</ele>
        <time>2018-05-25T12:55:44Z</time>
      </trkpt>
      <trkpt lat="43.87119" lon="6.45057">
        <ele>1059</ele>
        <time>2018-05-25T12:55:45Z</time>
      </trkpt>
      <trkpt lat="43.87112" lon="6.45054">
        <ele>1058</ele>
        <time>2018-05-25T12:55:46Z</time>
      </trkpt>
      <trkpt lat="43.87094" lon="6.45046">
        <ele>1057</ele>
        <time>2018-05-25T12:55:49Z</time>
      </trkpt>
      <trkpt lat="43.8702" lon="6.45028">
        <ele>1055</ele>
        <time>2018-05-25T12:56:02Z</time>
      </trkpt>
      <trkpt lat="43.86983" lon="6.45014">
        <ele>1053</ele>
        <time>2018-05-25T12:56:10Z</time>
      </trkpt>
      <trkpt lat="43.86983" lon="6.4501">
        <ele>1053</ele>
        <time>2018-05-25T12:56:11Z</time>
      </trkpt>
      <trkpt lat="43.86984" lon="6.45005">
        <ele>1053</ele>
        <time>2018-05-25T12:56:12Z</time>
      </trkpt>
      <trkpt lat="43.86998" lon="6.44982">
        <ele>1052</ele>
        <time>2018-05-25T12:56:18Z</time>
      </trkpt>
      <trkpt lat="43.8701" lon="6.4496">
        <ele>1051</ele>
        <time>2018-05-25T12:56:22Z</time>
      </trkpt>
      <trkpt lat="43.87014" lon="6.44949">
        <ele>1050</ele>
        <time>2018-05-25T12:56:25Z</time>
      </trkpt>
      <trkpt lat="43.87009" lon="6.44962">
        <ele>1051</ele>
        <time>2018-05-25T12:56:32Z</time>
      </trkpt>
      <trkpt lat="43.87004" lon="6.44966">
        <ele>1051</ele>
        <time>2018-05-25T12:56:37Z</time>
      </trkpt>
      <trkpt lat="43.86999" lon="6.44974">
        <ele>1051</ele>
        <time>2018-05-25T12:56:43Z</time>
      </trkpt>
      <trkpt lat="43.87002" lon="6.44976">
        <ele>1052</ele>
        <time>2018-05-25T12:56:47Z</time>
      </trkpt>
      <trkpt lat="43.87004" lon="6.44973">
        <ele>1051</ele>
        <time>2018-05-25T12:56:48Z</time>
      </trkpt>
      <trkpt lat="43.87005" lon="6.4497">
        <ele>1051</ele>
        <time>2018-05-25T12:56:49Z</time>
      </trkpt>
      <trkpt lat="43.87007" lon="6.44966">
        <ele>1051</ele>
        <time>2018-05-25T12:56:50Z</time>
      </trkpt>
      <trkpt lat="43.87026" lon="6.44934">
        <ele>1050</ele>
        <time>2018-05-25T12:56:58Z</time>
      </trkpt>
      <trkpt lat="43.87028" lon="6.44929">
        <ele>1050</ele>
        <time>2018-05-25T12:56:59Z</time>
      </trkpt>
      <trkpt lat="43.87046" lon="6.44899">
        <ele>1049</ele>
        <time>2018-05-25T12:57:05Z</time>
      </trkpt>
      <trkpt lat="43.87049" lon="6.44894">
        <ele>1048</ele>
        <time>2018-05-25T12:57:06Z</time>
      </trkpt>
      <trkpt lat="43.87052" lon="6.44888">
        <ele>1048</ele>
        <time>2018-05-25T12:57:07Z</time>
      </trkpt>
      <trkpt lat="43.87097" lon="6.44826">
        <ele>1046</ele>
        <time>2018-05-25T12:57:18Z</time>
      </trkpt>
      <trkpt lat="43.871" lon="6.44819">
        <ele>1046</ele>
        <time>2018-05-25T12:57:19Z</time>
      </trkpt>
      <trkpt lat="43.87103" lon="6.44813">
        <ele>1046</ele>
        <time>2018-05-25T12:57:20Z</time>
      </trkpt>
      <trkpt lat="43.87106" lon="6.44806">
        <ele>1046</ele>
        <time>2018-05-25T12:57:21Z</time>
      </trkpt>
      <trkpt lat="43.87108" lon="6.44798">
        <ele>1045</ele>
        <time>2018-05-25T12:57:22Z</time>
      </trkpt>
      <trkpt lat="43.8711" lon="6.4479">
        <ele>1045</ele>
        <time>2018-05-25T12:57:23Z</time>
      </trkpt>
      <trkpt lat="43.87119" lon="6.44733">
        <ele>1044</ele>
        <time>2018-05-25T12:57:30Z</time>
      </trkpt>
      <trkpt lat="43.87122" lon="6.44725">
        <ele>1044</ele>
        <time>2018-05-25T12:57:31Z</time>
      </trkpt>
      <trkpt lat="43.87125" lon="6.44717">
        <ele>1045</ele>
        <time>2018-05-25T12:57:32Z</time>
      </trkpt>
      <trkpt lat="43.87129" lon="6.4471">
        <ele>1046</ele>
        <time>2018-05-25T12:57:33Z</time>
      </trkpt>
      <trkpt lat="43.87134" lon="6.44702">
        <ele>1047</ele>
        <time>2018-05-25T12:57:34Z</time>
      </trkpt>
      <trkpt lat="43.87138" lon="6.44696">
        <ele>1047</ele>
        <time>2018-05-25T12:57:35Z</time>
      </trkpt>
      <trkpt lat="43.87144" lon="6.44691">
        <ele>1047</ele>
        <time>2018-05-25T12:57:36Z</time>
      </trkpt>
      <trkpt lat="43.87149" lon="6.44687">
        <ele>1047</ele>
        <time>2018-05-25T12:57:37Z</time>
      </trkpt>
      <trkpt lat="43.87155" lon="6.44683">
        <ele>1046</ele>
        <time>2018-05-25T12:57:38Z</time>
      </trkpt>
      <trkpt lat="43.87161" lon="6.4468">
        <ele>1046</ele>
        <time>2018-05-25T12:57:39Z</time>
      </trkpt>
      <trkpt lat="43.87178" lon="6.44672">
        <ele>1046</ele>
        <time>2018-05-25T12:57:42Z</time>
      </trkpt>
      <trkpt lat="43.87254" lon="6.44641">
        <ele>1052</ele>
        <time>2018-05-25T12:57:56Z</time>
      </trkpt>
      <trkpt lat="43.87265" lon="6.44637">
        <ele>1051</ele>
        <time>2018-05-25T12:57:58Z</time>
      </trkpt>
      <trkpt lat="43.87271" lon="6.44634">
        <ele>1051</ele>
        <time>2018-05-25T12:57:59Z</time>
      </trkpt>
      <trkpt lat="43.87283" lon="6.44627">
        <ele>1050</ele>
        <time>2018-05-25T12:58:01Z</time>
      </trkpt>
      <trkpt lat="43.87288" lon="6.44622">
        <ele>1049</ele>
        <time>2018-05-25T12:58:02Z</time>
      </trkpt>
      <trkpt lat="43.87324" lon="6.44579">
        <ele>1045</ele>
        <time>2018-05-25T12:58:09Z</time>
      </trkpt>
      <trkpt lat="43.8733" lon="6.44574">
        <ele>1045</ele>
        <time>2018-05-25T12:58:10Z</time>
      </trkpt>
      <trkpt lat="43.87405" lon="6.4451">
        <ele>1041</ele>
        <time>2018-05-25T12:58:22Z</time>
      </trkpt>
      <trkpt lat="43.87491" lon="6.44424">
        <ele>1042</ele>
        <time>2018-05-25T12:58:36Z</time>
      </trkpt>
      <trkpt lat="43.87542" lon="6.44397">
        <ele>1040</ele>
        <time>2018-05-25T12:58:43Z</time>
      </trkpt>
      <trkpt lat="43.87549" lon="6.44397">
        <ele>1039</ele>
        <time>2018-05-25T12:58:44Z</time>
      </trkpt>
      <trkpt lat="43.87556" lon="6.44398">
        <ele>1039</ele>
        <time>2018-05-25T12:58:45Z</time>
      </trkpt>
      <trkpt lat="43.87589" lon="6.44402">
        <ele>1037</ele>
        <time>2018-05-25T12:58:50Z</time>
      </trkpt>
      <trkpt lat="43.87595" lon="6.44401">
        <ele>1036</ele>
        <time>2018-05-25T12:58:51Z</time>
      </trkpt>
      <trkpt lat="43.87601" lon="6.44398">
        <ele>1035</ele>
        <time>2018-05-25T12:58:52Z</time>
      </trkpt>
      <trkpt lat="43.87639" lon="6.44386">
        <ele>1033</ele>
        <time>2018-05-25T12:58:58Z</time>
      </trkpt>
      <trkpt lat="43.87679" lon="6.44386">
        <ele>1037</ele>
        <time>2018-05-25T12:59:05Z</time>
      </trkpt>
      <trkpt lat="43.87684" lon="6.44383">
        <ele>1039</ele>
        <time>2018-05-25T12:59:06Z</time>
      </trkpt>
      <trkpt lat="43.87689" lon="6.4438">
        <ele>1041</ele>
        <time>2018-05-25T12:59:07Z</time>
      </trkpt>
      <trkpt lat="43.87693" lon="6.44375">
        <ele>1043</ele>
        <time>2018-05-25T12:59:08Z</time>
      </trkpt>
      <trkpt lat="43.87697" lon="6.4437">
        <ele>1045</ele>
        <time>2018-05-25T12:59:09Z</time>
      </trkpt>
      <trkpt lat="43.87702" lon="6.44368">
        <ele>1045</ele>
        <time>2018-05-25T12:59:10Z</time>
      </trkpt>
      <trkpt lat="43.87707" lon="6.44368">
        <ele>1045</ele>
        <time>2018-05-25T12:59:11Z</time>
      </trkpt>
      <trkpt lat="43.87712" lon="6.44369">
        <ele>1045</ele>
        <time>2018-05-25T12:59:12Z</time>
      </trkpt>
      <trkpt lat="43.87728" lon="6.44374">
        <ele>1040</ele>
        <time>2018-05-25T12:59:15Z</time>
      </trkpt>
      <trkpt lat="43.87734" lon="6.44377">
        <ele>1037</ele>
        <time>2018-05-25T12:59:16Z</time>
      </trkpt>
      <trkpt lat="43.87738" lon="6.44381">
        <ele>1034</ele>
        <time>2018-05-25T12:59:17Z</time>
      </trkpt>
      <trkpt lat="43.87742" lon="6.44387">
        <ele>1031</ele>
        <time>2018-05-25T12:59:18Z</time>
      </trkpt>
      <trkpt lat="43.87746" lon="6.44392">
        <ele>1028</ele>
        <time>2018-05-25T12:59:19Z</time>
      </trkpt>
      <trkpt lat="43.87753" lon="6.44403">
        <ele>1025</ele>
        <time>2018-05-25T12:59:21Z</time>
      </trkpt>
      <trkpt lat="43.87759" lon="6.44412">
        <ele>1029</ele>
        <time>2018-05-25T12:59:23Z</time>
      </trkpt>
      <trkpt lat="43.87761" lon="6.44417">
        <ele>1031</ele>
        <time>2018-05-25T12:59:24Z</time>
      </trkpt>
      <trkpt lat="43.87769" lon="6.44429">
        <ele>1040</ele>
        <time>2018-05-25T12:59:30Z</time>
      </trkpt>
      <trkpt lat="43.87771" lon="6.44433">
        <ele>1043</ele>
        <time>2018-05-25T12:59:43Z</time>
      </trkpt>
      <trkpt lat="43.87773" lon="6.44432">
        <ele>1043</ele>
        <time>2018-05-25T12:59:51Z</time>
      </trkpt>
      <trkpt lat="43.87774" lon="6.44431">
        <ele>1042</ele>
        <time>2018-05-25T12:59:52Z</time>
      </trkpt>
      <trkpt lat="43.87774" lon="6.44429">
        <ele>1040</ele>
        <time>2018-05-25T12:59:53Z</time>
      </trkpt>
      <trkpt lat="43.87779" lon="6.44425">
        <ele>1037</ele>
        <time>2018-05-25T13:00:03Z</time>
      </trkpt>
      <trkpt lat="43.8778" lon="6.44423">
        <ele>1035</ele>
        <time>2018-05-25T13:00:27Z</time>
      </trkpt>
      <trkpt lat="43.87781" lon="6.44423">
        <ele>1035</ele>
        <time>2018-05-25T13:00:53Z</time>
      </trkpt>
      <trkpt lat="43.87782" lon="6.44424">
        <ele>1036</ele>
        <time>2018-05-25T13:01:16Z</time>
      </trkpt>
      <trkpt lat="43.87781" lon="6.44422">
        <ele>1034</ele>
        <time>2018-05-25T13:01:45Z</time>
      </trkpt>
      <trkpt lat="43.87783" lon="6.44421">
        <ele>1033</ele>
        <time>2018-05-25T13:02:12Z</time>
      </trkpt>
      <trkpt lat="43.87782" lon="6.4442">
        <ele>1033</ele>
        <time>2018-05-25T13:02:43Z</time>
      </trkpt>
      <trkpt lat="43.87782" lon="6.4442">
        <ele>1033</ele>
        <time>2018-05-25T13:03:09Z</time>
      </trkpt>
      <trkpt lat="43.87782" lon="6.44421">
        <ele>1034</ele>
        <time>2018-05-25T13:03:40Z</time>
      </trkpt>
      <trkpt lat="43.8778" lon="6.44425">
        <ele>1037</ele>
        <time>2018-05-25T13:04:12Z</time>
      </trkpt>
      <trkpt lat="43.87776" lon="6.44429">
        <ele>1040</ele>
        <time>2018-05-25T13:04:43Z</time>
      </trkpt>
      <trkpt lat="43.87777" lon="6.44428">
        <ele>1039</ele>
        <time>2018-05-25T13:05:10Z</time>
      </trkpt>
      <trkpt lat="43.8778" lon="6.44427">
        <ele>1039</ele>
        <time>2018-05-25T13:05:38Z</time>
      </trkpt>
      <trkpt lat="43.87781" lon="6.44426">
        <ele>1037</ele>
        <time>2018-05-25T13:06:04Z</time>
      </trkpt>
      <trkpt lat="43.87781" lon="6.44422">
        <ele>1034</ele>
        <time>2018-05-25T13:06:32Z</time>
      </trkpt>
      <trkpt lat="43.87784" lon="6.44428">
        <ele>1039</ele>
        <time>2018-05-25T13:06:54Z</time>
      </trkpt>
      <trkpt lat="43.87786" lon="6.44429">
        <ele>1040</ele>
        <time>2018-05-25T13:06:55Z</time>
      </trkpt>
      <trkpt lat="43.87789" lon="6.4443">
        <ele>1041</ele>
        <time>2018-05-25T13:06:57Z</time>
      </trkpt>
      <trkpt lat="43.87792" lon="6.4443">
        <ele>1041</ele>
        <time>2018-05-25T13:06:58Z</time>
      </trkpt>
      <trkpt lat="43.87804" lon="6.44422">
        <ele>1034</ele>
        <time>2018-05-25T13:07:02Z</time>
      </trkpt>
      <trkpt lat="43.87807" lon="6.44419">
        <ele>1032</ele>
        <time>2018-05-25T13:07:03Z</time>
      </trkpt>
      <trkpt lat="43.8781" lon="6.44416">
        <ele>1030</ele>
        <time>2018-05-25T13:07:04Z</time>
      </trkpt>
      <trkpt lat="43.87843" lon="6.44398">
        <ele>1030</ele>
        <time>2018-05-25T13:07:11Z</time>
      </trkpt>
      <trkpt lat="43.8791" lon="6.44336">
        <ele>1024</ele>
        <time>2018-05-25T13:07:21Z</time>
      </trkpt>
      <trkpt lat="43.87915" lon="6.44328">
        <ele>1024</ele>
        <time>2018-05-25T13:07:22Z</time>
      </trkpt>
      <trkpt lat="43.87918" lon="6.44318">
        <ele>1022</ele>
        <time>2018-05-25T13:07:23Z</time>
      </trkpt>
      <trkpt lat="43.87929" lon="6.44288">
        <ele>1018</ele>
        <time>2018-05-25T13:07:27Z</time>
      </trkpt>
      <trkpt lat="43.87934" lon="6.44282">
        <ele>1016</ele>
        <time>2018-05-25T13:07:28Z</time>
      </trkpt>
      <trkpt lat="43.87946" lon="6.44274">
        <ele>1016</ele>
        <time>2018-05-25T13:07:30Z</time>
      </trkpt>
      <trkpt lat="43.87967" lon="6.44258">
        <ele>1020</ele>
        <time>2018-05-25T13:07:33Z</time>
      </trkpt>
      <trkpt lat="43.87976" lon="6.44253">
        <ele>1024</ele>
        <time>2018-05-25T13:07:34Z</time>
      </trkpt>
      <trkpt lat="43.87983" lon="6.44246">
        <ele>1026</ele>
        <time>2018-05-25T13:07:35Z</time>
      </trkpt>
      <trkpt lat="43.87988" lon="6.44235">
        <ele>1025</ele>
        <time>2018-05-25T13:07:36Z</time>
      </trkpt>
      <trkpt lat="43.87991" lon="6.44223">
        <ele>1024</ele>
        <time>2018-05-25T13:07:37Z</time>
      </trkpt>
      <trkpt lat="43.87991" lon="6.4421">
        <ele>1021</ele>
        <time>2018-05-25T13:07:38Z</time>
      </trkpt>
      <trkpt lat="43.87989" lon="6.44199">
        <ele>1018</ele>
        <time>2018-05-25T13:07:39Z</time>
      </trkpt>
      <trkpt lat="43.87986" lon="6.4419">
        <ele>1015</ele>
        <time>2018-05-25T13:07:40Z</time>
      </trkpt>
      <trkpt lat="43.87983" lon="6.44183">
        <ele>1012</ele>
        <time>2018-05-25T13:07:41Z</time>
      </trkpt>
      <trkpt lat="43.87981" lon="6.44176">
        <ele>1011</ele>
        <time>2018-05-25T13:07:42Z</time>
      </trkpt>
      <trkpt lat="43.87982" lon="6.44171">
        <ele>1010</ele>
        <time>2018-05-25T13:07:43Z</time>
      </trkpt>
      <trkpt lat="43.87983" lon="6.44167">
        <ele>1010</ele>
        <time>2018-05-25T13:07:44Z</time>
      </trkpt>
      <trkpt lat="43.87984" lon="6.44163">
        <ele>1009</ele>
        <time>2018-05-25T13:07:45Z</time>
      </trkpt>
      <trkpt lat="43.87984" lon="6.4416">
        <ele>1008</ele>
        <time>2018-05-25T13:07:46Z</time>
      </trkpt>
      <trkpt lat="43.87982" lon="6.4416">
        <ele>1007</ele>
        <time>2018-05-25T13:07:54Z</time>
      </trkpt>
      <trkpt lat="43.8798" lon="6.44164">
        <ele>1009</ele>
        <time>2018-05-25T13:08:01Z</time>
      </trkpt>
      <trkpt lat="43.87978" lon="6.44171">
        <ele>1009</ele>
        <time>2018-05-25T13:08:06Z</time>
      </trkpt>
      <trkpt lat="43.87978" lon="6.44173">
        <ele>1009</ele>
        <time>2018-05-25T13:08:07Z</time>
      </trkpt>
      <trkpt lat="43.87977" lon="6.44175">
        <ele>1009</ele>
        <time>2018-05-25T13:08:08Z</time>
      </trkpt>
      <trkpt lat="43.87976" lon="6.44181">
        <ele>1009</ele>
        <time>2018-05-25T13:08:11Z</time>
      </trkpt>
      <trkpt lat="43.87977" lon="6.44182">
        <ele>1009</ele>
        <time>2018-05-25T13:08:12Z</time>
      </trkpt>
      <trkpt lat="43.87976" lon="6.44183">
        <ele>1009</ele>
        <time>2018-05-25T13:08:27Z</time>
      </trkpt>
      <trkpt lat="43.87974" lon="6.44181">
        <ele>1008</ele>
        <time>2018-05-25T13:09:02Z</time>
      </trkpt>
      <trkpt lat="43.87977" lon="6.44184">
        <ele>1010</ele>
        <time>2018-05-25T13:09:18Z</time>
      </trkpt>
      <trkpt lat="43.87978" lon="6.44185">
        <ele>1010</ele>
        <time>2018-05-25T13:09:19Z</time>
      </trkpt>
      <trkpt lat="43.87979" lon="6.44187">
        <ele>1011</ele>
        <time>2018-05-25T13:09:20Z</time>
      </trkpt>
      <trkpt lat="43.8798" lon="6.44189">
        <ele>1011</ele>
        <time>2018-05-25T13:09:21Z</time>
      </trkpt>
      <trkpt lat="43.8798" lon="6.44191">
        <ele>1012</ele>
        <time>2018-05-25T13:09:22Z</time>
      </trkpt>
      <trkpt lat="43.87989" lon="6.44229">
        <ele>1023</ele>
        <time>2018-05-25T13:09:36Z</time>
      </trkpt>
      <trkpt lat="43.87976" lon="6.44251">
        <ele>1023</ele>
        <time>2018-05-25T13:09:47Z</time>
      </trkpt>
      <trkpt lat="43.87953" lon="6.44262">
        <ele>1013</ele>
        <time>2018-05-25T13:10:04Z</time>
      </trkpt>
      <trkpt lat="43.87952" lon="6.44271">
        <ele>1017</ele>
        <time>2018-05-25T13:10:29Z</time>
      </trkpt>
      <trkpt lat="43.8795" lon="6.44269">
        <ele>1015</ele>
        <time>2018-05-25T13:10:53Z</time>
      </trkpt>
      <trkpt lat="43.87949" lon="6.44269">
        <ele>1014</ele>
        <time>2018-05-25T13:11:21Z</time>
      </trkpt>
      <trkpt lat="43.8795" lon="6.44272">
        <ele>1017</ele>
        <time>2018-05-25T13:11:38Z</time>
      </trkpt>
      <trkpt lat="43.8795" lon="6.44274">
        <ele>1018</ele>
        <time>2018-05-25T13:11:39Z</time>
      </trkpt>
      <trkpt lat="43.87949" lon="6.44275">
        <ele>1018</ele>
        <time>2018-05-25T13:11:40Z</time>
      </trkpt>
      <trkpt lat="43.87932" lon="6.44285">
        <ele>1017</ele>
        <time>2018-05-25T13:11:55Z</time>
      </trkpt>
      <trkpt lat="43.87919" lon="6.443">
        <ele>1017</ele>
        <time>2018-05-25T13:12:09Z</time>
      </trkpt>
      <trkpt lat="43.87918" lon="6.44302">
        <ele>1017</ele>
        <time>2018-05-25T13:12:10Z</time>
      </trkpt>
      <trkpt lat="43.87918" lon="6.44303">
        <ele>1018</ele>
        <time>2018-05-25T13:12:11Z</time>
      </trkpt>
      <trkpt lat="43.87918" lon="6.44305">
        <ele>1018</ele>
        <time>2018-05-25T13:12:12Z</time>
      </trkpt>
      <trkpt lat="43.87918" lon="6.44307">
        <ele>1019</ele>
        <time>2018-05-25T13:12:13Z</time>
      </trkpt>
      <trkpt lat="43.87918" lon="6.44308">
        <ele>1019</ele>
        <time>2018-05-25T13:12:14Z</time>
      </trkpt>
      <trkpt lat="43.87917" lon="6.4431">
        <ele>1019</ele>
        <time>2018-05-25T13:12:15Z</time>
      </trkpt>
      <trkpt lat="43.87915" lon="6.44325">
        <ele>1023</ele>
        <time>2018-05-25T13:12:23Z</time>
      </trkpt>
      <trkpt lat="43.87915" lon="6.44327">
        <ele>1023</ele>
        <time>2018-05-25T13:12:24Z</time>
      </trkpt>
      <trkpt lat="43.87914" lon="6.44328">
        <ele>1023</ele>
        <time>2018-05-25T13:12:25Z</time>
      </trkpt>
      <trkpt lat="43.87913" lon="6.4433">
        <ele>1024</ele>
        <time>2018-05-25T13:12:26Z</time>
      </trkpt>
      <trkpt lat="43.87913" lon="6.44332">
        <ele>1024</ele>
        <time>2018-05-25T13:12:27Z</time>
      </trkpt>
      <trkpt lat="43.87894" lon="6.44348">
        <ele>1019</ele>
        <time>2018-05-25T13:12:41Z</time>
      </trkpt>
      <trkpt lat="43.87874" lon="6.44366">
        <ele>1022</ele>
        <time>2018-05-25T13:12:57Z</time>
      </trkpt>
      <trkpt lat="43.87853" lon="6.44386">
        <ele>1026</ele>
        <time>2018-05-25T13:13:13Z</time>
      </trkpt>
      <trkpt lat="43.87835" lon="6.44404">
        <ele>1030</ele>
        <time>2018-05-25T13:13:28Z</time>
      </trkpt>
      <trkpt lat="43.87814" lon="6.44416">
        <ele>1032</ele>
        <time>2018-05-25T13:13:43Z</time>
      </trkpt>
      <trkpt lat="43.87788" lon="6.44428">
        <ele>1040</ele>
        <time>2018-05-25T13:14:00Z</time>
      </trkpt>
      <trkpt lat="43.87766" lon="6.44425">
        <ele>1036</ele>
        <time>2018-05-25T13:14:13Z</time>
      </trkpt>
      <trkpt lat="43.87765" lon="6.44423">
        <ele>1035</ele>
        <time>2018-05-25T13:14:14Z</time>
      </trkpt>
      <trkpt lat="43.87764" lon="6.4442">
        <ele>1032</ele>
        <time>2018-05-25T13:14:15Z</time>
      </trkpt>
      <trkpt lat="43.87743" lon="6.4438">
        <ele>1031</ele>
        <time>2018-05-25T13:14:33Z</time>
      </trkpt>
      <trkpt lat="43.87723" lon="6.44367">
        <ele>1044</ele>
        <time>2018-05-25T13:14:47Z</time>
      </trkpt>
      <trkpt lat="43.87722" lon="6.44368">
        <ele>1045</ele>
        <time>2018-05-25T13:14:51Z</time>
      </trkpt>
      <trkpt lat="43.8772" lon="6.44367">
        <ele>1045</ele>
        <time>2018-05-25T13:14:52Z</time>
      </trkpt>
      <trkpt lat="43.87718" lon="6.44367">
        <ele>1045</ele>
        <time>2018-05-25T13:14:53Z</time>
      </trkpt>
      <trkpt lat="43.87717" lon="6.44367">
        <ele>1045</ele>
        <time>2018-05-25T13:14:54Z</time>
      </trkpt>
      <trkpt lat="43.87715" lon="6.44366">
        <ele>1046</ele>
        <time>2018-05-25T13:14:55Z</time>
      </trkpt>
      <trkpt lat="43.87713" lon="6.44366">
        <ele>1046</ele>
        <time>2018-05-25T13:14:56Z</time>
      </trkpt>
      <trkpt lat="43.87711" lon="6.44365">
        <ele>1046</ele>
        <time>2018-05-25T13:14:57Z</time>
      </trkpt>
      <trkpt lat="43.87694" lon="6.44364">
        <ele>1046</ele>
        <time>2018-05-25T13:15:11Z</time>
      </trkpt>
      <trkpt lat="43.87693" lon="6.44366">
        <ele>1046</ele>
        <time>2018-05-25T13:15:16Z</time>
      </trkpt>
      <trkpt lat="43.87693" lon="6.44369">
        <ele>1045</ele>
        <time>2018-05-25T13:15:17Z</time>
      </trkpt>
      <trkpt lat="43.87672" lon="6.44385">
        <ele>1036</ele>
        <time>2018-05-25T13:15:29Z</time>
      </trkpt>
      <trkpt lat="43.87671" lon="6.44384">
        <ele>1037</ele>
        <time>2018-05-25T13:15:41Z</time>
      </trkpt>
      <trkpt lat="43.87669" lon="6.44384">
        <ele>1037</ele>
        <time>2018-05-25T13:15:45Z</time>
      </trkpt>
      <trkpt lat="43.87668" lon="6.44385">
        <ele>1036</ele>
        <time>2018-05-25T13:15:46Z</time>
      </trkpt>
      <trkpt lat="43.87629" lon="6.44385">
        <ele>1033</ele>
        <time>2018-05-25T13:16:03Z</time>
      </trkpt>
      <trkpt lat="43.87587" lon="6.444">
        <ele>1037</ele>
        <time>2018-05-25T13:16:19Z</time>
      </trkpt>
      <trkpt lat="43.87554" lon="6.44398">
        <ele>1039</ele>
        <time>2018-05-25T13:16:32Z</time>
      </trkpt>
      <trkpt lat="43.87514" lon="6.44409">
        <ele>1042</ele>
        <time>2018-05-25T13:16:48Z</time>
      </trkpt>
      <trkpt lat="43.87475" lon="6.44433">
        <ele>1041</ele>
        <time>2018-05-25T13:17:04Z</time>
      </trkpt>
      <trkpt lat="43.87435" lon="6.44472">
        <ele>1042</ele>
        <time>2018-05-25T13:17:22Z</time>
      </trkpt>
      <trkpt lat="43.87394" lon="6.44518">
        <ele>1042</ele>
        <time>2018-05-25T13:17:40Z</time>
      </trkpt>
      <trkpt lat="43.87353" lon="6.44553">
        <ele>1041</ele>
        <time>2018-05-25T13:17:56Z</time>
      </trkpt>
      <trkpt lat="43.87312" lon="6.44587">
        <ele>1045</ele>
        <time>2018-05-25T13:18:12Z</time>
      </trkpt>
      <trkpt lat="43.87279" lon="6.44626">
        <ele>1049</ele>
        <time>2018-05-25T13:18:26Z</time>
      </trkpt>
      <trkpt lat="43.87238" lon="6.44645">
        <ele>1052</ele>
        <time>2018-05-25T13:18:40Z</time>
      </trkpt>
      <trkpt lat="43.87185" lon="6.44665">
        <ele>1046</ele>
        <time>2018-05-25T13:18:57Z</time>
      </trkpt>
      <trkpt lat="43.87147" lon="6.44683">
        <ele>1047</ele>
        <time>2018-05-25T13:19:10Z</time>
      </trkpt>
      <trkpt lat="43.87116" lon="6.44723">
        <ele>1044</ele>
        <time>2018-05-25T13:19:25Z</time>
      </trkpt>
      <trkpt lat="43.87105" lon="6.44785">
        <ele>1044</ele>
        <time>2018-05-25T13:19:41Z</time>
      </trkpt>
      <trkpt lat="43.87085" lon="6.44835">
        <ele>1046</ele>
        <time>2018-05-25T13:19:56Z</time>
      </trkpt>
      <trkpt lat="43.87057" lon="6.44875">
        <ele>1047</ele>
        <time>2018-05-25T13:20:12Z</time>
      </trkpt>
      <trkpt lat="43.87035" lon="6.44913">
        <ele>1049</ele>
        <time>2018-05-25T13:20:26Z</time>
      </trkpt>
      <trkpt lat="43.87009" lon="6.44956">
        <ele>1051</ele>
        <time>2018-05-25T13:20:41Z</time>
      </trkpt>
      <trkpt lat="43.86981" lon="6.45003">
        <ele>1053</ele>
        <time>2018-05-25T13:20:59Z</time>
      </trkpt>
      <trkpt lat="43.86972" lon="6.45009">
        <ele>1053</ele>
        <time>2018-05-25T13:21:12Z</time>
      </trkpt>
      <trkpt lat="43.86972" lon="6.45008">
        <ele>1053</ele>
        <time>2018-05-25T13:21:45Z</time>
      </trkpt>
      <trkpt lat="43.86971" lon="6.45009">
        <ele>1053</ele>
        <time>2018-05-25T13:22:15Z</time>
      </trkpt>
      <trkpt lat="43.86971" lon="6.45009">
        <ele>1053</ele>
        <time>2018-05-25T13:22:42Z</time>
      </trkpt>
      <trkpt lat="43.86974" lon="6.45013">
        <ele>1053</ele>
        <time>2018-05-25T13:23:13Z</time>
      </trkpt>
      <trkpt lat="43.86971" lon="6.45012">
        <ele>1053</ele>
        <time>2018-05-25T13:23:39Z</time>
      </trkpt>
      <trkpt lat="43.8697" lon="6.45013">
        <ele>1053</ele>
        <time>2018-05-25T13:24:00Z</time>
      </trkpt>
      <trkpt lat="43.86971" lon="6.45011">
        <ele>1053</ele>
        <time>2018-05-25T13:24:19Z</time>
      </trkpt>
      <trkpt lat="43.86972" lon="6.45012">
        <ele>1053</ele>
        <time>2018-05-25T13:24:24Z</time>
      </trkpt>
      <trkpt lat="43.86973" lon="6.45013">
        <ele>1053</ele>
        <time>2018-05-25T13:24:25Z</time>
      </trkpt>
      <trkpt lat="43.86972" lon="6.45016">
        <ele>1053</ele>
        <time>2018-05-25T13:24:26Z</time>
      </trkpt>
      <trkpt lat="43.86971" lon="6.45018">
        <ele>1054</ele>
        <time>2018-05-25T13:24:27Z</time>
      </trkpt>
      <trkpt lat="43.8697" lon="6.4502">
        <ele>1054</ele>
        <time>2018-05-25T13:24:28Z</time>
      </trkpt>
      <trkpt lat="43.86969" lon="6.45022">
        <ele>1054</ele>
        <time>2018-05-25T13:24:29Z</time>
      </trkpt>
      <trkpt lat="43.86967" lon="6.45024">
        <ele>1054</ele>
        <time>2018-05-25T13:24:30Z</time>
      </trkpt>
      <trkpt lat="43.86961" lon="6.45034">
        <ele>1055</ele>
        <time>2018-05-25T13:24:36Z</time>
      </trkpt>
      <trkpt lat="43.86961" lon="6.45036">
        <ele>1055</ele>
        <time>2018-05-25T13:24:37Z</time>
      </trkpt>
      <trkpt lat="43.86959" lon="6.45039">
        <ele>1055</ele>
        <time>2018-05-25T13:24:38Z</time>
      </trkpt>
      <trkpt lat="43.86931" lon="6.45085">
        <ele>1057</ele>
        <time>2018-05-25T13:24:55Z</time>
      </trkpt>
      <trkpt lat="43.86903" lon="6.45134">
        <ele>1060</ele>
        <time>2018-05-25T13:25:11Z</time>
      </trkpt>
      <trkpt lat="43.86872" lon="6.45186">
        <ele>1063</ele>
        <time>2018-05-25T13:25:27Z</time>
      </trkpt>
      <trkpt lat="43.86841" lon="6.45239">
        <ele>1065</ele>
        <time>2018-05-25T13:25:43Z</time>
      </trkpt>
      <trkpt lat="43.86821" lon="6.45287">
        <ele>1067</ele>
        <time>2018-05-25T13:25:56Z</time>
      </trkpt>
      <trkpt lat="43.86788" lon="6.45363">
        <ele>1070</ele>
        <time>2018-05-25T13:26:15Z</time>
      </trkpt>
      <trkpt lat="43.86751" lon="6.45406">
        <ele>1071</ele>
        <time>2018-05-25T13:26:32Z</time>
      </trkpt>
      <trkpt lat="43.86712" lon="6.45426">
        <ele>1071</ele>
        <time>2018-05-25T13:26:48Z</time>
      </trkpt>
      <trkpt lat="43.86673" lon="6.45441">
        <ele>1072</ele>
        <time>2018-05-25T13:27:06Z</time>
      </trkpt>
      <trkpt lat="43.86643" lon="6.45466">
        <ele>1075</ele>
        <time>2018-05-25T13:27:22Z</time>
      </trkpt>
      <trkpt lat="43.86621" lon="6.45501">
        <ele>1078</ele>
        <time>2018-05-25T13:27:38Z</time>
      </trkpt>
      <trkpt lat="43.86607" lon="6.45542">
        <ele>1079</ele>
        <time>2018-05-25T13:27:54Z</time>
      </trkpt>
      <trkpt lat="43.86593" lon="6.45594">
        <ele>1082</ele>
        <time>2018-05-25T13:28:12Z</time>
      </trkpt>
      <trkpt lat="43.86593" lon="6.456">
        <ele>1082</ele>
        <time>2018-05-25T13:28:14Z</time>
      </trkpt>
      <trkpt lat="43.86593" lon="6.45605">
        <ele>1083</ele>
        <time>2018-05-25T13:28:16Z</time>
      </trkpt>
      <trkpt lat="43.86592" lon="6.45608">
        <ele>1083</ele>
        <time>2018-05-25T13:28:17Z</time>
      </trkpt>
      <trkpt lat="43.86589" lon="6.45612">
        <ele>1083</ele>
        <time>2018-05-25T13:28:19Z</time>
      </trkpt>
      <trkpt lat="43.86588" lon="6.45615">
        <ele>1083</ele>
        <time>2018-05-25T13:28:20Z</time>
      </trkpt>
      <trkpt lat="43.86587" lon="6.45617">
        <ele>1083</ele>
        <time>2018-05-25T13:28:21Z</time>
      </trkpt>
      <trkpt lat="43.86585" lon="6.45619">
        <ele>1083</ele>
        <time>2018-05-25T13:28:22Z</time>
      </trkpt>
      <trkpt lat="43.86584" lon="6.45621">
        <ele>1083</ele>
        <time>2018-05-25T13:28:23Z</time>
      </trkpt>
      <trkpt lat="43.86583" lon="6.45624">
        <ele>1083</ele>
        <time>2018-05-25T13:28:24Z</time>
      </trkpt>
      <trkpt lat="43.86582" lon="6.45627">
        <ele>1083</ele>
        <time>2018-05-25T13:28:25Z</time>
      </trkpt>
      <trkpt lat="43.86581" lon="6.45629">
        <ele>1084</ele>
        <time>2018-05-25T13:28:26Z</time>
      </trkpt>
      <trkpt lat="43.8658" lon="6.45632">
        <ele>1084</ele>
        <time>2018-05-25T13:28:27Z</time>
      </trkpt>
      <trkpt lat="43.86571" lon="6.45686">
        <ele>1087</ele>
        <time>2018-05-25T13:28:46Z</time>
      </trkpt>
      <trkpt lat="43.86568" lon="6.45731">
        <ele>1092</ele>
        <time>2018-05-25T13:29:02Z</time>
      </trkpt>
      <trkpt lat="43.86556" lon="6.4578">
        <ele>1095</ele>
        <time>2018-05-25T13:29:20Z</time>
      </trkpt>
      <trkpt lat="43.86544" lon="6.45823">
        <ele>1097</ele>
        <time>2018-05-25T13:29:37Z</time>
      </trkpt>
      <trkpt lat="43.86534" lon="6.45858">
        <ele>1098</ele>
        <time>2018-05-25T13:29:50Z</time>
      </trkpt>
      <trkpt lat="43.86534" lon="6.45861">
        <ele>1098</ele>
        <time>2018-05-25T13:29:51Z</time>
      </trkpt>
      <trkpt lat="43.86533" lon="6.45867">
        <ele>1098</ele>
        <time>2018-05-25T13:29:53Z</time>
      </trkpt>
      <trkpt lat="43.86534" lon="6.4587">
        <ele>1099</ele>
        <time>2018-05-25T13:29:54Z</time>
      </trkpt>
      <trkpt lat="43.86533" lon="6.45873">
        <ele>1099</ele>
        <time>2018-05-25T13:29:55Z</time>
      </trkpt>
      <trkpt lat="43.86532" lon="6.45875">
        <ele>1099</ele>
        <time>2018-05-25T13:29:56Z</time>
      </trkpt>
      <trkpt lat="43.86531" lon="6.45877">
        <ele>1099</ele>
        <time>2018-05-25T13:29:57Z</time>
      </trkpt>
      <trkpt lat="43.86529" lon="6.4588">
        <ele>1099</ele>
        <time>2018-05-25T13:29:58Z</time>
      </trkpt>
      <trkpt lat="43.86523" lon="6.45897">
        <ele>1101</ele>
        <time>2018-05-25T13:30:05Z</time>
      </trkpt>
      <trkpt lat="43.86522" lon="6.459">
        <ele>1101</ele>
        <time>2018-05-25T13:30:06Z</time>
      </trkpt>
      <trkpt lat="43.86522" lon="6.45903">
        <ele>1101</ele>
        <time>2018-05-25T13:30:07Z</time>
      </trkpt>
      <trkpt lat="43.86518" lon="6.45921">
        <ele>1103</ele>
        <time>2018-05-25T13:30:14Z</time>
      </trkpt>
      <trkpt lat="43.86518" lon="6.45924">
        <ele>1103</ele>
        <time>2018-05-25T13:30:15Z</time>
      </trkpt>
      <trkpt lat="43.86517" lon="6.45926">
        <ele>1103</ele>
        <time>2018-05-25T13:30:16Z</time>
      </trkpt>
      <trkpt lat="43.86516" lon="6.45929">
        <ele>1103</ele>
        <time>2018-05-25T13:30:17Z</time>
      </trkpt>
      <trkpt lat="43.86515" lon="6.45932">
        <ele>1103</ele>
        <time>2018-05-25T13:30:18Z</time>
      </trkpt>
      <trkpt lat="43.86514" lon="6.45935">
        <ele>1103</ele>
        <time>2018-05-25T13:30:19Z</time>
      </trkpt>
      <trkpt lat="43.86514" lon="6.45938">
        <ele>1103</ele>
        <time>2018-05-25T13:30:20Z</time>
      </trkpt>
      <trkpt lat="43.86514" lon="6.45941">
        <ele>1103</ele>
        <time>2018-05-25T13:30:21Z</time>
      </trkpt>
      <trkpt lat="43.86509" lon="6.45988">
        <ele>1105</ele>
        <time>2018-05-25T13:30:37Z</time>
      </trkpt>
      <trkpt lat="43.86503" lon="6.4603">
        <ele>1107</ele>
        <time>2018-05-25T13:30:52Z</time>
      </trkpt>
      <trkpt lat="43.86497" lon="6.4608">
        <ele>1110</ele>
        <time>2018-05-25T13:31:11Z</time>
      </trkpt>
      <trkpt lat="43.86491" lon="6.46123">
        <ele>1114</ele>
        <time>2018-05-25T13:31:27Z</time>
      </trkpt>
      <trkpt lat="43.86511" lon="6.46141">
        <ele>1119</ele>
        <time>2018-05-25T13:31:41Z</time>
      </trkpt>
      <trkpt lat="43.86528" lon="6.46109">
        <ele>1117</ele>
        <time>2018-05-25T13:31:54Z</time>
      </trkpt>
      <trkpt lat="43.86542" lon="6.46065">
        <ele>1119</ele>
        <time>2018-05-25T13:32:11Z</time>
      </trkpt>
      <trkpt lat="43.86556" lon="6.46023">
        <ele>1120</ele>
        <time>2018-05-25T13:32:27Z</time>
      </trkpt>
      <trkpt lat="43.86572" lon="6.45978">
        <ele>1121</ele>
        <time>2018-05-25T13:32:45Z</time>
      </trkpt>
      <trkpt lat="43.86598" lon="6.45947">
        <ele>1125</ele>
        <time>2018-05-25T13:33:03Z</time>
      </trkpt>
      <trkpt lat="43.8662" lon="6.45926">
        <ele>1126</ele>
        <time>2018-05-25T13:33:17Z</time>
      </trkpt>
      <trkpt lat="43.86625" lon="6.45923">
        <ele>1127</ele>
        <time>2018-05-25T13:33:20Z</time>
      </trkpt>
      <trkpt lat="43.86627" lon="6.45921">
        <ele>1127</ele>
        <time>2018-05-25T13:33:21Z</time>
      </trkpt>
      <trkpt lat="43.86629" lon="6.4592">
        <ele>1127</ele>
        <time>2018-05-25T13:33:22Z</time>
      </trkpt>
      <trkpt lat="43.8663" lon="6.45919">
        <ele>1127</ele>
        <time>2018-05-25T13:33:23Z</time>
      </trkpt>
      <trkpt lat="43.86632" lon="6.45918">
        <ele>1127</ele>
        <time>2018-05-25T13:33:24Z</time>
      </trkpt>
      <trkpt lat="43.86634" lon="6.45917">
        <ele>1128</ele>
        <time>2018-05-25T13:33:25Z</time>
      </trkpt>
      <trkpt lat="43.86636" lon="6.45917">
        <ele>1128</ele>
        <time>2018-05-25T13:33:26Z</time>
      </trkpt>
      <trkpt lat="43.86638" lon="6.45917">
        <ele>1129</ele>
        <time>2018-05-25T13:33:27Z</time>
      </trkpt>
      <trkpt lat="43.8664" lon="6.45918">
        <ele>1129</ele>
        <time>2018-05-25T13:33:28Z</time>
      </trkpt>
      <trkpt lat="43.86642" lon="6.45919">
        <ele>1130</ele>
        <time>2018-05-25T13:33:29Z</time>
      </trkpt>
      <trkpt lat="43.86643" lon="6.45921">
        <ele>1131</ele>
        <time>2018-05-25T13:33:30Z</time>
      </trkpt>
      <trkpt lat="43.86644" lon="6.45923">
        <ele>1131</ele>
        <time>2018-05-25T13:33:31Z</time>
      </trkpt>
      <trkpt lat="43.86645" lon="6.45926">
        <ele>1132</ele>
        <time>2018-05-25T13:33:32Z</time>
      </trkpt>
      <trkpt lat="43.86645" lon="6.45929">
        <ele>1133</ele>
        <time>2018-05-25T13:33:33Z</time>
      </trkpt>
      <trkpt lat="43.86634" lon="6.45956">
        <ele>1133</ele>
        <time>2018-05-25T13:33:44Z</time>
      </trkpt>
      <trkpt lat="43.86621" lon="6.46">
        <ele>1135</ele>
        <time>2018-05-25T13:34:00Z</time>
      </trkpt>
      <trkpt lat="43.8661" lon="6.46047">
        <ele>1137</ele>
        <time>2018-05-25T13:34:18Z</time>
      </trkpt>
      <trkpt lat="43.86595" lon="6.46082">
        <ele>1137</ele>
        <time>2018-05-25T13:34:33Z</time>
      </trkpt>
      <trkpt lat="43.86579" lon="6.46128">
        <ele>1137</ele>
        <time>2018-05-25T13:34:51Z</time>
      </trkpt>
      <trkpt lat="43.86565" lon="6.46167">
        <ele>1138</ele>
        <time>2018-05-25T13:35:06Z</time>
      </trkpt>
      <trkpt lat="43.86554" lon="6.46201">
        <ele>1138</ele>
        <time>2018-05-25T13:35:19Z</time>
      </trkpt>
      <trkpt lat="43.8655" lon="6.46257">
        <ele>1141</ele>
        <time>2018-05-25T13:35:38Z</time>
      </trkpt>
      <trkpt lat="43.86549" lon="6.46304">
        <ele>1144</ele>
        <time>2018-05-25T13:35:56Z</time>
      </trkpt>
      <trkpt lat="43.86546" lon="6.46348">
        <ele>1146</ele>
        <time>2018-05-25T13:36:12Z</time>
      </trkpt>
      <trkpt lat="43.86538" lon="6.46382">
        <ele>1147</ele>
        <time>2018-05-25T13:36:25Z</time>
      </trkpt>
      <trkpt lat="43.86536" lon="6.46382">
        <ele>1147</ele>
        <time>2018-05-25T13:36:26Z</time>
      </trkpt>
      <trkpt lat="43.86534" lon="6.46381">
        <ele>1147</ele>
        <time>2018-05-25T13:36:27Z</time>
      </trkpt>
      <trkpt lat="43.86532" lon="6.4638">
        <ele>1146</ele>
        <time>2018-05-25T13:36:28Z</time>
      </trkpt>
      <trkpt lat="43.86499" lon="6.46361">
        <ele>1146</ele>
        <time>2018-05-25T13:36:42Z</time>
      </trkpt>
      <trkpt lat="43.86468" lon="6.46365">
        <ele>1145</ele>
        <time>2018-05-25T13:36:56Z</time>
      </trkpt>
      <trkpt lat="43.86437" lon="6.46383">
        <ele>1143</ele>
        <time>2018-05-25T13:37:10Z</time>
      </trkpt>
      <trkpt lat="43.8641" lon="6.46376">
        <ele>1141</ele>
        <time>2018-05-25T13:37:24Z</time>
      </trkpt>
      <trkpt lat="43.86396" lon="6.46326">
        <ele>1140</ele>
        <time>2018-05-25T13:37:34Z</time>
      </trkpt>
      <trkpt lat="43.86394" lon="6.46319">
        <ele>1141</ele>
        <time>2018-05-25T13:37:35Z</time>
      </trkpt>
      <trkpt lat="43.8639" lon="6.46303">
        <ele>1141</ele>
        <time>2018-05-25T13:37:37Z</time>
      </trkpt>
      <trkpt lat="43.86387" lon="6.46297">
        <ele>1141</ele>
        <time>2018-05-25T13:37:38Z</time>
      </trkpt>
      <trkpt lat="43.86383" lon="6.4629">
        <ele>1141</ele>
        <time>2018-05-25T13:37:39Z</time>
      </trkpt>
      <trkpt lat="43.86379" lon="6.46286">
        <ele>1141</ele>
        <time>2018-05-25T13:37:40Z</time>
      </trkpt>
      <trkpt lat="43.86377" lon="6.46285">
        <ele>1141</ele>
        <time>2018-05-25T13:37:41Z</time>
      </trkpt>
      <trkpt lat="43.86375" lon="6.46285">
        <ele>1141</ele>
        <time>2018-05-25T13:37:42Z</time>
      </trkpt>
      <trkpt lat="43.86373" lon="6.46284">
        <ele>1141</ele>
        <time>2018-05-25T13:37:43Z</time>
      </trkpt>
      <trkpt lat="43.8637" lon="6.46285">
        <ele>1141</ele>
        <time>2018-05-25T13:37:45Z</time>
      </trkpt>
      <trkpt lat="43.86369" lon="6.46286">
        <ele>1141</ele>
        <time>2018-05-25T13:37:46Z</time>
      </trkpt>
      <trkpt lat="43.8637" lon="6.46289">
        <ele>1141</ele>
        <time>2018-05-25T13:37:47Z</time>
      </trkpt>
      <trkpt lat="43.86372" lon="6.4629">
        <ele>1141</ele>
        <time>2018-05-25T13:37:48Z</time>
      </trkpt>
      <trkpt lat="43.86374" lon="6.46289">
        <ele>1141</ele>
        <time>2018-05-25T13:37:49Z</time>
      </trkpt>
      <trkpt lat="43.86375" lon="6.46287">
        <ele>1141</ele>
        <time>2018-05-25T13:37:50Z</time>
      </trkpt>
      <trkpt lat="43.86375" lon="6.46286">
        <ele>1141</ele>
        <time>2018-05-25T13:37:51Z</time>
      </trkpt>
      <trkpt lat="43.86376" lon="6.46284">
        <ele>1141</ele>
        <time>2018-05-25T13:37:52Z</time>
      </trkpt>
      <trkpt lat="43.86378" lon="6.46283">
        <ele>1141</ele>
        <time>2018-05-25T13:37:53Z</time>
      </trkpt>
      <trkpt lat="43.86379" lon="6.46282">
        <ele>1141</ele>
        <time>2018-05-25T13:37:54Z</time>
      </trkpt>
      <trkpt lat="43.8638" lon="6.46281">
        <ele>1141</ele>
        <time>2018-05-25T13:37:55Z</time>
      </trkpt>
      <trkpt lat="43.86381" lon="6.4628">
        <ele>1141</ele>
        <time>2018-05-25T13:37:56Z</time>
      </trkpt>
      <trkpt lat="43.86385" lon="6.46273">
        <ele>1141</ele>
        <time>2018-05-25T13:38:01Z</time>
      </trkpt>
      <trkpt lat="43.86384" lon="6.46266">
        <ele>1140</ele>
        <time>2018-05-25T13:38:12Z</time>
      </trkpt>
      <trkpt lat="43.8638" lon="6.46263">
        <ele>1141</ele>
        <time>2018-05-25T13:38:20Z</time>
      </trkpt>
      <trkpt lat="43.86378" lon="6.46263">
        <ele>1141</ele>
        <time>2018-05-25T13:38:36Z</time>
      </trkpt>
      <trkpt lat="43.86379" lon="6.46264">
        <ele>1141</ele>
        <time>2018-05-25T13:38:48Z</time>
      </trkpt>
      <trkpt lat="43.86378" lon="6.46264">
        <ele>1141</ele>
        <time>2018-05-25T13:39:23Z</time>
      </trkpt>
      <trkpt lat="43.86377" lon="6.46264">
        <ele>1141</ele>
        <time>2018-05-25T13:40:21Z</time>
      </trkpt>
      <trkpt lat="43.86377" lon="6.46264">
        <ele>1141</ele>
        <time>2018-05-25T13:41:12Z</time>
      </trkpt>
      <trkpt lat="43.8638" lon="6.46266">
        <ele>1141</ele>
        <time>2018-05-25T13:42:10Z</time>
      </trkpt>
      <trkpt lat="43.86381" lon="6.46266">
        <ele>1141</ele>
        <time>2018-05-25T13:42:11Z</time>
      </trkpt>
      <trkpt lat="43.86383" lon="6.46278">
        <ele>1141</ele>
        <time>2018-05-25T13:42:16Z</time>
      </trkpt>
      <trkpt lat="43.86383" lon="6.46289">
        <ele>1141</ele>
        <time>2018-05-25T13:42:18Z</time>
      </trkpt>
      <trkpt lat="43.86384" lon="6.46294">
        <ele>1141</ele>
        <time>2018-05-25T13:42:19Z</time>
      </trkpt>
      <trkpt lat="43.86387" lon="6.46299">
        <ele>1141</ele>
        <time>2018-05-25T13:42:20Z</time>
      </trkpt>
      <trkpt lat="43.86397" lon="6.4633">
        <ele>1141</ele>
        <time>2018-05-25T13:42:30Z</time>
      </trkpt>
      <trkpt lat="43.86407" lon="6.46368">
        <ele>1141</ele>
        <time>2018-05-25T13:42:44Z</time>
      </trkpt>
      <trkpt lat="43.86435" lon="6.46386">
        <ele>1143</ele>
        <time>2018-05-25T13:42:59Z</time>
      </trkpt>
      <trkpt lat="43.86475" lon="6.4636">
        <ele>1145</ele>
        <time>2018-05-25T13:43:13Z</time>
      </trkpt>
      <trkpt lat="43.86489" lon="6.46358">
        <ele>1145</ele>
        <time>2018-05-25T13:43:17Z</time>
      </trkpt>
      <trkpt lat="43.86494" lon="6.46358">
        <ele>1145</ele>
        <time>2018-05-25T13:43:18Z</time>
      </trkpt>
      <trkpt lat="43.86498" lon="6.4636">
        <ele>1145</ele>
        <time>2018-05-25T13:43:19Z</time>
      </trkpt>
      <trkpt lat="43.86503" lon="6.46362">
        <ele>1146</ele>
        <time>2018-05-25T13:43:20Z</time>
      </trkpt>
      <trkpt lat="43.86506" lon="6.46364">
        <ele>1146</ele>
        <time>2018-05-25T13:43:21Z</time>
      </trkpt>
      <trkpt lat="43.86536" lon="6.46384">
        <ele>1147</ele>
        <time>2018-05-25T13:43:32Z</time>
      </trkpt>
      <trkpt lat="43.8654" lon="6.46384">
        <ele>1147</ele>
        <time>2018-05-25T13:43:34Z</time>
      </trkpt>
      <trkpt lat="43.86541" lon="6.46383">
        <ele>1147</ele>
        <time>2018-05-25T13:43:35Z</time>
      </trkpt>
      <trkpt lat="43.8654" lon="6.46384">
        <ele>1147</ele>
        <time>2018-05-25T13:43:49Z</time>
      </trkpt>
      <trkpt lat="43.8654" lon="6.46386">
        <ele>1147</ele>
        <time>2018-05-25T13:44:18Z</time>
      </trkpt>
      <trkpt lat="43.86541" lon="6.46387">
        <ele>1147</ele>
        <time>2018-05-25T13:44:40Z</time>
      </trkpt>
      <trkpt lat="43.86537" lon="6.46385">
        <ele>1147</ele>
        <time>2018-05-25T13:45:01Z</time>
      </trkpt>
      <trkpt lat="43.86535" lon="6.46385">
        <ele>1147</ele>
        <time>2018-05-25T13:45:02Z</time>
      </trkpt>
      <trkpt lat="43.86534" lon="6.46384">
        <ele>1147</ele>
        <time>2018-05-25T13:45:03Z</time>
      </trkpt>
      <trkpt lat="43.86532" lon="6.46383">
        <ele>1146</ele>
        <time>2018-05-25T13:45:04Z</time>
      </trkpt>
      <trkpt lat="43.8653" lon="6.46382">
        <ele>1146</ele>
        <time>2018-05-25T13:45:05Z</time>
      </trkpt>
      <trkpt lat="43.86499" lon="6.46363">
        <ele>1145</ele>
        <time>2018-05-25T13:45:19Z</time>
      </trkpt>
      <trkpt lat="43.86462" lon="6.46369">
        <ele>1144</ele>
        <time>2018-05-25T13:45:35Z</time>
      </trkpt>
      <trkpt lat="43.86447" lon="6.46382">
        <ele>1143</ele>
        <time>2018-05-25T13:45:46Z</time>
      </trkpt>
      <trkpt lat="43.86445" lon="6.46383">
        <ele>1143</ele>
        <time>2018-05-25T13:46:14Z</time>
      </trkpt>
      <trkpt lat="43.86446" lon="6.46384">
        <ele>1143</ele>
        <time>2018-05-25T13:46:31Z</time>
      </trkpt>
      <trkpt lat="43.86444" lon="6.46384">
        <ele>1143</ele>
        <time>2018-05-25T13:46:32Z</time>
      </trkpt>
      <trkpt lat="43.86416" lon="6.46386">
        <ele>1142</ele>
        <time>2018-05-25T13:46:45Z</time>
      </trkpt>
      <trkpt lat="43.86401" lon="6.46344">
        <ele>1141</ele>
        <time>2018-05-25T13:46:54Z</time>
      </trkpt>
      <trkpt lat="43.86397" lon="6.46328">
        <ele>1141</ele>
        <time>2018-05-25T13:46:56Z</time>
      </trkpt>
      <trkpt lat="43.86396" lon="6.46319">
        <ele>1141</ele>
        <time>2018-05-25T13:46:57Z</time>
      </trkpt>
      <trkpt lat="43.86394" lon="6.4631">
        <ele>1141</ele>
        <time>2018-05-25T13:46:58Z</time>
      </trkpt>
      <trkpt lat="43.8639" lon="6.46302">
        <ele>1141</ele>
        <time>2018-05-25T13:46:59Z</time>
      </trkpt>
      <trkpt lat="43.86386" lon="6.46295">
        <ele>1141</ele>
        <time>2018-05-25T13:47:00Z</time>
      </trkpt>
      <trkpt lat="43.86381" lon="6.46289">
        <ele>1141</ele>
        <time>2018-05-25T13:47:01Z</time>
      </trkpt>
      <trkpt lat="43.86376" lon="6.46286">
        <ele>1141</ele>
        <time>2018-05-25T13:47:02Z</time>
      </trkpt>
      <trkpt lat="43.86371" lon="6.46285">
        <ele>1141</ele>
        <time>2018-05-25T13:47:03Z</time>
      </trkpt>
      <trkpt lat="43.86366" lon="6.46286">
        <ele>1141</ele>
        <time>2018-05-25T13:47:04Z</time>
      </trkpt>
      <trkpt lat="43.86361" lon="6.46287">
        <ele>1141</ele>
        <time>2018-05-25T13:47:05Z</time>
      </trkpt>
      <trkpt lat="43.86341" lon="6.46293">
        <ele>1140</ele>
        <time>2018-05-25T13:47:09Z</time>
      </trkpt>
      <trkpt lat="43.86331" lon="6.46294">
        <ele>1140</ele>
        <time>2018-05-25T13:47:11Z</time>
      </trkpt>
      <trkpt lat="43.86327" lon="6.46291">
        <ele>1140</ele>
        <time>2018-05-25T13:47:12Z</time>
      </trkpt>
      <trkpt lat="43.86318" lon="6.46284">
        <ele>1141</ele>
        <time>2018-05-25T13:47:14Z</time>
      </trkpt>
      <trkpt lat="43.86298" lon="6.46259">
        <ele>1141</ele>
        <time>2018-05-25T13:47:19Z</time>
      </trkpt>
      <trkpt lat="43.86293" lon="6.46256">
        <ele>1141</ele>
        <time>2018-05-25T13:47:20Z</time>
      </trkpt>
      <trkpt lat="43.86289" lon="6.46254">
        <ele>1141</ele>
        <time>2018-05-25T13:47:21Z</time>
      </trkpt>
      <trkpt lat="43.86285" lon="6.46254">
        <ele>1141</ele>
        <time>2018-05-25T13:47:22Z</time>
      </trkpt>
      <trkpt lat="43.86281" lon="6.46255">
        <ele>1141</ele>
        <time>2018-05-25T13:47:23Z</time>
      </trkpt>
      <trkpt lat="43.86277" lon="6.46256">
        <ele>1141</ele>
        <time>2018-05-25T13:47:24Z</time>
      </trkpt>
      <trkpt lat="43.86273" lon="6.46257">
        <ele>1141</ele>
        <time>2018-05-25T13:47:25Z</time>
      </trkpt>
      <trkpt lat="43.8627" lon="6.46257">
        <ele>1141</ele>
        <time>2018-05-25T13:47:26Z</time>
      </trkpt>
      <trkpt lat="43.86266" lon="6.46256">
        <ele>1141</ele>
        <time>2018-05-25T13:47:27Z</time>
      </trkpt>
      <trkpt lat="43.86264" lon="6.46255">
        <ele>1141</ele>
        <time>2018-05-25T13:47:28Z</time>
      </trkpt>
      <trkpt lat="43.86261" lon="6.46253">
        <ele>1141</ele>
        <time>2018-05-25T13:47:29Z</time>
      </trkpt>
      <trkpt lat="43.86258" lon="6.4625">
        <ele>1141</ele>
        <time>2018-05-25T13:47:30Z</time>
      </trkpt>
      <trkpt lat="43.86238" lon="6.46229">
        <ele>1141</ele>
        <time>2018-05-25T13:47:37Z</time>
      </trkpt>
      <trkpt lat="43.86235" lon="6.46225">
        <ele>1141</ele>
        <time>2018-05-25T13:47:38Z</time>
      </trkpt>
      <trkpt lat="43.86206" lon="6.46182">
        <ele>1142</ele>
        <time>2018-05-25T13:47:47Z</time>
      </trkpt>
      <trkpt lat="43.8618" lon="6.46151">
        <ele>1144</ele>
        <time>2018-05-25T13:47:57Z</time>
      </trkpt>
      <trkpt lat="43.86159" lon="6.46131">
        <ele>1142</ele>
        <time>2018-05-25T13:48:10Z</time>
      </trkpt>
      <trkpt lat="43.86138" lon="6.4611">
        <ele>1140</ele>
        <time>2018-05-25T13:48:26Z</time>
      </trkpt>
      <trkpt lat="43.86118" lon="6.46097">
        <ele>1141</ele>
        <time>2018-05-25T13:48:41Z</time>
      </trkpt>
      <trkpt lat="43.86099" lon="6.46089">
        <ele>1141</ele>
        <time>2018-05-25T13:48:55Z</time>
      </trkpt>
      <trkpt lat="43.86083" lon="6.46085">
        <ele>1142</ele>
        <time>2018-05-25T13:49:08Z</time>
      </trkpt>
      <trkpt lat="43.86082" lon="6.46086">
        <ele>1142</ele>
        <time>2018-05-25T13:49:09Z</time>
      </trkpt>
      <trkpt lat="43.8608" lon="6.46086">
        <ele>1142</ele>
        <time>2018-05-25T13:49:10Z</time>
      </trkpt>
      <trkpt lat="43.86067" lon="6.46087">
        <ele>1145</ele>
        <time>2018-05-25T13:49:21Z</time>
      </trkpt>
      <trkpt lat="43.86066" lon="6.46087">
        <ele>1145</ele>
        <time>2018-05-25T13:49:22Z</time>
      </trkpt>
      <trkpt lat="43.86065" lon="6.46087">
        <ele>1145</ele>
        <time>2018-05-25T13:49:23Z</time>
      </trkpt>
      <trkpt lat="43.86064" lon="6.46087">
        <ele>1145</ele>
        <time>2018-05-25T13:49:24Z</time>
      </trkpt>
      <trkpt lat="43.86062" lon="6.46086">
        <ele>1146</ele>
        <time>2018-05-25T13:49:25Z</time>
      </trkpt>
      <trkpt lat="43.86061" lon="6.46086">
        <ele>1146</ele>
        <time>2018-05-25T13:49:26Z</time>
      </trkpt>
      <trkpt lat="43.8606" lon="6.46086">
        <ele>1146</ele>
        <time>2018-05-25T13:49:27Z</time>
      </trkpt>
      <trkpt lat="43.86039" lon="6.46085">
        <ele>1150</ele>
        <time>2018-05-25T13:49:42Z</time>
      </trkpt>
      <trkpt lat="43.8602" lon="6.46085">
        <ele>1153</ele>
        <time>2018-05-25T13:49:57Z</time>
      </trkpt>
      <trkpt lat="43.85996" lon="6.46086">
        <ele>1158</ele>
        <time>2018-05-25T13:50:13Z</time>
      </trkpt>
      <trkpt lat="43.85993" lon="6.46086">
        <ele>1158</ele>
        <time>2018-05-25T13:50:15Z</time>
      </trkpt>
      <trkpt lat="43.85992" lon="6.46085">
        <ele>1158</ele>
        <time>2018-05-25T13:50:16Z</time>
      </trkpt>
      <trkpt lat="43.85991" lon="6.46085">
        <ele>1158</ele>
        <time>2018-05-25T13:50:17Z</time>
      </trkpt>
      <trkpt lat="43.85966" lon="6.46084">
        <ele>1162</ele>
        <time>2018-05-25T13:50:33Z</time>
      </trkpt>
      <trkpt lat="43.85948" lon="6.46099">
        <ele>1163</ele>
        <time>2018-05-25T13:50:47Z</time>
      </trkpt>
      <trkpt lat="43.85939" lon="6.46113">
        <ele>1163</ele>
        <time>2018-05-25T13:50:56Z</time>
      </trkpt>
      <trkpt lat="43.85938" lon="6.46114">
        <ele>1163</ele>
        <time>2018-05-25T13:50:57Z</time>
      </trkpt>
      <trkpt lat="43.85937" lon="6.46116">
        <ele>1163</ele>
        <time>2018-05-25T13:50:58Z</time>
      </trkpt>
      <trkpt lat="43.85936" lon="6.46117">
        <ele>1163</ele>
        <time>2018-05-25T13:50:59Z</time>
      </trkpt>
      <trkpt lat="43.85935" lon="6.46119">
        <ele>1163</ele>
        <time>2018-05-25T13:51:00Z</time>
      </trkpt>
      <trkpt lat="43.85934" lon="6.46121">
        <ele>1163</ele>
        <time>2018-05-25T13:51:01Z</time>
      </trkpt>
      <trkpt lat="43.85933" lon="6.46122">
        <ele>1163</ele>
        <time>2018-05-25T13:51:02Z</time>
      </trkpt>
      <trkpt lat="43.85932" lon="6.46123">
        <ele>1163</ele>
        <time>2018-05-25T13:51:03Z</time>
      </trkpt>
      <trkpt lat="43.85914" lon="6.46132">
        <ele>1165</ele>
        <time>2018-05-25T13:51:14Z</time>
      </trkpt>
      <trkpt lat="43.85895" lon="6.46149">
        <ele>1166</ele>
        <time>2018-05-25T13:51:28Z</time>
      </trkpt>
      <trkpt lat="43.85887" lon="6.46158">
        <ele>1167</ele>
        <time>2018-05-25T13:51:40Z</time>
      </trkpt>
      <trkpt lat="43.85887" lon="6.46157">
        <ele>1167</ele>
        <time>2018-05-25T13:52:01Z</time>
      </trkpt>
      <trkpt lat="43.85886" lon="6.46159">
        <ele>1167</ele>
        <time>2018-05-25T13:52:33Z</time>
      </trkpt>
      <trkpt lat="43.85887" lon="6.46158">
        <ele>1167</ele>
        <time>2018-05-25T13:53:02Z</time>
      </trkpt>
      <trkpt lat="43.85888" lon="6.46149">
        <ele>1168</ele>
        <time>2018-05-25T13:53:32Z</time>
      </trkpt>
      <trkpt lat="43.85889" lon="6.46149">
        <ele>1168</ele>
        <time>2018-05-25T13:54:16Z</time>
      </trkpt>
      <trkpt lat="43.85885" lon="6.46153">
        <ele>1168</ele>
        <time>2018-05-25T13:55:01Z</time>
      </trkpt>
      <trkpt lat="43.85885" lon="6.46153">
        <ele>1168</ele>
        <time>2018-05-25T13:55:51Z</time>
      </trkpt>
      <trkpt lat="43.85887" lon="6.46152">
        <ele>1168</ele>
        <time>2018-05-25T13:56:27Z</time>
      </trkpt>
      <trkpt lat="43.85888" lon="6.46154">
        <ele>1168</ele>
        <time>2018-05-25T13:57:04Z</time>
      </trkpt>
      <trkpt lat="43.85888" lon="6.46154">
        <ele>1167</ele>
        <time>2018-05-25T13:57:58Z</time>
      </trkpt>
      <trkpt lat="43.85886" lon="6.46156">
        <ele>1168</ele>
        <time>2018-05-25T13:58:35Z</time>
      </trkpt>
      <trkpt lat="43.85888" lon="6.46155">
        <ele>1167</ele>
        <time>2018-05-25T13:58:40Z</time>
      </trkpt>
      <trkpt lat="43.85889" lon="6.46153">
        <ele>1167</ele>
        <time>2018-05-25T13:58:41Z</time>
      </trkpt>
      <trkpt lat="43.8589" lon="6.46152">
        <ele>1167</ele>
        <time>2018-05-25T13:58:42Z</time>
      </trkpt>
      <trkpt lat="43.85891" lon="6.4615">
        <ele>1167</ele>
        <time>2018-05-25T13:58:43Z</time>
      </trkpt>
      <trkpt lat="43.85893" lon="6.46148">
        <ele>1167</ele>
        <time>2018-05-25T13:58:44Z</time>
      </trkpt>
      <trkpt lat="43.85894" lon="6.46147">
        <ele>1167</ele>
        <time>2018-05-25T13:58:45Z</time>
      </trkpt>
      <trkpt lat="43.85896" lon="6.46146">
        <ele>1166</ele>
        <time>2018-05-25T13:58:46Z</time>
      </trkpt>
      <trkpt lat="43.85926" lon="6.46128">
        <ele>1164</ele>
        <time>2018-05-25T13:58:57Z</time>
      </trkpt>
      <trkpt lat="43.85953" lon="6.46092">
        <ele>1163</ele>
        <time>2018-05-25T13:59:09Z</time>
      </trkpt>
      <trkpt lat="43.85983" lon="6.46084">
        <ele>1159</ele>
        <time>2018-05-25T13:59:21Z</time>
      </trkpt>
      <trkpt lat="43.86009" lon="6.46086">
        <ele>1155</ele>
        <time>2018-05-25T13:59:31Z</time>
      </trkpt>
      <trkpt lat="43.86038" lon="6.46087">
        <ele>1150</ele>
        <time>2018-05-25T13:59:41Z</time>
      </trkpt>
      <trkpt lat="43.86053" lon="6.46086">
        <ele>1147</ele>
        <time>2018-05-25T13:59:46Z</time>
      </trkpt>
      <trkpt lat="43.86055" lon="6.46084">
        <ele>1147</ele>
        <time>2018-05-25T13:59:47Z</time>
      </trkpt>
      <trkpt lat="43.86058" lon="6.46079">
        <ele>1147</ele>
        <time>2018-05-25T13:59:59Z</time>
      </trkpt>
      <trkpt lat="43.86063" lon="6.46078">
        <ele>1146</ele>
        <time>2018-05-25T14:00:14Z</time>
      </trkpt>
      <trkpt lat="43.86063" lon="6.46078">
        <ele>1146</ele>
        <time>2018-05-25T14:00:37Z</time>
      </trkpt>
      <trkpt lat="43.86064" lon="6.46078">
        <ele>1145</ele>
        <time>2018-05-25T14:01:09Z</time>
      </trkpt>
      <trkpt lat="43.86063" lon="6.46079">
        <ele>1146</ele>
        <time>2018-05-25T14:01:34Z</time>
      </trkpt>
      <trkpt lat="43.86066" lon="6.46069">
        <ele>1145</ele>
        <time>2018-05-25T14:02:13Z</time>
      </trkpt>
      <trkpt lat="43.86063" lon="6.46066">
        <ele>1146</ele>
        <time>2018-05-25T14:02:46Z</time>
      </trkpt>
      <trkpt lat="43.86063" lon="6.46066">
        <ele>1146</ele>
        <time>2018-05-25T14:03:13Z</time>
      </trkpt>
      <trkpt lat="43.86065" lon="6.46076">
        <ele>1145</ele>
        <time>2018-05-25T14:03:47Z</time>
      </trkpt>
      <trkpt lat="43.86061" lon="6.46074">
        <ele>1146</ele>
        <time>2018-05-25T14:04:26Z</time>
      </trkpt>
      <trkpt lat="43.86063" lon="6.46078">
        <ele>1146</ele>
        <time>2018-05-25T14:05:00Z</time>
      </trkpt>
      <trkpt lat="43.86065" lon="6.46078">
        <ele>1145</ele>
        <time>2018-05-25T14:05:41Z</time>
      </trkpt>
      <trkpt lat="43.86059" lon="6.46071">
        <ele>1147</ele>
        <time>2018-05-25T14:06:16Z</time>
      </trkpt>
      <trkpt lat="43.86067" lon="6.46074">
        <ele>1145</ele>
        <time>2018-05-25T14:06:50Z</time>
      </trkpt>
      <trkpt lat="43.86064" lon="6.46072">
        <ele>1146</ele>
        <time>2018-05-25T14:07:28Z</time>
      </trkpt>
      <trkpt lat="43.8606" lon="6.46073">
        <ele>1146</ele>
        <time>2018-05-25T14:08:09Z</time>
      </trkpt>
      <trkpt lat="43.86059" lon="6.46076">
        <ele>1146</ele>
        <time>2018-05-25T14:08:33Z</time>
      </trkpt>
      <trkpt lat="43.8606" lon="6.46073">
        <ele>1146</ele>
        <time>2018-05-25T14:09:06Z</time>
      </trkpt>
      <trkpt lat="43.86061" lon="6.46075">
        <ele>1146</ele>
        <time>2018-05-25T14:09:28Z</time>
      </trkpt>
      <trkpt lat="43.86061" lon="6.46077">
        <ele>1146</ele>
        <time>2018-05-25T14:09:56Z</time>
      </trkpt>
      <trkpt lat="43.86061" lon="6.46076">
        <ele>1146</ele>
        <time>2018-05-25T14:10:36Z</time>
      </trkpt>
      <trkpt lat="43.86059" lon="6.46075">
        <ele>1146</ele>
        <time>2018-05-25T14:11:10Z</time>
      </trkpt>
      <trkpt lat="43.8606" lon="6.46065">
        <ele>1147</ele>
        <time>2018-05-25T14:11:48Z</time>
      </trkpt>
      <trkpt lat="43.86064" lon="6.46057">
        <ele>1146</ele>
        <time>2018-05-25T14:12:26Z</time>
      </trkpt>
      <trkpt lat="43.86064" lon="6.46066">
        <ele>1146</ele>
        <time>2018-05-25T14:12:54Z</time>
      </trkpt>
      <trkpt lat="43.86063" lon="6.46072">
        <ele>1146</ele>
        <time>2018-05-25T14:13:06Z</time>
      </trkpt>
      <trkpt lat="43.86064" lon="6.46077">
        <ele>1146</ele>
        <time>2018-05-25T14:13:21Z</time>
      </trkpt>
      <trkpt lat="43.86054" lon="6.46076">
        <ele>1147</ele>
        <time>2018-05-25T14:13:37Z</time>
      </trkpt>
      <trkpt lat="43.86043" lon="6.46065">
        <ele>1150</ele>
        <time>2018-05-25T14:13:53Z</time>
      </trkpt>
      <trkpt lat="43.8603" lon="6.46051">
        <ele>1153</ele>
        <time>2018-05-25T14:14:12Z</time>
      </trkpt>
      <trkpt lat="43.86025" lon="6.46047">
        <ele>1154</ele>
        <time>2018-05-25T14:14:17Z</time>
      </trkpt>
      <trkpt lat="43.86014" lon="6.46035">
        <ele>1155</ele>
        <time>2018-05-25T14:14:34Z</time>
      </trkpt>
      <trkpt lat="43.86003" lon="6.46024">
        <ele>1157</ele>
        <time>2018-05-25T14:14:52Z</time>
      </trkpt>
      <trkpt lat="43.86" lon="6.46019">
        <ele>1157</ele>
        <time>2018-05-25T14:15:05Z</time>
      </trkpt>
      <trkpt lat="43.85999" lon="6.46018">
        <ele>1157</ele>
        <time>2018-05-25T14:15:32Z</time>
      </trkpt>
      <trkpt lat="43.85998" lon="6.46018">
        <ele>1157</ele>
        <time>2018-05-25T14:20:40Z</time>
      </trkpt>
      <trkpt lat="43.86002" lon="6.46022">
        <ele>1157</ele>
        <time>2018-05-25T14:20:43Z</time>
      </trkpt>
      <trkpt lat="43.86014" lon="6.46031">
        <ele>1155</ele>
        <time>2018-05-25T14:20:47Z</time>
      </trkpt>
      <trkpt lat="43.86017" lon="6.46035">
        <ele>1155</ele>
        <time>2018-05-25T14:20:48Z</time>
      </trkpt>
      <trkpt lat="43.86025" lon="6.46043">
        <ele>1154</ele>
        <time>2018-05-25T14:20:50Z</time>
      </trkpt>
      <trkpt lat="43.86029" lon="6.46047">
        <ele>1153</ele>
        <time>2018-05-25T14:20:51Z</time>
      </trkpt>
      <trkpt lat="43.86032" lon="6.46051">
        <ele>1153</ele>
        <time>2018-05-25T14:20:52Z</time>
      </trkpt>
      <trkpt lat="43.86036" lon="6.46056">
        <ele>1152</ele>
        <time>2018-05-25T14:20:53Z</time>
      </trkpt>
      <trkpt lat="43.8604" lon="6.46061">
        <ele>1151</ele>
        <time>2018-05-25T14:20:54Z</time>
      </trkpt>
      <trkpt lat="43.86044" lon="6.46066">
        <ele>1150</ele>
        <time>2018-05-25T14:20:55Z</time>
      </trkpt>
      <trkpt lat="43.86049" lon="6.46069">
        <ele>1149</ele>
        <time>2018-05-25T14:20:56Z</time>
      </trkpt>
      <trkpt lat="43.86053" lon="6.46073">
        <ele>1148</ele>
        <time>2018-05-25T14:20:57Z</time>
      </trkpt>
      <trkpt lat="43.86059" lon="6.46075">
        <ele>1147</ele>
        <time>2018-05-25T14:20:58Z</time>
      </trkpt>
      <trkpt lat="43.86064" lon="6.46078">
        <ele>1146</ele>
        <time>2018-05-25T14:20:59Z</time>
      </trkpt>
      <trkpt lat="43.86066" lon="6.4608">
        <ele>1145</ele>
        <time>2018-05-25T14:21:00Z</time>
      </trkpt>
      <trkpt lat="43.86064" lon="6.46085">
        <ele>1145</ele>
        <time>2018-05-25T14:21:07Z</time>
      </trkpt>
      <trkpt lat="43.86064" lon="6.46085">
        <ele>1145</ele>
        <time>2018-05-25T14:21:08Z</time>
      </trkpt>
      <trkpt lat="43.86059" lon="6.46085">
        <ele>1146</ele>
        <time>2018-05-25T14:21:12Z</time>
      </trkpt>
      <trkpt lat="43.86034" lon="6.46084">
        <ele>1151</ele>
        <time>2018-05-25T14:21:31Z</time>
      </trkpt>
      <trkpt lat="43.86029" lon="6.46083">
        <ele>1152</ele>
        <time>2018-05-25T14:21:35Z</time>
      </trkpt>
      <trkpt lat="43.86021" lon="6.46083">
        <ele>1153</ele>
        <time>2018-05-25T14:21:41Z</time>
      </trkpt>
      <trkpt lat="43.86013" lon="6.46082">
        <ele>1155</ele>
        <time>2018-05-25T14:21:46Z</time>
      </trkpt>
      <trkpt lat="43.8601" lon="6.46082">
        <ele>1155</ele>
        <time>2018-05-25T14:21:49Z</time>
      </trkpt>
      <trkpt lat="43.86003" lon="6.46083">
        <ele>1157</ele>
        <time>2018-05-25T14:21:54Z</time>
      </trkpt>
      <trkpt lat="43.85981" lon="6.46083">
        <ele>1160</ele>
        <time>2018-05-25T14:22:10Z</time>
      </trkpt>
      <trkpt lat="43.85963" lon="6.46084">
        <ele>1162</ele>
        <time>2018-05-25T14:22:22Z</time>
      </trkpt>
      <trkpt lat="43.85955" lon="6.4609">
        <ele>1163</ele>
        <time>2018-05-25T14:22:28Z</time>
      </trkpt>
      <trkpt lat="43.85935" lon="6.4612">
        <ele>1163</ele>
        <time>2018-05-25T14:22:44Z</time>
      </trkpt>
      <trkpt lat="43.85916" lon="6.46132">
        <ele>1165</ele>
        <time>2018-05-25T14:22:56Z</time>
      </trkpt>
      <trkpt lat="43.85896" lon="6.46148">
        <ele>1166</ele>
        <time>2018-05-25T14:23:11Z</time>
      </trkpt>
      <trkpt lat="43.8589" lon="6.46157">
        <ele>1167</ele>
        <time>2018-05-25T14:23:18Z</time>
      </trkpt>
      <trkpt lat="43.85879" lon="6.46175">
        <ele>1168</ele>
        <time>2018-05-25T14:23:34Z</time>
      </trkpt>
      <trkpt lat="43.85865" lon="6.46202">
        <ele>1169</ele>
        <time>2018-05-25T14:23:50Z</time>
      </trkpt>
      <trkpt lat="43.85851" lon="6.46219">
        <ele>1170</ele>
        <time>2018-05-25T14:24:04Z</time>
      </trkpt>
      <trkpt lat="43.8585" lon="6.46219">
        <ele>1171</ele>
        <time>2018-05-25T14:24:05Z</time>
      </trkpt>
      <trkpt lat="43.85849" lon="6.46219">
        <ele>1171</ele>
        <time>2018-05-25T14:24:06Z</time>
      </trkpt>
      <trkpt lat="43.85847" lon="6.46219">
        <ele>1172</ele>
        <time>2018-05-25T14:24:07Z</time>
      </trkpt>
      <trkpt lat="43.85841" lon="6.46217">
        <ele>1174</ele>
        <time>2018-05-25T14:24:14Z</time>
      </trkpt>
      <trkpt lat="43.85833" lon="6.4622">
        <ele>1177</ele>
        <time>2018-05-25T14:24:23Z</time>
      </trkpt>
      <trkpt lat="43.85821" lon="6.46233">
        <ele>1181</ele>
        <time>2018-05-25T14:24:39Z</time>
      </trkpt>
      <trkpt lat="43.85812" lon="6.46244">
        <ele>1183</ele>
        <time>2018-05-25T14:24:51Z</time>
      </trkpt>
      <trkpt lat="43.85808" lon="6.46251">
        <ele>1183</ele>
        <time>2018-05-25T14:24:57Z</time>
      </trkpt>
      <trkpt lat="43.858" lon="6.46266">
        <ele>1184</ele>
        <time>2018-05-25T14:25:10Z</time>
      </trkpt>
      <trkpt lat="43.85792" lon="6.46287">
        <ele>1184</ele>
        <time>2018-05-25T14:25:26Z</time>
      </trkpt>
      <trkpt lat="43.85779" lon="6.46298">
        <ele>1187</ele>
        <time>2018-05-25T14:25:42Z</time>
      </trkpt>
      <trkpt lat="43.85771" lon="6.46304">
        <ele>1189</ele>
        <time>2018-05-25T14:25:52Z</time>
      </trkpt>
      <trkpt lat="43.8577" lon="6.46305">
        <ele>1189</ele>
        <time>2018-05-25T14:25:53Z</time>
      </trkpt>
      <trkpt lat="43.85767" lon="6.46305">
        <ele>1190</ele>
        <time>2018-05-25T14:25:56Z</time>
      </trkpt>
      <trkpt lat="43.85754" lon="6.4631">
        <ele>1193</ele>
        <time>2018-05-25T14:26:10Z</time>
      </trkpt>
      <trkpt lat="43.85741" lon="6.46316">
        <ele>1196</ele>
        <time>2018-05-25T14:26:26Z</time>
      </trkpt>
      <trkpt lat="43.8573" lon="6.46328">
        <ele>1196</ele>
        <time>2018-05-25T14:26:41Z</time>
      </trkpt>
      <trkpt lat="43.85728" lon="6.46331">
        <ele>1196</ele>
        <time>2018-05-25T14:26:44Z</time>
      </trkpt>
      <trkpt lat="43.85715" lon="6.46348">
        <ele>1197</ele>
        <time>2018-05-25T14:27:00Z</time>
      </trkpt>
      <trkpt lat="43.85703" lon="6.4636">
        <ele>1199</ele>
        <time>2018-05-25T14:27:15Z</time>
      </trkpt>
      <trkpt lat="43.85691" lon="6.4637">
        <ele>1200</ele>
        <time>2018-05-25T14:27:29Z</time>
      </trkpt>
      <trkpt lat="43.85682" lon="6.46378">
        <ele>1201</ele>
        <time>2018-05-25T14:27:39Z</time>
      </trkpt>
      <trkpt lat="43.85681" lon="6.46379">
        <ele>1202</ele>
        <time>2018-05-25T14:27:40Z</time>
      </trkpt>
      <trkpt lat="43.8568" lon="6.4638">
        <ele>1202</ele>
        <time>2018-05-25T14:27:41Z</time>
      </trkpt>
      <trkpt lat="43.85678" lon="6.46381">
        <ele>1202</ele>
        <time>2018-05-25T14:27:42Z</time>
      </trkpt>
      <trkpt lat="43.85677" lon="6.46382">
        <ele>1202</ele>
        <time>2018-05-25T14:27:43Z</time>
      </trkpt>
      <trkpt lat="43.85675" lon="6.46383">
        <ele>1203</ele>
        <time>2018-05-25T14:27:44Z</time>
      </trkpt>
      <trkpt lat="43.85674" lon="6.46384">
        <ele>1203</ele>
        <time>2018-05-25T14:27:45Z</time>
      </trkpt>
      <trkpt lat="43.85653" lon="6.46398">
        <ele>1206</ele>
        <time>2018-05-25T14:27:59Z</time>
      </trkpt>
      <trkpt lat="43.85627" lon="6.46426">
        <ele>1207</ele>
        <time>2018-05-25T14:28:12Z</time>
      </trkpt>
      <trkpt lat="43.85596" lon="6.4644">
        <ele>1213</ele>
        <time>2018-05-25T14:28:22Z</time>
      </trkpt>
      <trkpt lat="43.85592" lon="6.46442">
        <ele>1213</ele>
        <time>2018-05-25T14:28:23Z</time>
      </trkpt>
      <trkpt lat="43.85588" lon="6.46444">
        <ele>1214</ele>
        <time>2018-05-25T14:28:24Z</time>
      </trkpt>
      <trkpt lat="43.8556" lon="6.46473">
        <ele>1215</ele>
        <time>2018-05-25T14:28:38Z</time>
      </trkpt>
      <trkpt lat="43.85535" lon="6.46495">
        <ele>1215</ele>
        <time>2018-05-25T14:28:55Z</time>
      </trkpt>
      <trkpt lat="43.8553" lon="6.46497">
        <ele>1215</ele>
        <time>2018-05-25T14:29:00Z</time>
      </trkpt>
      <trkpt lat="43.85529" lon="6.46497">
        <ele>1216</ele>
        <time>2018-05-25T14:29:01Z</time>
      </trkpt>
      <trkpt lat="43.85527" lon="6.46497">
        <ele>1216</ele>
        <time>2018-05-25T14:29:02Z</time>
      </trkpt>
      <trkpt lat="43.8551" lon="6.46504">
        <ele>1218</ele>
        <time>2018-05-25T14:29:18Z</time>
      </trkpt>
      <trkpt lat="43.85497" lon="6.46507">
        <ele>1220</ele>
        <time>2018-05-25T14:29:31Z</time>
      </trkpt>
      <trkpt lat="43.85482" lon="6.46514">
        <ele>1222</ele>
        <time>2018-05-25T14:29:48Z</time>
      </trkpt>
      <trkpt lat="43.85467" lon="6.46523">
        <ele>1224</ele>
        <time>2018-05-25T14:30:03Z</time>
      </trkpt>
      <trkpt lat="43.85466" lon="6.46524">
        <ele>1224</ele>
        <time>2018-05-25T14:30:04Z</time>
      </trkpt>
      <trkpt lat="43.85466" lon="6.46525">
        <ele>1224</ele>
        <time>2018-05-25T14:30:05Z</time>
      </trkpt>
      <trkpt lat="43.85465" lon="6.46526">
        <ele>1224</ele>
        <time>2018-05-25T14:30:06Z</time>
      </trkpt>
      <trkpt lat="43.85464" lon="6.46527">
        <ele>1224</ele>
        <time>2018-05-25T14:30:07Z</time>
      </trkpt>
      <trkpt lat="43.85463" lon="6.46528">
        <ele>1224</ele>
        <time>2018-05-25T14:30:08Z</time>
      </trkpt>
      <trkpt lat="43.85454" lon="6.46539">
        <ele>1225</ele>
        <time>2018-05-25T14:30:19Z</time>
      </trkpt>
      <trkpt lat="43.85443" lon="6.46553">
        <ele>1225</ele>
        <time>2018-05-25T14:30:34Z</time>
      </trkpt>
      <trkpt lat="43.85434" lon="6.46571">
        <ele>1225</ele>
        <time>2018-05-25T14:30:49Z</time>
      </trkpt>
      <trkpt lat="43.8542" lon="6.4659">
        <ele>1226</ele>
        <time>2018-05-25T14:31:07Z</time>
      </trkpt>
      <trkpt lat="43.85406" lon="6.466">
        <ele>1228</ele>
        <time>2018-05-25T14:31:22Z</time>
      </trkpt>
      <trkpt lat="43.854" lon="6.46607">
        <ele>1228</ele>
        <time>2018-05-25T14:31:35Z</time>
      </trkpt>
      <trkpt lat="43.85402" lon="6.46607">
        <ele>1227</ele>
        <time>2018-05-25T14:31:53Z</time>
      </trkpt>
      <trkpt lat="43.85401" lon="6.46609">
        <ele>1227</ele>
        <time>2018-05-25T14:32:32Z</time>
      </trkpt>
      <trkpt lat="43.85398" lon="6.46612">
        <ele>1227</ele>
        <time>2018-05-25T14:33:00Z</time>
      </trkpt>
      <trkpt lat="43.85386" lon="6.46615">
        <ele>1230</ele>
        <time>2018-05-25T14:33:12Z</time>
      </trkpt>
      <trkpt lat="43.85371" lon="6.4662">
        <ele>1234</ele>
        <time>2018-05-25T14:33:28Z</time>
      </trkpt>
      <trkpt lat="43.85369" lon="6.46622">
        <ele>1234</ele>
        <time>2018-05-25T14:33:31Z</time>
      </trkpt>
      <trkpt lat="43.85357" lon="6.46629">
        <ele>1235</ele>
        <time>2018-05-25T14:33:45Z</time>
      </trkpt>
      <trkpt lat="43.85346" lon="6.46638">
        <ele>1235</ele>
        <time>2018-05-25T14:34:01Z</time>
      </trkpt>
      <trkpt lat="43.85334" lon="6.4665">
        <ele>1233</ele>
        <time>2018-05-25T14:34:16Z</time>
      </trkpt>
      <trkpt lat="43.85322" lon="6.46654">
        <ele>1235</ele>
        <time>2018-05-25T14:34:32Z</time>
      </trkpt>
      <trkpt lat="43.85308" lon="6.46656">
        <ele>1239</ele>
        <time>2018-05-25T14:34:47Z</time>
      </trkpt>
      <trkpt lat="43.85288" lon="6.46655">
        <ele>1244</ele>
        <time>2018-05-25T14:35:06Z</time>
      </trkpt>
      <trkpt lat="43.85269" lon="6.46655">
        <ele>1247</ele>
        <time>2018-05-25T14:35:24Z</time>
      </trkpt>
      <trkpt lat="43.85261" lon="6.46657">
        <ele>1246</ele>
        <time>2018-05-25T14:35:32Z</time>
      </trkpt>
      <trkpt lat="43.8526" lon="6.46657">
        <ele>1246</ele>
        <time>2018-05-25T14:35:33Z</time>
      </trkpt>
      <trkpt lat="43.85245" lon="6.46654">
        <ele>1249</ele>
        <time>2018-05-25T14:35:50Z</time>
      </trkpt>
      <trkpt lat="43.85231" lon="6.46649">
        <ele>1251</ele>
        <time>2018-05-25T14:36:05Z</time>
      </trkpt>
      <trkpt lat="43.85216" lon="6.46644">
        <ele>1253</ele>
        <time>2018-05-25T14:36:21Z</time>
      </trkpt>
      <trkpt lat="43.85198" lon="6.46637">
        <ele>1255</ele>
        <time>2018-05-25T14:36:39Z</time>
      </trkpt>
      <trkpt lat="43.85184" lon="6.46633">
        <ele>1257</ele>
        <time>2018-05-25T14:36:55Z</time>
      </trkpt>
      <trkpt lat="43.85175" lon="6.46624">
        <ele>1261</ele>
        <time>2018-05-25T14:37:08Z</time>
      </trkpt>
      <trkpt lat="43.85165" lon="6.46614">
        <ele>1264</ele>
        <time>2018-05-25T14:37:24Z</time>
      </trkpt>
      <trkpt lat="43.85152" lon="6.46606">
        <ele>1268</ele>
        <time>2018-05-25T14:37:43Z</time>
      </trkpt>
      <trkpt lat="43.85141" lon="6.466">
        <ele>1270</ele>
        <time>2018-05-25T14:38:01Z</time>
      </trkpt>
      <trkpt lat="43.85129" lon="6.46592">
        <ele>1273</ele>
        <time>2018-05-25T14:38:20Z</time>
      </trkpt>
      <trkpt lat="43.85114" lon="6.46588">
        <ele>1275</ele>
        <time>2018-05-25T14:38:37Z</time>
      </trkpt>
      <trkpt lat="43.85103" lon="6.46582">
        <ele>1276</ele>
        <time>2018-05-25T14:38:50Z</time>
      </trkpt>
      <trkpt lat="43.85086" lon="6.4657">
        <ele>1279</ele>
        <time>2018-05-25T14:39:11Z</time>
      </trkpt>
      <trkpt lat="43.85071" lon="6.46561">
        <ele>1281</ele>
        <time>2018-05-25T14:39:30Z</time>
      </trkpt>
      <trkpt lat="43.85063" lon="6.46557">
        <ele>1282</ele>
        <time>2018-05-25T14:39:40Z</time>
      </trkpt>
      <trkpt lat="43.8505" lon="6.46548">
        <ele>1285</ele>
        <time>2018-05-25T14:39:56Z</time>
      </trkpt>
      <trkpt lat="43.85041" lon="6.46542">
        <ele>1287</ele>
        <time>2018-05-25T14:40:09Z</time>
      </trkpt>
      <trkpt lat="43.85033" lon="6.46531">
        <ele>1291</ele>
        <time>2018-05-25T14:40:28Z</time>
      </trkpt>
      <trkpt lat="43.85041" lon="6.46529">
        <ele>1292</ele>
        <time>2018-05-25T14:40:38Z</time>
      </trkpt>
      <trkpt lat="43.85042" lon="6.4653">
        <ele>1292</ele>
        <time>2018-05-25T14:40:39Z</time>
      </trkpt>
      <trkpt lat="43.85043" lon="6.4653">
        <ele>1292</ele>
        <time>2018-05-25T14:40:40Z</time>
      </trkpt>
      <trkpt lat="43.85044" lon="6.4653">
        <ele>1292</ele>
        <time>2018-05-25T14:40:41Z</time>
      </trkpt>
      <trkpt lat="43.85045" lon="6.4653">
        <ele>1292</ele>
        <time>2018-05-25T14:40:42Z</time>
      </trkpt>
      <trkpt lat="43.85053" lon="6.46531">
        <ele>1292</ele>
        <time>2018-05-25T14:40:52Z</time>
      </trkpt>
      <trkpt lat="43.85055" lon="6.46531">
        <ele>1292</ele>
        <time>2018-05-25T14:40:53Z</time>
      </trkpt>
      <trkpt lat="43.8507" lon="6.46528">
        <ele>1294</ele>
        <time>2018-05-25T14:41:11Z</time>
      </trkpt>
      <trkpt lat="43.85088" lon="6.4653">
        <ele>1295</ele>
        <time>2018-05-25T14:41:30Z</time>
      </trkpt>
      <trkpt lat="43.85104" lon="6.46529">
        <ele>1297</ele>
        <time>2018-05-25T14:41:47Z</time>
      </trkpt>
      <trkpt lat="43.85122" lon="6.4653">
        <ele>1298</ele>
        <time>2018-05-25T14:42:06Z</time>
      </trkpt>
      <trkpt lat="43.85124" lon="6.46531">
        <ele>1298</ele>
        <time>2018-05-25T14:42:08Z</time>
      </trkpt>
      <trkpt lat="43.85142" lon="6.46528">
        <ele>1300</ele>
        <time>2018-05-25T14:42:27Z</time>
      </trkpt>
      <trkpt lat="43.85145" lon="6.46528">
        <ele>1300</ele>
        <time>2018-05-25T14:42:29Z</time>
      </trkpt>
      <trkpt lat="43.85162" lon="6.46524">
        <ele>1302</ele>
        <time>2018-05-25T14:42:47Z</time>
      </trkpt>
      <trkpt lat="43.85182" lon="6.4652">
        <ele>1304</ele>
        <time>2018-05-25T14:43:07Z</time>
      </trkpt>
      <trkpt lat="43.85201" lon="6.46513">
        <ele>1307</ele>
        <time>2018-05-25T14:43:27Z</time>
      </trkpt>
      <trkpt lat="43.85221" lon="6.46505">
        <ele>1310</ele>
        <time>2018-05-25T14:43:47Z</time>
      </trkpt>
      <trkpt lat="43.85243" lon="6.46496">
        <ele>1311</ele>
        <time>2018-05-25T14:44:08Z</time>
      </trkpt>
      <trkpt lat="43.85262" lon="6.46488">
        <ele>1312</ele>
        <time>2018-05-25T14:44:27Z</time>
      </trkpt>
      <trkpt lat="43.85263" lon="6.46487">
        <ele>1312</ele>
        <time>2018-05-25T14:44:28Z</time>
      </trkpt>
      <trkpt lat="43.85264" lon="6.46487">
        <ele>1312</ele>
        <time>2018-05-25T14:44:29Z</time>
      </trkpt>
      <trkpt lat="43.85265" lon="6.46486">
        <ele>1312</ele>
        <time>2018-05-25T14:44:30Z</time>
      </trkpt>
      <trkpt lat="43.85266" lon="6.46486">
        <ele>1312</ele>
        <time>2018-05-25T14:44:31Z</time>
      </trkpt>
      <trkpt lat="43.85265" lon="6.46474">
        <ele>1316</ele>
        <time>2018-05-25T14:44:46Z</time>
      </trkpt>
      <trkpt lat="43.85263" lon="6.46474">
        <ele>1316</ele>
        <time>2018-05-25T14:44:48Z</time>
      </trkpt>
      <trkpt lat="43.85252" lon="6.46478">
        <ele>1317</ele>
        <time>2018-05-25T14:45:02Z</time>
      </trkpt>
      <trkpt lat="43.85238" lon="6.46479">
        <ele>1318</ele>
        <time>2018-05-25T14:45:20Z</time>
      </trkpt>
      <trkpt lat="43.8522" lon="6.46477">
        <ele>1320</ele>
        <time>2018-05-25T14:45:41Z</time>
      </trkpt>
      <trkpt lat="43.85204" lon="6.46474">
        <ele>1322</ele>
        <time>2018-05-25T14:46:00Z</time>
      </trkpt>
      <trkpt lat="43.85186" lon="6.46469">
        <ele>1324</ele>
        <time>2018-05-25T14:46:17Z</time>
      </trkpt>
      <trkpt lat="43.8518" lon="6.46465">
        <ele>1326</ele>
        <time>2018-05-25T14:46:25Z</time>
      </trkpt>
      <trkpt lat="43.85167" lon="6.46457">
        <ele>1330</ele>
        <time>2018-05-25T14:46:41Z</time>
      </trkpt>
      <trkpt lat="43.85152" lon="6.46449">
        <ele>1332</ele>
        <time>2018-05-25T14:47:00Z</time>
      </trkpt>
      <trkpt lat="43.85137" lon="6.46442">
        <ele>1334</ele>
        <time>2018-05-25T14:47:17Z</time>
      </trkpt>
      <trkpt lat="43.85123" lon="6.46435">
        <ele>1335</ele>
        <time>2018-05-25T14:47:33Z</time>
      </trkpt>
      <trkpt lat="43.85105" lon="6.46426">
        <ele>1338</ele>
        <time>2018-05-25T14:47:53Z</time>
      </trkpt>
      <trkpt lat="43.85089" lon="6.46418">
        <ele>1339</ele>
        <time>2018-05-25T14:48:12Z</time>
      </trkpt>
      <trkpt lat="43.8507" lon="6.46413">
        <ele>1340</ele>
        <time>2018-05-25T14:48:32Z</time>
      </trkpt>
      <trkpt lat="43.85052" lon="6.46408">
        <ele>1341</ele>
        <time>2018-05-25T14:48:52Z</time>
      </trkpt>
      <trkpt lat="43.85032" lon="6.46402">
        <ele>1343</ele>
        <time>2018-05-25T14:49:11Z</time>
      </trkpt>
      <trkpt lat="43.85014" lon="6.46392">
        <ele>1345</ele>
        <time>2018-05-25T14:49:31Z</time>
      </trkpt>
      <trkpt lat="43.85002" lon="6.46385">
        <ele>1347</ele>
        <time>2018-05-25T14:49:44Z</time>
      </trkpt>
      <trkpt lat="43.85001" lon="6.46384">
        <ele>1348</ele>
        <time>2018-05-25T14:49:45Z</time>
      </trkpt>
      <trkpt lat="43.84993" lon="6.46378">
        <ele>1350</ele>
        <time>2018-05-25T14:49:55Z</time>
      </trkpt>
      <trkpt lat="43.84979" lon="6.46363">
        <ele>1354</ele>
        <time>2018-05-25T14:50:11Z</time>
      </trkpt>
      <trkpt lat="43.84964" lon="6.46349">
        <ele>1358</ele>
        <time>2018-05-25T14:50:30Z</time>
      </trkpt>
      <trkpt lat="43.84962" lon="6.46347">
        <ele>1358</ele>
        <time>2018-05-25T14:50:33Z</time>
      </trkpt>
      <trkpt lat="43.8495" lon="6.46339">
        <ele>1360</ele>
        <time>2018-05-25T14:50:47Z</time>
      </trkpt>
      <trkpt lat="43.84948" lon="6.46337">
        <ele>1360</ele>
        <time>2018-05-25T14:50:50Z</time>
      </trkpt>
      <trkpt lat="43.84935" lon="6.46325">
        <ele>1363</ele>
        <time>2018-05-25T14:51:07Z</time>
      </trkpt>
      <trkpt lat="43.8492" lon="6.46314">
        <ele>1364</ele>
        <time>2018-05-25T14:51:24Z</time>
      </trkpt>
      <trkpt lat="43.84918" lon="6.46312">
        <ele>1364</ele>
        <time>2018-05-25T14:51:27Z</time>
      </trkpt>
      <trkpt lat="43.84906" lon="6.463">
        <ele>1366</ele>
        <time>2018-05-25T14:51:42Z</time>
      </trkpt>
      <trkpt lat="43.84893" lon="6.46288">
        <ele>1369</ele>
        <time>2018-05-25T14:51:58Z</time>
      </trkpt>
      <trkpt lat="43.84877" lon="6.46276">
        <ele>1370</ele>
        <time>2018-05-25T14:52:16Z</time>
      </trkpt>
      <trkpt lat="43.84864" lon="6.46268">
        <ele>1370</ele>
        <time>2018-05-25T14:52:31Z</time>
      </trkpt>
      <trkpt lat="43.84856" lon="6.46265">
        <ele>1370</ele>
        <time>2018-05-25T14:52:39Z</time>
      </trkpt>
      <trkpt lat="43.84855" lon="6.46264">
        <ele>1370</ele>
        <time>2018-05-25T14:52:40Z</time>
      </trkpt>
      <trkpt lat="43.84854" lon="6.46264">
        <ele>1370</ele>
        <time>2018-05-25T14:52:41Z</time>
      </trkpt>
      <trkpt lat="43.84836" lon="6.46258">
        <ele>1372</ele>
        <time>2018-05-25T14:52:59Z</time>
      </trkpt>
      <trkpt lat="43.84833" lon="6.46257">
        <ele>1373</ele>
        <time>2018-05-25T14:53:02Z</time>
      </trkpt>
      <trkpt lat="43.84815" lon="6.46257">
        <ele>1372</ele>
        <time>2018-05-25T14:53:20Z</time>
      </trkpt>
      <trkpt lat="43.848" lon="6.46267">
        <ele>1372</ele>
        <time>2018-05-25T14:53:37Z</time>
      </trkpt>
      <trkpt lat="43.84782" lon="6.46284">
        <ele>1373</ele>
        <time>2018-05-25T14:53:55Z</time>
      </trkpt>
      <trkpt lat="43.84766" lon="6.46303">
        <ele>1372</ele>
        <time>2018-05-25T14:54:12Z</time>
      </trkpt>
      <trkpt lat="43.84756" lon="6.4632">
        <ele>1372</ele>
        <time>2018-05-25T14:54:27Z</time>
      </trkpt>
      <trkpt lat="43.8474" lon="6.46338">
        <ele>1374</ele>
        <time>2018-05-25T14:54:46Z</time>
      </trkpt>
      <trkpt lat="43.84729" lon="6.46354">
        <ele>1376</ele>
        <time>2018-05-25T14:55:02Z</time>
      </trkpt>
      <trkpt lat="43.84717" lon="6.46371">
        <ele>1379</ele>
        <time>2018-05-25T14:55:19Z</time>
      </trkpt>
      <trkpt lat="43.84713" lon="6.46376">
        <ele>1379</ele>
        <time>2018-05-25T14:55:32Z</time>
      </trkpt>
      <trkpt lat="43.84713" lon="6.46379">
        <ele>1378</ele>
        <time>2018-05-25T14:56:05Z</time>
      </trkpt>
      <trkpt lat="43.84708" lon="6.46384">
        <ele>1379</ele>
        <time>2018-05-25T14:56:22Z</time>
      </trkpt>
      <trkpt lat="43.84697" lon="6.46402">
        <ele>1379</ele>
        <time>2018-05-25T14:56:39Z</time>
      </trkpt>
      <trkpt lat="43.84685" lon="6.46419">
        <ele>1380</ele>
        <time>2018-05-25T14:56:56Z</time>
      </trkpt>
      <trkpt lat="43.84679" lon="6.46418">
        <ele>1382</ele>
        <time>2018-05-25T14:57:01Z</time>
      </trkpt>
      <trkpt lat="43.84674" lon="6.4641">
        <ele>1385</ele>
        <time>2018-05-25T14:57:09Z</time>
      </trkpt>
      <trkpt lat="43.84674" lon="6.46407">
        <ele>1386</ele>
        <time>2018-05-25T14:57:12Z</time>
      </trkpt>
      <trkpt lat="43.84673" lon="6.46394">
        <ele>1387</ele>
        <time>2018-05-25T14:57:23Z</time>
      </trkpt>
      <trkpt lat="43.84668" lon="6.46379">
        <ele>1387</ele>
        <time>2018-05-25T14:57:38Z</time>
      </trkpt>
      <trkpt lat="43.84665" lon="6.46375">
        <ele>1387</ele>
        <time>2018-05-25T14:57:59Z</time>
      </trkpt>
      <trkpt lat="43.84663" lon="6.46373">
        <ele>1387</ele>
        <time>2018-05-25T14:58:35Z</time>
      </trkpt>
      <trkpt lat="43.84662" lon="6.46376">
        <ele>1386</ele>
        <time>2018-05-25T14:59:00Z</time>
      </trkpt>
      <trkpt lat="43.84664" lon="6.46379">
        <ele>1386</ele>
        <time>2018-05-25T14:59:17Z</time>
      </trkpt>
      <trkpt lat="43.84664" lon="6.46381">
        <ele>1386</ele>
        <time>2018-05-25T14:59:18Z</time>
      </trkpt>
      <trkpt lat="43.84664" lon="6.46383">
        <ele>1386</ele>
        <time>2018-05-25T14:59:19Z</time>
      </trkpt>
      <trkpt lat="43.84663" lon="6.46387">
        <ele>1385</ele>
        <time>2018-05-25T14:59:20Z</time>
      </trkpt>
      <trkpt lat="43.84662" lon="6.46388">
        <ele>1385</ele>
        <time>2018-05-25T14:59:21Z</time>
      </trkpt>
      <trkpt lat="43.84661" lon="6.4639">
        <ele>1385</ele>
        <time>2018-05-25T14:59:22Z</time>
      </trkpt>
      <trkpt lat="43.84652" lon="6.46408">
        <ele>1382</ele>
        <time>2018-05-25T14:59:28Z</time>
      </trkpt>
      <trkpt lat="43.8465" lon="6.46408">
        <ele>1381</ele>
        <time>2018-05-25T14:59:29Z</time>
      </trkpt>
      <trkpt lat="43.84649" lon="6.46408">
        <ele>1381</ele>
        <time>2018-05-25T14:59:30Z</time>
      </trkpt>
      <trkpt lat="43.84648" lon="6.46406">
        <ele>1381</ele>
        <time>2018-05-25T14:59:31Z</time>
      </trkpt>
      <trkpt lat="43.84646" lon="6.464">
        <ele>1381</ele>
        <time>2018-05-25T14:59:42Z</time>
      </trkpt>
      <trkpt lat="43.84643" lon="6.46392">
        <ele>1380</ele>
        <time>2018-05-25T14:59:55Z</time>
      </trkpt>
      <trkpt lat="43.84643" lon="6.46383">
        <ele>1380</ele>
        <time>2018-05-25T15:00:08Z</time>
      </trkpt>
      <trkpt lat="43.84644" lon="6.4638">
        <ele>1381</ele>
        <time>2018-05-25T15:00:39Z</time>
      </trkpt>
      <trkpt lat="43.84644" lon="6.46379">
        <ele>1381</ele>
        <time>2018-05-25T15:00:40Z</time>
      </trkpt>
      <trkpt lat="43.84644" lon="6.46378">
        <ele>1381</ele>
        <time>2018-05-25T15:00:41Z</time>
      </trkpt>
      <trkpt lat="43.84643" lon="6.46376">
        <ele>1381</ele>
        <time>2018-05-25T15:00:42Z</time>
      </trkpt>
      <trkpt lat="43.84643" lon="6.46366">
        <ele>1380</ele>
        <time>2018-05-25T15:00:50Z</time>
      </trkpt>
      <trkpt lat="43.84642" lon="6.46364">
        <ele>1380</ele>
        <time>2018-05-25T15:00:51Z</time>
      </trkpt>
      <trkpt lat="43.84638" lon="6.4635">
        <ele>1379</ele>
        <time>2018-05-25T15:01:04Z</time>
      </trkpt>
      <trkpt lat="43.84635" lon="6.46337">
        <ele>1377</ele>
        <time>2018-05-25T15:01:16Z</time>
      </trkpt>
      <trkpt lat="43.84635" lon="6.46335">
        <ele>1377</ele>
        <time>2018-05-25T15:01:17Z</time>
      </trkpt>
      <trkpt lat="43.84632" lon="6.46325">
        <ele>1375</ele>
        <time>2018-05-25T15:01:25Z</time>
      </trkpt>
      <trkpt lat="43.84628" lon="6.46313">
        <ele>1372</ele>
        <time>2018-05-25T15:01:35Z</time>
      </trkpt>
      <trkpt lat="43.84627" lon="6.46305">
        <ele>1371</ele>
        <time>2018-05-25T15:01:46Z</time>
      </trkpt>
      <trkpt lat="43.84626" lon="6.46303">
        <ele>1371</ele>
        <time>2018-05-25T15:01:47Z</time>
      </trkpt>
      <trkpt lat="43.84625" lon="6.46301">
        <ele>1370</ele>
        <time>2018-05-25T15:01:48Z</time>
      </trkpt>
      <trkpt lat="43.84625" lon="6.463">
        <ele>1370</ele>
        <time>2018-05-25T15:01:49Z</time>
      </trkpt>
      <trkpt lat="43.84625" lon="6.46297">
        <ele>1369</ele>
        <time>2018-05-25T15:01:50Z</time>
      </trkpt>
      <trkpt lat="43.84624" lon="6.46295">
        <ele>1369</ele>
        <time>2018-05-25T15:01:51Z</time>
      </trkpt>
      <trkpt lat="43.84623" lon="6.46292">
        <ele>1368</ele>
        <time>2018-05-25T15:01:52Z</time>
      </trkpt>
      <trkpt lat="43.84621" lon="6.46283">
        <ele>1367</ele>
        <time>2018-05-25T15:02:02Z</time>
      </trkpt>
      <trkpt lat="43.84619" lon="6.46267">
        <ele>1364</ele>
        <time>2018-05-25T15:02:17Z</time>
      </trkpt>
      <trkpt lat="43.84618" lon="6.46266">
        <ele>1364</ele>
        <time>2018-05-25T15:02:24Z</time>
      </trkpt>
      <trkpt lat="43.84618" lon="6.46264">
        <ele>1364</ele>
        <time>2018-05-25T15:02:25Z</time>
      </trkpt>
      <trkpt lat="43.8461" lon="6.46226">
        <ele>1357</ele>
        <time>2018-05-25T15:02:36Z</time>
      </trkpt>
      <trkpt lat="43.84595" lon="6.46167">
        <ele>1345</ele>
        <time>2018-05-25T15:02:50Z</time>
      </trkpt>
      <trkpt lat="43.84587" lon="6.46134">
        <ele>1339</ele>
        <time>2018-05-25T15:02:59Z</time>
      </trkpt>
      <trkpt lat="43.84576" lon="6.46101">
        <ele>1333</ele>
        <time>2018-05-25T15:03:08Z</time>
      </trkpt>
      <trkpt lat="43.84559" lon="6.46075">
        <ele>1327</ele>
        <time>2018-05-25T15:03:18Z</time>
      </trkpt>
      <trkpt lat="43.84557" lon="6.46073">
        <ele>1327</ele>
        <time>2018-05-25T15:03:19Z</time>
      </trkpt>
      <trkpt lat="43.84555" lon="6.46072">
        <ele>1326</ele>
        <time>2018-05-25T15:03:20Z</time>
      </trkpt>
      <trkpt lat="43.84554" lon="6.46072">
        <ele>1326</ele>
        <time>2018-05-25T15:03:21Z</time>
      </trkpt>
      <trkpt lat="43.84553" lon="6.46074">
        <ele>1326</ele>
        <time>2018-05-25T15:03:22Z</time>
      </trkpt>
      <trkpt lat="43.84552" lon="6.46075">
        <ele>1325</ele>
        <time>2018-05-25T15:03:23Z</time>
      </trkpt>
      <trkpt lat="43.84551" lon="6.46077">
        <ele>1325</ele>
        <time>2018-05-25T15:03:24Z</time>
      </trkpt>
      <trkpt lat="43.8455" lon="6.46079">
        <ele>1325</ele>
        <time>2018-05-25T15:03:25Z</time>
      </trkpt>
      <trkpt lat="43.8455" lon="6.46089">
        <ele>1324</ele>
        <time>2018-05-25T15:03:36Z</time>
      </trkpt>
      <trkpt lat="43.84549" lon="6.46098">
        <ele>1324</ele>
        <time>2018-05-25T15:03:47Z</time>
      </trkpt>
      <trkpt lat="43.84545" lon="6.46111">
        <ele>1322</ele>
        <time>2018-05-25T15:04:03Z</time>
      </trkpt>
      <trkpt lat="43.84535" lon="6.4611">
        <ele>1319</ele>
        <time>2018-05-25T15:04:17Z</time>
      </trkpt>
      <trkpt lat="43.84527" lon="6.46114">
        <ele>1316</ele>
        <time>2018-05-25T15:04:33Z</time>
      </trkpt>
      <trkpt lat="43.84517" lon="6.46118">
        <ele>1313</ele>
        <time>2018-05-25T15:04:47Z</time>
      </trkpt>
      <trkpt lat="43.84509" lon="6.46119">
        <ele>1310</ele>
        <time>2018-05-25T15:05:01Z</time>
      </trkpt>
      <trkpt lat="43.84502" lon="6.46122">
        <ele>1308</ele>
        <time>2018-05-25T15:05:13Z</time>
      </trkpt>
      <trkpt lat="43.84492" lon="6.46122">
        <ele>1305</ele>
        <time>2018-05-25T15:05:25Z</time>
      </trkpt>
      <trkpt lat="43.84485" lon="6.46124">
        <ele>1303</ele>
        <time>2018-05-25T15:05:35Z</time>
      </trkpt>
      <trkpt lat="43.84484" lon="6.46124">
        <ele>1302</ele>
        <time>2018-05-25T15:05:36Z</time>
      </trkpt>
      <trkpt lat="43.84483" lon="6.46125">
        <ele>1302</ele>
        <time>2018-05-25T15:05:37Z</time>
      </trkpt>
      <trkpt lat="43.84481" lon="6.46125">
        <ele>1301</ele>
        <time>2018-05-25T15:05:38Z</time>
      </trkpt>
      <trkpt lat="43.8448" lon="6.46126">
        <ele>1301</ele>
        <time>2018-05-25T15:05:39Z</time>
      </trkpt>
      <trkpt lat="43.84478" lon="6.46127">
        <ele>1300</ele>
        <time>2018-05-25T15:05:40Z</time>
      </trkpt>
      <trkpt lat="43.84477" lon="6.46127">
        <ele>1300</ele>
        <time>2018-05-25T15:05:41Z</time>
      </trkpt>
      <trkpt lat="43.84476" lon="6.46128">
        <ele>1300</ele>
        <time>2018-05-25T15:05:42Z</time>
      </trkpt>
      <trkpt lat="43.84475" lon="6.46128">
        <ele>1299</ele>
        <time>2018-05-25T15:05:43Z</time>
      </trkpt>
      <trkpt lat="43.84473" lon="6.4613">
        <ele>1298</ele>
        <time>2018-05-25T15:05:45Z</time>
      </trkpt>
      <trkpt lat="43.84471" lon="6.46131">
        <ele>1298</ele>
        <time>2018-05-25T15:05:46Z</time>
      </trkpt>
      <trkpt lat="43.84465" lon="6.46136">
        <ele>1295</ele>
        <time>2018-05-25T15:05:50Z</time>
      </trkpt>
      <trkpt lat="43.84463" lon="6.46139">
        <ele>1295</ele>
        <time>2018-05-25T15:05:51Z</time>
      </trkpt>
      <trkpt lat="43.84463" lon="6.46143">
        <ele>1294</ele>
        <time>2018-05-25T15:05:52Z</time>
      </trkpt>
      <trkpt lat="43.84462" lon="6.46147">
        <ele>1294</ele>
        <time>2018-05-25T15:05:53Z</time>
      </trkpt>
      <trkpt lat="43.84462" lon="6.4615">
        <ele>1293</ele>
        <time>2018-05-25T15:05:54Z</time>
      </trkpt>
      <trkpt lat="43.84457" lon="6.46171">
        <ele>1291</ele>
        <time>2018-05-25T15:06:01Z</time>
      </trkpt>
      <trkpt lat="43.84456" lon="6.46173">
        <ele>1291</ele>
        <time>2018-05-25T15:06:02Z</time>
      </trkpt>
      <trkpt lat="43.84456" lon="6.46175">
        <ele>1290</ele>
        <time>2018-05-25T15:06:03Z</time>
      </trkpt>
      <trkpt lat="43.84455" lon="6.46179">
        <ele>1290</ele>
        <time>2018-05-25T15:06:05Z</time>
      </trkpt>
      <trkpt lat="43.84455" lon="6.46182">
        <ele>1289</ele>
        <time>2018-05-25T15:06:06Z</time>
      </trkpt>
      <trkpt lat="43.84454" lon="6.46185">
        <ele>1289</ele>
        <time>2018-05-25T15:06:07Z</time>
      </trkpt>
      <trkpt lat="43.84454" lon="6.46187">
        <ele>1289</ele>
        <time>2018-05-25T15:06:08Z</time>
      </trkpt>
      <trkpt lat="43.84454" lon="6.4619">
        <ele>1289</ele>
        <time>2018-05-25T15:06:09Z</time>
      </trkpt>
      <trkpt lat="43.84455" lon="6.46206">
        <ele>1288</ele>
        <time>2018-05-25T15:06:14Z</time>
      </trkpt>
      <trkpt lat="43.84454" lon="6.46209">
        <ele>1288</ele>
        <time>2018-05-25T15:06:15Z</time>
      </trkpt>
      <trkpt lat="43.84453" lon="6.46211">
        <ele>1287</ele>
        <time>2018-05-25T15:06:16Z</time>
      </trkpt>
      <trkpt lat="43.84452" lon="6.46213">
        <ele>1286</ele>
        <time>2018-05-25T15:06:17Z</time>
      </trkpt>
      <trkpt lat="43.8445" lon="6.46215">
        <ele>1285</ele>
        <time>2018-05-25T15:06:18Z</time>
      </trkpt>
      <trkpt lat="43.84448" lon="6.46217">
        <ele>1285</ele>
        <time>2018-05-25T15:06:19Z</time>
      </trkpt>
      <trkpt lat="43.84447" lon="6.46219">
        <ele>1284</ele>
        <time>2018-05-25T15:06:20Z</time>
      </trkpt>
      <trkpt lat="43.84446" lon="6.46221">
        <ele>1283</ele>
        <time>2018-05-25T15:06:21Z</time>
      </trkpt>
      <trkpt lat="43.84445" lon="6.46221">
        <ele>1283</ele>
        <time>2018-05-25T15:06:22Z</time>
      </trkpt>
      <trkpt lat="43.84444" lon="6.46223">
        <ele>1282</ele>
        <time>2018-05-25T15:06:23Z</time>
      </trkpt>
      <trkpt lat="43.84443" lon="6.46226">
        <ele>1282</ele>
        <time>2018-05-25T15:06:24Z</time>
      </trkpt>
      <trkpt lat="43.84443" lon="6.46229">
        <ele>1282</ele>
        <time>2018-05-25T15:06:25Z</time>
      </trkpt>
      <trkpt lat="43.84443" lon="6.46232">
        <ele>1282</ele>
        <time>2018-05-25T15:06:26Z</time>
      </trkpt>
      <trkpt lat="43.84443" lon="6.46236">
        <ele>1282</ele>
        <time>2018-05-25T15:06:36Z</time>
      </trkpt>
      <trkpt lat="43.84443" lon="6.46241">
        <ele>1283</ele>
        <time>2018-05-25T15:06:41Z</time>
      </trkpt>
      <trkpt lat="43.84442" lon="6.46244">
        <ele>1283</ele>
        <time>2018-05-25T15:06:42Z</time>
      </trkpt>
      <trkpt lat="43.84442" lon="6.46247">
        <ele>1282</ele>
        <time>2018-05-25T15:06:43Z</time>
      </trkpt>
      <trkpt lat="43.84441" lon="6.4625">
        <ele>1282</ele>
        <time>2018-05-25T15:06:44Z</time>
      </trkpt>
      <trkpt lat="43.8444" lon="6.46253">
        <ele>1282</ele>
        <time>2018-05-25T15:06:45Z</time>
      </trkpt>
      <trkpt lat="43.84439" lon="6.46256">
        <ele>1281</ele>
        <time>2018-05-25T15:06:46Z</time>
      </trkpt>
      <trkpt lat="43.84438" lon="6.4626">
        <ele>1281</ele>
        <time>2018-05-25T15:06:47Z</time>
      </trkpt>
      <trkpt lat="43.84436" lon="6.46264">
        <ele>1280</ele>
        <time>2018-05-25T15:06:48Z</time>
      </trkpt>
      <trkpt lat="43.8443" lon="6.46284">
        <ele>1278</ele>
        <time>2018-05-25T15:06:54Z</time>
      </trkpt>
      <trkpt lat="43.84429" lon="6.46286">
        <ele>1277</ele>
        <time>2018-05-25T15:06:55Z</time>
      </trkpt>
      <trkpt lat="43.84428" lon="6.46288">
        <ele>1277</ele>
        <time>2018-05-25T15:06:56Z</time>
      </trkpt>
      <trkpt lat="43.84427" lon="6.4629">
        <ele>1276</ele>
        <time>2018-05-25T15:06:57Z</time>
      </trkpt>
      <trkpt lat="43.84426" lon="6.4629">
        <ele>1276</ele>
        <time>2018-05-25T15:06:58Z</time>
      </trkpt>
      <trkpt lat="43.84424" lon="6.46288">
        <ele>1274</ele>
        <time>2018-05-25T15:07:01Z</time>
      </trkpt>
      <trkpt lat="43.84423" lon="6.46287">
        <ele>1274</ele>
        <time>2018-05-25T15:07:02Z</time>
      </trkpt>
      <trkpt lat="43.84422" lon="6.46285">
        <ele>1274</ele>
        <time>2018-05-25T15:07:03Z</time>
      </trkpt>
      <trkpt lat="43.84422" lon="6.46282">
        <ele>1273</ele>
        <time>2018-05-25T15:07:04Z</time>
      </trkpt>
      <trkpt lat="43.8442" lon="6.46279">
        <ele>1272</ele>
        <time>2018-05-25T15:07:05Z</time>
      </trkpt>
      <trkpt lat="43.84419" lon="6.46277">
        <ele>1271</ele>
        <time>2018-05-25T15:07:06Z</time>
      </trkpt>
      <trkpt lat="43.84418" lon="6.46273">
        <ele>1271</ele>
        <time>2018-05-25T15:07:07Z</time>
      </trkpt>
      <trkpt lat="43.84417" lon="6.4627">
        <ele>1270</ele>
        <time>2018-05-25T15:07:08Z</time>
      </trkpt>
      <trkpt lat="43.84416" lon="6.46267">
        <ele>1269</ele>
        <time>2018-05-25T15:07:09Z</time>
      </trkpt>
      <trkpt lat="43.84415" lon="6.46264">
        <ele>1269</ele>
        <time>2018-05-25T15:07:10Z</time>
      </trkpt>
      <trkpt lat="43.84415" lon="6.46261">
        <ele>1268</ele>
        <time>2018-05-25T15:07:11Z</time>
      </trkpt>
      <trkpt lat="43.84414" lon="6.46257">
        <ele>1268</ele>
        <time>2018-05-25T15:07:12Z</time>
      </trkpt>
      <trkpt lat="43.84403" lon="6.46221">
        <ele>1262</ele>
        <time>2018-05-25T15:07:23Z</time>
      </trkpt>
      <trkpt lat="43.84402" lon="6.46216">
        <ele>1261</ele>
        <time>2018-05-25T15:07:24Z</time>
      </trkpt>
      <trkpt lat="43.844" lon="6.46211">
        <ele>1260</ele>
        <time>2018-05-25T15:07:25Z</time>
      </trkpt>
      <trkpt lat="43.84399" lon="6.46208">
        <ele>1260</ele>
        <time>2018-05-25T15:07:26Z</time>
      </trkpt>
      <trkpt lat="43.84397" lon="6.46206">
        <ele>1259</ele>
        <time>2018-05-25T15:07:27Z</time>
      </trkpt>
      <trkpt lat="43.84396" lon="6.46203">
        <ele>1259</ele>
        <time>2018-05-25T15:07:28Z</time>
      </trkpt>
      <trkpt lat="43.84394" lon="6.46202">
        <ele>1258</ele>
        <time>2018-05-25T15:07:29Z</time>
      </trkpt>
      <trkpt lat="43.84392" lon="6.462">
        <ele>1257</ele>
        <time>2018-05-25T15:07:30Z</time>
      </trkpt>
      <trkpt lat="43.84391" lon="6.46199">
        <ele>1257</ele>
        <time>2018-05-25T15:07:31Z</time>
      </trkpt>
      <trkpt lat="43.8439" lon="6.46198">
        <ele>1256</ele>
        <time>2018-05-25T15:07:32Z</time>
      </trkpt>
      <trkpt lat="43.84387" lon="6.46197">
        <ele>1255</ele>
        <time>2018-05-25T15:07:33Z</time>
      </trkpt>
      <trkpt lat="43.84385" lon="6.46196">
        <ele>1255</ele>
        <time>2018-05-25T15:07:34Z</time>
      </trkpt>
      <trkpt lat="43.84383" lon="6.46194">
        <ele>1254</ele>
        <time>2018-05-25T15:07:35Z</time>
      </trkpt>
      <trkpt lat="43.84381" lon="6.46192">
        <ele>1253</ele>
        <time>2018-05-25T15:07:37Z</time>
      </trkpt>
      <trkpt lat="43.8438" lon="6.4619">
        <ele>1253</ele>
        <time>2018-05-25T15:07:38Z</time>
      </trkpt>
      <trkpt lat="43.84379" lon="6.46189">
        <ele>1253</ele>
        <time>2018-05-25T15:07:39Z</time>
      </trkpt>
      <trkpt lat="43.84378" lon="6.46187">
        <ele>1252</ele>
        <time>2018-05-25T15:07:40Z</time>
      </trkpt>
      <trkpt lat="43.84376" lon="6.46185">
        <ele>1252</ele>
        <time>2018-05-25T15:07:41Z</time>
      </trkpt>
      <trkpt lat="43.84366" lon="6.46175">
        <ele>1248</ele>
        <time>2018-05-25T15:07:52Z</time>
      </trkpt>
      <trkpt lat="43.84363" lon="6.46174">
        <ele>1247</ele>
        <time>2018-05-25T15:08:05Z</time>
      </trkpt>
      <trkpt lat="43.84356" lon="6.46172">
        <ele>1245</ele>
        <time>2018-05-25T15:08:20Z</time>
      </trkpt>
      <trkpt lat="43.84355" lon="6.46171">
        <ele>1245</ele>
        <time>2018-05-25T15:08:21Z</time>
      </trkpt>
      <trkpt lat="43.84354" lon="6.46171">
        <ele>1244</ele>
        <time>2018-05-25T15:08:22Z</time>
      </trkpt>
      <trkpt lat="43.84334" lon="6.46161">
        <ele>1238</ele>
        <time>2018-05-25T15:08:31Z</time>
      </trkpt>
      <trkpt lat="43.84309" lon="6.46149">
        <ele>1231</ele>
        <time>2018-05-25T15:08:43Z</time>
      </trkpt>
      <trkpt lat="43.84303" lon="6.46148">
        <ele>1229</ele>
        <time>2018-05-25T15:08:46Z</time>
      </trkpt>
      <trkpt lat="43.84301" lon="6.46147">
        <ele>1228</ele>
        <time>2018-05-25T15:08:47Z</time>
      </trkpt>
      <trkpt lat="43.84299" lon="6.46146">
        <ele>1228</ele>
        <time>2018-05-25T15:08:48Z</time>
      </trkpt>
      <trkpt lat="43.84297" lon="6.46146">
        <ele>1227</ele>
        <time>2018-05-25T15:08:49Z</time>
      </trkpt>
      <trkpt lat="43.84296" lon="6.46147">
        <ele>1227</ele>
        <time>2018-05-25T15:08:50Z</time>
      </trkpt>
      <trkpt lat="43.84295" lon="6.46149">
        <ele>1226</ele>
        <time>2018-05-25T15:08:51Z</time>
      </trkpt>
      <trkpt lat="43.84295" lon="6.46152">
        <ele>1225</ele>
        <time>2018-05-25T15:08:52Z</time>
      </trkpt>
      <trkpt lat="43.84294" lon="6.46155">
        <ele>1225</ele>
        <time>2018-05-25T15:08:53Z</time>
      </trkpt>
      <trkpt lat="43.84294" lon="6.46158">
        <ele>1224</ele>
        <time>2018-05-25T15:08:54Z</time>
      </trkpt>
      <trkpt lat="43.84293" lon="6.46174">
        <ele>1221</ele>
        <time>2018-05-25T15:09:05Z</time>
      </trkpt>
      <trkpt lat="43.84289" lon="6.46182">
        <ele>1219</ele>
        <time>2018-05-25T15:09:19Z</time>
      </trkpt>
      <trkpt lat="43.84287" lon="6.46184">
        <ele>1217</ele>
        <time>2018-05-25T15:09:24Z</time>
      </trkpt>
      <trkpt lat="43.84285" lon="6.46184">
        <ele>1217</ele>
        <time>2018-05-25T15:09:25Z</time>
      </trkpt>
      <trkpt lat="43.84283" lon="6.46185">
        <ele>1216</ele>
        <time>2018-05-25T15:09:26Z</time>
      </trkpt>
      <trkpt lat="43.84282" lon="6.46185">
        <ele>1216</ele>
        <time>2018-05-25T15:09:27Z</time>
      </trkpt>
      <trkpt lat="43.8428" lon="6.46184">
        <ele>1215</ele>
        <time>2018-05-25T15:09:28Z</time>
      </trkpt>
      <trkpt lat="43.84278" lon="6.46183">
        <ele>1214</ele>
        <time>2018-05-25T15:09:29Z</time>
      </trkpt>
      <trkpt lat="43.84276" lon="6.46183">
        <ele>1214</ele>
        <time>2018-05-25T15:09:30Z</time>
      </trkpt>
      <trkpt lat="43.84274" lon="6.46184">
        <ele>1213</ele>
        <time>2018-05-25T15:09:31Z</time>
      </trkpt>
      <trkpt lat="43.84272" lon="6.46185">
        <ele>1212</ele>
        <time>2018-05-25T15:09:32Z</time>
      </trkpt>
      <trkpt lat="43.84269" lon="6.46186">
        <ele>1211</ele>
        <time>2018-05-25T15:09:33Z</time>
      </trkpt>
      <trkpt lat="43.84268" lon="6.46189">
        <ele>1210</ele>
        <time>2018-05-25T15:09:34Z</time>
      </trkpt>
      <trkpt lat="43.84267" lon="6.46192">
        <ele>1209</ele>
        <time>2018-05-25T15:09:35Z</time>
      </trkpt>
      <trkpt lat="43.84266" lon="6.46195">
        <ele>1209</ele>
        <time>2018-05-25T15:09:36Z</time>
      </trkpt>
      <trkpt lat="43.84266" lon="6.46199">
        <ele>1208</ele>
        <time>2018-05-25T15:09:37Z</time>
      </trkpt>
      <trkpt lat="43.84265" lon="6.46223">
        <ele>1205</ele>
        <time>2018-05-25T15:09:43Z</time>
      </trkpt>
      <trkpt lat="43.84265" lon="6.46225">
        <ele>1205</ele>
        <time>2018-05-25T15:09:44Z</time>
      </trkpt>
      <trkpt lat="43.84264" lon="6.46227">
        <ele>1205</ele>
        <time>2018-05-25T15:09:45Z</time>
      </trkpt>
      <trkpt lat="43.84264" lon="6.4623">
        <ele>1204</ele>
        <time>2018-05-25T15:09:56Z</time>
      </trkpt>
      <trkpt lat="43.84262" lon="6.46237">
        <ele>1203</ele>
        <time>2018-05-25T15:10:09Z</time>
      </trkpt>
      <trkpt lat="43.84258" lon="6.46241">
        <ele>1201</ele>
        <time>2018-05-25T15:10:23Z</time>
      </trkpt>
      <trkpt lat="43.84254" lon="6.46247">
        <ele>1199</ele>
        <time>2018-05-25T15:10:33Z</time>
      </trkpt>
      <trkpt lat="43.84254" lon="6.46248">
        <ele>1198</ele>
        <time>2018-05-25T15:10:34Z</time>
      </trkpt>
      <trkpt lat="43.84244" lon="6.46255">
        <ele>1193</ele>
        <time>2018-05-25T15:10:49Z</time>
      </trkpt>
      <trkpt lat="43.84242" lon="6.46255">
        <ele>1192</ele>
        <time>2018-05-25T15:10:52Z</time>
      </trkpt>
      <trkpt lat="43.84241" lon="6.46256">
        <ele>1191</ele>
        <time>2018-05-25T15:10:53Z</time>
      </trkpt>
      <trkpt lat="43.8424" lon="6.46257">
        <ele>1191</ele>
        <time>2018-05-25T15:10:54Z</time>
      </trkpt>
      <trkpt lat="43.84238" lon="6.4626">
        <ele>1190</ele>
        <time>2018-05-25T15:10:55Z</time>
      </trkpt>
      <trkpt lat="43.84237" lon="6.46261">
        <ele>1189</ele>
        <time>2018-05-25T15:10:56Z</time>
      </trkpt>
      <trkpt lat="43.84235" lon="6.46262">
        <ele>1188</ele>
        <time>2018-05-25T15:10:57Z</time>
      </trkpt>
      <trkpt lat="43.84233" lon="6.46263">
        <ele>1187</ele>
        <time>2018-05-25T15:10:58Z</time>
      </trkpt>
      <trkpt lat="43.84201" lon="6.46265">
        <ele>1177</ele>
        <time>2018-05-25T15:11:10Z</time>
      </trkpt>
      <trkpt lat="43.84175" lon="6.46254">
        <ele>1168</ele>
        <time>2018-05-25T15:11:19Z</time>
      </trkpt>
      <trkpt lat="43.84159" lon="6.46249">
        <ele>1164</ele>
        <time>2018-05-25T15:11:24Z</time>
      </trkpt>
      <trkpt lat="43.84133" lon="6.4624">
        <ele>1158</ele>
        <time>2018-05-25T15:11:32Z</time>
      </trkpt>
      <trkpt lat="43.84129" lon="6.46238">
        <ele>1157</ele>
        <time>2018-05-25T15:11:33Z</time>
      </trkpt>
      <trkpt lat="43.84126" lon="6.46234">
        <ele>1156</ele>
        <time>2018-05-25T15:11:34Z</time>
      </trkpt>
      <trkpt lat="43.84123" lon="6.46231">
        <ele>1156</ele>
        <time>2018-05-25T15:11:35Z</time>
      </trkpt>
      <trkpt lat="43.84121" lon="6.46229">
        <ele>1156</ele>
        <time>2018-05-25T15:11:36Z</time>
      </trkpt>
      <trkpt lat="43.84119" lon="6.46228">
        <ele>1155</ele>
        <time>2018-05-25T15:11:37Z</time>
      </trkpt>
      <trkpt lat="43.84116" lon="6.46226">
        <ele>1155</ele>
        <time>2018-05-25T15:11:38Z</time>
      </trkpt>
      <trkpt lat="43.84096" lon="6.46215">
        <ele>1151</ele>
        <time>2018-05-25T15:11:44Z</time>
      </trkpt>
      <trkpt lat="43.84064" lon="6.46205">
        <ele>1143</ele>
        <time>2018-05-25T15:11:54Z</time>
      </trkpt>
      <trkpt lat="43.84062" lon="6.46202">
        <ele>1143</ele>
        <time>2018-05-25T15:11:55Z</time>
      </trkpt>
      <trkpt lat="43.8406" lon="6.462">
        <ele>1143</ele>
        <time>2018-05-25T15:11:56Z</time>
      </trkpt>
      <trkpt lat="43.84032" lon="6.46178">
        <ele>1138</ele>
        <time>2018-05-25T15:12:06Z</time>
      </trkpt>
      <trkpt lat="43.84029" lon="6.46175">
        <ele>1138</ele>
        <time>2018-05-25T15:12:07Z</time>
      </trkpt>
      <trkpt lat="43.84026" lon="6.46173">
        <ele>1137</ele>
        <time>2018-05-25T15:12:08Z</time>
      </trkpt>
      <trkpt lat="43.84023" lon="6.46171">
        <ele>1136</ele>
        <time>2018-05-25T15:12:09Z</time>
      </trkpt>
      <trkpt lat="43.84021" lon="6.46168">
        <ele>1136</ele>
        <time>2018-05-25T15:12:10Z</time>
      </trkpt>
      <trkpt lat="43.83991" lon="6.46153">
        <ele>1127</ele>
        <time>2018-05-25T15:12:19Z</time>
      </trkpt>
      <trkpt lat="43.83967" lon="6.46132">
        <ele>1120</ele>
        <time>2018-05-25T15:12:29Z</time>
      </trkpt>
      <trkpt lat="43.83953" lon="6.4612">
        <ele>1118</ele>
        <time>2018-05-25T15:12:33Z</time>
      </trkpt>
      <trkpt lat="43.83948" lon="6.46118">
        <ele>1117</ele>
        <time>2018-05-25T15:12:34Z</time>
      </trkpt>
      <trkpt lat="43.83932" lon="6.4611">
        <ele>1114</ele>
        <time>2018-05-25T15:12:38Z</time>
      </trkpt>
      <trkpt lat="43.83928" lon="6.46112">
        <ele>1113</ele>
        <time>2018-05-25T15:12:39Z</time>
      </trkpt>
      <trkpt lat="43.83924" lon="6.46112">
        <ele>1112</ele>
        <time>2018-05-25T15:12:40Z</time>
      </trkpt>
      <trkpt lat="43.83911" lon="6.46119">
        <ele>1108</ele>
        <time>2018-05-25T15:12:45Z</time>
      </trkpt>
      <trkpt lat="43.839" lon="6.46143">
        <ele>1104</ele>
        <time>2018-05-25T15:12:53Z</time>
      </trkpt>
      <trkpt lat="43.83894" lon="6.46151">
        <ele>1102</ele>
        <time>2018-05-25T15:12:55Z</time>
      </trkpt>
      <trkpt lat="43.83878" lon="6.46176">
        <ele>1097</ele>
        <time>2018-05-25T15:13:02Z</time>
      </trkpt>
      <trkpt lat="43.83869" lon="6.46186">
        <ele>1094</ele>
        <time>2018-05-25T15:13:05Z</time>
      </trkpt>
      <trkpt lat="43.83868" lon="6.46189">
        <ele>1094</ele>
        <time>2018-05-25T15:13:06Z</time>
      </trkpt>
      <trkpt lat="43.83869" lon="6.46191">
        <ele>1093</ele>
        <time>2018-05-25T15:13:07Z</time>
      </trkpt>
      <trkpt lat="43.83869" lon="6.46194">
        <ele>1093</ele>
        <time>2018-05-25T15:13:08Z</time>
      </trkpt>
      <trkpt lat="43.83868" lon="6.46196">
        <ele>1092</ele>
        <time>2018-05-25T15:13:09Z</time>
      </trkpt>
      <trkpt lat="43.83866" lon="6.46197">
        <ele>1092</ele>
        <time>2018-05-25T15:13:10Z</time>
      </trkpt>
      <trkpt lat="43.83864" lon="6.46197">
        <ele>1092</ele>
        <time>2018-05-25T15:13:11Z</time>
      </trkpt>
      <trkpt lat="43.83861" lon="6.46198">
        <ele>1091</ele>
        <time>2018-05-25T15:13:12Z</time>
      </trkpt>
      <trkpt lat="43.83858" lon="6.46199">
        <ele>1091</ele>
        <time>2018-05-25T15:13:13Z</time>
      </trkpt>
      <trkpt lat="43.83855" lon="6.46201">
        <ele>1091</ele>
        <time>2018-05-25T15:13:14Z</time>
      </trkpt>
      <trkpt lat="43.83833" lon="6.46226">
        <ele>1085</ele>
        <time>2018-05-25T15:13:22Z</time>
      </trkpt>
      <trkpt lat="43.83833" lon="6.4623">
        <ele>1084</ele>
        <time>2018-05-25T15:13:23Z</time>
      </trkpt>
      <trkpt lat="43.83833" lon="6.46235">
        <ele>1083</ele>
        <time>2018-05-25T15:13:24Z</time>
      </trkpt>
      <trkpt lat="43.83833" lon="6.46239">
        <ele>1082</ele>
        <time>2018-05-25T15:13:25Z</time>
      </trkpt>
      <trkpt lat="43.83835" lon="6.46243">
        <ele>1081</ele>
        <time>2018-05-25T15:13:26Z</time>
      </trkpt>
      <trkpt lat="43.83837" lon="6.46247">
        <ele>1080</ele>
        <time>2018-05-25T15:13:27Z</time>
      </trkpt>
      <trkpt lat="43.83839" lon="6.46251">
        <ele>1079</ele>
        <time>2018-05-25T15:13:28Z</time>
      </trkpt>
      <trkpt lat="43.83841" lon="6.46254">
        <ele>1079</ele>
        <time>2018-05-25T15:13:29Z</time>
      </trkpt>
      <trkpt lat="43.83851" lon="6.46282">
        <ele>1073</ele>
        <time>2018-05-25T15:13:38Z</time>
      </trkpt>
      <trkpt lat="43.83852" lon="6.46286">
        <ele>1073</ele>
        <time>2018-05-25T15:13:39Z</time>
      </trkpt>
      <trkpt lat="43.83852" lon="6.46289">
        <ele>1072</ele>
        <time>2018-05-25T15:13:40Z</time>
      </trkpt>
      <trkpt lat="43.83853" lon="6.46293">
        <ele>1071</ele>
        <time>2018-05-25T15:13:41Z</time>
      </trkpt>
      <trkpt lat="43.83853" lon="6.46297">
        <ele>1070</ele>
        <time>2018-05-25T15:13:42Z</time>
      </trkpt>
      <trkpt lat="43.83856" lon="6.46316">
        <ele>1067</ele>
        <time>2018-05-25T15:13:47Z</time>
      </trkpt>
      <trkpt lat="43.83855" lon="6.46319">
        <ele>1066</ele>
        <time>2018-05-25T15:13:48Z</time>
      </trkpt>
      <trkpt lat="43.83857" lon="6.4636">
        <ele>1060</ele>
        <time>2018-05-25T15:14:00Z</time>
      </trkpt>
      <trkpt lat="43.83856" lon="6.46385">
        <ele>1056</ele>
        <time>2018-05-25T15:14:06Z</time>
      </trkpt>
      <trkpt lat="43.83838" lon="6.46419">
        <ele>1048</ele>
        <time>2018-05-25T15:14:17Z</time>
      </trkpt>
      <trkpt lat="43.83835" lon="6.46423">
        <ele>1047</ele>
        <time>2018-05-25T15:14:19Z</time>
      </trkpt>
      <trkpt lat="43.83833" lon="6.46425">
        <ele>1046</ele>
        <time>2018-05-25T15:14:20Z</time>
      </trkpt>
      <trkpt lat="43.83831" lon="6.46428">
        <ele>1046</ele>
        <time>2018-05-25T15:14:21Z</time>
      </trkpt>
      <trkpt lat="43.83829" lon="6.4643">
        <ele>1045</ele>
        <time>2018-05-25T15:14:22Z</time>
      </trkpt>
      <trkpt lat="43.83827" lon="6.46432">
        <ele>1044</ele>
        <time>2018-05-25T15:14:23Z</time>
      </trkpt>
      <trkpt lat="43.83815" lon="6.46441">
        <ele>1041</ele>
        <time>2018-05-25T15:14:30Z</time>
      </trkpt>
      <trkpt lat="43.83814" lon="6.46442">
        <ele>1041</ele>
        <time>2018-05-25T15:14:31Z</time>
      </trkpt>
      <trkpt lat="43.83812" lon="6.46444">
        <ele>1040</ele>
        <time>2018-05-25T15:14:32Z</time>
      </trkpt>
      <trkpt lat="43.83811" lon="6.46445">
        <ele>1040</ele>
        <time>2018-05-25T15:14:33Z</time>
      </trkpt>
      <trkpt lat="43.8381" lon="6.46446">
        <ele>1039</ele>
        <time>2018-05-25T15:14:34Z</time>
      </trkpt>
      <trkpt lat="43.83808" lon="6.46448">
        <ele>1039</ele>
        <time>2018-05-25T15:14:35Z</time>
      </trkpt>
      <trkpt lat="43.83806" lon="6.4645">
        <ele>1038</ele>
        <time>2018-05-25T15:14:36Z</time>
      </trkpt>
      <trkpt lat="43.83804" lon="6.46452">
        <ele>1038</ele>
        <time>2018-05-25T15:14:37Z</time>
      </trkpt>
      <trkpt lat="43.83799" lon="6.46456">
        <ele>1036</ele>
        <time>2018-05-25T15:14:48Z</time>
      </trkpt>
      <trkpt lat="43.83793" lon="6.46447">
        <ele>1036</ele>
        <time>2018-05-25T15:15:00Z</time>
      </trkpt>
      <trkpt lat="43.83789" lon="6.46442">
        <ele>1036</ele>
        <time>2018-05-25T15:15:12Z</time>
      </trkpt>
      <trkpt lat="43.83777" lon="6.46425">
        <ele>1037</ele>
        <time>2018-05-25T15:15:27Z</time>
      </trkpt>
      <trkpt lat="43.83762" lon="6.46404">
        <ele>1039</ele>
        <time>2018-05-25T15:15:46Z</time>
      </trkpt>
      <trkpt lat="43.83765" lon="6.46389">
        <ele>1042</ele>
        <time>2018-05-25T15:16:03Z</time>
      </trkpt>
      <trkpt lat="43.83771" lon="6.46373">
        <ele>1045</ele>
        <time>2018-05-25T15:16:21Z</time>
      </trkpt>
      <trkpt lat="43.83774" lon="6.46367">
        <ele>1047</ele>
        <time>2018-05-25T15:16:28Z</time>
      </trkpt>
      <trkpt lat="43.83774" lon="6.46352">
        <ele>1050</ele>
        <time>2018-05-25T15:16:44Z</time>
      </trkpt>
      <trkpt lat="43.83766" lon="6.46344">
        <ele>1051</ele>
        <time>2018-05-25T15:16:56Z</time>
      </trkpt>
      <trkpt lat="43.83746" lon="6.46337">
        <ele>1051</ele>
        <time>2018-05-25T15:17:15Z</time>
      </trkpt>
      <trkpt lat="43.83728" lon="6.46322">
        <ele>1052</ele>
        <time>2018-05-25T15:17:34Z</time>
      </trkpt>
      <trkpt lat="43.8371" lon="6.463">
        <ele>1054</ele>
        <time>2018-05-25T15:17:54Z</time>
      </trkpt>
      <trkpt lat="43.83699" lon="6.46276">
        <ele>1056</ele>
        <time>2018-05-25T15:18:12Z</time>
      </trkpt>
      <trkpt lat="43.83693" lon="6.46247">
        <ele>1060</ele>
        <time>2018-05-25T15:18:34Z</time>
      </trkpt>
      <trkpt lat="43.83687" lon="6.4622">
        <ele>1062</ele>
        <time>2018-05-25T15:18:52Z</time>
      </trkpt>
      <trkpt lat="43.83682" lon="6.46192">
        <ele>1063</ele>
        <time>2018-05-25T15:19:11Z</time>
      </trkpt>
      <trkpt lat="43.83681" lon="6.46166">
        <ele>1066</ele>
        <time>2018-05-25T15:19:31Z</time>
      </trkpt>
      <trkpt lat="43.83683" lon="6.46152">
        <ele>1067</ele>
        <time>2018-05-25T15:19:43Z</time>
      </trkpt>
      <trkpt lat="43.83683" lon="6.46149">
        <ele>1067</ele>
        <time>2018-05-25T15:19:45Z</time>
      </trkpt>
      <trkpt lat="43.83684" lon="6.46148">
        <ele>1066</ele>
        <time>2018-05-25T15:19:46Z</time>
      </trkpt>
      <trkpt lat="43.83691" lon="6.46138">
        <ele>1067</ele>
        <time>2018-05-25T15:19:59Z</time>
      </trkpt>
      <trkpt lat="43.83692" lon="6.46137">
        <ele>1067</ele>
        <time>2018-05-25T15:20:00Z</time>
      </trkpt>
      <trkpt lat="43.83713" lon="6.46118">
        <ele>1068</ele>
        <time>2018-05-25T15:20:22Z</time>
      </trkpt>
      <trkpt lat="43.83717" lon="6.46115">
        <ele>1068</ele>
        <time>2018-05-25T15:20:39Z</time>
      </trkpt>
      <trkpt lat="43.83718" lon="6.46114">
        <ele>1068</ele>
        <time>2018-05-25T15:20:55Z</time>
      </trkpt>
      <trkpt lat="43.83719" lon="6.46112">
        <ele>1068</ele>
        <time>2018-05-25T15:20:56Z</time>
      </trkpt>
      <trkpt lat="43.8372" lon="6.46109">
        <ele>1068</ele>
        <time>2018-05-25T15:20:57Z</time>
      </trkpt>
      <trkpt lat="43.8373" lon="6.46085">
        <ele>1064</ele>
        <time>2018-05-25T15:21:02Z</time>
      </trkpt>
      <trkpt lat="43.83733" lon="6.46079">
        <ele>1063</ele>
        <time>2018-05-25T15:21:03Z</time>
      </trkpt>
      <trkpt lat="43.83736" lon="6.46076">
        <ele>1063</ele>
        <time>2018-05-25T15:21:04Z</time>
      </trkpt>
      <trkpt lat="43.8377" lon="6.46032">
        <ele>1066</ele>
        <time>2018-05-25T15:21:12Z</time>
      </trkpt>
      <trkpt lat="43.83773" lon="6.46026">
        <ele>1066</ele>
        <time>2018-05-25T15:21:13Z</time>
      </trkpt>
      <trkpt lat="43.83776" lon="6.46019">
        <ele>1066</ele>
        <time>2018-05-25T15:21:14Z</time>
      </trkpt>
      <trkpt lat="43.8379" lon="6.45987">
        <ele>1069</ele>
        <time>2018-05-25T15:21:23Z</time>
      </trkpt>
      <trkpt lat="43.83792" lon="6.45957">
        <ele>1070</ele>
        <time>2018-05-25T15:21:37Z</time>
      </trkpt>
      <trkpt lat="43.83792" lon="6.45953">
        <ele>1070</ele>
        <time>2018-05-25T15:21:39Z</time>
      </trkpt>
      <trkpt lat="43.83792" lon="6.45951">
        <ele>1070</ele>
        <time>2018-05-25T15:21:40Z</time>
      </trkpt>
      <trkpt lat="43.83792" lon="6.45949">
        <ele>1070</ele>
        <time>2018-05-25T15:21:41Z</time>
      </trkpt>
      <trkpt lat="43.83792" lon="6.45947">
        <ele>1070</ele>
        <time>2018-05-25T15:21:42Z</time>
      </trkpt>
      <trkpt lat="43.83792" lon="6.45944">
        <ele>1070</ele>
        <time>2018-05-25T15:21:43Z</time>
      </trkpt>
      <trkpt lat="43.83792" lon="6.45942">
        <ele>1070</ele>
        <time>2018-05-25T15:21:44Z</time>
      </trkpt>
      <trkpt lat="43.83791" lon="6.4594">
        <ele>1070</ele>
        <time>2018-05-25T15:21:45Z</time>
      </trkpt>
      <trkpt lat="43.83791" lon="6.45938">
        <ele>1070</ele>
        <time>2018-05-25T15:21:46Z</time>
      </trkpt>
      <trkpt lat="43.83791" lon="6.45936">
        <ele>1070</ele>
        <time>2018-05-25T15:21:47Z</time>
      </trkpt>
      <trkpt lat="43.83791" lon="6.45934">
        <ele>1070</ele>
        <time>2018-05-25T15:21:48Z</time>
      </trkpt>
      <trkpt lat="43.8379" lon="6.45932">
        <ele>1070</ele>
        <time>2018-05-25T15:21:49Z</time>
      </trkpt>
      <trkpt lat="43.8379" lon="6.4593">
        <ele>1070</ele>
        <time>2018-05-25T15:21:50Z</time>
      </trkpt>
      <trkpt lat="43.8379" lon="6.45928">
        <ele>1070</ele>
        <time>2018-05-25T15:21:51Z</time>
      </trkpt>
      <trkpt lat="43.83791" lon="6.45923">
        <ele>1070</ele>
        <time>2018-05-25T15:21:54Z</time>
      </trkpt>
      <trkpt lat="43.83789" lon="6.45908">
        <ele>1070</ele>
        <time>2018-05-25T15:22:03Z</time>
      </trkpt>
      <trkpt lat="43.83789" lon="6.45906">
        <ele>1070</ele>
        <time>2018-05-25T15:22:04Z</time>
      </trkpt>
      <trkpt lat="43.83786" lon="6.45866">
        <ele>1072</ele>
        <time>2018-05-25T15:22:22Z</time>
      </trkpt>
      <trkpt lat="43.83785" lon="6.45816">
        <ele>1069</ele>
        <time>2018-05-25T15:22:35Z</time>
      </trkpt>
      <trkpt lat="43.8379" lon="6.45787">
        <ele>1069</ele>
        <time>2018-05-25T15:22:48Z</time>
      </trkpt>
      <trkpt lat="43.83791" lon="6.4579">
        <ele>1070</ele>
        <time>2018-05-25T15:23:05Z</time>
      </trkpt>
      <trkpt lat="43.8379" lon="6.45789">
        <ele>1070</ele>
        <time>2018-05-25T15:23:24Z</time>
      </trkpt>
      <trkpt lat="43.83791" lon="6.45782">
        <ele>1068</ele>
        <time>2018-05-25T15:23:27Z</time>
      </trkpt>
      <trkpt lat="43.83793" lon="6.45777">
        <ele>1068</ele>
        <time>2018-05-25T15:23:28Z</time>
      </trkpt>
      <trkpt lat="43.83794" lon="6.45775">
        <ele>1068</ele>
        <time>2018-05-25T15:23:29Z</time>
      </trkpt>
      <trkpt lat="43.83822" lon="6.45727">
        <ele>1067</ele>
        <time>2018-05-25T15:23:41Z</time>
      </trkpt>
      <trkpt lat="43.83859" lon="6.45652">
        <ele>1064</ele>
        <time>2018-05-25T15:23:55Z</time>
      </trkpt>
      <trkpt lat="43.83862" lon="6.45645">
        <ele>1064</ele>
        <time>2018-05-25T15:23:56Z</time>
      </trkpt>
      <trkpt lat="43.83864" lon="6.45639">
        <ele>1064</ele>
        <time>2018-05-25T15:23:57Z</time>
      </trkpt>
      <trkpt lat="43.83865" lon="6.45633">
        <ele>1063</ele>
        <time>2018-05-25T15:23:58Z</time>
      </trkpt>
      <trkpt lat="43.83866" lon="6.45628">
        <ele>1062</ele>
        <time>2018-05-25T15:23:59Z</time>
      </trkpt>
      <trkpt lat="43.83868" lon="6.45623">
        <ele>1062</ele>
        <time>2018-05-25T15:24:00Z</time>
      </trkpt>
      <trkpt lat="43.83878" lon="6.45595">
        <ele>1061</ele>
        <time>2018-05-25T15:24:09Z</time>
      </trkpt>
      <trkpt lat="43.83878" lon="6.45592">
        <ele>1061</ele>
        <time>2018-05-25T15:24:28Z</time>
      </trkpt>
      <trkpt lat="43.83877" lon="6.45592">
        <ele>1061</ele>
        <time>2018-05-25T15:24:36Z</time>
      </trkpt>
      <trkpt lat="43.83877" lon="6.45589">
        <ele>1060</ele>
        <time>2018-05-25T15:24:37Z</time>
      </trkpt>
      <trkpt lat="43.83878" lon="6.45587">
        <ele>1060</ele>
        <time>2018-05-25T15:24:38Z</time>
      </trkpt>
      <trkpt lat="43.83882" lon="6.45536">
        <ele>1053</ele>
        <time>2018-05-25T15:24:50Z</time>
      </trkpt>
      <trkpt lat="43.83888" lon="6.45508">
        <ele>1049</ele>
        <time>2018-05-25T15:25:00Z</time>
      </trkpt>
      <trkpt lat="43.83889" lon="6.45507">
        <ele>1049</ele>
        <time>2018-05-25T15:25:02Z</time>
      </trkpt>
      <trkpt lat="43.83888" lon="6.45495">
        <ele>1045</ele>
        <time>2018-05-25T15:25:11Z</time>
      </trkpt>
      <trkpt lat="43.83891" lon="6.4548">
        <ele>1044</ele>
        <time>2018-05-25T15:25:14Z</time>
      </trkpt>
      <trkpt lat="43.83891" lon="6.45474">
        <ele>1044</ele>
        <time>2018-05-25T15:25:15Z</time>
      </trkpt>
      <trkpt lat="43.8389" lon="6.45468">
        <ele>1044</ele>
        <time>2018-05-25T15:25:16Z</time>
      </trkpt>
      <trkpt lat="43.83887" lon="6.45461">
        <ele>1042</ele>
        <time>2018-05-25T15:25:17Z</time>
      </trkpt>
      <trkpt lat="43.83884" lon="6.45454">
        <ele>1041</ele>
        <time>2018-05-25T15:25:18Z</time>
      </trkpt>
      <trkpt lat="43.8388" lon="6.45447">
        <ele>1039</ele>
        <time>2018-05-25T15:25:19Z</time>
      </trkpt>
      <trkpt lat="43.83858" lon="6.45392">
        <ele>1036</ele>
        <time>2018-05-25T15:25:30Z</time>
      </trkpt>
      <trkpt lat="43.83843" lon="6.45362">
        <ele>1037</ele>
        <time>2018-05-25T15:25:42Z</time>
      </trkpt>
      <trkpt lat="43.83827" lon="6.45335">
        <ele>1035</ele>
        <time>2018-05-25T15:25:55Z</time>
      </trkpt>
      <trkpt lat="43.83824" lon="6.45295">
        <ele>1040</ele>
        <time>2018-05-25T15:26:06Z</time>
      </trkpt>
      <trkpt lat="43.83825" lon="6.45246">
        <ele>1040</ele>
        <time>2018-05-25T15:26:23Z</time>
      </trkpt>
      <trkpt lat="43.83827" lon="6.45238">
        <ele>1041</ele>
        <time>2018-05-25T15:26:32Z</time>
      </trkpt>
      <trkpt lat="43.83841" lon="6.45223">
        <ele>1044</ele>
        <time>2018-05-25T15:26:51Z</time>
      </trkpt>
      <trkpt lat="43.83844" lon="6.45215">
        <ele>1043</ele>
        <time>2018-05-25T15:27:00Z</time>
      </trkpt>
      <trkpt lat="43.83844" lon="6.45213">
        <ele>1043</ele>
        <time>2018-05-25T15:27:01Z</time>
      </trkpt>
      <trkpt lat="43.83845" lon="6.4521">
        <ele>1042</ele>
        <time>2018-05-25T15:27:05Z</time>
      </trkpt>
      <trkpt lat="43.83864" lon="6.45183">
        <ele>1044</ele>
        <time>2018-05-25T15:27:17Z</time>
      </trkpt>
      <trkpt lat="43.83865" lon="6.45183">
        <ele>1044</ele>
        <time>2018-05-25T15:27:30Z</time>
      </trkpt>
      <trkpt lat="43.83865" lon="6.45182">
        <ele>1044</ele>
        <time>2018-05-25T15:28:09Z</time>
      </trkpt>
      <trkpt lat="43.83864" lon="6.45183">
        <ele>1044</ele>
        <time>2018-05-25T15:28:19Z</time>
      </trkpt>
      <trkpt lat="43.83866" lon="6.45182">
        <ele>1044</ele>
        <time>2018-05-25T15:28:20Z</time>
      </trkpt>
      <trkpt lat="43.83889" lon="6.4517">
        <ele>1044</ele>
        <time>2018-05-25T15:28:31Z</time>
      </trkpt>
      <trkpt lat="43.83914" lon="6.45162">
        <ele>1045</ele>
        <time>2018-05-25T15:28:45Z</time>
      </trkpt>
      <trkpt lat="43.83919" lon="6.4516">
        <ele>1045</ele>
        <time>2018-05-25T15:28:56Z</time>
      </trkpt>
      <trkpt lat="43.83934" lon="6.45156">
        <ele>1046</ele>
        <time>2018-05-25T15:29:13Z</time>
      </trkpt>
      <trkpt lat="43.8394" lon="6.45154">
        <ele>1046</ele>
        <time>2018-05-25T15:29:20Z</time>
      </trkpt>
      <trkpt lat="43.83943" lon="6.45154">
        <ele>1046</ele>
        <time>2018-05-25T15:29:25Z</time>
      </trkpt>
      <trkpt lat="43.83945" lon="6.45153">
        <ele>1046</ele>
        <time>2018-05-25T15:29:26Z</time>
      </trkpt>
      <trkpt lat="43.83969" lon="6.45145">
        <ele>1048</ele>
        <time>2018-05-25T15:29:37Z</time>
      </trkpt>
      <trkpt lat="43.83979" lon="6.45143">
        <ele>1049</ele>
        <time>2018-05-25T15:29:42Z</time>
      </trkpt>
      <trkpt lat="43.83981" lon="6.45142">
        <ele>1049</ele>
        <time>2018-05-25T15:29:43Z</time>
      </trkpt>
      <trkpt lat="43.84002" lon="6.45122">
        <ele>1047</ele>
        <time>2018-05-25T15:29:55Z</time>
      </trkpt>
      <trkpt lat="43.84012" lon="6.45114">
        <ele>1049</ele>
        <time>2018-05-25T15:30:07Z</time>
      </trkpt>
      <trkpt lat="43.84016" lon="6.45106">
        <ele>1049</ele>
        <time>2018-05-25T15:30:15Z</time>
      </trkpt>
      <trkpt lat="43.84017" lon="6.45104">
        <ele>1049</ele>
        <time>2018-05-25T15:30:16Z</time>
      </trkpt>
      <trkpt lat="43.8402" lon="6.45099">
        <ele>1049</ele>
        <time>2018-05-25T15:30:29Z</time>
      </trkpt>
      <trkpt lat="43.84026" lon="6.45085">
        <ele>1049</ele>
        <time>2018-05-25T15:30:43Z</time>
      </trkpt>
      <trkpt lat="43.84027" lon="6.45078">
        <ele>1048</ele>
        <time>2018-05-25T15:31:00Z</time>
      </trkpt>
      <trkpt lat="43.84029" lon="6.45071">
        <ele>1047</ele>
        <time>2018-05-25T15:31:29Z</time>
      </trkpt>
      <trkpt lat="43.84037" lon="6.45055">
        <ele>1048</ele>
        <time>2018-05-25T15:31:43Z</time>
      </trkpt>
      <trkpt lat="43.84044" lon="6.45049">
        <ele>1050</ele>
        <time>2018-05-25T15:31:50Z</time>
      </trkpt>
      <trkpt lat="43.84044" lon="6.45039">
        <ele>1048</ele>
        <time>2018-05-25T15:32:04Z</time>
      </trkpt>
      <trkpt lat="43.84044" lon="6.45033">
        <ele>1047</ele>
        <time>2018-05-25T15:32:08Z</time>
      </trkpt>
      <trkpt lat="43.84046" lon="6.45026">
        <ele>1047</ele>
        <time>2018-05-25T15:32:14Z</time>
      </trkpt>
      <trkpt lat="43.84049" lon="6.45018">
        <ele>1047</ele>
        <time>2018-05-25T15:32:20Z</time>
      </trkpt>
      <trkpt lat="43.84044" lon="6.45008">
        <ele>1044</ele>
        <time>2018-05-25T15:32:33Z</time>
      </trkpt>
      <trkpt lat="43.84048" lon="6.45006">
        <ele>1045</ele>
        <time>2018-05-25T15:32:46Z</time>
      </trkpt>
      <trkpt lat="43.84048" lon="6.45007">
        <ele>1045</ele>
        <time>2018-05-25T15:33:13Z</time>
      </trkpt>
      <trkpt lat="43.84046" lon="6.45">
        <ele>1044</ele>
        <time>2018-05-25T15:33:27Z</time>
      </trkpt>
      <trkpt lat="43.84037" lon="6.44989">
        <ele>1038</ele>
        <time>2018-05-25T15:33:42Z</time>
      </trkpt>
      <trkpt lat="43.84032" lon="6.44986">
        <ele>1036</ele>
        <time>2018-05-25T15:33:56Z</time>
      </trkpt>
      <trkpt lat="43.84025" lon="6.44986">
        <ele>1033</ele>
        <time>2018-05-25T15:34:08Z</time>
      </trkpt>
      <trkpt lat="43.84017" lon="6.44992">
        <ele>1031</ele>
        <time>2018-05-25T15:34:20Z</time>
      </trkpt>
      <trkpt lat="43.84011" lon="6.45001">
        <ele>1029</ele>
        <time>2018-05-25T15:34:34Z</time>
      </trkpt>
      <trkpt lat="43.84008" lon="6.44997">
        <ele>1027</ele>
        <time>2018-05-25T15:34:46Z</time>
      </trkpt>
      <trkpt lat="43.84007" lon="6.44995">
        <ele>1027</ele>
        <time>2018-05-25T15:34:48Z</time>
      </trkpt>
      <trkpt lat="43.84006" lon="6.4498">
        <ele>1025</ele>
        <time>2018-05-25T15:35:02Z</time>
      </trkpt>
      <trkpt lat="43.84005" lon="6.44976">
        <ele>1024</ele>
        <time>2018-05-25T15:35:07Z</time>
      </trkpt>
      <trkpt lat="43.84005" lon="6.44967">
        <ele>1023</ele>
        <time>2018-05-25T15:35:16Z</time>
      </trkpt>
      <trkpt lat="43.84006" lon="6.44957">
        <ele>1022</ele>
        <time>2018-05-25T15:35:24Z</time>
      </trkpt>
      <trkpt lat="43.84002" lon="6.44953">
        <ele>1020</ele>
        <time>2018-05-25T15:35:37Z</time>
      </trkpt>
      <trkpt lat="43.83994" lon="6.44956">
        <ele>1017</ele>
        <time>2018-05-25T15:35:52Z</time>
      </trkpt>
      <trkpt lat="43.83991" lon="6.44957">
        <ele>1016</ele>
        <time>2018-05-25T15:36:06Z</time>
      </trkpt>
      <trkpt lat="43.83982" lon="6.44959">
        <ele>1012</ele>
        <time>2018-05-25T15:36:19Z</time>
      </trkpt>
      <trkpt lat="43.83972" lon="6.44959">
        <ele>1007</ele>
        <time>2018-05-25T15:36:33Z</time>
      </trkpt>
      <trkpt lat="43.8397" lon="6.44953">
        <ele>1006</ele>
        <time>2018-05-25T15:36:41Z</time>
      </trkpt>
      <trkpt lat="43.83968" lon="6.44943">
        <ele>1004</ele>
        <time>2018-05-25T15:36:45Z</time>
      </trkpt>
      <trkpt lat="43.83967" lon="6.44938">
        <ele>1003</ele>
        <time>2018-05-25T15:36:49Z</time>
      </trkpt>
      <trkpt lat="43.83966" lon="6.4493">
        <ele>1002</ele>
        <time>2018-05-25T15:37:01Z</time>
      </trkpt>
      <trkpt lat="43.83964" lon="6.44931">
        <ele>1001</ele>
        <time>2018-05-25T15:37:06Z</time>
      </trkpt>
      <trkpt lat="43.83961" lon="6.44934">
        <ele>999</ele>
        <time>2018-05-25T15:37:14Z</time>
      </trkpt>
      <trkpt lat="43.83951" lon="6.44945">
        <ele>995</ele>
        <time>2018-05-25T15:37:30Z</time>
      </trkpt>
      <trkpt lat="43.83948" lon="6.44954">
        <ele>995</ele>
        <time>2018-05-25T15:37:40Z</time>
      </trkpt>
      <trkpt lat="43.83935" lon="6.44983">
        <ele>992</ele>
        <time>2018-05-25T15:37:52Z</time>
      </trkpt>
      <trkpt lat="43.8393" lon="6.44989">
        <ele>991</ele>
        <time>2018-05-25T15:38:01Z</time>
      </trkpt>
      <trkpt lat="43.83928" lon="6.44982">
        <ele>989</ele>
        <time>2018-05-25T15:38:13Z</time>
      </trkpt>
      <trkpt lat="43.83929" lon="6.44973">
        <ele>988</ele>
        <time>2018-05-25T15:38:21Z</time>
      </trkpt>
      <trkpt lat="43.8393" lon="6.44956">
        <ele>985</ele>
        <time>2018-05-25T15:38:36Z</time>
      </trkpt>
      <trkpt lat="43.83927" lon="6.44953">
        <ele>984</ele>
        <time>2018-05-25T15:38:45Z</time>
      </trkpt>
      <trkpt lat="43.83908" lon="6.44971">
        <ele>977</ele>
        <time>2018-05-25T15:38:54Z</time>
      </trkpt>
      <trkpt lat="43.83906" lon="6.44973">
        <ele>976</ele>
        <time>2018-05-25T15:39:01Z</time>
      </trkpt>
      <trkpt lat="43.83904" lon="6.44969">
        <ele>975</ele>
        <time>2018-05-25T15:39:06Z</time>
      </trkpt>
      <trkpt lat="43.83904" lon="6.44968">
        <ele>974</ele>
        <time>2018-05-25T15:39:07Z</time>
      </trkpt>
      <trkpt lat="43.83902" lon="6.44964">
        <ele>972</ele>
        <time>2018-05-25T15:39:10Z</time>
      </trkpt>
      <trkpt lat="43.83896" lon="6.44967">
        <ele>970</ele>
        <time>2018-05-25T15:39:17Z</time>
      </trkpt>
      <trkpt lat="43.8389" lon="6.44973">
        <ele>969</ele>
        <time>2018-05-25T15:39:31Z</time>
      </trkpt>
      <trkpt lat="43.83882" lon="6.44977">
        <ele>966</ele>
        <time>2018-05-25T15:39:44Z</time>
      </trkpt>
      <trkpt lat="43.83876" lon="6.44979">
        <ele>964</ele>
        <time>2018-05-25T15:39:58Z</time>
      </trkpt>
      <trkpt lat="43.83866" lon="6.44982">
        <ele>961</ele>
        <time>2018-05-25T15:40:10Z</time>
      </trkpt>
      <trkpt lat="43.83864" lon="6.44982">
        <ele>960</ele>
        <time>2018-05-25T15:40:13Z</time>
      </trkpt>
      <trkpt lat="43.83863" lon="6.44982">
        <ele>959</ele>
        <time>2018-05-25T15:40:14Z</time>
      </trkpt>
      <trkpt lat="43.83861" lon="6.44982">
        <ele>959</ele>
        <time>2018-05-25T15:40:16Z</time>
      </trkpt>
      <trkpt lat="43.83859" lon="6.44983">
        <ele>958</ele>
        <time>2018-05-25T15:40:17Z</time>
      </trkpt>
      <trkpt lat="43.83849" lon="6.44986">
        <ele>955</ele>
        <time>2018-05-25T15:40:27Z</time>
      </trkpt>
      <trkpt lat="43.83848" lon="6.44987">
        <ele>955</ele>
        <time>2018-05-25T15:40:28Z</time>
      </trkpt>
      <trkpt lat="43.83834" lon="6.44987">
        <ele>948</ele>
        <time>2018-05-25T15:40:42Z</time>
      </trkpt>
      <trkpt lat="43.83824" lon="6.44988">
        <ele>945</ele>
        <time>2018-05-25T15:40:54Z</time>
      </trkpt>
      <trkpt lat="43.83823" lon="6.44987">
        <ele>944</ele>
        <time>2018-05-25T15:40:55Z</time>
      </trkpt>
      <trkpt lat="43.83822" lon="6.44991">
        <ele>945</ele>
        <time>2018-05-25T15:41:07Z</time>
      </trkpt>
      <trkpt lat="43.83821" lon="6.44993">
        <ele>946</ele>
        <time>2018-05-25T15:41:30Z</time>
      </trkpt>
      <trkpt lat="43.8382" lon="6.44995">
        <ele>946</ele>
        <time>2018-05-25T15:41:31Z</time>
      </trkpt>
      <trkpt lat="43.83818" lon="6.44997">
        <ele>947</ele>
        <time>2018-05-25T15:41:32Z</time>
      </trkpt>
      <trkpt lat="43.83787" lon="6.45031">
        <ele>947</ele>
        <time>2018-05-25T15:41:42Z</time>
      </trkpt>
      <trkpt lat="43.83756" lon="6.45063">
        <ele>945</ele>
        <time>2018-05-25T15:41:52Z</time>
      </trkpt>
      <trkpt lat="43.83753" lon="6.45067">
        <ele>945</ele>
        <time>2018-05-25T15:41:53Z</time>
      </trkpt>
      <trkpt lat="43.83745" lon="6.45074">
        <ele>944</ele>
        <time>2018-05-25T15:41:55Z</time>
      </trkpt>
      <trkpt lat="43.83738" lon="6.45082">
        <ele>943</ele>
        <time>2018-05-25T15:41:57Z</time>
      </trkpt>
      <trkpt lat="43.83703" lon="6.4512">
        <ele>938</ele>
        <time>2018-05-25T15:42:06Z</time>
      </trkpt>
      <trkpt lat="43.83671" lon="6.45186">
        <ele>936</ele>
        <time>2018-05-25T15:42:19Z</time>
      </trkpt>
      <trkpt lat="43.83651" lon="6.45219">
        <ele>937</ele>
        <time>2018-05-25T15:42:31Z</time>
      </trkpt>
      <trkpt lat="43.83626" lon="6.45259">
        <ele>932</ele>
        <time>2018-05-25T15:42:46Z</time>
      </trkpt>
      <trkpt lat="43.83597" lon="6.45315">
        <ele>926</ele>
        <time>2018-05-25T15:43:01Z</time>
      </trkpt>
      <trkpt lat="43.83575" lon="6.45348">
        <ele>920</ele>
        <time>2018-05-25T15:43:10Z</time>
      </trkpt>
      <trkpt lat="43.83575" lon="6.45352">
        <ele>919</ele>
        <time>2018-05-25T15:43:11Z</time>
      </trkpt>
      <trkpt lat="43.83578" lon="6.45378">
        <ele>917</ele>
        <time>2018-05-25T15:43:16Z</time>
      </trkpt>
      <trkpt lat="43.8358" lon="6.45383">
        <ele>918</ele>
        <time>2018-05-25T15:43:17Z</time>
      </trkpt>
      <trkpt lat="43.83584" lon="6.45388">
        <ele>918</ele>
        <time>2018-05-25T15:43:18Z</time>
      </trkpt>
      <trkpt lat="43.83622" lon="6.45443">
        <ele>920</ele>
        <time>2018-05-25T15:43:27Z</time>
      </trkpt>
      <trkpt lat="43.83625" lon="6.45451">
        <ele>920</ele>
        <time>2018-05-25T15:43:28Z</time>
      </trkpt>
      <trkpt lat="43.83628" lon="6.45458">
        <ele>919</ele>
        <time>2018-05-25T15:43:29Z</time>
      </trkpt>
      <trkpt lat="43.83629" lon="6.45465">
        <ele>918</ele>
        <time>2018-05-25T15:43:30Z</time>
      </trkpt>
      <trkpt lat="43.8363" lon="6.45473">
        <ele>917</ele>
        <time>2018-05-25T15:43:31Z</time>
      </trkpt>
      <trkpt lat="43.83633" lon="6.45489">
        <ele>916</ele>
        <time>2018-05-25T15:43:33Z</time>
      </trkpt>
      <trkpt lat="43.83635" lon="6.45496">
        <ele>916</ele>
        <time>2018-05-25T15:43:34Z</time>
      </trkpt>
      <trkpt lat="43.83642" lon="6.45514">
        <ele>916</ele>
        <time>2018-05-25T15:43:37Z</time>
      </trkpt>
      <trkpt lat="43.83645" lon="6.45519">
        <ele>917</ele>
        <time>2018-05-25T15:43:38Z</time>
      </trkpt>
      <trkpt lat="43.83648" lon="6.45522">
        <ele>917</ele>
        <time>2018-05-25T15:43:39Z</time>
      </trkpt>
      <trkpt lat="43.83663" lon="6.4554">
        <ele>922</ele>
        <time>2018-05-25T15:43:49Z</time>
      </trkpt>
      <trkpt lat="43.83663" lon="6.45543">
        <ele>922</ele>
        <time>2018-05-25T15:43:50Z</time>
      </trkpt>
      <trkpt lat="43.83662" lon="6.45545">
        <ele>922</ele>
        <time>2018-05-25T15:43:51Z</time>
      </trkpt>
      <trkpt lat="43.83661" lon="6.45548">
        <ele>922</ele>
        <time>2018-05-25T15:43:52Z</time>
      </trkpt>
      <trkpt lat="43.83659" lon="6.45551">
        <ele>922</ele>
        <time>2018-05-25T15:43:53Z</time>
      </trkpt>
      <trkpt lat="43.83658" lon="6.45554">
        <ele>922</ele>
        <time>2018-05-25T15:43:54Z</time>
      </trkpt>
      <trkpt lat="43.83656" lon="6.45557">
        <ele>922</ele>
        <time>2018-05-25T15:43:55Z</time>
      </trkpt>
      <trkpt lat="43.83654" lon="6.4556">
        <ele>922</ele>
        <time>2018-05-25T15:43:56Z</time>
      </trkpt>
      <trkpt lat="43.83653" lon="6.45563">
        <ele>922</ele>
        <time>2018-05-25T15:43:57Z</time>
      </trkpt>
      <trkpt lat="43.83651" lon="6.45565">
        <ele>922</ele>
        <time>2018-05-25T15:43:58Z</time>
      </trkpt>
      <trkpt lat="43.8365" lon="6.45568">
        <ele>922</ele>
        <time>2018-05-25T15:43:59Z</time>
      </trkpt>
      <trkpt lat="43.83618" lon="6.45585">
        <ele>917</ele>
        <time>2018-05-25T15:44:09Z</time>
      </trkpt>
      <trkpt lat="43.83614" lon="6.45584">
        <ele>917</ele>
        <time>2018-05-25T15:44:10Z</time>
      </trkpt>
      <trkpt lat="43.83604" lon="6.45579">
        <ele>915</ele>
        <time>2018-05-25T15:44:12Z</time>
      </trkpt>
      <trkpt lat="43.83586" lon="6.45573">
        <ele>912</ele>
        <time>2018-05-25T15:44:15Z</time>
      </trkpt>
      <trkpt lat="43.83575" lon="6.45572">
        <ele>910</ele>
        <time>2018-05-25T15:44:17Z</time>
      </trkpt>
      <trkpt lat="43.83569" lon="6.45572">
        <ele>909</ele>
        <time>2018-05-25T15:44:18Z</time>
      </trkpt>
      <trkpt lat="43.83564" lon="6.45574">
        <ele>909</ele>
        <time>2018-05-25T15:44:19Z</time>
      </trkpt>
      <trkpt lat="43.83559" lon="6.45577">
        <ele>909</ele>
        <time>2018-05-25T15:44:20Z</time>
      </trkpt>
      <trkpt lat="43.83554" lon="6.45579">
        <ele>909</ele>
        <time>2018-05-25T15:44:21Z</time>
      </trkpt>
      <trkpt lat="43.8352" lon="6.45599">
        <ele>904</ele>
        <time>2018-05-25T15:44:28Z</time>
      </trkpt>
      <trkpt lat="43.83517" lon="6.45603">
        <ele>903</ele>
        <time>2018-05-25T15:44:29Z</time>
      </trkpt>
      <trkpt lat="43.83515" lon="6.45608">
        <ele>903</ele>
        <time>2018-05-25T15:44:30Z</time>
      </trkpt>
      <trkpt lat="43.83513" lon="6.45613">
        <ele>902</ele>
        <time>2018-05-25T15:44:31Z</time>
      </trkpt>
      <trkpt lat="43.83513" lon="6.45619">
        <ele>903</ele>
        <time>2018-05-25T15:44:32Z</time>
      </trkpt>
      <trkpt lat="43.83513" lon="6.45623">
        <ele>903</ele>
        <time>2018-05-25T15:44:33Z</time>
      </trkpt>
      <trkpt lat="43.83514" lon="6.45629">
        <ele>904</ele>
        <time>2018-05-25T15:44:34Z</time>
      </trkpt>
      <trkpt lat="43.83514" lon="6.45634">
        <ele>905</ele>
        <time>2018-05-25T15:44:35Z</time>
      </trkpt>
      <trkpt lat="43.83516" lon="6.45655">
        <ele>906</ele>
        <time>2018-05-25T15:44:38Z</time>
      </trkpt>
      <trkpt lat="43.83527" lon="6.45753">
        <ele>904</ele>
        <time>2018-05-25T15:44:49Z</time>
      </trkpt>
      <trkpt lat="43.83528" lon="6.45761">
        <ele>904</ele>
        <time>2018-05-25T15:44:50Z</time>
      </trkpt>
      <trkpt lat="43.83528" lon="6.45769">
        <ele>903</ele>
        <time>2018-05-25T15:44:51Z</time>
      </trkpt>
      <trkpt lat="43.83526" lon="6.45776">
        <ele>903</ele>
        <time>2018-05-25T15:44:52Z</time>
      </trkpt>
      <trkpt lat="43.83522" lon="6.4578">
        <ele>903</ele>
        <time>2018-05-25T15:44:53Z</time>
      </trkpt>
      <trkpt lat="43.83519" lon="6.45781">
        <ele>903</ele>
        <time>2018-05-25T15:44:54Z</time>
      </trkpt>
      <trkpt lat="43.83516" lon="6.4578">
        <ele>901</ele>
        <time>2018-05-25T15:44:55Z</time>
      </trkpt>
      <trkpt lat="43.83513" lon="6.45779">
        <ele>900</ele>
        <time>2018-05-25T15:44:56Z</time>
      </trkpt>
      <trkpt lat="43.83509" lon="6.45778">
        <ele>899</ele>
        <time>2018-05-25T15:44:57Z</time>
      </trkpt>
      <trkpt lat="43.83506" lon="6.45777">
        <ele>898</ele>
        <time>2018-05-25T15:44:58Z</time>
      </trkpt>
      <trkpt lat="43.83493" lon="6.45776">
        <ele>893</ele>
        <time>2018-05-25T15:45:01Z</time>
      </trkpt>
      <trkpt lat="43.83488" lon="6.45777">
        <ele>893</ele>
        <time>2018-05-25T15:45:02Z</time>
      </trkpt>
      <trkpt lat="43.83483" lon="6.45779">
        <ele>893</ele>
        <time>2018-05-25T15:45:03Z</time>
      </trkpt>
      <trkpt lat="43.83473" lon="6.45784">
        <ele>895</ele>
        <time>2018-05-25T15:45:05Z</time>
      </trkpt>
      <trkpt lat="43.83468" lon="6.45784">
        <ele>895</ele>
        <time>2018-05-25T15:45:06Z</time>
      </trkpt>
      <trkpt lat="43.83463" lon="6.45783">
        <ele>894</ele>
        <time>2018-05-25T15:45:07Z</time>
      </trkpt>
      <trkpt lat="43.83458" lon="6.4578">
        <ele>892</ele>
        <time>2018-05-25T15:45:08Z</time>
      </trkpt>
      <trkpt lat="43.83452" lon="6.45777">
        <ele>890</ele>
        <time>2018-05-25T15:45:09Z</time>
      </trkpt>
      <trkpt lat="43.83428" lon="6.45763">
        <ele>881</ele>
        <time>2018-05-25T15:45:14Z</time>
      </trkpt>
      <trkpt lat="43.83419" lon="6.45761">
        <ele>879</ele>
        <time>2018-05-25T15:45:16Z</time>
      </trkpt>
      <trkpt lat="43.83415" lon="6.4576">
        <ele>878</ele>
        <time>2018-05-25T15:45:17Z</time>
      </trkpt>
      <trkpt lat="43.83411" lon="6.4576">
        <ele>878</ele>
        <time>2018-05-25T15:45:18Z</time>
      </trkpt>
      <trkpt lat="43.83343" lon="6.45775">
        <ele>875</ele>
        <time>2018-05-25T15:45:30Z</time>
      </trkpt>
      <trkpt lat="43.83337" lon="6.45778">
        <ele>874</ele>
        <time>2018-05-25T15:45:31Z</time>
      </trkpt>
      <trkpt lat="43.83333" lon="6.45781">
        <ele>874</ele>
        <time>2018-05-25T15:45:32Z</time>
      </trkpt>
      <trkpt lat="43.83329" lon="6.45784">
        <ele>875</ele>
        <time>2018-05-25T15:45:33Z</time>
      </trkpt>
      <trkpt lat="43.83309" lon="6.45807">
        <ele>878</ele>
        <time>2018-05-25T15:45:44Z</time>
      </trkpt>
      <trkpt lat="43.83297" lon="6.4583">
        <ele>880</ele>
        <time>2018-05-25T15:45:58Z</time>
      </trkpt>
      <trkpt lat="43.83288" lon="6.4586">
        <ele>883</ele>
        <time>2018-05-25T15:46:14Z</time>
      </trkpt>
      <trkpt lat="43.83282" lon="6.45886">
        <ele>886</ele>
        <time>2018-05-25T15:46:27Z</time>
      </trkpt>
      <trkpt lat="43.83281" lon="6.45892">
        <ele>886</ele>
        <time>2018-05-25T15:46:30Z</time>
      </trkpt>
      <trkpt lat="43.83273" lon="6.45919">
        <ele>882</ele>
        <time>2018-05-25T15:46:44Z</time>
      </trkpt>
      <trkpt lat="43.83277" lon="6.45957">
        <ele>881</ele>
        <time>2018-05-25T15:46:57Z</time>
      </trkpt>
      <trkpt lat="43.83295" lon="6.45994">
        <ele>880</ele>
        <time>2018-05-25T15:47:04Z</time>
      </trkpt>
      <trkpt lat="43.83298" lon="6.46001">
        <ele>879</ele>
        <time>2018-05-25T15:47:05Z</time>
      </trkpt>
      <trkpt lat="43.833" lon="6.46008">
        <ele>878</ele>
        <time>2018-05-25T15:47:06Z</time>
      </trkpt>
      <trkpt lat="43.83302" lon="6.46014">
        <ele>878</ele>
        <time>2018-05-25T15:47:07Z</time>
      </trkpt>
      <trkpt lat="43.83306" lon="6.4602">
        <ele>878</ele>
        <time>2018-05-25T15:47:08Z</time>
      </trkpt>
      <trkpt lat="43.83309" lon="6.46025">
        <ele>878</ele>
        <time>2018-05-25T15:47:09Z</time>
      </trkpt>
      <trkpt lat="43.83314" lon="6.46031">
        <ele>877</ele>
        <time>2018-05-25T15:47:10Z</time>
      </trkpt>
      <trkpt lat="43.83317" lon="6.46036">
        <ele>877</ele>
        <time>2018-05-25T15:47:11Z</time>
      </trkpt>
      <trkpt lat="43.83321" lon="6.46041">
        <ele>877</ele>
        <time>2018-05-25T15:47:12Z</time>
      </trkpt>
      <trkpt lat="43.83325" lon="6.46046">
        <ele>877</ele>
        <time>2018-05-25T15:47:13Z</time>
      </trkpt>
      <trkpt lat="43.83336" lon="6.46065">
        <ele>875</ele>
        <time>2018-05-25T15:47:17Z</time>
      </trkpt>
      <trkpt lat="43.83338" lon="6.46071">
        <ele>875</ele>
        <time>2018-05-25T15:47:18Z</time>
      </trkpt>
      <trkpt lat="43.83338" lon="6.46079">
        <ele>874</ele>
        <time>2018-05-25T15:47:19Z</time>
      </trkpt>
      <trkpt lat="43.83339" lon="6.46092">
        <ele>874</ele>
        <time>2018-05-25T15:47:21Z</time>
      </trkpt>
      <trkpt lat="43.83342" lon="6.46105">
        <ele>874</ele>
        <time>2018-05-25T15:47:23Z</time>
      </trkpt>
      <trkpt lat="43.83345" lon="6.4613">
        <ele>874</ele>
        <time>2018-05-25T15:47:31Z</time>
      </trkpt>
      <trkpt lat="43.83345" lon="6.46136">
        <ele>873</ele>
        <time>2018-05-25T15:47:34Z</time>
      </trkpt>
      <trkpt lat="43.8335" lon="6.46174">
        <ele>872</ele>
        <time>2018-05-25T15:47:48Z</time>
      </trkpt>
      <trkpt lat="43.83366" lon="6.46215">
        <ele>872</ele>
        <time>2018-05-25T15:47:56Z</time>
      </trkpt>
      <trkpt lat="43.83369" lon="6.4622">
        <ele>873</ele>
        <time>2018-05-25T15:47:57Z</time>
      </trkpt>
      <trkpt lat="43.83373" lon="6.46227">
        <ele>873</ele>
        <time>2018-05-25T15:47:58Z</time>
      </trkpt>
      <trkpt lat="43.83394" lon="6.46281">
        <ele>874</ele>
        <time>2018-05-25T15:48:05Z</time>
      </trkpt>
      <trkpt lat="43.83396" lon="6.4629">
        <ele>873</ele>
        <time>2018-05-25T15:48:06Z</time>
      </trkpt>
      <trkpt lat="43.83401" lon="6.46314">
        <ele>872</ele>
        <time>2018-05-25T15:48:09Z</time>
      </trkpt>
      <trkpt lat="43.83401" lon="6.46321">
        <ele>871</ele>
        <time>2018-05-25T15:48:10Z</time>
      </trkpt>
      <trkpt lat="43.83403" lon="6.46328">
        <ele>871</ele>
        <time>2018-05-25T15:48:11Z</time>
      </trkpt>
      <trkpt lat="43.83405" lon="6.46334">
        <ele>872</ele>
        <time>2018-05-25T15:48:12Z</time>
      </trkpt>
      <trkpt lat="43.83407" lon="6.4634">
        <ele>872</ele>
        <time>2018-05-25T15:48:13Z</time>
      </trkpt>
      <trkpt lat="43.83409" lon="6.46345">
        <ele>872</ele>
        <time>2018-05-25T15:48:14Z</time>
      </trkpt>
      <trkpt lat="43.8341" lon="6.46349">
        <ele>873</ele>
        <time>2018-05-25T15:48:15Z</time>
      </trkpt>
      <trkpt lat="43.83411" lon="6.46353">
        <ele>872</ele>
        <time>2018-05-25T15:48:16Z</time>
      </trkpt>
      <trkpt lat="43.83411" lon="6.46356">
        <ele>872</ele>
        <time>2018-05-25T15:48:17Z</time>
      </trkpt>
      <trkpt lat="43.83411" lon="6.46359">
        <ele>872</ele>
        <time>2018-05-25T15:48:18Z</time>
      </trkpt>
      <trkpt lat="43.83412" lon="6.46366">
        <ele>872</ele>
        <time>2018-05-25T15:48:22Z</time>
      </trkpt>
      <trkpt lat="43.83413" lon="6.46369">
        <ele>872</ele>
        <time>2018-05-25T15:48:23Z</time>
      </trkpt>
      <trkpt lat="43.83413" lon="6.46371">
        <ele>871</ele>
        <time>2018-05-25T15:48:24Z</time>
      </trkpt>
      <trkpt lat="43.83413" lon="6.46387">
        <ele>870</ele>
        <time>2018-05-25T15:48:31Z</time>
      </trkpt>
      <trkpt lat="43.83413" lon="6.46389">
        <ele>870</ele>
        <time>2018-05-25T15:48:32Z</time>
      </trkpt>
      <trkpt lat="43.83413" lon="6.46391">
        <ele>870</ele>
        <time>2018-05-25T15:48:33Z</time>
      </trkpt>
      <trkpt lat="43.83413" lon="6.46393">
        <ele>870</ele>
        <time>2018-05-25T15:48:34Z</time>
      </trkpt>
      <trkpt lat="43.83413" lon="6.46395">
        <ele>870</ele>
        <time>2018-05-25T15:48:35Z</time>
      </trkpt>
      <trkpt lat="43.83413" lon="6.46397">
        <ele>870</ele>
        <time>2018-05-25T15:48:36Z</time>
      </trkpt>
      <trkpt lat="43.83413" lon="6.46399">
        <ele>870</ele>
        <time>2018-05-25T15:48:37Z</time>
      </trkpt>
      <trkpt lat="43.83412" lon="6.46402">
        <ele>870</ele>
        <time>2018-05-25T15:48:38Z</time>
      </trkpt>
      <trkpt lat="43.83412" lon="6.46404">
        <ele>870</ele>
        <time>2018-05-25T15:48:39Z</time>
      </trkpt>
      <trkpt lat="43.83412" lon="6.46405">
        <ele>870</ele>
        <time>2018-05-25T15:48:40Z</time>
      </trkpt>
      <trkpt lat="43.83412" lon="6.46408">
        <ele>870</ele>
        <time>2018-05-25T15:48:41Z</time>
      </trkpt>
      <trkpt lat="43.83411" lon="6.4641">
        <ele>870</ele>
        <time>2018-05-25T15:48:42Z</time>
      </trkpt>
      <trkpt lat="43.83409" lon="6.46453">
        <ele>870</ele>
        <time>2018-05-25T15:48:54Z</time>
      </trkpt>
      <trkpt lat="43.8341" lon="6.4646">
        <ele>870</ele>
        <time>2018-05-25T15:48:56Z</time>
      </trkpt>
      <trkpt lat="43.83411" lon="6.46464">
        <ele>871</ele>
        <time>2018-05-25T15:48:57Z</time>
      </trkpt>
      <trkpt lat="43.83412" lon="6.46468">
        <ele>871</ele>
        <time>2018-05-25T15:48:58Z</time>
      </trkpt>
      <trkpt lat="43.83412" lon="6.46472">
        <ele>871</ele>
        <time>2018-05-25T15:48:59Z</time>
      </trkpt>
      <trkpt lat="43.83411" lon="6.46477">
        <ele>871</ele>
        <time>2018-05-25T15:49:00Z</time>
      </trkpt>
      <trkpt lat="43.83411" lon="6.46497">
        <ele>870</ele>
        <time>2018-05-25T15:49:03Z</time>
      </trkpt>
      <trkpt lat="43.83412" lon="6.46505">
        <ele>870</ele>
        <time>2018-05-25T15:49:04Z</time>
      </trkpt>
      <trkpt lat="43.83414" lon="6.46542">
        <ele>868</ele>
        <time>2018-05-25T15:49:09Z</time>
      </trkpt>
      <trkpt lat="43.83417" lon="6.46549">
        <ele>868</ele>
        <time>2018-05-25T15:49:10Z</time>
      </trkpt>
      <trkpt lat="43.83421" lon="6.46556">
        <ele>869</ele>
        <time>2018-05-25T15:49:11Z</time>
      </trkpt>
      <trkpt lat="43.83425" lon="6.46563">
        <ele>869</ele>
        <time>2018-05-25T15:49:12Z</time>
      </trkpt>
      <trkpt lat="43.8343" lon="6.46572">
        <ele>870</ele>
        <time>2018-05-25T15:49:13Z</time>
      </trkpt>
      <trkpt lat="43.83441" lon="6.4659">
        <ele>869</ele>
        <time>2018-05-25T15:49:15Z</time>
      </trkpt>
      <trkpt lat="43.83445" lon="6.46601">
        <ele>869</ele>
        <time>2018-05-25T15:49:16Z</time>
      </trkpt>
      <trkpt lat="43.83449" lon="6.46612">
        <ele>868</ele>
        <time>2018-05-25T15:49:17Z</time>
      </trkpt>
      <trkpt lat="43.83451" lon="6.46624">
        <ele>867</ele>
        <time>2018-05-25T15:49:18Z</time>
      </trkpt>
      <trkpt lat="43.83453" lon="6.46636">
        <ele>866</ele>
        <time>2018-05-25T15:49:19Z</time>
      </trkpt>
      <trkpt lat="43.83453" lon="6.46647">
        <ele>865</ele>
        <time>2018-05-25T15:49:20Z</time>
      </trkpt>
      <trkpt lat="43.83453" lon="6.4666">
        <ele>863</ele>
        <time>2018-05-25T15:49:21Z</time>
      </trkpt>
      <trkpt lat="43.83453" lon="6.46672">
        <ele>861</ele>
        <time>2018-05-25T15:49:22Z</time>
      </trkpt>
      <trkpt lat="43.83454" lon="6.46683">
        <ele>860</ele>
        <time>2018-05-25T15:49:23Z</time>
      </trkpt>
      <trkpt lat="43.83456" lon="6.46693">
        <ele>860</ele>
        <time>2018-05-25T15:49:24Z</time>
      </trkpt>
      <trkpt lat="43.83458" lon="6.46704">
        <ele>860</ele>
        <time>2018-05-25T15:49:25Z</time>
      </trkpt>
      <trkpt lat="43.83465" lon="6.46727">
        <ele>861</ele>
        <time>2018-05-25T15:49:27Z</time>
      </trkpt>
      <trkpt lat="43.83471" lon="6.46736">
        <ele>863</ele>
        <time>2018-05-25T15:49:28Z</time>
      </trkpt>
      <trkpt lat="43.83477" lon="6.46743">
        <ele>866</ele>
        <time>2018-05-25T15:49:29Z</time>
      </trkpt>
      <trkpt lat="43.83481" lon="6.4675">
        <ele>867</ele>
        <time>2018-05-25T15:49:30Z</time>
      </trkpt>
      <trkpt lat="43.83481" lon="6.46757">
        <ele>867</ele>
        <time>2018-05-25T15:49:31Z</time>
      </trkpt>
      <trkpt lat="43.83479" lon="6.46761">
        <ele>866</ele>
        <time>2018-05-25T15:49:32Z</time>
      </trkpt>
      <trkpt lat="43.83476" lon="6.46763">
        <ele>864</ele>
        <time>2018-05-25T15:49:33Z</time>
      </trkpt>
      <trkpt lat="43.83471" lon="6.46765">
        <ele>862</ele>
        <time>2018-05-25T15:49:34Z</time>
      </trkpt>
      <trkpt lat="43.83435" lon="6.46776">
        <ele>852</ele>
        <time>2018-05-25T15:49:47Z</time>
      </trkpt>
      <trkpt lat="43.83395" lon="6.46802">
        <ele>852</ele>
        <time>2018-05-25T15:49:57Z</time>
      </trkpt>
      <trkpt lat="43.8339" lon="6.46807">
        <ele>853</ele>
        <time>2018-05-25T15:49:58Z</time>
      </trkpt>
      <trkpt lat="43.83387" lon="6.46813">
        <ele>854</ele>
        <time>2018-05-25T15:49:59Z</time>
      </trkpt>
      <trkpt lat="43.83385" lon="6.46821">
        <ele>856</ele>
        <time>2018-05-25T15:50:00Z</time>
      </trkpt>
      <trkpt lat="43.83383" lon="6.46829">
        <ele>855</ele>
        <time>2018-05-25T15:50:01Z</time>
      </trkpt>
      <trkpt lat="43.83381" lon="6.46838">
        <ele>855</ele>
        <time>2018-05-25T15:50:02Z</time>
      </trkpt>
      <trkpt lat="43.8338" lon="6.46848">
        <ele>855</ele>
        <time>2018-05-25T15:50:03Z</time>
      </trkpt>
      <trkpt lat="43.83378" lon="6.46879">
        <ele>856</ele>
        <time>2018-05-25T15:50:06Z</time>
      </trkpt>
      <trkpt lat="43.83376" lon="6.46888">
        <ele>856</ele>
        <time>2018-05-25T15:50:07Z</time>
      </trkpt>
      <trkpt lat="43.83366" lon="6.46934">
        <ele>856</ele>
        <time>2018-05-25T15:50:13Z</time>
      </trkpt>
      <trkpt lat="43.83366" lon="6.46945">
        <ele>857</ele>
        <time>2018-05-25T15:50:15Z</time>
      </trkpt>
      <trkpt lat="43.83357" lon="6.46988">
        <ele>860</ele>
        <time>2018-05-25T15:50:26Z</time>
      </trkpt>
      <trkpt lat="43.83355" lon="6.4699">
        <ele>860</ele>
        <time>2018-05-25T15:50:27Z</time>
      </trkpt>
      <trkpt lat="43.83354" lon="6.46993">
        <ele>859</ele>
        <time>2018-05-25T15:50:28Z</time>
      </trkpt>
      <trkpt lat="43.83353" lon="6.46996">
        <ele>859</ele>
        <time>2018-05-25T15:50:29Z</time>
      </trkpt>
      <trkpt lat="43.83352" lon="6.46999">
        <ele>859</ele>
        <time>2018-05-25T15:50:30Z</time>
      </trkpt>
      <trkpt lat="43.83355" lon="6.47049">
        <ele>860</ele>
        <time>2018-05-25T15:50:45Z</time>
      </trkpt>
      <trkpt lat="43.83382" lon="6.47094">
        <ele>863</ele>
        <time>2018-05-25T15:50:57Z</time>
      </trkpt>
      <trkpt lat="43.83404" lon="6.47142">
        <ele>863</ele>
        <time>2018-05-25T15:51:08Z</time>
      </trkpt>
      <trkpt lat="43.83406" lon="6.47141">
        <ele>864</ele>
        <time>2018-05-25T15:51:17Z</time>
      </trkpt>
      <trkpt lat="43.83406" lon="6.47145">
        <ele>864</ele>
        <time>2018-05-25T15:51:26Z</time>
      </trkpt>
      <trkpt lat="43.83406" lon="6.47147">
        <ele>864</ele>
        <time>2018-05-25T15:51:27Z</time>
      </trkpt>
      <trkpt lat="43.83406" lon="6.4715">
        <ele>864</ele>
        <time>2018-05-25T15:51:28Z</time>
      </trkpt>
      <trkpt lat="43.834" lon="6.47208">
        <ele>859</ele>
        <time>2018-05-25T15:51:41Z</time>
      </trkpt>
      <trkpt lat="43.83395" lon="6.47237">
        <ele>858</ele>
        <time>2018-05-25T15:51:46Z</time>
      </trkpt>
      <trkpt lat="43.83394" lon="6.47243">
        <ele>858</ele>
        <time>2018-05-25T15:51:47Z</time>
      </trkpt>
      <trkpt lat="43.83392" lon="6.47264">
        <ele>857</ele>
        <time>2018-05-25T15:51:50Z</time>
      </trkpt>
      <trkpt lat="43.83392" lon="6.47272">
        <ele>857</ele>
        <time>2018-05-25T15:51:51Z</time>
      </trkpt>
      <trkpt lat="43.83399" lon="6.47341">
        <ele>860</ele>
        <time>2018-05-25T15:51:58Z</time>
      </trkpt>
      <trkpt lat="43.83398" lon="6.47351">
        <ele>859</ele>
        <time>2018-05-25T15:51:59Z</time>
      </trkpt>
      <trkpt lat="43.83393" lon="6.474">
        <ele>853</ele>
        <time>2018-05-25T15:52:04Z</time>
      </trkpt>
      <trkpt lat="43.83393" lon="6.4741">
        <ele>852</ele>
        <time>2018-05-25T15:52:05Z</time>
      </trkpt>
      <trkpt lat="43.83394" lon="6.47421">
        <ele>852</ele>
        <time>2018-05-25T15:52:06Z</time>
      </trkpt>
      <trkpt lat="43.83396" lon="6.47431">
        <ele>852</ele>
        <time>2018-05-25T15:52:07Z</time>
      </trkpt>
      <trkpt lat="43.83398" lon="6.47441">
        <ele>853</ele>
        <time>2018-05-25T15:52:08Z</time>
      </trkpt>
      <trkpt lat="43.83401" lon="6.47452">
        <ele>854</ele>
        <time>2018-05-25T15:52:09Z</time>
      </trkpt>
      <trkpt lat="43.83402" lon="6.47464">
        <ele>855</ele>
        <time>2018-05-25T15:52:10Z</time>
      </trkpt>
      <trkpt lat="43.83401" lon="6.47475">
        <ele>855</ele>
        <time>2018-05-25T15:52:11Z</time>
      </trkpt>
      <trkpt lat="43.83398" lon="6.47487">
        <ele>853</ele>
        <time>2018-05-25T15:52:12Z</time>
      </trkpt>
      <trkpt lat="43.83394" lon="6.47498">
        <ele>851</ele>
        <time>2018-05-25T15:52:13Z</time>
      </trkpt>
      <trkpt lat="43.83377" lon="6.4756">
        <ele>843</ele>
        <time>2018-05-25T15:52:19Z</time>
      </trkpt>
      <trkpt lat="43.83378" lon="6.47569">
        <ele>843</ele>
        <time>2018-05-25T15:52:20Z</time>
      </trkpt>
      <trkpt lat="43.83381" lon="6.47579">
        <ele>843</ele>
        <time>2018-05-25T15:52:21Z</time>
      </trkpt>
      <trkpt lat="43.83385" lon="6.47589">
        <ele>843</ele>
        <time>2018-05-25T15:52:22Z</time>
      </trkpt>
      <trkpt lat="43.8339" lon="6.47598">
        <ele>844</ele>
        <time>2018-05-25T15:52:23Z</time>
      </trkpt>
      <trkpt lat="43.83394" lon="6.47611">
        <ele>844</ele>
        <time>2018-05-25T15:52:24Z</time>
      </trkpt>
      <trkpt lat="43.83396" lon="6.47622">
        <ele>843</ele>
        <time>2018-05-25T15:52:25Z</time>
      </trkpt>
      <trkpt lat="43.83396" lon="6.47634">
        <ele>841</ele>
        <time>2018-05-25T15:52:26Z</time>
      </trkpt>
      <trkpt lat="43.83395" lon="6.47645">
        <ele>840</ele>
        <time>2018-05-25T15:52:27Z</time>
      </trkpt>
      <trkpt lat="43.83393" lon="6.47657">
        <ele>837</ele>
        <time>2018-05-25T15:52:28Z</time>
      </trkpt>
      <trkpt lat="43.83391" lon="6.47666">
        <ele>836</ele>
        <time>2018-05-25T15:52:29Z</time>
      </trkpt>
      <trkpt lat="43.8339" lon="6.47676">
        <ele>834</ele>
        <time>2018-05-25T15:52:30Z</time>
      </trkpt>
      <trkpt lat="43.83391" lon="6.47686">
        <ele>833</ele>
        <time>2018-05-25T15:52:31Z</time>
      </trkpt>
      <trkpt lat="43.83394" lon="6.47692">
        <ele>834</ele>
        <time>2018-05-25T15:52:32Z</time>
      </trkpt>
      <trkpt lat="43.83399" lon="6.47699">
        <ele>835</ele>
        <time>2018-05-25T15:52:33Z</time>
      </trkpt>
      <trkpt lat="43.83404" lon="6.47706">
        <ele>836</ele>
        <time>2018-05-25T15:52:34Z</time>
      </trkpt>
      <trkpt lat="43.8342" lon="6.47729">
        <ele>838</ele>
        <time>2018-05-25T15:52:37Z</time>
      </trkpt>
      <trkpt lat="43.83425" lon="6.47739">
        <ele>838</ele>
        <time>2018-05-25T15:52:38Z</time>
      </trkpt>
      <trkpt lat="43.83427" lon="6.47751">
        <ele>837</ele>
        <time>2018-05-25T15:52:39Z</time>
      </trkpt>
      <trkpt lat="43.83427" lon="6.47763">
        <ele>835</ele>
        <time>2018-05-25T15:52:40Z</time>
      </trkpt>
      <trkpt lat="43.83428" lon="6.47776">
        <ele>834</ele>
        <time>2018-05-25T15:52:41Z</time>
      </trkpt>
      <trkpt lat="43.83431" lon="6.4779">
        <ele>833</ele>
        <time>2018-05-25T15:52:42Z</time>
      </trkpt>
      <trkpt lat="43.83434" lon="6.478">
        <ele>834</ele>
        <time>2018-05-25T15:52:43Z</time>
      </trkpt>
      <trkpt lat="43.83438" lon="6.47816">
        <ele>833</ele>
        <time>2018-05-25T15:52:44Z</time>
      </trkpt>
      <trkpt lat="43.83439" lon="6.47828">
        <ele>832</ele>
        <time>2018-05-25T15:52:45Z</time>
      </trkpt>
      <trkpt lat="43.8344" lon="6.47841">
        <ele>830</ele>
        <time>2018-05-25T15:52:46Z</time>
      </trkpt>
      <trkpt lat="43.8344" lon="6.47855">
        <ele>829</ele>
        <time>2018-05-25T15:52:47Z</time>
      </trkpt>
      <trkpt lat="43.83442" lon="6.47868">
        <ele>828</ele>
        <time>2018-05-25T15:52:48Z</time>
      </trkpt>
      <trkpt lat="43.83447" lon="6.47882">
        <ele>828</ele>
        <time>2018-05-25T15:52:49Z</time>
      </trkpt>
      <trkpt lat="43.83453" lon="6.47894">
        <ele>830</ele>
        <time>2018-05-25T15:52:50Z</time>
      </trkpt>
      <trkpt lat="43.83458" lon="6.47907">
        <ele>832</ele>
        <time>2018-05-25T15:52:51Z</time>
      </trkpt>
      <trkpt lat="43.83461" lon="6.47922">
        <ele>832</ele>
        <time>2018-05-25T15:52:52Z</time>
      </trkpt>
      <trkpt lat="43.83464" lon="6.47936">
        <ele>831</ele>
        <time>2018-05-25T15:52:53Z</time>
      </trkpt>
      <trkpt lat="43.83473" lon="6.48015">
        <ele>829</ele>
        <time>2018-05-25T15:52:59Z</time>
      </trkpt>
      <trkpt lat="43.83473" lon="6.48028">
        <ele>829</ele>
        <time>2018-05-25T15:53:00Z</time>
      </trkpt>
      <trkpt lat="43.83473" lon="6.4804">
        <ele>828</ele>
        <time>2018-05-25T15:53:01Z</time>
      </trkpt>
      <trkpt lat="43.8347" lon="6.48076">
        <ele>825</ele>
        <time>2018-05-25T15:53:04Z</time>
      </trkpt>
      <trkpt lat="43.83471" lon="6.48088">
        <ele>823</ele>
        <time>2018-05-25T15:53:05Z</time>
      </trkpt>
      <trkpt lat="43.83473" lon="6.481">
        <ele>822</ele>
        <time>2018-05-25T15:53:06Z</time>
      </trkpt>
      <trkpt lat="43.83477" lon="6.48112">
        <ele>822</ele>
        <time>2018-05-25T15:53:07Z</time>
      </trkpt>
      <trkpt lat="43.83481" lon="6.48124">
        <ele>822</ele>
        <time>2018-05-25T15:53:08Z</time>
      </trkpt>
      <trkpt lat="43.83498" lon="6.48168">
        <ele>814</ele>
        <time>2018-05-25T15:53:12Z</time>
      </trkpt>
      <trkpt lat="43.83505" lon="6.48176">
        <ele>813</ele>
        <time>2018-05-25T15:53:13Z</time>
      </trkpt>
      <trkpt lat="43.83513" lon="6.48182">
        <ele>814</ele>
        <time>2018-05-25T15:53:14Z</time>
      </trkpt>
      <trkpt lat="43.83521" lon="6.48185">
        <ele>815</ele>
        <time>2018-05-25T15:53:15Z</time>
      </trkpt>
      <trkpt lat="43.8353" lon="6.48188">
        <ele>816</ele>
        <time>2018-05-25T15:53:16Z</time>
      </trkpt>
      <trkpt lat="43.83538" lon="6.48192">
        <ele>817</ele>
        <time>2018-05-25T15:53:17Z</time>
      </trkpt>
      <trkpt lat="43.83545" lon="6.48198">
        <ele>817</ele>
        <time>2018-05-25T15:53:18Z</time>
      </trkpt>
      <trkpt lat="43.83553" lon="6.48204">
        <ele>816</ele>
        <time>2018-05-25T15:53:19Z</time>
      </trkpt>
      <trkpt lat="43.8356" lon="6.48212">
        <ele>816</ele>
        <time>2018-05-25T15:53:20Z</time>
      </trkpt>
      <trkpt lat="43.83567" lon="6.4822">
        <ele>815</ele>
        <time>2018-05-25T15:53:21Z</time>
      </trkpt>
      <trkpt lat="43.83589" lon="6.48243">
        <ele>816</ele>
        <time>2018-05-25T15:53:24Z</time>
      </trkpt>
      <trkpt lat="43.83596" lon="6.48253">
        <ele>816</ele>
        <time>2018-05-25T15:53:25Z</time>
      </trkpt>
      <trkpt lat="43.83602" lon="6.48262">
        <ele>816</ele>
        <time>2018-05-25T15:53:26Z</time>
      </trkpt>
      <trkpt lat="43.83607" lon="6.48273">
        <ele>815</ele>
        <time>2018-05-25T15:53:27Z</time>
      </trkpt>
      <trkpt lat="43.8361" lon="6.48282">
        <ele>814</ele>
        <time>2018-05-25T15:53:28Z</time>
      </trkpt>
      <trkpt lat="43.83614" lon="6.48292">
        <ele>813</ele>
        <time>2018-05-25T15:53:29Z</time>
      </trkpt>
      <trkpt lat="43.83657" lon="6.48392">
        <ele>810</ele>
        <time>2018-05-25T15:53:40Z</time>
      </trkpt>
      <trkpt lat="43.8366" lon="6.48403">
        <ele>810</ele>
        <time>2018-05-25T15:53:41Z</time>
      </trkpt>
      <trkpt lat="43.83662" lon="6.48415">
        <ele>809</ele>
        <time>2018-05-25T15:53:42Z</time>
      </trkpt>
      <trkpt lat="43.83685" lon="6.48551">
        <ele>801</ele>
        <time>2018-05-25T15:53:53Z</time>
      </trkpt>
      <trkpt lat="43.83684" lon="6.48562">
        <ele>800</ele>
        <time>2018-05-25T15:53:54Z</time>
      </trkpt>
      <trkpt lat="43.83682" lon="6.48574">
        <ele>799</ele>
        <time>2018-05-25T15:53:55Z</time>
      </trkpt>
      <trkpt lat="43.83678" lon="6.48585">
        <ele>797</ele>
        <time>2018-05-25T15:53:56Z</time>
      </trkpt>
      <trkpt lat="43.83674" lon="6.48596">
        <ele>796</ele>
        <time>2018-05-25T15:53:57Z</time>
      </trkpt>
      <trkpt lat="43.83669" lon="6.48606">
        <ele>795</ele>
        <time>2018-05-25T15:53:58Z</time>
      </trkpt>
      <trkpt lat="43.83663" lon="6.48615">
        <ele>793</ele>
        <time>2018-05-25T15:53:59Z</time>
      </trkpt>
      <trkpt lat="43.83621" lon="6.48686">
        <ele>781</ele>
        <time>2018-05-25T15:54:07Z</time>
      </trkpt>
      <trkpt lat="43.83621" lon="6.48695">
        <ele>781</ele>
        <time>2018-05-25T15:54:08Z</time>
      </trkpt>
      <trkpt lat="43.83625" lon="6.48703">
        <ele>782</ele>
        <time>2018-05-25T15:54:09Z</time>
      </trkpt>
      <trkpt lat="43.8363" lon="6.48709">
        <ele>781</ele>
        <time>2018-05-25T15:54:10Z</time>
      </trkpt>
      <trkpt lat="43.83637" lon="6.48713">
        <ele>782</ele>
        <time>2018-05-25T15:54:11Z</time>
      </trkpt>
      <trkpt lat="43.83646" lon="6.48715">
        <ele>781</ele>
        <time>2018-05-25T15:54:12Z</time>
      </trkpt>
      <trkpt lat="43.83655" lon="6.48717">
        <ele>781</ele>
        <time>2018-05-25T15:54:13Z</time>
      </trkpt>
      <trkpt lat="43.83665" lon="6.48718">
        <ele>780</ele>
        <time>2018-05-25T15:54:14Z</time>
      </trkpt>
      <trkpt lat="43.83718" lon="6.48728">
        <ele>780</ele>
        <time>2018-05-25T15:54:19Z</time>
      </trkpt>
      <trkpt lat="43.83728" lon="6.48732">
        <ele>780</ele>
        <time>2018-05-25T15:54:20Z</time>
      </trkpt>
      <trkpt lat="43.83737" lon="6.48739">
        <ele>779</ele>
        <time>2018-05-25T15:54:21Z</time>
      </trkpt>
      <trkpt lat="43.83746" lon="6.48748">
        <ele>779</ele>
        <time>2018-05-25T15:54:22Z</time>
      </trkpt>
      <trkpt lat="43.83754" lon="6.48757">
        <ele>778</ele>
        <time>2018-05-25T15:54:23Z</time>
      </trkpt>
      <trkpt lat="43.83762" lon="6.48768">
        <ele>778</ele>
        <time>2018-05-25T15:54:24Z</time>
      </trkpt>
      <trkpt lat="43.83768" lon="6.48778">
        <ele>777</ele>
        <time>2018-05-25T15:54:25Z</time>
      </trkpt>
      <trkpt lat="43.83773" lon="6.48789">
        <ele>776</ele>
        <time>2018-05-25T15:54:26Z</time>
      </trkpt>
      <trkpt lat="43.83778" lon="6.48806">
        <ele>775</ele>
        <time>2018-05-25T15:54:27Z</time>
      </trkpt>
      <trkpt lat="43.8378" lon="6.48814">
        <ele>774</ele>
        <time>2018-05-25T15:54:28Z</time>
      </trkpt>
      <trkpt lat="43.83784" lon="6.48826">
        <ele>773</ele>
        <time>2018-05-25T15:54:29Z</time>
      </trkpt>
      <trkpt lat="43.83789" lon="6.48838">
        <ele>771</ele>
        <time>2018-05-25T15:54:30Z</time>
      </trkpt>
      <trkpt lat="43.83794" lon="6.48849">
        <ele>769</ele>
        <time>2018-05-25T15:54:31Z</time>
      </trkpt>
      <trkpt lat="43.83799" lon="6.48861">
        <ele>767</ele>
        <time>2018-05-25T15:54:32Z</time>
      </trkpt>
      <trkpt lat="43.83803" lon="6.48872">
        <ele>765</ele>
        <time>2018-05-25T15:54:33Z</time>
      </trkpt>
      <trkpt lat="43.8381" lon="6.48891">
        <ele>761</ele>
        <time>2018-05-25T15:54:35Z</time>
      </trkpt>
      <trkpt lat="43.83815" lon="6.48897">
        <ele>760</ele>
        <time>2018-05-25T15:54:36Z</time>
      </trkpt>
      <trkpt lat="43.83822" lon="6.48901">
        <ele>759</ele>
        <time>2018-05-25T15:54:37Z</time>
      </trkpt>
      <trkpt lat="43.83829" lon="6.48904">
        <ele>758</ele>
        <time>2018-05-25T15:54:38Z</time>
      </trkpt>
      <trkpt lat="43.83838" lon="6.48906">
        <ele>757</ele>
        <time>2018-05-25T15:54:39Z</time>
      </trkpt>
      <trkpt lat="43.83847" lon="6.48907">
        <ele>757</ele>
        <time>2018-05-25T15:54:40Z</time>
      </trkpt>
      <trkpt lat="43.83854" lon="6.48906">
        <ele>756</ele>
        <time>2018-05-25T15:54:41Z</time>
      </trkpt>
      <trkpt lat="43.83859" lon="6.48906">
        <ele>756</ele>
        <time>2018-05-25T15:54:42Z</time>
      </trkpt>
      <trkpt lat="43.83863" lon="6.48908">
        <ele>757</ele>
        <time>2018-05-25T15:54:43Z</time>
      </trkpt>
      <trkpt lat="43.83866" lon="6.48913">
        <ele>758</ele>
        <time>2018-05-25T15:54:44Z</time>
      </trkpt>
      <trkpt lat="43.83866" lon="6.48917">
        <ele>758</ele>
        <time>2018-05-25T15:54:45Z</time>
      </trkpt>
      <trkpt lat="43.83867" lon="6.4892">
        <ele>758</ele>
        <time>2018-05-25T15:54:46Z</time>
      </trkpt>
      <trkpt lat="43.83867" lon="6.48923">
        <ele>759</ele>
        <time>2018-05-25T15:54:47Z</time>
      </trkpt>
      <trkpt lat="43.83867" lon="6.48925">
        <ele>759</ele>
        <time>2018-05-25T15:54:48Z</time>
      </trkpt>
      <trkpt lat="43.83865" lon="6.48927">
        <ele>759</ele>
        <time>2018-05-25T15:54:49Z</time>
      </trkpt>
      <trkpt lat="43.83863" lon="6.48929">
        <ele>759</ele>
        <time>2018-05-25T15:54:50Z</time>
      </trkpt>
      <trkpt lat="43.83862" lon="6.48932">
        <ele>759</ele>
        <time>2018-05-25T15:54:51Z</time>
      </trkpt>
      <trkpt lat="43.83861" lon="6.48935">
        <ele>759</ele>
        <time>2018-05-25T15:54:52Z</time>
      </trkpt>
      <trkpt lat="43.83838" lon="6.48975">
        <ele>760</ele>
        <time>2018-05-25T15:55:04Z</time>
      </trkpt>
      <trkpt lat="43.83813" lon="6.48995">
        <ele>760</ele>
        <time>2018-05-25T15:55:17Z</time>
      </trkpt>
      <trkpt lat="43.838" lon="6.49025">
        <ele>763</ele>
        <time>2018-05-25T15:55:29Z</time>
      </trkpt>
      <trkpt lat="43.83784" lon="6.49076">
        <ele>760</ele>
        <time>2018-05-25T15:55:43Z</time>
      </trkpt>
      <trkpt lat="43.83777" lon="6.49097">
        <ele>759</ele>
        <time>2018-05-25T15:55:46Z</time>
      </trkpt>
      <trkpt lat="43.83776" lon="6.49106">
        <ele>758</ele>
        <time>2018-05-25T15:55:47Z</time>
      </trkpt>
      <trkpt lat="43.83776" lon="6.49115">
        <ele>758</ele>
        <time>2018-05-25T15:55:48Z</time>
      </trkpt>
      <trkpt lat="43.83778" lon="6.49124">
        <ele>758</ele>
        <time>2018-05-25T15:55:49Z</time>
      </trkpt>
      <trkpt lat="43.83781" lon="6.49133">
        <ele>758</ele>
        <time>2018-05-25T15:55:50Z</time>
      </trkpt>
      <trkpt lat="43.83801" lon="6.49186">
        <ele>752</ele>
        <time>2018-05-25T15:55:56Z</time>
      </trkpt>
      <trkpt lat="43.83807" lon="6.49192">
        <ele>752</ele>
        <time>2018-05-25T15:55:57Z</time>
      </trkpt>
      <trkpt lat="43.83814" lon="6.49197">
        <ele>751</ele>
        <time>2018-05-25T15:55:58Z</time>
      </trkpt>
      <trkpt lat="43.83825" lon="6.49202">
        <ele>750</ele>
        <time>2018-05-25T15:55:59Z</time>
      </trkpt>
      <trkpt lat="43.83832" lon="6.49206">
        <ele>749</ele>
        <time>2018-05-25T15:56:00Z</time>
      </trkpt>
      <trkpt lat="43.8384" lon="6.49211">
        <ele>746</ele>
        <time>2018-05-25T15:56:01Z</time>
      </trkpt>
      <trkpt lat="43.83898" lon="6.49256">
        <ele>739</ele>
        <time>2018-05-25T15:56:08Z</time>
      </trkpt>
      <trkpt lat="43.83905" lon="6.4926">
        <ele>739</ele>
        <time>2018-05-25T15:56:09Z</time>
      </trkpt>
      <trkpt lat="43.8392" lon="6.49268">
        <ele>738</ele>
        <time>2018-05-25T15:56:11Z</time>
      </trkpt>
      <trkpt lat="43.83927" lon="6.49273">
        <ele>737</ele>
        <time>2018-05-25T15:56:12Z</time>
      </trkpt>
      <trkpt lat="43.83945" lon="6.49293">
        <ele>735</ele>
        <time>2018-05-25T15:56:15Z</time>
      </trkpt>
      <trkpt lat="43.8395" lon="6.493">
        <ele>735</ele>
        <time>2018-05-25T15:56:16Z</time>
      </trkpt>
      <trkpt lat="43.83954" lon="6.49308">
        <ele>734</ele>
        <time>2018-05-25T15:56:17Z</time>
      </trkpt>
      <trkpt lat="43.83957" lon="6.49315">
        <ele>733</ele>
        <time>2018-05-25T15:56:18Z</time>
      </trkpt>
      <trkpt lat="43.8396" lon="6.49322">
        <ele>733</ele>
        <time>2018-05-25T15:56:19Z</time>
      </trkpt>
      <trkpt lat="43.83981" lon="6.49361">
        <ele>730</ele>
        <time>2018-05-25T15:56:24Z</time>
      </trkpt>
      <trkpt lat="43.83984" lon="6.4937">
        <ele>729</ele>
        <time>2018-05-25T15:56:25Z</time>
      </trkpt>
      <trkpt lat="43.83987" lon="6.4938">
        <ele>728</ele>
        <time>2018-05-25T15:56:26Z</time>
      </trkpt>
      <trkpt lat="43.83991" lon="6.49389">
        <ele>727</ele>
        <time>2018-05-25T15:56:27Z</time>
      </trkpt>
      <trkpt lat="43.83995" lon="6.49397">
        <ele>727</ele>
        <time>2018-05-25T15:56:28Z</time>
      </trkpt>
      <trkpt lat="43.84004" lon="6.49412">
        <ele>725</ele>
        <time>2018-05-25T15:56:30Z</time>
      </trkpt>
      <trkpt lat="43.8401" lon="6.49419">
        <ele>725</ele>
        <time>2018-05-25T15:56:31Z</time>
      </trkpt>
      <trkpt lat="43.84014" lon="6.49423">
        <ele>725</ele>
        <time>2018-05-25T15:56:32Z</time>
      </trkpt>
      <trkpt lat="43.8402" lon="6.4943">
        <ele>726</ele>
        <time>2018-05-25T15:56:33Z</time>
      </trkpt>
      <trkpt lat="43.84025" lon="6.49436">
        <ele>726</ele>
        <time>2018-05-25T15:56:34Z</time>
      </trkpt>
      <trkpt lat="43.84099" lon="6.49529">
        <ele>722</ele>
        <time>2018-05-25T15:56:47Z</time>
      </trkpt>
      <trkpt lat="43.84109" lon="6.49542">
        <ele>720</ele>
        <time>2018-05-25T15:56:50Z</time>
      </trkpt>
      <trkpt lat="43.84111" lon="6.49547">
        <ele>719</ele>
        <time>2018-05-25T15:56:51Z</time>
      </trkpt>
      <trkpt lat="43.84115" lon="6.49554">
        <ele>719</ele>
        <time>2018-05-25T15:56:52Z</time>
      </trkpt>
      <trkpt lat="43.84119" lon="6.4956">
        <ele>718</ele>
        <time>2018-05-25T15:56:53Z</time>
      </trkpt>
      <trkpt lat="43.84122" lon="6.49563">
        <ele>718</ele>
        <time>2018-05-25T15:56:54Z</time>
      </trkpt>
      <trkpt lat="43.84126" lon="6.49568">
        <ele>718</ele>
        <time>2018-05-25T15:56:55Z</time>
      </trkpt>
      <trkpt lat="43.84175" lon="6.49625">
        <ele>717</ele>
        <time>2018-05-25T15:57:10Z</time>
      </trkpt>
      <trkpt lat="43.84176" lon="6.49628">
        <ele>717</ele>
        <time>2018-05-25T15:57:11Z</time>
      </trkpt>
      <trkpt lat="43.84175" lon="6.49631">
        <ele>717</ele>
        <time>2018-05-25T15:57:12Z</time>
      </trkpt>
      <trkpt lat="43.84172" lon="6.49633">
        <ele>716</ele>
        <time>2018-05-25T15:57:14Z</time>
      </trkpt>
      <trkpt lat="43.84168" lon="6.49632">
        <ele>716</ele>
        <time>2018-05-25T15:57:15Z</time>
      </trkpt>
      <trkpt lat="43.84165" lon="6.49631">
        <ele>715</ele>
        <time>2018-05-25T15:57:16Z</time>
      </trkpt>
      <trkpt lat="43.84161" lon="6.49629">
        <ele>715</ele>
        <time>2018-05-25T15:57:17Z</time>
      </trkpt>
      <trkpt lat="43.84153" lon="6.49628">
        <ele>714</ele>
        <time>2018-05-25T15:57:19Z</time>
      </trkpt>
      <trkpt lat="43.84149" lon="6.49628">
        <ele>714</ele>
        <time>2018-05-25T15:57:20Z</time>
      </trkpt>
      <trkpt lat="43.84144" lon="6.49631">
        <ele>713</ele>
        <time>2018-05-25T15:57:21Z</time>
      </trkpt>
      <trkpt lat="43.84125" lon="6.49641">
        <ele>714</ele>
        <time>2018-05-25T15:57:27Z</time>
      </trkpt>
      <trkpt lat="43.84123" lon="6.49642">
        <ele>714</ele>
        <time>2018-05-25T15:57:28Z</time>
      </trkpt>
      <trkpt lat="43.84115" lon="6.49645">
        <ele>714</ele>
        <time>2018-05-25T15:57:32Z</time>
      </trkpt>
      <trkpt lat="43.84113" lon="6.49646">
        <ele>714</ele>
        <time>2018-05-25T15:57:33Z</time>
      </trkpt>
      <trkpt lat="43.84113" lon="6.49647">
        <ele>714</ele>
        <time>2018-05-25T15:57:34Z</time>
      </trkpt>
      <trkpt lat="43.84115" lon="6.49648">
        <ele>714</ele>
        <time>2018-05-25T15:57:35Z</time>
      </trkpt>
      <trkpt lat="43.84116" lon="6.49647">
        <ele>714</ele>
        <time>2018-05-25T15:57:36Z</time>
      </trkpt>
      <trkpt lat="43.8412" lon="6.49644">
        <ele>714</ele>
        <time>2018-05-25T15:57:38Z</time>
      </trkpt>
      <trkpt lat="43.84128" lon="6.49638">
        <ele>714</ele>
        <time>2018-05-25T15:57:41Z</time>
      </trkpt>
      <trkpt lat="43.84129" lon="6.49635">
        <ele>713</ele>
        <time>2018-05-25T15:57:42Z</time>
      </trkpt>
      <trkpt lat="43.84129" lon="6.4963">
        <ele>713</ele>
        <time>2018-05-25T15:57:43Z</time>
      </trkpt>
      <trkpt lat="43.84129" lon="6.49625">
        <ele>713</ele>
        <time>2018-05-25T15:57:44Z</time>
      </trkpt>
      <trkpt lat="43.84128" lon="6.49622">
        <ele>713</ele>
        <time>2018-05-25T15:57:45Z</time>
      </trkpt>
      <trkpt lat="43.84127" lon="6.49618">
        <ele>713</ele>
        <time>2018-05-25T15:57:46Z</time>
      </trkpt>
      <trkpt lat="43.84125" lon="6.49614">
        <ele>713</ele>
        <time>2018-05-25T15:57:47Z</time>
      </trkpt>
      <trkpt lat="43.84115" lon="6.49591">
        <ele>715</ele>
        <time>2018-05-25T15:57:54Z</time>
      </trkpt>
      <trkpt lat="43.84116" lon="6.49588">
        <ele>716</ele>
        <time>2018-05-25T15:57:55Z</time>
      </trkpt>
      <trkpt lat="43.84117" lon="6.49585">
        <ele>716</ele>
        <time>2018-05-25T15:57:56Z</time>
      </trkpt>
      <trkpt lat="43.84118" lon="6.49583">
        <ele>716</ele>
        <time>2018-05-25T15:57:57Z</time>
      </trkpt>
      <trkpt lat="43.84118" lon="6.49581">
        <ele>716</ele>
        <time>2018-05-25T15:57:58Z</time>
      </trkpt>
      <trkpt lat="43.84116" lon="6.49581">
        <ele>716</ele>
        <time>2018-05-25T15:58:03Z</time>
      </trkpt>
      <trkpt lat="43.84116" lon="6.49583">
        <ele>716</ele>
        <time>2018-05-25T15:58:04Z</time>
      </trkpt>
      <trkpt lat="43.84117" lon="6.49585">
        <ele>716</ele>
        <time>2018-05-25T15:58:05Z</time>
      </trkpt>
      <trkpt lat="43.84117" lon="6.49588">
        <ele>716</ele>
        <time>2018-05-25T15:58:06Z</time>
      </trkpt>
      <trkpt lat="43.84117" lon="6.49591">
        <ele>715</ele>
        <time>2018-05-25T15:58:07Z</time>
      </trkpt>
      <trkpt lat="43.84117" lon="6.49595">
        <ele>715</ele>
        <time>2018-05-25T15:58:08Z</time>
      </trkpt>
      <trkpt lat="43.84118" lon="6.49599">
        <ele>715</ele>
        <time>2018-05-25T15:58:09Z</time>
      </trkpt>
      <trkpt lat="43.84119" lon="6.49603">
        <ele>714</ele>
        <time>2018-05-25T15:58:10Z</time>
      </trkpt>
      <trkpt lat="43.84129" lon="6.49617">
        <ele>713</ele>
        <time>2018-05-25T15:58:16Z</time>
      </trkpt>
      <trkpt lat="43.8413" lon="6.4962">
        <ele>713</ele>
        <time>2018-05-25T15:58:17Z</time>
      </trkpt>
      <trkpt lat="43.8413" lon="6.49622">
        <ele>713</ele>
        <time>2018-05-25T15:58:18Z</time>
      </trkpt>
      <trkpt lat="43.84112" lon="6.49647">
        <ele>714</ele>
        <time>2018-05-25T15:58:30Z</time>
      </trkpt>
      <trkpt lat="43.84071" lon="6.49672">
        <ele>717</ele>
        <time>2018-05-25T15:58:43Z</time>
      </trkpt>
      <trkpt lat="43.84023" lon="6.49696">
        <ele>719</ele>
        <time>2018-05-25T15:58:58Z</time>
      </trkpt>
      <trkpt lat="43.84021" lon="6.49695">
        <ele>719</ele>
        <time>2018-05-25T15:58:59Z</time>
      </trkpt>
      <trkpt lat="43.8402" lon="6.49692">
        <ele>719</ele>
        <time>2018-05-25T15:59:00Z</time>
      </trkpt>
      <trkpt lat="43.84019" lon="6.49689">
        <ele>719</ele>
        <time>2018-05-25T15:59:01Z</time>
      </trkpt>
      <trkpt lat="43.84018" lon="6.49685">
        <ele>719</ele>
        <time>2018-05-25T15:59:02Z</time>
      </trkpt>
      <trkpt lat="43.84016" lon="6.49681">
        <ele>719</ele>
        <time>2018-05-25T15:59:03Z</time>
      </trkpt>
      <trkpt lat="43.84015" lon="6.49678">
        <ele>719</ele>
        <time>2018-05-25T15:59:04Z</time>
      </trkpt>
      <trkpt lat="43.84001" lon="6.49645">
        <ele>719</ele>
        <time>2018-05-25T15:59:12Z</time>
      </trkpt>
      <trkpt lat="43.83972" lon="6.49574">
        <ele>719</ele>
        <time>2018-05-25T15:59:27Z</time>
      </trkpt>
      <trkpt lat="43.83968" lon="6.49562">
        <ele>718</ele>
        <time>2018-05-25T15:59:30Z</time>
      </trkpt>
      <trkpt lat="43.83976" lon="6.49549">
        <ele>718</ele>
        <time>2018-05-25T15:59:37Z</time>
      </trkpt>
      <trkpt lat="43.83973" lon="6.49548">
        <ele>718</ele>
        <time>2018-05-25T15:59:38Z</time>
      </trkpt>
      <trkpt lat="43.8397" lon="6.49544">
        <ele>718</ele>
        <time>2018-05-25T15:59:39Z</time>
      </trkpt>
      <trkpt lat="43.83968" lon="6.49542">
        <ele>718</ele>
        <time>2018-05-25T15:59:40Z</time>
      </trkpt>
      <trkpt lat="43.83965" lon="6.49538">
        <ele>718</ele>
        <time>2018-05-25T15:59:41Z</time>
      </trkpt>
      <trkpt lat="43.83964" lon="6.49535">
        <ele>718</ele>
        <time>2018-05-25T15:59:42Z</time>
      </trkpt>
      <trkpt lat="43.83962" lon="6.4953">
        <ele>718</ele>
        <time>2018-05-25T15:59:43Z</time>
      </trkpt>
      <trkpt lat="43.83961" lon="6.49526">
        <ele>718</ele>
        <time>2018-05-25T15:59:44Z</time>
      </trkpt>
      <trkpt lat="43.8396" lon="6.49521">
        <ele>718</ele>
        <time>2018-05-25T15:59:45Z</time>
      </trkpt>
      <trkpt lat="43.83959" lon="6.49517">
        <ele>718</ele>
        <time>2018-05-25T15:59:46Z</time>
      </trkpt>
      <trkpt lat="43.83959" lon="6.49513">
        <ele>718</ele>
        <time>2018-05-25T15:59:47Z</time>
      </trkpt>
      <trkpt lat="43.83959" lon="6.49507">
        <ele>718</ele>
        <time>2018-05-25T15:59:48Z</time>
      </trkpt>
      <trkpt lat="43.83958" lon="6.49502">
        <ele>717</ele>
        <time>2018-05-25T15:59:49Z</time>
      </trkpt>
      <trkpt lat="43.83957" lon="6.49498">
        <ele>717</ele>
        <time>2018-05-25T15:59:50Z</time>
      </trkpt>
      <trkpt lat="43.83957" lon="6.49493">
        <ele>717</ele>
        <time>2018-05-25T15:59:51Z</time>
      </trkpt>
      <trkpt lat="43.83956" lon="6.49489">
        <ele>717</ele>
        <time>2018-05-25T15:59:52Z</time>
      </trkpt>
      <trkpt lat="43.83954" lon="6.49476">
        <ele>717</ele>
        <time>2018-05-25T15:59:56Z</time>
      </trkpt>
      <trkpt lat="43.83954" lon="6.49473">
        <ele>717</ele>
        <time>2018-05-25T15:59:57Z</time>
      </trkpt>
      <trkpt lat="43.83953" lon="6.4947">
        <ele>717</ele>
        <time>2018-05-25T15:59:58Z</time>
      </trkpt>
      <trkpt lat="43.83953" lon="6.49467">
        <ele>717</ele>
        <time>2018-05-25T15:59:59Z</time>
      </trkpt>
      <trkpt lat="43.83951" lon="6.49464">
        <ele>717</ele>
        <time>2018-05-25T16:00:00Z</time>
      </trkpt>
      <trkpt lat="43.83949" lon="6.49461">
        <ele>717</ele>
        <time>2018-05-25T16:00:01Z</time>
      </trkpt>
      <trkpt lat="43.83947" lon="6.4946">
        <ele>717</ele>
        <time>2018-05-25T16:00:02Z</time>
      </trkpt>
      <trkpt lat="43.83944" lon="6.49458">
        <ele>717</ele>
        <time>2018-05-25T16:00:03Z</time>
      </trkpt>
      <trkpt lat="43.8394" lon="6.49457">
        <ele>717</ele>
        <time>2018-05-25T16:00:04Z</time>
      </trkpt>
      <trkpt lat="43.83936" lon="6.49456">
        <ele>717</ele>
        <time>2018-05-25T16:00:05Z</time>
      </trkpt>
      <trkpt lat="43.83931" lon="6.49456">
        <ele>717</ele>
        <time>2018-05-25T16:00:06Z</time>
      </trkpt>
      <trkpt lat="43.83864" lon="6.49452">
        <ele>717</ele>
        <time>2018-05-25T16:00:20Z</time>
      </trkpt>
      <trkpt lat="43.83859" lon="6.49451">
        <ele>717</ele>
        <time>2018-05-25T16:00:21Z</time>
      </trkpt>
      <trkpt lat="43.83854" lon="6.4945">
        <ele>717</ele>
        <time>2018-05-25T16:00:22Z</time>
      </trkpt>
      <trkpt lat="43.83849" lon="6.4945">
        <ele>717</ele>
        <time>2018-05-25T16:00:23Z</time>
      </trkpt>
      <trkpt lat="43.83845" lon="6.4945">
        <ele>717</ele>
        <time>2018-05-25T16:00:24Z</time>
      </trkpt>
      <trkpt lat="43.83839" lon="6.4945">
        <ele>717</ele>
        <time>2018-05-25T16:00:25Z</time>
      </trkpt>
      <trkpt lat="43.83834" lon="6.49451">
        <ele>717</ele>
        <time>2018-05-25T16:00:26Z</time>
      </trkpt>
      <trkpt lat="43.83829" lon="6.49453">
        <ele>717</ele>
        <time>2018-05-25T16:00:27Z</time>
      </trkpt>
      <trkpt lat="43.83825" lon="6.49456">
        <ele>716</ele>
        <time>2018-05-25T16:00:28Z</time>
      </trkpt>
      <trkpt lat="43.83815" lon="6.49462">
        <ele>716</ele>
        <time>2018-05-25T16:00:30Z</time>
      </trkpt>
      <trkpt lat="43.83811" lon="6.49463">
        <ele>715</ele>
        <time>2018-05-25T16:00:31Z</time>
      </trkpt>
      <trkpt lat="43.83806" lon="6.49464">
        <ele>715</ele>
        <time>2018-05-25T16:00:32Z</time>
      </trkpt>
      <trkpt lat="43.83801" lon="6.49464">
        <ele>715</ele>
        <time>2018-05-25T16:00:33Z</time>
      </trkpt>
      <trkpt lat="43.83797" lon="6.49465">
        <ele>715</ele>
        <time>2018-05-25T16:00:34Z</time>
      </trkpt>
      <trkpt lat="43.83784" lon="6.49468">
        <ele>715</ele>
        <time>2018-05-25T16:00:37Z</time>
      </trkpt>
      <trkpt lat="43.83781" lon="6.4947">
        <ele>715</ele>
        <time>2018-05-25T16:00:38Z</time>
      </trkpt>
      <trkpt lat="43.83778" lon="6.49474">
        <ele>715</ele>
        <time>2018-05-25T16:00:39Z</time>
      </trkpt>
      <trkpt lat="43.83776" lon="6.49479">
        <ele>715</ele>
        <time>2018-05-25T16:00:40Z</time>
      </trkpt>
      <trkpt lat="43.83773" lon="6.49517">
        <ele>716</ele>
        <time>2018-05-25T16:00:49Z</time>
      </trkpt>
      <trkpt lat="43.83779" lon="6.49577">
        <ele>719</ele>
        <time>2018-05-25T16:01:02Z</time>
      </trkpt>
      <trkpt lat="43.83777" lon="6.4958">
        <ele>719</ele>
        <time>2018-05-25T16:01:03Z</time>
      </trkpt>
      <trkpt lat="43.83775" lon="6.49582">
        <ele>719</ele>
        <time>2018-05-25T16:01:04Z</time>
      </trkpt>
      <trkpt lat="43.83772" lon="6.49583">
        <ele>719</ele>
        <time>2018-05-25T16:01:05Z</time>
      </trkpt>
      <trkpt lat="43.8377" lon="6.49582">
        <ele>719</ele>
        <time>2018-05-25T16:01:06Z</time>
      </trkpt>
      <trkpt lat="43.83768" lon="6.4958">
        <ele>719</ele>
        <time>2018-05-25T16:01:08Z</time>
      </trkpt>
      <trkpt lat="43.83768" lon="6.49577">
        <ele>719</ele>
        <time>2018-05-25T16:01:09Z</time>
      </trkpt>
      <trkpt lat="43.83765" lon="6.49572">
        <ele>719</ele>
        <time>2018-05-25T16:01:19Z</time>
      </trkpt>
    </trkseg>
  </trk>
</gpx>